<?xml version='1.0' encoding='UTF-8'?><gpx version="1.1" creator="JPX - https://github.com/jenetics/jpx" xmlns="http://www.topografix.com/GPX/1/1"><trk><trkseg><trkpt lat="46.026199327589474" lon="11.903573336816942"><ele>281.0</ele><time>2026-04-24T15:34:23.003Z</time></trkpt><trkpt lat="46.02615421066403" lon="11.903677185209933"><ele>281.0</ele><time>2026-04-24T15:34:31.002Z</time></trkpt><trkpt lat="46.0260942806683" lon="11.903850291038458"><ele>281.0</ele><time>2026-04-24T15:34:33.001Z</time></trkpt><trkpt lat="46.02604935449922" lon="11.90395825068538"><ele>281.0</ele><time>2026-04-24T15:34:34.001Z</time></trkpt><trkpt lat="46.02599758342217" lon="11.904068001030428"><ele>281.0</ele><time>2026-04-24T15:34:36.001Z</time></trkpt><trkpt lat="46.025946867067525" lon="11.904172443896698"><ele>281.0</ele><time>2026-04-24T15:34:40.001Z</time></trkpt><trkpt lat="46.02602290548104" lon="11.904258839035041"><ele>281.0</ele><time>2026-04-24T15:34:41Z</time></trkpt><trkpt lat="46.02607242439494" lon="11.904337858879373"><ele>281.0</ele><time>2026-04-24T15:34:43Z</time></trkpt><trkpt lat="46.02595245602183" lon="11.904531054158365"><ele>281.0</ele><time>2026-04-24T15:34:49Z</time></trkpt><trkpt lat="46.02589385956544" lon="11.904577053873577"><ele>281.0</ele><time>2026-04-24T15:34:50Z</time></trkpt><trkpt lat="46.025810915954985" lon="11.904637724800105"><ele>281.8</ele><time>2026-04-24T15:34:53Z</time></trkpt><trkpt lat="46.02575197702884" lon="11.904673499266108"><ele>282.6</ele><time>2026-04-24T15:34:55Z</time></trkpt><trkpt lat="46.025643059880714" lon="11.904513918870501"><ele>283.4</ele><time>2026-04-24T15:34:56Z</time></trkpt><trkpt lat="46.02558699171432" lon="11.904456430808342"><ele>284.2</ele><time>2026-04-24T15:34:57Z</time></trkpt><trkpt lat="46.02552440966333" lon="11.904413072808412"><ele>285.0</ele><time>2026-04-24T15:34:59Z</time></trkpt><trkpt lat="46.02542305856664" lon="11.904365826227659"><ele>285.0</ele><time>2026-04-24T15:35:03.999Z</time></trkpt><trkpt lat="46.02535139195417" lon="11.904356740085984"><ele>285.0</ele><time>2026-04-24T15:35:04.999Z</time></trkpt><trkpt lat="46.025266676495015" lon="11.904368859696271"><ele>285.0</ele><time>2026-04-24T15:35:05.999Z</time></trkpt><trkpt lat="46.025176276134914" lon="11.904378814777628"><ele>285.0</ele><time>2026-04-24T15:35:06.999Z</time></trkpt><trkpt lat="46.02507358781279" lon="11.904379089717745"><ele>285.0</ele><time>2026-04-24T15:35:07.999Z</time></trkpt><trkpt lat="46.02493960444418" lon="11.904426524471658"><ele>284.5</ele><time>2026-04-24T15:35:08.999Z</time></trkpt><trkpt lat="46.02480166922191" lon="11.904477182416851"><ele>284.0</ele><time>2026-04-24T15:35:09.999Z</time></trkpt><trkpt lat="46.02466222032795" lon="11.90452456430392"><ele>283.5</ele><time>2026-04-24T15:35:10.999Z</time></trkpt><trkpt lat="46.0245020448549" lon="11.904561765416716"><ele>283.0</ele><time>2026-04-24T15:35:11.999Z</time></trkpt><trkpt lat="46.02435852091412" lon="11.904614373032183"><ele>283.0</ele><time>2026-04-24T15:35:12.999Z</time></trkpt><trkpt lat="46.02418926900428" lon="11.90465900026637"><ele>283.0</ele><time>2026-04-24T15:35:13.999Z</time></trkpt><trkpt lat="46.02405812494893" lon="11.904702864564122"><ele>283.0</ele><time>2026-04-24T15:35:14.999Z</time></trkpt><trkpt lat="46.02393133636686" lon="11.904740474477704"><ele>283.0</ele><time>2026-04-24T15:35:15.999Z</time></trkpt><trkpt lat="46.023814104085005" lon="11.904781211505291"><ele>282.2</ele><time>2026-04-24T15:35:16.999Z</time></trkpt><trkpt lat="46.02369458036117" lon="11.904810831335025"><ele>281.4</ele><time>2026-04-24T15:35:17.999Z</time></trkpt><trkpt lat="46.023583147040874" lon="11.9048383910378"><ele>280.59999999999997</ele><time>2026-04-24T15:35:18.999Z</time></trkpt><trkpt lat="46.02349219750123" lon="11.90487083372017"><ele>279.8</ele><time>2026-04-24T15:35:19.999Z</time></trkpt><trkpt lat="46.02339175246198" lon="11.904896494026286"><ele>279.0</ele><time>2026-04-24T15:35:20.999Z</time></trkpt><trkpt lat="46.02329676673567" lon="11.904923385621775"><ele>279.0</ele><time>2026-04-24T15:35:21.999Z</time></trkpt><trkpt lat="46.023201227849476" lon="11.904951977346904"><ele>279.0</ele><time>2026-04-24T15:35:22.999Z</time></trkpt><trkpt lat="46.02310171961803" lon="11.904985541967921"><ele>279.0</ele><time>2026-04-24T15:35:23.999Z</time></trkpt><trkpt lat="46.02301722259588" lon="11.905011866567873"><ele>279.0</ele><time>2026-04-24T15:35:24.999Z</time></trkpt><trkpt lat="46.02293435136215" lon="11.90503569653494"><ele>279.0</ele><time>2026-04-24T15:35:25.999Z</time></trkpt><trkpt lat="46.022856516158946" lon="11.905053316691992"><ele>279.0</ele><time>2026-04-24T15:35:26.999Z</time></trkpt><trkpt lat="46.022769515986326" lon="11.905048886997214"><ele>279.0</ele><time>2026-04-24T15:35:27.999Z</time></trkpt><trkpt lat="46.0226759549923" lon="11.905003845262975"><ele>279.0</ele><time>2026-04-24T15:35:28.999Z</time></trkpt><trkpt lat="46.02259424178708" lon="11.904930941394287"><ele>279.0</ele><time>2026-04-24T15:35:29.999Z</time></trkpt><trkpt lat="46.022525735907436" lon="11.904866169290164"><ele>279.0</ele><time>2026-04-24T15:35:30.999Z</time></trkpt><trkpt lat="46.02243924014433" lon="11.904841442058684"><ele>278.0</ele><time>2026-04-24T15:35:31.999Z</time></trkpt><trkpt lat="46.02235010587511" lon="11.904852565101889"><ele>277.0</ele><time>2026-04-24T15:35:32.999Z</time></trkpt><trkpt lat="46.02221814048783" lon="11.904893864061764"><ele>276.0</ele><time>2026-04-24T15:35:33.999Z</time></trkpt><trkpt lat="46.02208876502705" lon="11.904953193581601"><ele>275.0</ele><time>2026-04-24T15:35:34.999Z</time></trkpt><trkpt lat="46.02200954521218" lon="11.90497643047876"><ele>274.0</ele><time>2026-04-24T15:35:35.999Z</time></trkpt><trkpt lat="46.02194255697701" lon="11.904989572827038"><ele>274.0</ele><time>2026-04-24T15:35:36.999Z</time></trkpt><trkpt lat="46.02187222111608" lon="11.905028051457096"><ele>274.0</ele><time>2026-04-24T15:35:37.999Z</time></trkpt><trkpt lat="46.021805938272884" lon="11.905030821069925"><ele>274.0</ele><time>2026-04-24T15:35:38.999Z</time></trkpt><trkpt lat="46.02171271039457" lon="11.905015843906375"><ele>274.0</ele><time>2026-04-24T15:35:41.999Z</time></trkpt><trkpt lat="46.0216020871844" lon="11.904968488817627"><ele>274.0</ele><time>2026-04-24T15:35:43.999Z</time></trkpt><trkpt lat="46.02149870983374" lon="11.90500604225729"><ele>274.0</ele><time>2026-04-24T15:35:45.999Z</time></trkpt><trkpt lat="46.021494117548535" lon="11.905140651569884"><ele>274.0</ele><time>2026-04-24T15:35:47.999Z</time></trkpt><trkpt lat="46.02151672903623" lon="11.905229066187593"><ele>274.0</ele><time>2026-04-24T15:35:48.999Z</time></trkpt><trkpt lat="46.02153795364467" lon="11.905346081327528"><ele>274.0</ele><time>2026-04-24T15:35:49.999Z</time></trkpt><trkpt lat="46.02154857395617" lon="11.905465477044055"><ele>274.0</ele><time>2026-04-24T15:35:50.999Z</time></trkpt><trkpt lat="46.02155483589894" lon="11.905581301293038"><ele>274.0</ele><time>2026-04-24T15:35:51.999Z</time></trkpt><trkpt lat="46.02155788212983" lon="11.905688272685758"><ele>274.0</ele><time>2026-04-24T15:35:52.999Z</time></trkpt><trkpt lat="46.021567508656716" lon="11.905823020358403"><ele>274.0</ele><time>2026-04-24T15:35:53.999Z</time></trkpt><trkpt lat="46.02157986783362" lon="11.905984445478001"><ele>274.0</ele><time>2026-04-24T15:35:54.999Z</time></trkpt><trkpt lat="46.021589935912814" lon="11.906197189260208"><ele>274.0</ele><time>2026-04-24T15:35:55.999Z</time></trkpt><trkpt lat="46.02160243254517" lon="11.906388760472073"><ele>273.75</ele><time>2026-04-24T15:35:56.999Z</time></trkpt><trkpt lat="46.02161654750373" lon="11.906546446711364"><ele>273.5</ele><time>2026-04-24T15:35:57.999Z</time></trkpt><trkpt lat="46.02163907290373" lon="11.906724930230991"><ele>273.25</ele><time>2026-04-24T15:35:58.999Z</time></trkpt><trkpt lat="46.02166549436974" lon="11.906909310001717"><ele>273.0</ele><time>2026-04-24T15:35:59.999Z</time></trkpt><trkpt lat="46.02168962336724" lon="11.907071899450662"><ele>273.0</ele><time>2026-04-24T15:36:00.999Z</time></trkpt><trkpt lat="46.02171637703006" lon="11.907211232448883"><ele>273.0</ele><time>2026-04-24T15:36:01.999Z</time></trkpt><trkpt lat="46.02174431749911" lon="11.907363447644661"><ele>273.0</ele><time>2026-04-24T15:36:02.999Z</time></trkpt><trkpt lat="46.02177712747342" lon="11.907528940696892"><ele>273.0</ele><time>2026-04-24T15:36:03.999Z</time></trkpt><trkpt lat="46.02180730330812" lon="11.907666542097122"><ele>273.0</ele><time>2026-04-24T15:36:04.999Z</time></trkpt><trkpt lat="46.02184360251449" lon="11.907811206016465"><ele>273.0</ele><time>2026-04-24T15:36:05.999Z</time></trkpt><trkpt lat="46.02187261132987" lon="11.907939377722963"><ele>273.0</ele><time>2026-04-24T15:36:06.999Z</time></trkpt><trkpt lat="46.02190717896415" lon="11.908084530684274"><ele>273.0</ele><time>2026-04-24T15:36:07.999Z</time></trkpt><trkpt lat="46.02194461477576" lon="11.908247560729281"><ele>273.0</ele><time>2026-04-24T15:36:08.999Z</time></trkpt><trkpt lat="46.02197934928776" lon="11.908402899763157"><ele>273.0</ele><time>2026-04-24T15:36:09.999Z</time></trkpt><trkpt lat="46.02201864882095" lon="11.908569603170937"><ele>273.25</ele><time>2026-04-24T15:36:10.999Z</time></trkpt><trkpt lat="46.02205498386359" lon="11.908725332644078"><ele>273.5</ele><time>2026-04-24T15:36:12Z</time></trkpt><trkpt lat="46.02208339371668" lon="11.908891677510917"><ele>273.75</ele><time>2026-04-24T15:36:13Z</time></trkpt><trkpt lat="46.02212120745552" lon="11.909050361982413"><ele>274.0</ele><time>2026-04-24T15:36:14Z</time></trkpt><trkpt lat="46.0221508742559" lon="11.90919207609694"><ele>274.2</ele><time>2026-04-24T15:36:15Z</time></trkpt><trkpt lat="46.022181835646386" lon="11.909334340810231"><ele>274.4</ele><time>2026-04-24T15:36:16Z</time></trkpt><trkpt lat="46.02221803445711" lon="11.909491051020758"><ele>274.6</ele><time>2026-04-24T15:36:17Z</time></trkpt><trkpt lat="46.022255096366315" lon="11.909644158685431"><ele>274.8</ele><time>2026-04-24T15:36:18Z</time></trkpt><trkpt lat="46.02228539671042" lon="11.90977480991919"><ele>275.0</ele><time>2026-04-24T15:36:19Z</time></trkpt><trkpt lat="46.022313121000266" lon="11.909911303320882"><ele>275.0</ele><time>2026-04-24T15:36:20Z</time></trkpt><trkpt lat="46.02234547911071" lon="11.910040291332358"><ele>275.0</ele><time>2026-04-24T15:36:21Z</time></trkpt><trkpt lat="46.02236994285909" lon="11.910156953013681"><ele>275.0</ele><time>2026-04-24T15:36:22Z</time></trkpt><trkpt lat="46.02239031788931" lon="11.910255042528567"><ele>275.0</ele><time>2026-04-24T15:36:23Z</time></trkpt><trkpt lat="46.02241043667269" lon="11.910349572781078"><ele>275.0</ele><time>2026-04-24T15:36:24Z</time></trkpt><trkpt lat="46.0224331207564" lon="11.91045465545147"><ele>275.0</ele><time>2026-04-24T15:36:25Z</time></trkpt><trkpt lat="46.02246031983859" lon="11.910589824324521"><ele>275.1666666666667</ele><time>2026-04-24T15:36:26Z</time></trkpt><trkpt lat="46.022479307612755" lon="11.910706870539304"><ele>275.33333333333337</ele><time>2026-04-24T15:36:27Z</time></trkpt><trkpt lat="46.02249740520565" lon="11.91081702660295"><ele>275.5</ele><time>2026-04-24T15:36:28Z</time></trkpt><trkpt lat="46.02251277946562" lon="11.910933627634215"><ele>275.6666666666667</ele><time>2026-04-24T15:36:29Z</time></trkpt><trkpt lat="46.022531712997576" lon="11.911066514959336"><ele>275.8333333333333</ele><time>2026-04-24T15:36:30Z</time></trkpt><trkpt lat="46.022546946637824" lon="11.911206401334947"><ele>276.0</ele><time>2026-04-24T15:36:31Z</time></trkpt><trkpt lat="46.022558818611635" lon="11.911322936687725"><ele>276.1666666666667</ele><time>2026-04-24T15:36:32Z</time></trkpt><trkpt lat="46.022569812411334" lon="11.911426096422398"><ele>276.3333333333333</ele><time>2026-04-24T15:36:33Z</time></trkpt><trkpt lat="46.02257784611388" lon="11.91152358295111"><ele>276.5</ele><time>2026-04-24T15:36:34Z</time></trkpt><trkpt lat="46.02259226598356" lon="11.91163697942872"><ele>276.66666666666663</ele><time>2026-04-24T15:36:35Z</time></trkpt><trkpt lat="46.02258516975904" lon="11.911788158008003"><ele>276.8333333333333</ele><time>2026-04-24T15:36:36Z</time></trkpt><trkpt lat="46.022605799454944" lon="11.91189472633405"><ele>277.0</ele><time>2026-04-24T15:36:37Z</time></trkpt><trkpt lat="46.02260579532219" lon="11.91205202129616"><ele>277.0</ele><time>2026-04-24T15:36:39Z</time></trkpt><trkpt lat="46.02259212260854" lon="11.912149682092455"><ele>277.0</ele><time>2026-04-24T15:36:40Z</time></trkpt><trkpt lat="46.022576821012194" lon="11.912238587823941"><ele>277.0</ele><time>2026-04-24T15:36:41Z</time></trkpt><trkpt lat="46.022544419275484" lon="11.912374682654113"><ele>277.0</ele><time>2026-04-24T15:36:43Z</time></trkpt><trkpt lat="46.02254502065904" lon="11.91254258708432"><ele>277.0</ele><time>2026-04-24T15:36:45Z</time></trkpt><trkpt lat="46.02259516148297" lon="11.912686836006912"><ele>276.66666666666663</ele><time>2026-04-24T15:36:47Z</time></trkpt><trkpt lat="46.022616966546835" lon="11.912772760513697"><ele>276.3333333333333</ele><time>2026-04-24T15:36:48Z</time></trkpt><trkpt lat="46.02263517704139" lon="11.912874950684573"><ele>276.0</ele><time>2026-04-24T15:36:49Z</time></trkpt><trkpt lat="46.022645871822895" lon="11.912976121219955"><ele>275.6666666666667</ele><time>2026-04-24T15:36:50Z</time></trkpt><trkpt lat="46.022655599607354" lon="11.91309865728282"><ele>275.33333333333337</ele><time>2026-04-24T15:36:51Z</time></trkpt><trkpt lat="46.02265571982142" lon="11.91321198602288"><ele>275.0</ele><time>2026-04-24T15:36:52Z</time></trkpt><trkpt lat="46.02265898592298" lon="11.913337233560723"><ele>275.0</ele><time>2026-04-24T15:36:53Z</time></trkpt><trkpt lat="46.02266689370453" lon="11.913462931774085"><ele>275.0</ele><time>2026-04-24T15:36:54Z</time></trkpt><trkpt lat="46.02267593468212" lon="11.91359406180687"><ele>275.0</ele><time>2026-04-24T15:36:55Z</time></trkpt><trkpt lat="46.02268240309993" lon="11.913728570893257"><ele>275.0</ele><time>2026-04-24T15:36:56Z</time></trkpt><trkpt lat="46.02268707614329" lon="11.913853368653893"><ele>275.0</ele><time>2026-04-24T15:36:57Z</time></trkpt><trkpt lat="46.02269297631014" lon="11.91398375473388"><ele>275.0</ele><time>2026-04-24T15:36:58Z</time></trkpt><trkpt lat="46.02269865449819" lon="11.914103625755848"><ele>275.0</ele><time>2026-04-24T15:36:59Z</time></trkpt><trkpt lat="46.02270173585453" lon="11.914225949953732"><ele>275.0</ele><time>2026-04-24T15:37:00Z</time></trkpt><trkpt lat="46.022701365747956" lon="11.914330533440939"><ele>275.0</ele><time>2026-04-24T15:37:01Z</time></trkpt><trkpt lat="46.02270739733524" lon="11.914425100598665"><ele>275.0</ele><time>2026-04-24T15:37:02Z</time></trkpt><trkpt lat="46.02271121117049" lon="11.914535547116193"><ele>275.0</ele><time>2026-04-24T15:37:03Z</time></trkpt><trkpt lat="46.02271776711248" lon="11.914639022206064"><ele>275.0</ele><time>2026-04-24T15:37:04Z</time></trkpt><trkpt lat="46.02272583631993" lon="11.914752002340327"><ele>275.0</ele><time>2026-04-24T15:37:05Z</time></trkpt><trkpt lat="46.02273723978421" lon="11.914881167043324"><ele>275.0</ele><time>2026-04-24T15:37:06Z</time></trkpt><trkpt lat="46.0227441321719" lon="11.91504508853211"><ele>275.0</ele><time>2026-04-24T15:37:07Z</time></trkpt><trkpt lat="46.022750107259675" lon="11.91523993071094"><ele>275.0</ele><time>2026-04-24T15:37:08Z</time></trkpt><trkpt lat="46.02276623059888" lon="11.915504519319288"><ele>275.75</ele><time>2026-04-24T15:37:09Z</time></trkpt><trkpt lat="46.02277279980877" lon="11.915688429106444"><ele>276.5</ele><time>2026-04-24T15:37:10Z</time></trkpt><trkpt lat="46.02277719296497" lon="11.915840317337986"><ele>277.25</ele><time>2026-04-24T15:37:11Z</time></trkpt><trkpt lat="46.022781377027854" lon="11.915989939229526"><ele>278.0</ele><time>2026-04-24T15:37:12Z</time></trkpt><trkpt lat="46.022787119068845" lon="11.916159538036503"><ele>279.25</ele><time>2026-04-24T15:37:13Z</time></trkpt><trkpt lat="46.02278805273112" lon="11.916300637440484"><ele>280.5</ele><time>2026-04-24T15:37:14Z</time></trkpt><trkpt lat="46.02279784107236" lon="11.91645745202549"><ele>281.75</ele><time>2026-04-24T15:37:15Z</time></trkpt><trkpt lat="46.022808110122355" lon="11.916633360642344"><ele>283.0</ele><time>2026-04-24T15:37:16Z</time></trkpt><trkpt lat="46.022814375996795" lon="11.916815886143338"><ele>283.75</ele><time>2026-04-24T15:37:17Z</time></trkpt><trkpt lat="46.02282252801217" lon="11.917030133223669"><ele>284.5</ele><time>2026-04-24T15:37:18Z</time></trkpt><trkpt lat="46.02283081997571" lon="11.91722657969383"><ele>285.25</ele><time>2026-04-24T15:37:19Z</time></trkpt><trkpt lat="46.02284184806785" lon="11.917391400318168"><ele>286.0</ele><time>2026-04-24T15:37:20Z</time></trkpt><trkpt lat="46.02284300645307" lon="11.917503802648271"><ele>286.16666666666663</ele><time>2026-04-24T15:37:21Z</time></trkpt><trkpt lat="46.02284928226704" lon="11.917637331395921"><ele>286.3333333333333</ele><time>2026-04-24T15:37:22Z</time></trkpt><trkpt lat="46.022851183089585" lon="11.917761558907586"><ele>286.5</ele><time>2026-04-24T15:37:23Z</time></trkpt><trkpt lat="46.022859283525165" lon="11.91789485725882"><ele>286.6666666666667</ele><time>2026-04-24T15:37:24Z</time></trkpt><trkpt lat="46.02286512124697" lon="11.918003513699087"><ele>286.83333333333337</ele><time>2026-04-24T15:37:25Z</time></trkpt><trkpt lat="46.02287604627041" lon="11.918118693714792"><ele>287.0</ele><time>2026-04-24T15:37:26Z</time></trkpt><trkpt lat="46.02288360696845" lon="11.918306877668137"><ele>287.6666666666667</ele><time>2026-04-24T15:37:28Z</time></trkpt><trkpt lat="46.02288731759365" lon="11.918415456455135"><ele>288.33333333333337</ele><time>2026-04-24T15:37:29Z</time></trkpt><trkpt lat="46.02289083275483" lon="11.918507263602104"><ele>289.0</ele><time>2026-04-24T15:37:30Z</time></trkpt><trkpt lat="46.022895129452095" lon="11.918642028206396"><ele>289.6666666666667</ele><time>2026-04-24T15:37:32Z</time></trkpt><trkpt lat="46.022896217782446" lon="11.918743586693521"><ele>290.3333333333333</ele><time>2026-04-24T15:37:34Z</time></trkpt><trkpt lat="46.02290340673399" lon="11.918850340920722"><ele>291.0</ele><time>2026-04-24T15:37:36.999Z</time></trkpt><trkpt lat="46.022925295315865" lon="11.919031741681119"><ele>291.0</ele><time>2026-04-24T15:37:50.999Z</time></trkpt><trkpt lat="46.02292895109806" lon="11.919135583916443"><ele>291.0</ele><time>2026-04-24T15:37:51.999Z</time></trkpt><trkpt lat="46.02293078972164" lon="11.919249088217011"><ele>291.0</ele><time>2026-04-24T15:37:53.999Z</time></trkpt><trkpt lat="46.02293512536859" lon="11.919377110000639"><ele>291.0</ele><time>2026-04-24T15:37:56.999Z</time></trkpt><trkpt lat="46.022939538731755" lon="11.919477159476594"><ele>291.0</ele><time>2026-04-24T15:38:00.999Z</time></trkpt><trkpt lat="46.02293827763902" lon="11.919626389523613"><ele>291.0</ele><time>2026-04-24T15:38:06.999Z</time></trkpt><trkpt lat="46.02294708034865" lon="11.91972434806318"><ele>291.2857142857143</ele><time>2026-04-24T15:38:09.999Z</time></trkpt><trkpt lat="46.02294975770445" lon="11.9198222034456"><ele>291.57142857142856</ele><time>2026-04-24T15:38:13Z</time></trkpt><trkpt lat="46.02295257959307" lon="11.919917471827796"><ele>291.85714285714283</ele><time>2026-04-24T15:38:17Z</time></trkpt><trkpt lat="46.02295908039035" lon="11.920032394172033"><ele>292.1428571428571</ele><time>2026-04-24T15:38:24Z</time></trkpt><trkpt lat="46.02296147998224" lon="11.920128141830155"><ele>292.42857142857144</ele><time>2026-04-24T15:38:26Z</time></trkpt><trkpt lat="46.022967010504416" lon="11.920224715098856"><ele>292.71428571428567</ele><time>2026-04-24T15:38:28Z</time></trkpt><trkpt lat="46.022973725986404" lon="11.920338904321168"><ele>293.0</ele><time>2026-04-24T15:38:30Z</time></trkpt><trkpt lat="46.02297848694674" lon="11.920457176764316"><ele>293.0</ele><time>2026-04-24T15:38:32Z</time></trkpt><trkpt lat="46.02298663566265" lon="11.920575112564975"><ele>293.0</ele><time>2026-04-24T15:38:34Z</time></trkpt><trkpt lat="46.02299212923943" lon="11.920685121215303"><ele>293.0</ele><time>2026-04-24T15:38:36Z</time></trkpt><trkpt lat="46.0229946109731" lon="11.920792205304869"><ele>293.0</ele><time>2026-04-24T15:38:39Z</time></trkpt><trkpt lat="46.02297068855789" lon="11.920916578242863"><ele>293.0</ele><time>2026-04-24T15:38:44Z</time></trkpt><trkpt lat="46.02290914819982" lon="11.9210586252501"><ele>293.0</ele><time>2026-04-24T15:38:46Z</time></trkpt><trkpt lat="46.02285990989174" lon="11.921133444005276"><ele>292.6</ele><time>2026-04-24T15:38:47Z</time></trkpt><trkpt lat="46.02282091704126" lon="11.921206453969265"><ele>292.20000000000005</ele><time>2026-04-24T15:38:48Z</time></trkpt><trkpt lat="46.02274741692641" lon="11.92131652905532"><ele>291.8</ele><time>2026-04-24T15:38:50Z</time></trkpt><trkpt lat="46.022833132740324" lon="11.921496821970191"><ele>291.40000000000003</ele><time>2026-04-24T15:38:51Z</time></trkpt><trkpt lat="46.02287948526974" lon="11.921569858330637"><ele>291.0</ele><time>2026-04-24T15:38:52Z</time></trkpt><trkpt lat="46.02292533192006" lon="11.921644186755035"><ele>291.0</ele><time>2026-04-24T15:38:53Z</time></trkpt><trkpt lat="46.0229762073919" lon="11.921718078396111"><ele>291.0</ele><time>2026-04-24T15:38:54Z</time></trkpt><trkpt lat="46.02302722764887" lon="11.921797043990882"><ele>291.0</ele><time>2026-04-24T15:38:55Z</time></trkpt><trkpt lat="46.023078589618876" lon="11.921890631041492"><ele>291.0</ele><time>2026-04-24T15:38:56Z</time></trkpt><trkpt lat="46.02313336935122" lon="11.922010082385846"><ele>291.0</ele><time>2026-04-24T15:38:57Z</time></trkpt><trkpt lat="46.023205520769494" lon="11.922193699048067"><ele>291.40000000000003</ele><time>2026-04-24T15:38:58Z</time></trkpt><trkpt lat="46.02327103573729" lon="11.922378092274318"><ele>291.8</ele><time>2026-04-24T15:38:59Z</time></trkpt><trkpt lat="46.02331929088093" lon="11.922497520384214"><ele>292.20000000000005</ele><time>2026-04-24T15:39:00Z</time></trkpt><trkpt lat="46.023368804686605" lon="11.922632677311686"><ele>292.6</ele><time>2026-04-24T15:39:01Z</time></trkpt><trkpt lat="46.023405266277564" lon="11.922732435790305"><ele>293.0</ele><time>2026-04-24T15:39:02Z</time></trkpt><trkpt lat="46.023450103784214" lon="11.922860592891142"><ele>293.4</ele><time>2026-04-24T15:39:03Z</time></trkpt><trkpt lat="46.02350238147306" lon="11.92298926526233"><ele>293.8</ele><time>2026-04-24T15:39:04Z</time></trkpt><trkpt lat="46.023557450666466" lon="11.923114084048507"><ele>294.2</ele><time>2026-04-24T15:39:05Z</time></trkpt><trkpt lat="46.02361764340825" lon="11.923235099998722"><ele>294.6</ele><time>2026-04-24T15:39:06Z</time></trkpt><trkpt lat="46.02367671211623" lon="11.923384376023538"><ele>295.0</ele><time>2026-04-24T15:39:07Z</time></trkpt><trkpt lat="46.023732228449674" lon="11.923517593858218"><ele>295.4</ele><time>2026-04-24T15:39:08Z</time></trkpt><trkpt lat="46.02379296610982" lon="11.923641460782502"><ele>295.8</ele><time>2026-04-24T15:39:09Z</time></trkpt><trkpt lat="46.023859220251566" lon="11.923763115267839"><ele>296.2</ele><time>2026-04-24T15:39:10Z</time></trkpt><trkpt lat="46.02392621010448" lon="11.923884014251222"><ele>296.6</ele><time>2026-04-24T15:39:11Z</time></trkpt><trkpt lat="46.023991888612755" lon="11.92399781646095"><ele>297.0</ele><time>2026-04-24T15:39:12Z</time></trkpt><trkpt lat="46.024044575226426" lon="11.924095177130848"><ele>297.0</ele><time>2026-04-24T15:39:13Z</time></trkpt><trkpt lat="46.024096728000245" lon="11.924205784793948"><ele>297.0</ele><time>2026-04-24T15:39:14Z</time></trkpt><trkpt lat="46.02415937020913" lon="11.924314132544657"><ele>297.0</ele><time>2026-04-24T15:39:15Z</time></trkpt><trkpt lat="46.0242260981575" lon="11.924424785979546"><ele>297.0</ele><time>2026-04-24T15:39:16Z</time></trkpt><trkpt lat="46.02428889277778" lon="11.924531227115374"><ele>297.0</ele><time>2026-04-24T15:39:17Z</time></trkpt><trkpt lat="46.02435552439643" lon="11.924642818077494"><ele>297.0</ele><time>2026-04-24T15:39:18Z</time></trkpt><trkpt lat="46.02442361496188" lon="11.924764729395415"><ele>297.0</ele><time>2026-04-24T15:39:19Z</time></trkpt><trkpt lat="46.02449485919588" lon="11.92489012901904"><ele>297.0</ele><time>2026-04-24T15:39:20Z</time></trkpt><trkpt lat="46.02456379606856" lon="11.9250093666189"><ele>297.0</ele><time>2026-04-24T15:39:21Z</time></trkpt><trkpt lat="46.02462862845923" lon="11.925125238007563"><ele>297.0</ele><time>2026-04-24T15:39:22Z</time></trkpt><trkpt lat="46.02468954127529" lon="11.925233639528752"><ele>297.6</ele><time>2026-04-24T15:39:23Z</time></trkpt><trkpt lat="46.02475286180284" lon="11.925353510644285"><ele>298.2</ele><time>2026-04-24T15:39:24Z</time></trkpt><trkpt lat="46.02481627751889" lon="11.925479904724448"><ele>298.8</ele><time>2026-04-24T15:39:25Z</time></trkpt><trkpt lat="46.024874325359576" lon="11.925606697833832"><ele>299.4</ele><time>2026-04-24T15:39:26Z</time></trkpt><trkpt lat="46.02492781984727" lon="11.92571877557869"><ele>300.0</ele><time>2026-04-24T15:39:27Z</time></trkpt><trkpt lat="46.024977749935886" lon="11.925834606016789"><ele>299.8</ele><time>2026-04-24T15:39:28Z</time></trkpt><trkpt lat="46.0250281084935" lon="11.925952859368783"><ele>299.6</ele><time>2026-04-24T15:39:29Z</time></trkpt><trkpt lat="46.025080813133506" lon="11.926070169090844"><ele>299.4</ele><time>2026-04-24T15:39:30Z</time></trkpt><trkpt lat="46.02513094189991" lon="11.92620001440252"><ele>299.2</ele><time>2026-04-24T15:39:31Z</time></trkpt><trkpt lat="46.025178394958786" lon="11.926324490225594"><ele>299.0</ele><time>2026-04-24T15:39:32Z</time></trkpt><trkpt lat="46.02522251495561" lon="11.926445739236339"><ele>299.0</ele><time>2026-04-24T15:39:33Z</time></trkpt><trkpt lat="46.025265997231564" lon="11.926557504445721"><ele>299.0</ele><time>2026-04-24T15:39:34Z</time></trkpt><trkpt lat="46.02530689365015" lon="11.926669280958812"><ele>299.0</ele><time>2026-04-24T15:39:35Z</time></trkpt><trkpt lat="46.02534684897318" lon="11.92678570478268"><ele>299.0</ele><time>2026-04-24T15:39:36Z</time></trkpt><trkpt lat="46.025392588037256" lon="11.926916959767018"><ele>299.0</ele><time>2026-04-24T15:39:37Z</time></trkpt><trkpt lat="46.025441106084315" lon="11.927063492731188"><ele>300.0</ele><time>2026-04-24T15:39:38Z</time></trkpt><trkpt lat="46.02549086904562" lon="11.9272271944457"><ele>301.0</ele><time>2026-04-24T15:39:39Z</time></trkpt><trkpt lat="46.02554255425106" lon="11.927387213701854"><ele>302.0</ele><time>2026-04-24T15:39:40Z</time></trkpt><trkpt lat="46.02559930825994" lon="11.927564526864554"><ele>303.0</ele><time>2026-04-24T15:39:41Z</time></trkpt><trkpt lat="46.025671755329995" lon="11.927787538789982"><ele>302.5</ele><time>2026-04-24T15:39:42Z</time></trkpt><trkpt lat="46.025733440377884" lon="11.92798869598355"><ele>302.0</ele><time>2026-04-24T15:39:43Z</time></trkpt><trkpt lat="46.025786732604" lon="11.928163191102545"><ele>301.5</ele><time>2026-04-24T15:39:44Z</time></trkpt><trkpt lat="46.02583648855139" lon="11.928318807224448"><ele>301.0</ele><time>2026-04-24T15:39:45Z</time></trkpt><trkpt lat="46.02588020223499" lon="11.928461283052183"><ele>301.0</ele><time>2026-04-24T15:39:46Z</time></trkpt><trkpt lat="46.02592828639254" lon="11.92863033676185"><ele>301.0</ele><time>2026-04-24T15:39:46.999Z</time></trkpt><trkpt lat="46.02597818710325" lon="11.928808803915201"><ele>301.0</ele><time>2026-04-24T15:39:47.999Z</time></trkpt><trkpt lat="46.02603377857901" lon="11.928999109680086"><ele>301.0</ele><time>2026-04-24T15:39:48.999Z</time></trkpt><trkpt lat="46.02610465512742" lon="11.92922464626025"><ele>302.75</ele><time>2026-04-24T15:39:49.999Z</time></trkpt><trkpt lat="46.02616572597868" lon="11.92943160341771"><ele>304.5</ele><time>2026-04-24T15:39:50.999Z</time></trkpt><trkpt lat="46.026217573797524" lon="11.929617333839786"><ele>306.25</ele><time>2026-04-24T15:39:51.999Z</time></trkpt><trkpt lat="46.02626397275184" lon="11.929806126060466"><ele>308.0</ele><time>2026-04-24T15:39:52.999Z</time></trkpt><trkpt lat="46.02629973085246" lon="11.929971011491451"><ele>309.25</ele><time>2026-04-24T15:39:53.999Z</time></trkpt><trkpt lat="46.0263348863694" lon="11.930126200117472"><ele>310.5</ele><time>2026-04-24T15:39:54.999Z</time></trkpt><trkpt lat="46.02637317437772" lon="11.930298451295108"><ele>311.75</ele><time>2026-04-24T15:39:55.999Z</time></trkpt><trkpt lat="46.026408866276185" lon="11.930469792063525"><ele>313.0</ele><time>2026-04-24T15:39:56.999Z</time></trkpt><trkpt lat="46.02643335619857" lon="11.93060838894598"><ele>313.0</ele><time>2026-04-24T15:39:57.999Z</time></trkpt><trkpt lat="46.026463618913056" lon="11.930765216144538"><ele>313.0</ele><time>2026-04-24T15:39:58.999Z</time></trkpt><trkpt lat="46.026489613287865" lon="11.930923341094706"><ele>313.0</ele><time>2026-04-24T15:39:59.999Z</time></trkpt><trkpt lat="46.02650984986888" lon="11.931085563044709"><ele>313.0</ele><time>2026-04-24T15:40:00.999Z</time></trkpt><trkpt lat="46.02653027214987" lon="11.931242565128365"><ele>314.25</ele><time>2026-04-24T15:40:01.999Z</time></trkpt><trkpt lat="46.02654874792454" lon="11.931396959006559"><ele>315.5</ele><time>2026-04-24T15:40:02.999Z</time></trkpt><trkpt lat="46.02656456025488" lon="11.931548617808035"><ele>316.75</ele><time>2026-04-24T15:40:03.999Z</time></trkpt><trkpt lat="46.026583413222625" lon="11.931719936592108"><ele>318.0</ele><time>2026-04-24T15:40:04.999Z</time></trkpt><trkpt lat="46.026597657132626" lon="11.931894709309654"><ele>318.3333333333333</ele><time>2026-04-24T15:40:05.999Z</time></trkpt><trkpt lat="46.02659798034255" lon="11.932100011634605"><ele>318.66666666666663</ele><time>2026-04-24T15:40:06.999Z</time></trkpt><trkpt lat="46.0266161139148" lon="11.932333730333255"><ele>319.0</ele><time>2026-04-24T15:40:07.999Z</time></trkpt><trkpt lat="46.02662671953473" lon="11.932548875570708"><ele>320.0</ele><time>2026-04-24T15:40:08.999Z</time></trkpt><trkpt lat="46.02663710813653" lon="11.932748786554448"><ele>321.0</ele><time>2026-04-24T15:40:09.999Z</time></trkpt><trkpt lat="46.02665072248424" lon="11.932957552969546"><ele>322.0</ele><time>2026-04-24T15:40:10.999Z</time></trkpt><trkpt lat="46.02666093445475" lon="11.933173188945338"><ele>323.0</ele><time>2026-04-24T15:40:11.999Z</time></trkpt><trkpt lat="46.0266728836835" lon="11.933395339271737"><ele>317.33333333333337</ele><time>2026-04-24T15:40:12.999Z</time></trkpt><trkpt lat="46.026685715755264" lon="11.933626266064428"><ele>311.6666666666667</ele><time>2026-04-24T15:40:13.999Z</time></trkpt><trkpt lat="46.02669804070524" lon="11.933861340573003"><ele>306.0</ele><time>2026-04-24T15:40:14.999Z</time></trkpt><trkpt lat="46.02671140220932" lon="11.934074815266795"><ele>306.5</ele><time>2026-04-24T15:40:15.999Z</time></trkpt><trkpt lat="46.026723219868074" lon="11.934263091162926"><ele>307.0</ele><time>2026-04-24T15:40:16.999Z</time></trkpt><trkpt lat="46.02674535580636" lon="11.934454324703243"><ele>307.5</ele><time>2026-04-24T15:40:17.999Z</time></trkpt><trkpt lat="46.026768738506505" lon="11.93466058392392"><ele>308.0</ele><time>2026-04-24T15:40:19Z</time></trkpt><trkpt lat="46.02680062447305" lon="11.934866453876245"><ele>308.0</ele><time>2026-04-24T15:40:20Z</time></trkpt><trkpt lat="46.02683409451672" lon="11.935074117598024"><ele>308.0</ele><time>2026-04-24T15:40:21Z</time></trkpt><trkpt lat="46.026876534369315" lon="11.93530698512391"><ele>308.0</ele><time>2026-04-24T15:40:22Z</time></trkpt><trkpt lat="46.026919444345275" lon="11.93552281896994"><ele>308.0</ele><time>2026-04-24T15:40:23Z</time></trkpt><trkpt lat="46.02695521090743" lon="11.935712488922846"><ele>308.0</ele><time>2026-04-24T15:40:24Z</time></trkpt><trkpt lat="46.026991681476986" lon="11.935908778624361"><ele>308.0</ele><time>2026-04-24T15:40:25Z</time></trkpt><trkpt lat="46.027029503651704" lon="11.936106262881207"><ele>308.0</ele><time>2026-04-24T15:40:26Z</time></trkpt><trkpt lat="46.02706533798788" lon="11.936296002608131"><ele>309.75</ele><time>2026-04-24T15:40:27Z</time></trkpt><trkpt lat="46.02710419748838" lon="11.936496358392265"><ele>311.5</ele><time>2026-04-24T15:40:28Z</time></trkpt><trkpt lat="46.027145754897944" lon="11.93670588464543"><ele>313.25</ele><time>2026-04-24T15:40:29Z</time></trkpt><trkpt lat="46.02718760403542" lon="11.936916713642267"><ele>315.0</ele><time>2026-04-24T15:40:30Z</time></trkpt><trkpt lat="46.027219391144044" lon="11.937089693130005"><ele>315.25</ele><time>2026-04-24T15:40:31Z</time></trkpt><trkpt lat="46.02726254203996" lon="11.937311444908348"><ele>315.5</ele><time>2026-04-24T15:40:32Z</time></trkpt><trkpt lat="46.02730098369812" lon="11.93750334180629"><ele>315.75</ele><time>2026-04-24T15:40:33Z</time></trkpt><trkpt lat="46.027335756675086" lon="11.937694975401397"><ele>316.0</ele><time>2026-04-24T15:40:34Z</time></trkpt><trkpt lat="46.027374871068815" lon="11.93789156514244"><ele>314.66666666666663</ele><time>2026-04-24T15:40:35Z</time></trkpt><trkpt lat="46.02741370379912" lon="11.938097916269374"><ele>313.3333333333333</ele><time>2026-04-24T15:40:36Z</time></trkpt><trkpt lat="46.02745544118547" lon="11.93831436191476"><ele>312.0</ele><time>2026-04-24T15:40:37Z</time></trkpt><trkpt lat="46.027500411070875" lon="11.938531557237802"><ele>309.6666666666667</ele><time>2026-04-24T15:40:38Z</time></trkpt><trkpt lat="46.02754747896332" lon="11.93873268722821"><ele>307.33333333333337</ele><time>2026-04-24T15:40:39Z</time></trkpt><trkpt lat="46.02759656796777" lon="11.938953081999287"><ele>305.0</ele><time>2026-04-24T15:40:40Z</time></trkpt><trkpt lat="46.02764797166369" lon="11.939147737258732"><ele>305.0</ele><time>2026-04-24T15:40:41Z</time></trkpt><trkpt lat="46.027710265647336" lon="11.939355860837786"><ele>305.0</ele><time>2026-04-24T15:40:42Z</time></trkpt><trkpt lat="46.027771627258986" lon="11.939560562881486"><ele>305.0</ele><time>2026-04-24T15:40:43Z</time></trkpt><trkpt lat="46.02784148775172" lon="11.939798328551092"><ele>306.6666666666667</ele><time>2026-04-24T15:40:44Z</time></trkpt><trkpt lat="46.02791646856429" lon="11.940053843094416"><ele>308.3333333333333</ele><time>2026-04-24T15:40:45Z</time></trkpt><trkpt lat="46.02798395390701" lon="11.94028751852278"><ele>310.0</ele><time>2026-04-24T15:40:46Z</time></trkpt><trkpt lat="46.02803243912033" lon="11.940503343508986"><ele>310.0</ele><time>2026-04-24T15:40:47Z</time></trkpt><trkpt lat="46.02809187207624" lon="11.940685706218085"><ele>310.0</ele><time>2026-04-24T15:40:48Z</time></trkpt><trkpt lat="46.02815148834682" lon="11.940883146291052"><ele>310.0</ele><time>2026-04-24T15:40:49Z</time></trkpt><trkpt lat="46.02821114606623" lon="11.941083400411786"><ele>310.0</ele><time>2026-04-24T15:40:50Z</time></trkpt><trkpt lat="46.02826530398327" lon="11.941281759949577"><ele>310.3333333333333</ele><time>2026-04-24T15:40:51Z</time></trkpt><trkpt lat="46.028320747579" lon="11.941476086669438"><ele>310.6666666666667</ele><time>2026-04-24T15:40:52Z</time></trkpt><trkpt lat="46.02838019464624" lon="11.941684977817358"><ele>311.0</ele><time>2026-04-24T15:40:53Z</time></trkpt><trkpt lat="46.02844713697889" lon="11.941913565888477"><ele>312.33333333333337</ele><time>2026-04-24T15:40:54Z</time></trkpt><trkpt lat="46.02852059220784" lon="11.942160277366158"><ele>313.6666666666667</ele><time>2026-04-24T15:40:55Z</time></trkpt><trkpt lat="46.02858903865835" lon="11.942387018172651"><ele>315.0</ele><time>2026-04-24T15:40:56Z</time></trkpt><trkpt lat="46.02864681594745" lon="11.942587773485755"><ele>315.0</ele><time>2026-04-24T15:40:57Z</time></trkpt><trkpt lat="46.02870213952806" lon="11.942784746383621"><ele>315.0</ele><time>2026-04-24T15:40:58Z</time></trkpt><trkpt lat="46.02876065447308" lon="11.942991177447173"><ele>315.0</ele><time>2026-04-24T15:40:59Z</time></trkpt><trkpt lat="46.028827449012795" lon="11.94318531298196"><ele>315.5</ele><time>2026-04-24T15:41:00Z</time></trkpt><trkpt lat="46.028884325389164" lon="11.943382356536812"><ele>316.0</ele><time>2026-04-24T15:41:01Z</time></trkpt><trkpt lat="46.028933551915145" lon="11.943553691127894"><ele>316.5</ele><time>2026-04-24T15:41:02Z</time></trkpt><trkpt lat="46.02898845380945" lon="11.94373512570476"><ele>317.0</ele><time>2026-04-24T15:41:03Z</time></trkpt><trkpt lat="46.029036430033294" lon="11.943909893438796"><ele>317.0</ele><time>2026-04-24T15:41:04Z</time></trkpt><trkpt lat="46.029087159511164" lon="11.944097431198255"><ele>317.0</ele><time>2026-04-24T15:41:05Z</time></trkpt><trkpt lat="46.029136991295445" lon="11.944292814599775"><ele>317.0</ele><time>2026-04-24T15:41:06Z</time></trkpt><trkpt lat="46.029185920102044" lon="11.944481540768281"><ele>317.0</ele><time>2026-04-24T15:41:07Z</time></trkpt><trkpt lat="46.02923716762225" lon="11.944697116780192"><ele>316.5</ele><time>2026-04-24T15:41:08Z</time></trkpt><trkpt lat="46.02928343430203" lon="11.94489637347689"><ele>316.0</ele><time>2026-04-24T15:41:09Z</time></trkpt><trkpt lat="46.02932553482375" lon="11.945084540289793"><ele>315.5</ele><time>2026-04-24T15:41:10Z</time></trkpt><trkpt lat="46.02934752819366" lon="11.945274203589834"><ele>315.0</ele><time>2026-04-24T15:41:11Z</time></trkpt><trkpt lat="46.029388865846556" lon="11.94548340230449"><ele>314.75</ele><time>2026-04-24T15:41:12Z</time></trkpt><trkpt lat="46.02943071256763" lon="11.945685576995425"><ele>314.5</ele><time>2026-04-24T15:41:13Z</time></trkpt><trkpt lat="46.02946447124123" lon="11.945875221884553"><ele>314.25</ele><time>2026-04-24T15:41:14Z</time></trkpt><trkpt lat="46.02950105070628" lon="11.946071293071432"><ele>314.0</ele><time>2026-04-24T15:41:15Z</time></trkpt><trkpt lat="46.02953956824046" lon="11.946244842643829"><ele>314.0</ele><time>2026-04-24T15:41:16Z</time></trkpt><trkpt lat="46.029570423490505" lon="11.946432129048803"><ele>314.0</ele><time>2026-04-24T15:41:17Z</time></trkpt><trkpt lat="46.0296035357926" lon="11.946622439861208"><ele>314.0</ele><time>2026-04-24T15:41:18Z</time></trkpt><trkpt lat="46.029639549395355" lon="11.946809458707342"><ele>314.0</ele><time>2026-04-24T15:41:19Z</time></trkpt><trkpt lat="46.029676237526346" lon="11.947010021034629"><ele>313.75</ele><time>2026-04-24T15:41:20Z</time></trkpt><trkpt lat="46.02971599625083" lon="11.947206975603532"><ele>313.5</ele><time>2026-04-24T15:41:21Z</time></trkpt><trkpt lat="46.02975672300764" lon="11.947419208958364"><ele>313.25</ele><time>2026-04-24T15:41:22Z</time></trkpt><trkpt lat="46.02979453864243" lon="11.9476261944633"><ele>313.0</ele><time>2026-04-24T15:41:23Z</time></trkpt><trkpt lat="46.02982933726145" lon="11.947824338342985"><ele>312.0</ele><time>2026-04-24T15:41:24Z</time></trkpt><trkpt lat="46.029865460374225" lon="11.948032127551938"><ele>311.0</ele><time>2026-04-24T15:41:25Z</time></trkpt><trkpt lat="46.02991105037655" lon="11.948260839418952"><ele>310.0</ele><time>2026-04-24T15:41:26Z</time></trkpt><trkpt lat="46.02995496932827" lon="11.948474413730303"><ele>309.75</ele><time>2026-04-24T15:41:27Z</time></trkpt><trkpt lat="46.02999265511016" lon="11.948674966536668"><ele>309.5</ele><time>2026-04-24T15:41:28Z</time></trkpt><trkpt lat="46.030031992113216" lon="11.94887853541717"><ele>309.25</ele><time>2026-04-24T15:41:29Z</time></trkpt><trkpt lat="46.030068343124334" lon="11.949090395704715"><ele>309.0</ele><time>2026-04-24T15:41:30Z</time></trkpt><trkpt lat="46.030103490351564" lon="11.949289329329227"><ele>309.0</ele><time>2026-04-24T15:41:31Z</time></trkpt><trkpt lat="46.03014104858434" lon="11.949484717411693"><ele>309.0</ele><time>2026-04-24T15:41:32Z</time></trkpt><trkpt lat="46.030169538214516" lon="11.949690953732285"><ele>309.0</ele><time>2026-04-24T15:41:33Z</time></trkpt><trkpt lat="46.03020930913305" lon="11.949898343430366"><ele>309.0</ele><time>2026-04-24T15:41:34Z</time></trkpt><trkpt lat="46.030246011022356" lon="11.950101294517697"><ele>308.5</ele><time>2026-04-24T15:41:35Z</time></trkpt><trkpt lat="46.03028216859778" lon="11.95029359287829"><ele>308.0</ele><time>2026-04-24T15:41:36Z</time></trkpt><trkpt lat="46.030316759563" lon="11.950479381357464"><ele>307.5</ele><time>2026-04-24T15:41:37Z</time></trkpt><trkpt lat="46.03035079745817" lon="11.95066304958339"><ele>307.0</ele><time>2026-04-24T15:41:38Z</time></trkpt><trkpt lat="46.03038694661142" lon="11.950861024221785"><ele>307.0</ele><time>2026-04-24T15:41:39Z</time></trkpt><trkpt lat="46.030424666186875" lon="11.951054610510361"><ele>307.0</ele><time>2026-04-24T15:41:40Z</time></trkpt><trkpt lat="46.03046105533536" lon="11.951246186282054"><ele>307.0</ele><time>2026-04-24T15:41:41Z</time></trkpt><trkpt lat="46.03049477982711" lon="11.951433273277834"><ele>307.0</ele><time>2026-04-24T15:41:42Z</time></trkpt><trkpt lat="46.03052885263368" lon="11.951633442990838"><ele>306.0</ele><time>2026-04-24T15:41:43Z</time></trkpt><trkpt lat="46.03056703049714" lon="11.951842512273629"><ele>305.0</ele><time>2026-04-24T15:41:44Z</time></trkpt><trkpt lat="46.03060211888404" lon="11.952058280777864"><ele>304.0</ele><time>2026-04-24T15:41:45Z</time></trkpt><trkpt lat="46.030633838801414" lon="11.952279535652819"><ele>304.0</ele><time>2026-04-24T15:41:46Z</time></trkpt><trkpt lat="46.03066020261299" lon="11.952487875507687"><ele>304.0</ele><time>2026-04-24T15:41:47Z</time></trkpt><trkpt lat="46.03068727154692" lon="11.952685857373625"><ele>304.0</ele><time>2026-04-24T15:41:48Z</time></trkpt><trkpt lat="46.03070936684564" lon="11.95289624701745"><ele>304.0</ele><time>2026-04-24T15:41:49Z</time></trkpt><trkpt lat="46.030730929812464" lon="11.953115165868285"><ele>303.66666666666663</ele><time>2026-04-24T15:41:50Z</time></trkpt><trkpt lat="46.030752593423685" lon="11.95335308018477"><ele>303.3333333333333</ele><time>2026-04-24T15:41:51Z</time></trkpt><trkpt lat="46.030776343707295" lon="11.953601791313437"><ele>303.0</ele><time>2026-04-24T15:41:52Z</time></trkpt><trkpt lat="46.030799202505364" lon="11.953827216065644"><ele>303.0</ele><time>2026-04-24T15:41:53Z</time></trkpt><trkpt lat="46.03081832599788" lon="11.95404337528096"><ele>303.0</ele><time>2026-04-24T15:41:54Z</time></trkpt><trkpt lat="46.03084119877645" lon="11.954256658574394"><ele>303.0</ele><time>2026-04-24T15:41:55Z</time></trkpt><trkpt lat="46.030865558202954" lon="11.954487597740902"><ele>301.75</ele><time>2026-04-24T15:41:56Z</time></trkpt><trkpt lat="46.03088541011615" lon="11.954711044271301"><ele>300.5</ele><time>2026-04-24T15:41:57Z</time></trkpt><trkpt lat="46.03090339985956" lon="11.954922616520337"><ele>299.25</ele><time>2026-04-24T15:41:58Z</time></trkpt><trkpt lat="46.03092100691544" lon="11.955123846988759"><ele>298.0</ele><time>2026-04-24T15:41:59Z</time></trkpt><trkpt lat="46.030939468798984" lon="11.9553159456417"><ele>297.75</ele><time>2026-04-24T15:42:00Z</time></trkpt><trkpt lat="46.030959825684434" lon="11.955511812898244"><ele>297.5</ele><time>2026-04-24T15:42:01Z</time></trkpt><trkpt lat="46.030979598383794" lon="11.95571946225938"><ele>297.25</ele><time>2026-04-24T15:42:02Z</time></trkpt><trkpt lat="46.03099603742712" lon="11.955923528355926"><ele>297.0</ele><time>2026-04-24T15:42:02.999Z</time></trkpt><trkpt lat="46.03101081942663" lon="11.956136296482248"><ele>296.6666666666667</ele><time>2026-04-24T15:42:03.999Z</time></trkpt><trkpt lat="46.03103326997312" lon="11.956369647294181"><ele>296.33333333333337</ele><time>2026-04-24T15:42:04.999Z</time></trkpt><trkpt lat="46.03105836322617" lon="11.956608125535817"><ele>296.0</ele><time>2026-04-24T15:42:05.999Z</time></trkpt><trkpt lat="46.0310788144968" lon="11.956823809192276"><ele>295.25</ele><time>2026-04-24T15:42:06.999Z</time></trkpt><trkpt lat="46.031100901059766" lon="11.957030916249353"><ele>294.5</ele><time>2026-04-24T15:42:07.999Z</time></trkpt><trkpt lat="46.03111981461215" lon="11.957229008764426"><ele>293.75</ele><time>2026-04-24T15:42:08.999Z</time></trkpt><trkpt lat="46.03113959711334" lon="11.957414312151922"><ele>293.0</ele><time>2026-04-24T15:42:09.999Z</time></trkpt><trkpt lat="46.03115730970812" lon="11.95760421149753"><ele>292.5</ele><time>2026-04-24T15:42:10.999Z</time></trkpt><trkpt lat="46.03117258519339" lon="11.957793468477018"><ele>292.0</ele><time>2026-04-24T15:42:11.999Z</time></trkpt><trkpt lat="46.03118976551535" lon="11.95797578374823"><ele>291.5</ele><time>2026-04-24T15:42:12.999Z</time></trkpt><trkpt lat="46.031207147562434" lon="11.958167189353265"><ele>291.0</ele><time>2026-04-24T15:42:13.999Z</time></trkpt><trkpt lat="46.03122684273706" lon="11.95837686867412"><ele>290.75</ele><time>2026-04-24T15:42:14.999Z</time></trkpt><trkpt lat="46.03124364742649" lon="11.958560592543105"><ele>290.5</ele><time>2026-04-24T15:42:15.999Z</time></trkpt><trkpt lat="46.03126139008949" lon="11.958750486093205"><ele>290.25</ele><time>2026-04-24T15:42:16.999Z</time></trkpt><trkpt lat="46.03127652072118" lon="11.958923186851539"><ele>290.0</ele><time>2026-04-24T15:42:17.999Z</time></trkpt><trkpt lat="46.031293166498735" lon="11.959076426972667"><ele>289.6666666666667</ele><time>2026-04-24T15:42:18.999Z</time></trkpt><trkpt lat="46.03130623029239" lon="11.959222237994581"><ele>289.33333333333337</ele><time>2026-04-24T15:42:19.999Z</time></trkpt><trkpt lat="46.03131952175211" lon="11.959353904893279"><ele>289.0</ele><time>2026-04-24T15:42:20.999Z</time></trkpt><trkpt lat="46.03133088060957" lon="11.959466417158566"><ele>288.6666666666667</ele><time>2026-04-24T15:42:21.999Z</time></trkpt><trkpt lat="46.0313399517201" lon="11.959574383504798"><ele>288.3333333333333</ele><time>2026-04-24T15:42:22.999Z</time></trkpt><trkpt lat="46.03134442920232" lon="11.959670838704975"><ele>288.0</ele><time>2026-04-24T15:42:23.999Z</time></trkpt><trkpt lat="46.031336633401594" lon="11.959767105812013"><ele>288.0</ele><time>2026-04-24T15:42:25Z</time></trkpt><trkpt lat="46.03129203251336" lon="11.959929918358812"><ele>288.0</ele><time>2026-04-24T15:42:27Z</time></trkpt><trkpt lat="46.03128691389391" lon="11.960021580801968"><ele>288.0</ele><time>2026-04-24T15:42:28Z</time></trkpt><trkpt lat="46.0313075307373" lon="11.960113540643965"><ele>288.0</ele><time>2026-04-24T15:42:29Z</time></trkpt><trkpt lat="46.031352717636906" lon="11.960208264292756"><ele>288.0</ele><time>2026-04-24T15:42:30Z</time></trkpt><trkpt lat="46.03139731237247" lon="11.960321018422185"><ele>288.0</ele><time>2026-04-24T15:42:31Z</time></trkpt><trkpt lat="46.031423363620455" lon="11.960467984630649"><ele>287.75</ele><time>2026-04-24T15:42:32Z</time></trkpt><trkpt lat="46.03143764845316" lon="11.960645044339374"><ele>287.5</ele><time>2026-04-24T15:42:33Z</time></trkpt><trkpt lat="46.03145504116123" lon="11.96085726096412"><ele>287.25</ele><time>2026-04-24T15:42:34Z</time></trkpt><trkpt lat="46.03147353395863" lon="11.961061214659779"><ele>287.0</ele><time>2026-04-24T15:42:35Z</time></trkpt><trkpt lat="46.0314915387137" lon="11.961235501253173"><ele>286.8</ele><time>2026-04-24T15:42:36Z</time></trkpt><trkpt lat="46.03150636461976" lon="11.961406053745614"><ele>286.6</ele><time>2026-04-24T15:42:37Z</time></trkpt><trkpt lat="46.03151953685158" lon="11.961566419658578"><ele>286.40000000000003</ele><time>2026-04-24T15:42:38Z</time></trkpt><trkpt lat="46.0315352903248" lon="11.961720601777321"><ele>286.2</ele><time>2026-04-24T15:42:39Z</time></trkpt><trkpt lat="46.03155344585571" lon="11.961870148335015"><ele>286.0</ele><time>2026-04-24T15:42:40Z</time></trkpt><trkpt lat="46.03157322434973" lon="11.962005716915975"><ele>286.0</ele><time>2026-04-24T15:42:41Z</time></trkpt><trkpt lat="46.03160195570687" lon="11.962137529589846"><ele>286.0</ele><time>2026-04-24T15:42:42Z</time></trkpt><trkpt lat="46.03163853833993" lon="11.962284302280862"><ele>286.0</ele><time>2026-04-24T15:42:43Z</time></trkpt><trkpt lat="46.03168603965859" lon="11.962439873613665"><ele>286.0</ele><time>2026-04-24T15:42:44Z</time></trkpt><trkpt lat="46.03173759633349" lon="11.962588366467251"><ele>286.0</ele><time>2026-04-24T15:42:45Z</time></trkpt><trkpt lat="46.031803851307544" lon="11.962739512163026"><ele>286.25</ele><time>2026-04-24T15:42:46Z</time></trkpt><trkpt lat="46.031876325766966" lon="11.962869579981536"><ele>286.5</ele><time>2026-04-24T15:42:47Z</time></trkpt><trkpt lat="46.031959121779494" lon="11.963016141347795"><ele>286.75</ele><time>2026-04-24T15:42:48Z</time></trkpt><trkpt lat="46.03205542677038" lon="11.963175281431532"><ele>287.0</ele><time>2026-04-24T15:42:49Z</time></trkpt><trkpt lat="46.03215792991339" lon="11.96333865216753"><ele>286.0</ele><time>2026-04-24T15:42:50Z</time></trkpt><trkpt lat="46.03225064702585" lon="11.963488174618236"><ele>285.0</ele><time>2026-04-24T15:42:51Z</time></trkpt><trkpt lat="46.032361831414995" lon="11.963680320314513"><ele>284.0</ele><time>2026-04-24T15:42:52Z</time></trkpt><trkpt lat="46.03247819990769" lon="11.963881777911961"><ele>282.6666666666667</ele><time>2026-04-24T15:42:53Z</time></trkpt><trkpt lat="46.032587752170905" lon="11.964066551818512"><ele>281.3333333333333</ele><time>2026-04-24T15:42:54Z</time></trkpt><trkpt lat="46.03268292529603" lon="11.964222574770133"><ele>280.0</ele><time>2026-04-24T15:42:55Z</time></trkpt><trkpt lat="46.032774885362954" lon="11.96438645695667"><ele>278.3333333333333</ele><time>2026-04-24T15:42:56Z</time></trkpt><trkpt lat="46.032863690445424" lon="11.964574236450852"><ele>276.6666666666667</ele><time>2026-04-24T15:42:57Z</time></trkpt><trkpt lat="46.03293373991443" lon="11.964799194147735"><ele>275.0</ele><time>2026-04-24T15:42:58Z</time></trkpt><trkpt lat="46.03303433990144" lon="11.965052370427909"><ele>274.33333333333337</ele><time>2026-04-24T15:42:59Z</time></trkpt><trkpt lat="46.03310159661005" lon="11.96527974544958"><ele>273.6666666666667</ele><time>2026-04-24T15:43:00Z</time></trkpt><trkpt lat="46.03316465619367" lon="11.965485609346533"><ele>273.0</ele><time>2026-04-24T15:43:01Z</time></trkpt><trkpt lat="46.033231849401325" lon="11.965706922724184"><ele>273.6666666666667</ele><time>2026-04-24T15:43:02Z</time></trkpt><trkpt lat="46.03330163011716" lon="11.965940434489141"><ele>274.33333333333337</ele><time>2026-04-24T15:43:03Z</time></trkpt><trkpt lat="46.03336142783682" lon="11.966147814414446"><ele>275.0</ele><time>2026-04-24T15:43:04Z</time></trkpt><trkpt lat="46.03341270963363" lon="11.966343101494415"><ele>275.0</ele><time>2026-04-24T15:43:05Z</time></trkpt><trkpt lat="46.033451056281045" lon="11.966542484924325"><ele>275.0</ele><time>2026-04-24T15:43:06Z</time></trkpt><trkpt lat="46.033480260194075" lon="11.96675411524393"><ele>275.0</ele><time>2026-04-24T15:43:07Z</time></trkpt><trkpt lat="46.03349996497013" lon="11.967009574492383"><ele>273.6666666666667</ele><time>2026-04-24T15:43:08Z</time></trkpt><trkpt lat="46.03350286320576" lon="11.967295781375178"><ele>272.3333333333333</ele><time>2026-04-24T15:43:09Z</time></trkpt><trkpt lat="46.03349306400029" lon="11.96760660574824"><ele>271.0</ele><time>2026-04-24T15:43:10Z</time></trkpt><trkpt lat="46.03348991655387" lon="11.967865769110317"><ele>269.3333333333333</ele><time>2026-04-24T15:43:11Z</time></trkpt><trkpt lat="46.033486952137665" lon="11.96811781674486"><ele>267.6666666666667</ele><time>2026-04-24T15:43:12Z</time></trkpt><trkpt lat="46.0334833655162" lon="11.968353614735538"><ele>266.0</ele><time>2026-04-24T15:43:13Z</time></trkpt><trkpt lat="46.033480500247784" lon="11.96858295723266"><ele>266.0</ele><time>2026-04-24T15:43:14Z</time></trkpt><trkpt lat="46.0334723311345" lon="11.968833587148893"><ele>266.0</ele><time>2026-04-24T15:43:15Z</time></trkpt><trkpt lat="46.033465920284335" lon="11.96906378633637"><ele>266.0</ele><time>2026-04-24T15:43:16Z</time></trkpt><trkpt lat="46.03346598836381" lon="11.969280612203729"><ele>266.0</ele><time>2026-04-24T15:43:17Z</time></trkpt><trkpt lat="46.03347096244448" lon="11.969484707677854"><ele>266.0</ele><time>2026-04-24T15:43:18Z</time></trkpt><trkpt lat="46.03349066538374" lon="11.96970651537603"><ele>266.0</ele><time>2026-04-24T15:43:19Z</time></trkpt><trkpt lat="46.033528131933885" lon="11.969926709587856"><ele>265.0</ele><time>2026-04-24T15:43:20Z</time></trkpt><trkpt lat="46.033579566998284" lon="11.970153020424421"><ele>264.0</ele><time>2026-04-24T15:43:21Z</time></trkpt><trkpt lat="46.03365104450508" lon="11.970383392323566"><ele>263.0</ele><time>2026-04-24T15:43:22Z</time></trkpt><trkpt lat="46.03373527717689" lon="11.97062203025412"><ele>262.6666666666667</ele><time>2026-04-24T15:43:23Z</time></trkpt><trkpt lat="46.03382678196317" lon="11.970879954339422"><ele>262.3333333333333</ele><time>2026-04-24T15:43:24Z</time></trkpt><trkpt lat="46.033929605331984" lon="11.971146742694978"><ele>262.0</ele><time>2026-04-24T15:43:25Z</time></trkpt><trkpt lat="46.03401640606091" lon="11.9713818231249"><ele>262.0</ele><time>2026-04-24T15:43:26Z</time></trkpt><trkpt lat="46.03409997376529" lon="11.971609572058389"><ele>262.0</ele><time>2026-04-24T15:43:27Z</time></trkpt><trkpt lat="46.03417324590399" lon="11.971819828773073"><ele>262.0</ele><time>2026-04-24T15:43:28Z</time></trkpt><trkpt lat="46.034246826618485" lon="11.972015147691987"><ele>262.66666666666663</ele><time>2026-04-24T15:43:29Z</time></trkpt><trkpt lat="46.03431915163931" lon="11.972200292532671"><ele>263.3333333333333</ele><time>2026-04-24T15:43:30Z</time></trkpt><trkpt lat="46.0344005688637" lon="11.972415508347478"><ele>264.0</ele><time>2026-04-24T15:43:31Z</time></trkpt><trkpt lat="46.03446710081335" lon="11.972586707989509"><ele>264.0</ele><time>2026-04-24T15:43:32Z</time></trkpt><trkpt lat="46.034524431457214" lon="11.972786002861556"><ele>264.0</ele><time>2026-04-24T15:43:33Z</time></trkpt><trkpt lat="46.03458452273797" lon="11.972941704220672"><ele>264.0</ele><time>2026-04-24T15:43:34Z</time></trkpt><trkpt lat="46.03464631070503" lon="11.973103201461386"><ele>264.0</ele><time>2026-04-24T15:43:35Z</time></trkpt><trkpt lat="46.03470448762921" lon="11.973238362321917"><ele>264.75</ele><time>2026-04-24T15:43:36Z</time></trkpt><trkpt lat="46.03475890189026" lon="11.973372638850044"><ele>265.5</ele><time>2026-04-24T15:43:37Z</time></trkpt><trkpt lat="46.03481761037447" lon="11.97351003007382"><ele>266.25</ele><time>2026-04-24T15:43:38Z</time></trkpt><trkpt lat="46.03488270249922" lon="11.973663031117235"><ele>267.0</ele><time>2026-04-24T15:43:39Z</time></trkpt><trkpt lat="46.034961697130434" lon="11.973856456791639"><ele>266.5</ele><time>2026-04-24T15:43:40Z</time></trkpt><trkpt lat="46.035032038785026" lon="11.9740366706239"><ele>266.0</ele><time>2026-04-24T15:43:41Z</time></trkpt><trkpt lat="46.03509330551832" lon="11.974197373470181"><ele>265.5</ele><time>2026-04-24T15:43:42Z</time></trkpt><trkpt lat="46.035156807269644" lon="11.974349021183263"><ele>265.0</ele><time>2026-04-24T15:43:43Z</time></trkpt><trkpt lat="46.03522338693681" lon="11.97451189459476"><ele>264.25</ele><time>2026-04-24T15:43:44Z</time></trkpt><trkpt lat="46.03528693979717" lon="11.974665979669982"><ele>263.5</ele><time>2026-04-24T15:43:45Z</time></trkpt><trkpt lat="46.03534847431941" lon="11.97482755272665"><ele>262.75</ele><time>2026-04-24T15:43:46Z</time></trkpt><trkpt lat="46.03541918078503" lon="11.975003299560685"><ele>262.0</ele><time>2026-04-24T15:43:47Z</time></trkpt><trkpt lat="46.0354978613156" lon="11.97519246590401"><ele>262.0</ele><time>2026-04-24T15:43:48Z</time></trkpt><trkpt lat="46.035577557406846" lon="11.975389396737318"><ele>262.0</ele><time>2026-04-24T15:43:49Z</time></trkpt><trkpt lat="46.03565145968443" lon="11.97557219648522"><ele>262.0</ele><time>2026-04-24T15:43:50Z</time></trkpt><trkpt lat="46.03571871874361" lon="11.97573493664816"><ele>262.0</ele><time>2026-04-24T15:43:51Z</time></trkpt><trkpt lat="46.03578236166232" lon="11.975895649822235"><ele>260.75</ele><time>2026-04-24T15:43:52Z</time></trkpt><trkpt lat="46.035843789417974" lon="11.976045986455539"><ele>259.5</ele><time>2026-04-24T15:43:53Z</time></trkpt><trkpt lat="46.03590946487012" lon="11.976203832018077"><ele>258.25</ele><time>2026-04-24T15:43:54Z</time></trkpt><trkpt lat="46.035980195034476" lon="11.976381469443517"><ele>257.0</ele><time>2026-04-24T15:43:55Z</time></trkpt><trkpt lat="46.03606762290422" lon="11.97659246948944"><ele>257.5</ele><time>2026-04-24T15:43:56Z</time></trkpt><trkpt lat="46.03614956962898" lon="11.976783897677002"><ele>258.0</ele><time>2026-04-24T15:43:57Z</time></trkpt><trkpt lat="46.03621970165702" lon="11.976964357202535"><ele>258.5</ele><time>2026-04-24T15:43:58Z</time></trkpt><trkpt lat="46.03629466874366" lon="11.977147894424938"><ele>259.0</ele><time>2026-04-24T15:43:59Z</time></trkpt><trkpt lat="46.03637589924297" lon="11.977348385506552"><ele>258.5</ele><time>2026-04-24T15:44:00Z</time></trkpt><trkpt lat="46.036456035395645" lon="11.977542577844895"><ele>258.0</ele><time>2026-04-24T15:44:01Z</time></trkpt><trkpt lat="46.03653195452312" lon="11.977727096960187"><ele>257.5</ele><time>2026-04-24T15:44:02Z</time></trkpt><trkpt lat="46.03660355185312" lon="11.97790159109459"><ele>257.0</ele><time>2026-04-24T15:44:03Z</time></trkpt><trkpt lat="46.03668392083719" lon="11.97809700301293"><ele>257.0</ele><time>2026-04-24T15:44:04Z</time></trkpt><trkpt lat="46.03675935572626" lon="11.978286127198544"><ele>257.0</ele><time>2026-04-24T15:44:05Z</time></trkpt><trkpt lat="46.036847586955616" lon="11.978500636725505"><ele>257.0</ele><time>2026-04-24T15:44:06Z</time></trkpt><trkpt lat="46.03692923321661" lon="11.97869919923028"><ele>256.33333333333337</ele><time>2026-04-24T15:44:07Z</time></trkpt><trkpt lat="46.03700715651878" lon="11.978892125521813"><ele>255.66666666666669</ele><time>2026-04-24T15:44:08Z</time></trkpt><trkpt lat="46.037080360970634" lon="11.979070281721958"><ele>255.0</ele><time>2026-04-24T15:44:09Z</time></trkpt><trkpt lat="46.037159486658155" lon="11.97926728854588"><ele>255.0</ele><time>2026-04-24T15:44:09.999Z</time></trkpt><trkpt lat="46.03723851581271" lon="11.979469725252882"><ele>255.0</ele><time>2026-04-24T15:44:10.999Z</time></trkpt><trkpt lat="46.037318702286406" lon="11.979665441340309"><ele>255.0</ele><time>2026-04-24T15:44:11.999Z</time></trkpt><trkpt lat="46.03739883907965" lon="11.979858960830091"><ele>253.0</ele><time>2026-04-24T15:44:12.999Z</time></trkpt><trkpt lat="46.03747724378852" lon="11.980045798021061"><ele>251.0</ele><time>2026-04-24T15:44:13.999Z</time></trkpt><trkpt lat="46.03754884542544" lon="11.980225320360733"><ele>249.0</ele><time>2026-04-24T15:44:14.999Z</time></trkpt><trkpt lat="46.03761586247648" lon="11.980384910488276"><ele>247.0</ele><time>2026-04-24T15:44:15.999Z</time></trkpt><trkpt lat="46.037675595050814" lon="11.980529722060558"><ele>246.99999999999997</ele><time>2026-04-24T15:44:16.999Z</time></trkpt><trkpt lat="46.03772478898221" lon="11.980647487514508"><ele>247.0</ele><time>2026-04-24T15:44:17.999Z</time></trkpt><trkpt lat="46.03778374243552" lon="11.980778179322515"><ele>247.0</ele><time>2026-04-24T15:44:19.999Z</time></trkpt><trkpt lat="46.037823716843974" lon="11.980874204626408"><ele>247.0</ele><time>2026-04-24T15:44:21.999Z</time></trkpt><trkpt lat="46.037856371816076" lon="11.9809641097468"><ele>246.99999999999997</ele><time>2026-04-24T15:44:23.999Z</time></trkpt><trkpt lat="46.03789852565234" lon="11.981064247085266"><ele>247.0</ele><time>2026-04-24T15:44:25.999Z</time></trkpt><trkpt lat="46.03793055205633" lon="11.981154835300492"><ele>246.99999999999997</ele><time>2026-04-24T15:44:27.999Z</time></trkpt><trkpt lat="46.03796137733101" lon="11.981235086281172"><ele>247.0</ele><time>2026-04-24T15:44:29.999Z</time></trkpt><trkpt lat="46.03800721523977" lon="11.981352168168167"><ele>247.0</ele><time>2026-04-24T15:44:33Z</time></trkpt><trkpt lat="46.038060866998094" lon="11.98145586224117"><ele>247.0</ele><time>2026-04-24T15:44:36Z</time></trkpt><trkpt lat="46.03810037331422" lon="11.981567802615968"><ele>246.99999999999997</ele><time>2026-04-24T15:44:39Z</time></trkpt><trkpt lat="46.03813321918906" lon="11.981655817967477"><ele>247.0</ele><time>2026-04-24T15:44:41Z</time></trkpt><trkpt lat="46.03818033574145" lon="11.981766679720824"><ele>246.8</ele><time>2026-04-24T15:44:43Z</time></trkpt><trkpt lat="46.03823689124214" lon="11.981902453635396"><ele>246.6</ele><time>2026-04-24T15:44:45Z</time></trkpt><trkpt lat="46.038273743800765" lon="11.981981718764454"><ele>246.40000000000003</ele><time>2026-04-24T15:44:46Z</time></trkpt><trkpt lat="46.03832941913646" lon="11.982104266014142"><ele>246.20000000000002</ele><time>2026-04-24T15:44:48Z</time></trkpt><trkpt lat="46.038392000622885" lon="11.982249164659716"><ele>246.0</ele><time>2026-04-24T15:44:50Z</time></trkpt><trkpt lat="46.038453918732564" lon="11.982399674302021"><ele>246.0</ele><time>2026-04-24T15:44:52Z</time></trkpt><trkpt lat="46.03851305707867" lon="11.982525532377009"><ele>246.00000000000003</ele><time>2026-04-24T15:44:54Z</time></trkpt><trkpt lat="46.038558418001585" lon="11.982650042056694"><ele>246.00000000000003</ele><time>2026-04-24T15:44:56Z</time></trkpt><trkpt lat="46.03857935202243" lon="11.982826019485389"><ele>246.0</ele><time>2026-04-24T15:44:58Z</time></trkpt><trkpt lat="46.03856761160395" lon="11.982932952142923"><ele>246.0</ele><time>2026-04-24T15:44:59Z</time></trkpt><trkpt lat="46.038564394126084" lon="11.983033729922226"><ele>246.0</ele><time>2026-04-24T15:45:00Z</time></trkpt><trkpt lat="46.03857875598386" lon="11.983134922666798"><ele>246.0</ele><time>2026-04-24T15:45:01Z</time></trkpt><trkpt lat="46.0386179781044" lon="11.98322861516671"><ele>246.0</ele><time>2026-04-24T15:45:02Z</time></trkpt><trkpt lat="46.038668842246004" lon="11.983318007754546"><ele>246.0</ele><time>2026-04-24T15:45:03Z</time></trkpt><trkpt lat="46.03871890316812" lon="11.983446251756622"><ele>246.0</ele><time>2026-04-24T15:45:04Z</time></trkpt><trkpt lat="46.03875140000432" lon="11.983562729582733"><ele>246.0</ele><time>2026-04-24T15:45:05Z</time></trkpt><trkpt lat="46.038769404172946" lon="11.983701632638509"><ele>246.0</ele><time>2026-04-24T15:45:06Z</time></trkpt><trkpt lat="46.03873744643955" lon="11.983888316314431"><ele>246.0</ele><time>2026-04-24T15:45:07Z</time></trkpt><trkpt lat="46.03870120987523" lon="11.98408426027369"><ele>246.0</ele><time>2026-04-24T15:45:08Z</time></trkpt><trkpt lat="46.038646311799056" lon="11.984228737792044"><ele>246.0</ele><time>2026-04-24T15:45:09Z</time></trkpt><trkpt lat="46.03859716502921" lon="11.984418196420393"><ele>244.0</ele><time>2026-04-24T15:45:10Z</time></trkpt><trkpt lat="46.03850860027547" lon="11.984606366768128"><ele>242.0</ele><time>2026-04-24T15:45:11Z</time></trkpt><trkpt lat="46.03841563642865" lon="11.98482143366446"><ele>240.0</ele><time>2026-04-24T15:45:12Z</time></trkpt><trkpt lat="46.038344851574365" lon="11.984990355412473"><ele>240.5</ele><time>2026-04-24T15:45:13Z</time></trkpt><trkpt lat="46.03829336436933" lon="11.98512076803512"><ele>241.0</ele><time>2026-04-24T15:45:14Z</time></trkpt><trkpt lat="46.03822577850834" lon="11.985296752505866"><ele>241.5</ele><time>2026-04-24T15:45:15Z</time></trkpt><trkpt lat="46.03815473903346" lon="11.985469920349875"><ele>242.0</ele><time>2026-04-24T15:45:16Z</time></trkpt><trkpt lat="46.038098237476376" lon="11.9856420662577"><ele>242.0</ele><time>2026-04-24T15:45:17Z</time></trkpt><trkpt lat="46.038040761415346" lon="11.985816329071358"><ele>242.0</ele><time>2026-04-24T15:45:18Z</time></trkpt><trkpt lat="46.038017703824984" lon="11.985996385954367"><ele>242.0</ele><time>2026-04-24T15:45:19Z</time></trkpt><trkpt lat="46.03802222201526" lon="11.986199588849871"><ele>242.0</ele><time>2026-04-24T15:45:20Z</time></trkpt><trkpt lat="46.03802116606416" lon="11.986430040746072"><ele>238.66666666666669</ele><time>2026-04-24T15:45:21Z</time></trkpt><trkpt lat="46.038024236427894" lon="11.986710863382955"><ele>235.33333333333331</ele><time>2026-04-24T15:45:22Z</time></trkpt><trkpt lat="46.038020259023476" lon="11.98696297048955"><ele>232.0</ele><time>2026-04-24T15:45:23Z</time></trkpt><trkpt lat="46.0380094367871" lon="11.987213946253128"><ele>232.0</ele><time>2026-04-24T15:45:24Z</time></trkpt><trkpt lat="46.03800661905382" lon="11.987444681400895"><ele>232.0</ele><time>2026-04-24T15:45:25Z</time></trkpt><trkpt lat="46.0380021800444" lon="11.987650779043152"><ele>232.0</ele><time>2026-04-24T15:45:26Z</time></trkpt><trkpt lat="46.03800468444046" lon="11.987861843841664"><ele>232.66666666666666</ele><time>2026-04-24T15:45:27Z</time></trkpt><trkpt lat="46.03800963829359" lon="11.988091241351272"><ele>233.33333333333331</ele><time>2026-04-24T15:45:28Z</time></trkpt><trkpt lat="46.03803893625994" lon="11.988319302754684"><ele>234.0</ele><time>2026-04-24T15:45:29Z</time></trkpt><trkpt lat="46.038074558805185" lon="11.988552142532187"><ele>234.5</ele><time>2026-04-24T15:45:30Z</time></trkpt><trkpt lat="46.03811437869669" lon="11.988770709047913"><ele>235.0</ele><time>2026-04-24T15:45:31Z</time></trkpt><trkpt lat="46.038140190276074" lon="11.988971623456914"><ele>235.5</ele><time>2026-04-24T15:45:32Z</time></trkpt><trkpt lat="46.03816644181385" lon="11.98914481973796"><ele>236.0</ele><time>2026-04-24T15:45:33Z</time></trkpt><trkpt lat="46.038190596709846" lon="11.989371443723591"><ele>236.75</ele><time>2026-04-24T15:45:34Z</time></trkpt><trkpt lat="46.03822315357945" lon="11.989571506979765"><ele>237.5</ele><time>2026-04-24T15:45:35Z</time></trkpt><trkpt lat="46.03823942444816" lon="11.98974067990214"><ele>238.25</ele><time>2026-04-24T15:45:36Z</time></trkpt><trkpt lat="46.038248311368214" lon="11.989923307859781"><ele>239.0</ele><time>2026-04-24T15:45:37Z</time></trkpt><trkpt lat="46.03824596237284" lon="11.990122276595864"><ele>239.2</ele><time>2026-04-24T15:45:38Z</time></trkpt><trkpt lat="46.03823709355545" lon="11.990298765440347"><ele>239.39999999999998</ele><time>2026-04-24T15:45:39Z</time></trkpt><trkpt lat="46.03822180180051" lon="11.990456133511923"><ele>239.6</ele><time>2026-04-24T15:45:40Z</time></trkpt><trkpt lat="46.038210872399155" lon="11.99059802101335"><ele>239.8</ele><time>2026-04-24T15:45:41Z</time></trkpt><trkpt lat="46.03819635274204" lon="11.990762002452241"><ele>240.0</ele><time>2026-04-24T15:45:42Z</time></trkpt><trkpt lat="46.03818197951357" lon="11.99091046508349"><ele>240.0</ele><time>2026-04-24T15:45:43Z</time></trkpt><trkpt lat="46.03816309370786" lon="11.991083473395847"><ele>240.0</ele><time>2026-04-24T15:45:44Z</time></trkpt><trkpt lat="46.03815298381244" lon="11.991224280400775"><ele>240.0</ele><time>2026-04-24T15:45:45Z</time></trkpt><trkpt lat="46.038135881049" lon="11.991362262856821"><ele>240.0</ele><time>2026-04-24T15:45:46Z</time></trkpt><trkpt lat="46.03812024015216" lon="11.991506358333043"><ele>240.0</ele><time>2026-04-24T15:45:47Z</time></trkpt><trkpt lat="46.038109865765264" lon="11.991667805561983"><ele>240.0</ele><time>2026-04-24T15:45:48Z</time></trkpt><trkpt lat="46.03809948098019" lon="11.99184560473048"><ele>240.0</ele><time>2026-04-24T15:45:49Z</time></trkpt><trkpt lat="46.03807349941797" lon="11.992068772434955"><ele>240.0</ele><time>2026-04-24T15:45:50Z</time></trkpt><trkpt lat="46.03806463147166" lon="11.992270235457081"><ele>240.0</ele><time>2026-04-24T15:45:51Z</time></trkpt><trkpt lat="46.03803777586133" lon="11.99253299062684"><ele>240.0</ele><time>2026-04-24T15:45:52Z</time></trkpt><trkpt lat="46.03801227057947" lon="11.992777976336482"><ele>240.0</ele><time>2026-04-24T15:45:53Z</time></trkpt><trkpt lat="46.03799079823567" lon="11.993003174011623"><ele>240.0</ele><time>2026-04-24T15:45:54Z</time></trkpt><trkpt lat="46.03796787401427" lon="11.993231534395994"><ele>240.0</ele><time>2026-04-24T15:45:55Z</time></trkpt><trkpt lat="46.03794185070103" lon="11.993460500935674"><ele>240.0</ele><time>2026-04-24T15:45:56Z</time></trkpt><trkpt lat="46.03791541516078" lon="11.993663400347765"><ele>240.0</ele><time>2026-04-24T15:45:57Z</time></trkpt><trkpt lat="46.03789262269175" lon="11.99384955060887"><ele>240.0</ele><time>2026-04-24T15:45:58Z</time></trkpt><trkpt lat="46.037878055598874" lon="11.99405376504993"><ele>240.5</ele><time>2026-04-24T15:45:59Z</time></trkpt><trkpt lat="46.03787595521271" lon="11.994264021492253"><ele>241.0</ele><time>2026-04-24T15:46:00Z</time></trkpt><trkpt lat="46.037866985363635" lon="11.994444824572835"><ele>241.5</ele><time>2026-04-24T15:46:01Z</time></trkpt><trkpt lat="46.03785355233296" lon="11.99461706182872"><ele>242.0</ele><time>2026-04-24T15:46:02Z</time></trkpt><trkpt lat="46.0378358389013" lon="11.994809615367567"><ele>242.0</ele><time>2026-04-24T15:46:03Z</time></trkpt><trkpt lat="46.03781750925289" lon="11.994998769792703"><ele>242.0</ele><time>2026-04-24T15:46:04Z</time></trkpt><trkpt lat="46.03779881657452" lon="11.995189749677238"><ele>242.0</ele><time>2026-04-24T15:46:05Z</time></trkpt><trkpt lat="46.037780729187695" lon="11.995363622383145"><ele>242.0</ele><time>2026-04-24T15:46:06Z</time></trkpt><trkpt lat="46.037767709364935" lon="11.995533518857643"><ele>242.0</ele><time>2026-04-24T15:46:07Z</time></trkpt><trkpt lat="46.03775763721722" lon="11.995691333209317"><ele>242.0</ele><time>2026-04-24T15:46:08Z</time></trkpt><trkpt lat="46.03775228103991" lon="11.995850351636669"><ele>242.0</ele><time>2026-04-24T15:46:09Z</time></trkpt><trkpt lat="46.03774469309889" lon="11.996016739291278"><ele>242.0</ele><time>2026-04-24T15:46:10Z</time></trkpt><trkpt lat="46.037738432220316" lon="11.996179829055897"><ele>242.0</ele><time>2026-04-24T15:46:11Z</time></trkpt><trkpt lat="46.037734676464" lon="11.996326248312606"><ele>242.0</ele><time>2026-04-24T15:46:12Z</time></trkpt><trkpt lat="46.037733377775645" lon="11.996480331975306"><ele>242.0</ele><time>2026-04-24T15:46:13Z</time></trkpt><trkpt lat="46.03773245542729" lon="11.996647367273509"><ele>242.0</ele><time>2026-04-24T15:46:14Z</time></trkpt><trkpt lat="46.03773162220308" lon="11.996817977408517"><ele>242.0</ele><time>2026-04-24T15:46:15Z</time></trkpt><trkpt lat="46.037733898640525" lon="11.996979083523266"><ele>241.75</ele><time>2026-04-24T15:46:16Z</time></trkpt><trkpt lat="46.03773686198934" lon="11.997136365095967"><ele>241.5</ele><time>2026-04-24T15:46:17Z</time></trkpt><trkpt lat="46.03774311014654" lon="11.997292298424302"><ele>241.25</ele><time>2026-04-24T15:46:18Z</time></trkpt><trkpt lat="46.03775077298961" lon="11.997457438128624"><ele>241.0</ele><time>2026-04-24T15:46:19Z</time></trkpt><trkpt lat="46.037761655238235" lon="11.997633097270398"><ele>241.25</ele><time>2026-04-24T15:46:20Z</time></trkpt><trkpt lat="46.03777269291732" lon="11.997807859365155"><ele>241.5</ele><time>2026-04-24T15:46:21Z</time></trkpt><trkpt lat="46.037789178617444" lon="11.997982204932267"><ele>241.75</ele><time>2026-04-24T15:46:22Z</time></trkpt><trkpt lat="46.03780646112458" lon="11.998157746915984"><ele>242.0</ele><time>2026-04-24T15:46:22.999Z</time></trkpt><trkpt lat="46.03782139688178" lon="11.998337643770707"><ele>242.0</ele><time>2026-04-24T15:46:23.999Z</time></trkpt><trkpt lat="46.03783831812492" lon="11.998506064467163"><ele>242.0</ele><time>2026-04-24T15:46:24.999Z</time></trkpt><trkpt lat="46.03785540825709" lon="11.99867062088807"><ele>242.0</ele><time>2026-04-24T15:46:25.999Z</time></trkpt><trkpt lat="46.0378748190563" lon="11.998841844251574"><ele>242.0</ele><time>2026-04-24T15:46:26.999Z</time></trkpt><trkpt lat="46.03790049614427" lon="11.99901262056362"><ele>241.8</ele><time>2026-04-24T15:46:27.999Z</time></trkpt><trkpt lat="46.03792613316584" lon="11.999175768760844"><ele>241.6</ele><time>2026-04-24T15:46:28.999Z</time></trkpt><trkpt lat="46.037948444264224" lon="11.999331626154554"><ele>241.40000000000003</ele><time>2026-04-24T15:46:29.999Z</time></trkpt><trkpt lat="46.03797409001001" lon="11.999475035362709"><ele>241.20000000000002</ele><time>2026-04-24T15:46:30.999Z</time></trkpt><trkpt lat="46.037997665830204" lon="11.999622104282624"><ele>241.0</ele><time>2026-04-24T15:46:31.999Z</time></trkpt><trkpt lat="46.03802378895325" lon="11.99976373129981"><ele>241.0</ele><time>2026-04-24T15:46:32.999Z</time></trkpt><trkpt lat="46.03805439332129" lon="11.999908374525912"><ele>241.00000000000003</ele><time>2026-04-24T15:46:33.999Z</time></trkpt><trkpt lat="46.03808811873293" lon="12.000043665623156"><ele>241.00000000000003</ele><time>2026-04-24T15:46:34.999Z</time></trkpt><trkpt lat="46.038129742906115" lon="12.000188541290058"><ele>241.0</ele><time>2026-04-24T15:46:35.999Z</time></trkpt><trkpt lat="46.03817534573618" lon="12.000341166940624"><ele>241.0</ele><time>2026-04-24T15:46:37Z</time></trkpt><trkpt lat="46.03821480920491" lon="12.000508013566373"><ele>241.0</ele><time>2026-04-24T15:46:38Z</time></trkpt><trkpt lat="46.03826400413053" lon="12.000666135864465"><ele>241.0</ele><time>2026-04-24T15:46:39Z</time></trkpt><trkpt lat="46.038305788916624" lon="12.000830020154964"><ele>241.0</ele><time>2026-04-24T15:46:40Z</time></trkpt><trkpt lat="46.038366654527756" lon="12.000983530983637"><ele>241.0</ele><time>2026-04-24T15:46:41Z</time></trkpt><trkpt lat="46.03843611755795" lon="12.00113795785624"><ele>241.5</ele><time>2026-04-24T15:46:42Z</time></trkpt><trkpt lat="46.03850328360585" lon="12.001301611863033"><ele>242.0</ele><time>2026-04-24T15:46:43Z</time></trkpt><trkpt lat="46.03857532361685" lon="12.001473938929513"><ele>242.5</ele><time>2026-04-24T15:46:44Z</time></trkpt><trkpt lat="46.03863794322099" lon="12.001696676483453"><ele>243.0</ele><time>2026-04-24T15:46:45Z</time></trkpt><trkpt lat="46.03873876357926" lon="12.00187213755426"><ele>243.0</ele><time>2026-04-24T15:46:46Z</time></trkpt><trkpt lat="46.03882419336766" lon="12.00203613823497"><ele>243.0</ele><time>2026-04-24T15:46:47Z</time></trkpt><trkpt lat="46.03890850388783" lon="12.002186939158173"><ele>243.0</ele><time>2026-04-24T15:46:48Z</time></trkpt><trkpt lat="46.03899577514015" lon="12.002330345254688"><ele>243.0</ele><time>2026-04-24T15:46:49Z</time></trkpt><trkpt lat="46.039082424790806" lon="12.00247201454297"><ele>243.0</ele><time>2026-04-24T15:46:50Z</time></trkpt><trkpt lat="46.03917210296525" lon="12.00261638935697"><ele>243.0</ele><time>2026-04-24T15:46:51Z</time></trkpt><trkpt lat="46.039260083364" lon="12.002759844042416"><ele>243.0</ele><time>2026-04-24T15:46:52Z</time></trkpt><trkpt lat="46.03934581701753" lon="12.002898951593687"><ele>243.0</ele><time>2026-04-24T15:46:53Z</time></trkpt><trkpt lat="46.03942831146218" lon="12.00303571738659"><ele>243.0</ele><time>2026-04-24T15:46:54Z</time></trkpt><trkpt lat="46.03950791582254" lon="12.003163732599306"><ele>243.0</ele><time>2026-04-24T15:46:55Z</time></trkpt><trkpt lat="46.03958457053765" lon="12.0032993556055"><ele>243.0</ele><time>2026-04-24T15:46:56Z</time></trkpt><trkpt lat="46.039661252180316" lon="12.003435828491904"><ele>243.0</ele><time>2026-04-24T15:46:57Z</time></trkpt><trkpt lat="46.03973633374641" lon="12.003576648094867"><ele>243.0</ele><time>2026-04-24T15:46:58Z</time></trkpt><trkpt lat="46.03980670765171" lon="12.003716823317571"><ele>243.0</ele><time>2026-04-24T15:46:59Z</time></trkpt><trkpt lat="46.03987844095917" lon="12.003859687800627"><ele>243.0</ele><time>2026-04-24T15:47:00Z</time></trkpt><trkpt lat="46.03995066707754" lon="12.00400707917202"><ele>243.0</ele><time>2026-04-24T15:47:01Z</time></trkpt><trkpt lat="46.04002178840372" lon="12.004154927503205"><ele>243.5</ele><time>2026-04-24T15:47:02Z</time></trkpt><trkpt lat="46.040093130915224" lon="12.004299603159586"><ele>244.0</ele><time>2026-04-24T15:47:03Z</time></trkpt><trkpt lat="46.0401636439095" lon="12.004450071956299"><ele>244.5</ele><time>2026-04-24T15:47:04Z</time></trkpt><trkpt lat="46.04023284846429" lon="12.004596475920138"><ele>245.0</ele><time>2026-04-24T15:47:05Z</time></trkpt><trkpt lat="46.04029931681661" lon="12.004747425930638"><ele>245.0</ele><time>2026-04-24T15:47:06Z</time></trkpt><trkpt lat="46.04037204894204" lon="12.004907631835565"><ele>245.0</ele><time>2026-04-24T15:47:07Z</time></trkpt><trkpt lat="46.04044410300333" lon="12.005069341336295"><ele>245.0</ele><time>2026-04-24T15:47:08Z</time></trkpt><trkpt lat="46.04051464287474" lon="12.005229112729833"><ele>245.0</ele><time>2026-04-24T15:47:09Z</time></trkpt><trkpt lat="46.04058396787456" lon="12.005389178159046"><ele>245.25</ele><time>2026-04-24T15:47:10Z</time></trkpt><trkpt lat="46.04065457871077" lon="12.005550165124191"><ele>245.5</ele><time>2026-04-24T15:47:11Z</time></trkpt><trkpt lat="46.04072543112699" lon="12.00571288786147"><ele>245.75</ele><time>2026-04-24T15:47:12Z</time></trkpt><trkpt lat="46.04079793014015" lon="12.005880170435685"><ele>246.0</ele><time>2026-04-24T15:47:13Z</time></trkpt><trkpt lat="46.04086605841561" lon="12.006028285914505"><ele>246.0</ele><time>2026-04-24T15:47:14Z</time></trkpt><trkpt lat="46.040932032572016" lon="12.006184839881202"><ele>246.0</ele><time>2026-04-24T15:47:15Z</time></trkpt><trkpt lat="46.041001097502416" lon="12.00635197169607"><ele>246.0</ele><time>2026-04-24T15:47:16Z</time></trkpt><trkpt lat="46.04106739475147" lon="12.006507126472735"><ele>246.0</ele><time>2026-04-24T15:47:17Z</time></trkpt><trkpt lat="46.04113779189042" lon="12.006668839080588"><ele>246.25</ele><time>2026-04-24T15:47:18Z</time></trkpt><trkpt lat="46.0412054269905" lon="12.006816900173183"><ele>246.5</ele><time>2026-04-24T15:47:19Z</time></trkpt><trkpt lat="46.041276617453434" lon="12.006966267906671"><ele>246.75</ele><time>2026-04-24T15:47:20Z</time></trkpt><trkpt lat="46.041347533354426" lon="12.007107018001106"><ele>247.0</ele><time>2026-04-24T15:47:21Z</time></trkpt><trkpt lat="46.04139646324322" lon="12.007284469854252"><ele>247.0</ele><time>2026-04-24T15:47:22Z</time></trkpt><trkpt lat="46.0414708993183" lon="12.00745576946993"><ele>247.0</ele><time>2026-04-24T15:47:23Z</time></trkpt><trkpt lat="46.04153971325758" lon="12.007614130903187"><ele>247.0</ele><time>2026-04-24T15:47:24Z</time></trkpt><trkpt lat="46.04160931341062" lon="12.007774301646018"><ele>247.0</ele><time>2026-04-24T15:47:25Z</time></trkpt><trkpt lat="46.04169228278788" lon="12.00792193252988"><ele>247.25</ele><time>2026-04-24T15:47:26Z</time></trkpt><trkpt lat="46.041754380059395" lon="12.008090071149237"><ele>247.5</ele><time>2026-04-24T15:47:27Z</time></trkpt><trkpt lat="46.04182087952846" lon="12.008239361498042"><ele>247.75</ele><time>2026-04-24T15:47:28Z</time></trkpt><trkpt lat="46.041892731252226" lon="12.008400724076386"><ele>248.0</ele><time>2026-04-24T15:47:29Z</time></trkpt><trkpt lat="46.041964868954835" lon="12.008573096605687"><ele>248.25</ele><time>2026-04-24T15:47:30Z</time></trkpt><trkpt lat="46.04204964919912" lon="12.008771822918364"><ele>248.5</ele><time>2026-04-24T15:47:31Z</time></trkpt><trkpt lat="46.042122890478495" lon="12.008935060443923"><ele>248.75</ele><time>2026-04-24T15:47:32Z</time></trkpt><trkpt lat="46.042185228710274" lon="12.009079025718561"><ele>249.0</ele><time>2026-04-24T15:47:33Z</time></trkpt><trkpt lat="46.04225161240673" lon="12.009223242884342"><ele>249.25</ele><time>2026-04-24T15:47:34Z</time></trkpt><trkpt lat="46.04232034266647" lon="12.009383474805176"><ele>249.5</ele><time>2026-04-24T15:47:35Z</time></trkpt><trkpt lat="46.042390698699144" lon="12.009553291877268"><ele>249.75</ele><time>2026-04-24T15:47:36Z</time></trkpt><trkpt lat="46.04245366790495" lon="12.009716040832247"><ele>250.0</ele><time>2026-04-24T15:47:37Z</time></trkpt><trkpt lat="46.04250858507733" lon="12.009849345857807"><ele>249.8</ele><time>2026-04-24T15:47:38Z</time></trkpt><trkpt lat="46.04256058767159" lon="12.009986709642266"><ele>249.6</ele><time>2026-04-24T15:47:39Z</time></trkpt><trkpt lat="46.04260240700426" lon="12.010099853135006"><ele>249.39999999999998</ele><time>2026-04-24T15:47:40Z</time></trkpt><trkpt lat="46.04264047404736" lon="12.010203904454022"><ele>249.2</ele><time>2026-04-24T15:47:41Z</time></trkpt><trkpt lat="46.0426723204707" lon="12.010302605691809"><ele>249.0</ele><time>2026-04-24T15:47:42Z</time></trkpt><trkpt lat="46.042636711781626" lon="12.010450021940374"><ele>249.0</ele><time>2026-04-24T15:47:43Z</time></trkpt><trkpt lat="46.04273483190795" lon="12.010516797484684"><ele>249.0</ele><time>2026-04-24T15:47:44Z</time></trkpt><trkpt lat="46.04276289884845" lon="12.010620642745925"><ele>249.0</ele><time>2026-04-24T15:47:45Z</time></trkpt><trkpt lat="46.04278491795802" lon="12.010718375139657"><ele>249.0</ele><time>2026-04-24T15:47:46Z</time></trkpt><trkpt lat="46.04279877805728" lon="12.010835471409614"><ele>249.0</ele><time>2026-04-24T15:47:47Z</time></trkpt><trkpt lat="46.04281579385713" lon="12.010953462994056"><ele>249.0</ele><time>2026-04-24T15:47:48Z</time></trkpt><trkpt lat="46.04285492703682" lon="12.011060682721936"><ele>249.2</ele><time>2026-04-24T15:47:49Z</time></trkpt><trkpt lat="46.04291425694242" lon="12.01116470095964"><ele>249.39999999999998</ele><time>2026-04-24T15:47:50Z</time></trkpt><trkpt lat="46.042968600888386" lon="12.011291384025736"><ele>249.6</ele><time>2026-04-24T15:47:51Z</time></trkpt><trkpt lat="46.04301647605071" lon="12.011421715605756"><ele>249.8</ele><time>2026-04-24T15:47:52Z</time></trkpt><trkpt lat="46.043060525297314" lon="12.011559645121324"><ele>250.0</ele><time>2026-04-24T15:47:53Z</time></trkpt><trkpt lat="46.04310150342936" lon="12.01170369854243"><ele>250.25</ele><time>2026-04-24T15:47:54Z</time></trkpt><trkpt lat="46.043141001758165" lon="12.011836560296613"><ele>250.5</ele><time>2026-04-24T15:47:55Z</time></trkpt><trkpt lat="46.043184082096815" lon="12.011991298353063"><ele>250.75</ele><time>2026-04-24T15:47:56Z</time></trkpt><trkpt lat="46.04323468071344" lon="12.012170884866286"><ele>251.0</ele><time>2026-04-24T15:47:57Z</time></trkpt><trkpt lat="46.04329176004512" lon="12.012375209465572"><ele>250.75</ele><time>2026-04-24T15:47:58Z</time></trkpt><trkpt lat="46.04334283914564" lon="12.012551796385077"><ele>250.5</ele><time>2026-04-24T15:47:59Z</time></trkpt><trkpt lat="46.04339201705405" lon="12.012717460983165"><ele>250.25</ele><time>2026-04-24T15:48:00Z</time></trkpt><trkpt lat="46.04343708579872" lon="12.012875647407995"><ele>250.0</ele><time>2026-04-24T15:48:01Z</time></trkpt><trkpt lat="46.04348754194918" lon="12.013057523792723"><ele>250.0</ele><time>2026-04-24T15:48:02Z</time></trkpt><trkpt lat="46.04354276050859" lon="12.01325066509723"><ele>250.0</ele><time>2026-04-24T15:48:03Z</time></trkpt><trkpt lat="46.04360853768171" lon="12.013471895426768"><ele>250.0</ele><time>2026-04-24T15:48:04Z</time></trkpt><trkpt lat="46.04366372013698" lon="12.013672212133345"><ele>250.5</ele><time>2026-04-24T15:48:05Z</time></trkpt><trkpt lat="46.0437003290402" lon="12.013856518737994"><ele>251.0</ele><time>2026-04-24T15:48:06Z</time></trkpt><trkpt lat="46.04375680350087" lon="12.014005656680315"><ele>251.5</ele><time>2026-04-24T15:48:07Z</time></trkpt><trkpt lat="46.043800117194685" lon="12.014151839899144"><ele>252.0</ele><time>2026-04-24T15:48:08Z</time></trkpt><trkpt lat="46.04384313205805" lon="12.014300174324143"><ele>253.0</ele><time>2026-04-24T15:48:09Z</time></trkpt><trkpt lat="46.04389008044045" lon="12.014470318287222"><ele>254.0</ele><time>2026-04-24T15:48:10Z</time></trkpt><trkpt lat="46.04393941245196" lon="12.014637315908669"><ele>255.0</ele><time>2026-04-24T15:48:11Z</time></trkpt><trkpt lat="46.043987475440616" lon="12.014800607521547"><ele>256.0</ele><time>2026-04-24T15:48:12Z</time></trkpt><trkpt lat="46.0440319741904" lon="12.014953328752725"><ele>255.75</ele><time>2026-04-24T15:48:13Z</time></trkpt><trkpt lat="46.044077258598335" lon="12.015114250692394"><ele>255.5</ele><time>2026-04-24T15:48:14Z</time></trkpt><trkpt lat="46.0441232226965" lon="12.015269032431329"><ele>255.25</ele><time>2026-04-24T15:48:15Z</time></trkpt><trkpt lat="46.04416939288362" lon="12.015422058819194"><ele>255.0</ele><time>2026-04-24T15:48:16Z</time></trkpt><trkpt lat="46.0442123460604" lon="12.015559967592196"><ele>255.0</ele><time>2026-04-24T15:48:17Z</time></trkpt><trkpt lat="46.04425571877665" lon="12.015702547183588"><ele>255.0</ele><time>2026-04-24T15:48:18Z</time></trkpt><trkpt lat="46.04429821497573" lon="12.015846791913068"><ele>255.0</ele><time>2026-04-24T15:48:19Z</time></trkpt><trkpt lat="46.04433875148551" lon="12.01599509381161"><ele>255.0</ele><time>2026-04-24T15:48:20Z</time></trkpt><trkpt lat="46.04437952275881" lon="12.016153338766873"><ele>255.0</ele><time>2026-04-24T15:48:21Z</time></trkpt><trkpt lat="46.044419929117296" lon="12.016280178960047"><ele>255.4</ele><time>2026-04-24T15:48:22Z</time></trkpt><trkpt lat="46.04445447348796" lon="12.016424559598653"><ele>255.8</ele><time>2026-04-24T15:48:23Z</time></trkpt><trkpt lat="46.04448298160791" lon="12.016581285848332"><ele>256.2</ele><time>2026-04-24T15:48:24Z</time></trkpt><trkpt lat="46.044505295797954" lon="12.016735865755539"><ele>256.6</ele><time>2026-04-24T15:48:25Z</time></trkpt><trkpt lat="46.04452232436329" lon="12.016896866737127"><ele>257.0</ele><time>2026-04-24T15:48:26Z</time></trkpt><trkpt lat="46.04453466661119" lon="12.017068840489607"><ele>257.0</ele><time>2026-04-24T15:48:27Z</time></trkpt><trkpt lat="46.04453945252275" lon="12.017255423870827"><ele>257.0</ele><time>2026-04-24T15:48:28Z</time></trkpt><trkpt lat="46.04453962669797" lon="12.017481041771811"><ele>257.0</ele><time>2026-04-24T15:48:29Z</time></trkpt><trkpt lat="46.04454226587523" lon="12.017705552424033"><ele>257.0</ele><time>2026-04-24T15:48:30Z</time></trkpt><trkpt lat="46.04454315959639" lon="12.017908233480355"><ele>257.0</ele><time>2026-04-24T15:48:31Z</time></trkpt><trkpt lat="46.044543315569285" lon="12.018096201324411"><ele>257.0</ele><time>2026-04-24T15:48:32Z</time></trkpt><trkpt lat="46.044543770091146" lon="12.01826196912842"><ele>257.0</ele><time>2026-04-24T15:48:33Z</time></trkpt><trkpt lat="46.044543219426494" lon="12.018443070839133"><ele>257.0</ele><time>2026-04-24T15:48:34Z</time></trkpt><trkpt lat="46.044541990515825" lon="12.018625472992602"><ele>257.2</ele><time>2026-04-24T15:48:35Z</time></trkpt><trkpt lat="46.044542503205356" lon="12.018789936166915"><ele>257.4</ele><time>2026-04-24T15:48:36Z</time></trkpt><trkpt lat="46.0445446653701" lon="12.018944808725964"><ele>257.6</ele><time>2026-04-24T15:48:37Z</time></trkpt><trkpt lat="46.04454510720923" lon="12.019088598082996"><ele>257.8</ele><time>2026-04-24T15:48:38Z</time></trkpt><trkpt lat="46.04454388146222" lon="12.019237980383293"><ele>258.0</ele><time>2026-04-24T15:48:39Z</time></trkpt><trkpt lat="46.04454132242996" lon="12.019388724387415"><ele>258.2</ele><time>2026-04-24T15:48:40Z</time></trkpt><trkpt lat="46.0445435107961" lon="12.019535268637737"><ele>258.4</ele><time>2026-04-24T15:48:41Z</time></trkpt><trkpt lat="46.04454309445688" lon="12.019676461117236"><ele>258.59999999999997</ele><time>2026-04-24T15:48:42Z</time></trkpt><trkpt lat="46.044546737876004" lon="12.019807596251992"><ele>258.8</ele><time>2026-04-24T15:48:43Z</time></trkpt><trkpt lat="46.04454801303689" lon="12.019931851439296"><ele>259.0</ele><time>2026-04-24T15:48:44Z</time></trkpt><trkpt lat="46.04455562706668" lon="12.020061179123413"><ele>259.3333333333333</ele><time>2026-04-24T15:48:45Z</time></trkpt><trkpt lat="46.04456763358736" lon="12.020203074835427"><ele>259.66666666666663</ele><time>2026-04-24T15:48:46Z</time></trkpt><trkpt lat="46.04458311974456" lon="12.02032386308535"><ele>260.0</ele><time>2026-04-24T15:48:47Z</time></trkpt><trkpt lat="46.044601111742715" lon="12.020430177482181"><ele>260.3333333333333</ele><time>2026-04-24T15:48:48Z</time></trkpt><trkpt lat="46.04461651858524" lon="12.020521608621141"><ele>260.6666666666667</ele><time>2026-04-24T15:48:49Z</time></trkpt><trkpt lat="46.044631944897596" lon="12.020611684344336"><ele>261.0</ele><time>2026-04-24T15:48:50Z</time></trkpt><trkpt lat="46.04465323753903" lon="12.020731662377374"><ele>261.40000000000003</ele><time>2026-04-24T15:48:51Z</time></trkpt><trkpt lat="46.04468579526123" lon="12.020893510783603"><ele>261.8</ele><time>2026-04-24T15:48:52Z</time></trkpt><trkpt lat="46.04471275485799" lon="12.021012212363642"><ele>262.20000000000005</ele><time>2026-04-24T15:48:53Z</time></trkpt><trkpt lat="46.04473852725608" lon="12.021127315222827"><ele>262.6</ele><time>2026-04-24T15:48:54Z</time></trkpt><trkpt lat="46.04477600937498" lon="12.02125962782146"><ele>263.0</ele><time>2026-04-24T15:48:55Z</time></trkpt><trkpt lat="46.044822895101184" lon="12.021374128043655"><ele>263.0</ele><time>2026-04-24T15:48:56Z</time></trkpt><trkpt lat="46.044856347552674" lon="12.021484961231412"><ele>263.0</ele><time>2026-04-24T15:48:57Z</time></trkpt><trkpt lat="46.04488813831714" lon="12.021580207833027"><ele>263.0</ele><time>2026-04-24T15:48:58Z</time></trkpt><trkpt lat="46.04492650760707" lon="12.02169344504824"><ele>263.0</ele><time>2026-04-24T15:48:59Z</time></trkpt><trkpt lat="46.044951874126" lon="12.021807360077014"><ele>263.0</ele><time>2026-04-24T15:49:00Z</time></trkpt><trkpt lat="46.044978368660004" lon="12.021929160318003"><ele>263.0</ele><time>2026-04-24T15:49:01Z</time></trkpt><trkpt lat="46.04500214202959" lon="12.022066027859283"><ele>262.83333333333337</ele><time>2026-04-24T15:49:02Z</time></trkpt><trkpt lat="46.04502475639202" lon="12.022188091874982"><ele>262.6666666666667</ele><time>2026-04-24T15:49:03Z</time></trkpt><trkpt lat="46.04502692448601" lon="12.022310424742566"><ele>262.5</ele><time>2026-04-24T15:49:04Z</time></trkpt><trkpt lat="46.04504629006159" lon="12.022414982272918"><ele>262.3333333333333</ele><time>2026-04-24T15:49:05Z</time></trkpt><trkpt lat="46.04506778552128" lon="12.022521708856619"><ele>262.16666666666663</ele><time>2026-04-24T15:49:06Z</time></trkpt><trkpt lat="46.04508546147932" lon="12.022631137118548"><ele>262.0</ele><time>2026-04-24T15:49:07Z</time></trkpt><trkpt lat="46.04510365091323" lon="12.022742730132709"><ele>262.0</ele><time>2026-04-24T15:49:08Z</time></trkpt><trkpt lat="46.045123029599" lon="12.022859842631249"><ele>262.0</ele><time>2026-04-24T15:49:09Z</time></trkpt><trkpt lat="46.04514522413536" lon="12.022981380554963"><ele>262.0</ele><time>2026-04-24T15:49:10Z</time></trkpt><trkpt lat="46.04516623769582" lon="12.023112827191893"><ele>262.0</ele><time>2026-04-24T15:49:11Z</time></trkpt><trkpt lat="46.0451929284142" lon="12.023262310137568"><ele>262.0</ele><time>2026-04-24T15:49:12Z</time></trkpt><trkpt lat="46.04521734241007" lon="12.023428066915905"><ele>262.2</ele><time>2026-04-24T15:49:13Z</time></trkpt><trkpt lat="46.045242820680826" lon="12.023581745928245"><ele>262.4</ele><time>2026-04-24T15:49:14Z</time></trkpt><trkpt lat="46.04526088819239" lon="12.023715671702224"><ele>262.6</ele><time>2026-04-24T15:49:15Z</time></trkpt><trkpt lat="46.045277624743115" lon="12.02384502449294"><ele>262.8</ele><time>2026-04-24T15:49:16Z</time></trkpt><trkpt lat="46.04528972835515" lon="12.023989178535786"><ele>263.0</ele><time>2026-04-24T15:49:17Z</time></trkpt><trkpt lat="46.04529472251999" lon="12.024136005610314"><ele>263.1666666666667</ele><time>2026-04-24T15:49:18Z</time></trkpt><trkpt lat="46.04529626958051" lon="12.024282871556617"><ele>263.33333333333337</ele><time>2026-04-24T15:49:19Z</time></trkpt><trkpt lat="46.045287749303625" lon="12.024426309084541"><ele>263.5</ele><time>2026-04-24T15:49:20Z</time></trkpt><trkpt lat="46.045276025574644" lon="12.024554656363646"><ele>263.6666666666667</ele><time>2026-04-24T15:49:21Z</time></trkpt><trkpt lat="46.04526784760065" lon="12.024664388521796"><ele>263.8333333333333</ele><time>2026-04-24T15:49:22Z</time></trkpt><trkpt lat="46.04525802091821" lon="12.02476937088582"><ele>264.0</ele><time>2026-04-24T15:49:23Z</time></trkpt><trkpt lat="46.04524811385712" lon="12.024885280453805"><ele>264.0</ele><time>2026-04-24T15:49:24Z</time></trkpt><trkpt lat="46.04519842966641" lon="12.025035527439336"><ele>264.0</ele><time>2026-04-24T15:49:26Z</time></trkpt><trkpt lat="46.04508811246835" lon="12.025101345617895"><ele>264.0</ele><time>2026-04-24T15:49:28Z</time></trkpt><trkpt lat="46.04500763327047" lon="12.02511992193974"><ele>264.0</ele><time>2026-04-24T15:49:29Z</time></trkpt><trkpt lat="46.04491830956491" lon="12.025109027587238"><ele>264.0</ele><time>2026-04-24T15:49:30Z</time></trkpt><trkpt lat="46.0448039460986" lon="12.025090280758134"><ele>264.59999999999997</ele><time>2026-04-24T15:49:31Z</time></trkpt><trkpt lat="46.04468036789294" lon="12.025076869869702"><ele>265.2</ele><time>2026-04-24T15:49:32Z</time></trkpt><trkpt lat="46.044578889497664" lon="12.025078789719668"><ele>265.79999999999995</ele><time>2026-04-24T15:49:33Z</time></trkpt><trkpt lat="46.04450730689174" lon="12.025076847033992"><ele>266.4</ele><time>2026-04-24T15:49:34Z</time></trkpt><trkpt lat="46.044424088635004" lon="12.025072576051134"><ele>267.0</ele><time>2026-04-24T15:49:35Z</time></trkpt><trkpt lat="46.04434704267703" lon="12.02507233109276"><ele>267.0</ele><time>2026-04-24T15:49:36Z</time></trkpt><trkpt lat="46.044256814029524" lon="12.025086909933863"><ele>267.0</ele><time>2026-04-24T15:49:37Z</time></trkpt><trkpt lat="46.044159752191874" lon="12.025143148367158"><ele>267.0</ele><time>2026-04-24T15:49:38Z</time></trkpt><trkpt lat="46.04404732037451" lon="12.025231411068715"><ele>267.0</ele><time>2026-04-24T15:49:39Z</time></trkpt><trkpt lat="46.04392614783788" lon="12.025346839333745"><ele>268.6</ele><time>2026-04-24T15:49:40Z</time></trkpt><trkpt lat="46.04380981748375" lon="12.025431299160259"><ele>270.2</ele><time>2026-04-24T15:49:41Z</time></trkpt><trkpt lat="46.04371402039075" lon="12.025485547906236"><ele>271.8</ele><time>2026-04-24T15:49:42Z</time></trkpt><trkpt lat="46.043630119143614" lon="12.025527128040618"><ele>273.4</ele><time>2026-04-24T15:49:43Z</time></trkpt><trkpt lat="46.0435546741171" lon="12.02555483165562"><ele>275.0</ele><time>2026-04-24T15:49:44Z</time></trkpt><trkpt lat="46.04347496935521" lon="12.025559302032251"><ele>275.0</ele><time>2026-04-24T15:49:45Z</time></trkpt><trkpt lat="46.04339664845257" lon="12.025527728150994"><ele>275.0</ele><time>2026-04-24T15:49:46Z</time></trkpt><trkpt lat="46.04332522643484" lon="12.025451773375538"><ele>275.0</ele><time>2026-04-24T15:49:47Z</time></trkpt><trkpt lat="46.043262339146686" lon="12.02531969602361"><ele>275.0</ele><time>2026-04-24T15:49:48Z</time></trkpt><trkpt lat="46.04318268048127" lon="12.025162167378113"><ele>275.0</ele><time>2026-04-24T15:49:49Z</time></trkpt><trkpt lat="46.043083538305424" lon="12.02496717313235"><ele>278.6</ele><time>2026-04-24T15:49:50Z</time></trkpt><trkpt lat="46.04300529464996" lon="12.024800667067469"><ele>282.2</ele><time>2026-04-24T15:49:51Z</time></trkpt><trkpt lat="46.0429519989173" lon="12.024671837144622"><ele>285.8</ele><time>2026-04-24T15:49:52Z</time></trkpt><trkpt lat="46.042904105680066" lon="12.024553474533173"><ele>289.4</ele><time>2026-04-24T15:49:53Z</time></trkpt><trkpt lat="46.04283745340833" lon="12.02443240790608"><ele>293.0</ele><time>2026-04-24T15:49:54Z</time></trkpt><trkpt lat="46.04274431125456" lon="12.024319774223224"><ele>293.0</ele><time>2026-04-24T15:49:55Z</time></trkpt><trkpt lat="46.04263609977988" lon="12.024217910214313"><ele>293.0</ele><time>2026-04-24T15:49:56Z</time></trkpt><trkpt lat="46.04252504263304" lon="12.024137657273021"><ele>293.0</ele><time>2026-04-24T15:49:57Z</time></trkpt><trkpt lat="46.04243576371084" lon="12.024068437489293"><ele>293.0</ele><time>2026-04-24T15:49:58Z</time></trkpt><trkpt lat="46.04237166297469" lon="12.024022946688978"><ele>293.0</ele><time>2026-04-24T15:49:59Z</time></trkpt><trkpt lat="46.04228109246935" lon="12.02397534025418"><ele>292.8</ele><time>2026-04-24T15:50:00Z</time></trkpt><trkpt lat="46.04218948844412" lon="12.023954908265937"><ele>292.6</ele><time>2026-04-24T15:50:01Z</time></trkpt><trkpt lat="46.042098290396844" lon="12.023960654990429"><ele>292.4</ele><time>2026-04-24T15:50:02Z</time></trkpt><trkpt lat="46.042000725978326" lon="12.023998282573361"><ele>292.2</ele><time>2026-04-24T15:50:03Z</time></trkpt><trkpt lat="46.04191174135217" lon="12.024067979444348"><ele>292.0</ele><time>2026-04-24T15:50:04Z</time></trkpt><trkpt lat="46.04182344083827" lon="12.024194424008972"><ele>294.25</ele><time>2026-04-24T15:50:05Z</time></trkpt><trkpt lat="46.041745409495206" lon="12.024348404521112"><ele>296.5</ele><time>2026-04-24T15:50:06Z</time></trkpt><trkpt lat="46.041656556354" lon="12.024530395465897"><ele>298.75</ele><time>2026-04-24T15:50:07Z</time></trkpt><trkpt lat="46.041552630973676" lon="12.024708648053457"><ele>301.0</ele><time>2026-04-24T15:50:08Z</time></trkpt><trkpt lat="46.041471626335145" lon="12.02484085637677"><ele>303.5</ele><time>2026-04-24T15:50:09Z</time></trkpt><trkpt lat="46.0413678146886" lon="12.02497050467949"><ele>306.0</ele><time>2026-04-24T15:50:10Z</time></trkpt><trkpt lat="46.04123012594256" lon="12.025101347877829"><ele>308.5</ele><time>2026-04-24T15:50:11Z</time></trkpt><trkpt lat="46.04112896139939" lon="12.02520293654377"><ele>311.0</ele><time>2026-04-24T15:50:12Z</time></trkpt><trkpt lat="46.04106261894313" lon="12.025271797480494"><ele>311.0</ele><time>2026-04-24T15:50:13Z</time></trkpt><trkpt lat="46.041012017982446" lon="12.025333356150446"><ele>311.0</ele><time>2026-04-24T15:50:14Z</time></trkpt><trkpt lat="46.040967718728375" lon="12.025400319618422"><ele>311.0</ele><time>2026-04-24T15:50:15Z</time></trkpt><trkpt lat="46.040929621414364" lon="12.025490471512654"><ele>311.0</ele><time>2026-04-24T15:50:16Z</time></trkpt><trkpt lat="46.04091306222933" lon="12.02560336177768"><ele>311.0</ele><time>2026-04-24T15:50:17Z</time></trkpt><trkpt lat="46.04091672383903" lon="12.025743705520831"><ele>311.0</ele><time>2026-04-24T15:50:18Z</time></trkpt><trkpt lat="46.04096145516887" lon="12.025911682096991"><ele>312.5</ele><time>2026-04-24T15:50:19Z</time></trkpt><trkpt lat="46.041008629061395" lon="12.026084961636798"><ele>314.0</ele><time>2026-04-24T15:50:20Z</time></trkpt><trkpt lat="46.041036944730486" lon="12.02623104099021"><ele>315.5</ele><time>2026-04-24T15:50:21Z</time></trkpt><trkpt lat="46.04106271836016" lon="12.02640309668476"><ele>317.0</ele><time>2026-04-24T15:50:22Z</time></trkpt><trkpt lat="46.04106414525113" lon="12.026595581923408"><ele>320.5</ele><time>2026-04-24T15:50:23Z</time></trkpt><trkpt lat="46.04106008216657" lon="12.026811038102805"><ele>324.0</ele><time>2026-04-24T15:50:24Z</time></trkpt><trkpt lat="46.041053867786225" lon="12.026983086669143"><ele>327.5</ele><time>2026-04-24T15:50:25Z</time></trkpt><trkpt lat="46.0410327656326" lon="12.027112088758468"><ele>331.0</ele><time>2026-04-24T15:50:26Z</time></trkpt><trkpt lat="46.04104213080831" lon="12.027248032664854"><ele>331.0</ele><time>2026-04-24T15:50:27Z</time></trkpt><trkpt lat="46.04104466462609" lon="12.027357565314182"><ele>331.0</ele><time>2026-04-24T15:50:28Z</time></trkpt><trkpt lat="46.04103542270567" lon="12.02748272847725"><ele>331.0</ele><time>2026-04-24T15:50:29Z</time></trkpt><trkpt lat="46.04099853424644" lon="12.027578734903587"><ele>331.0</ele><time>2026-04-24T15:50:30Z</time></trkpt><trkpt lat="46.04092056180624" lon="12.027656619366237"><ele>331.0</ele><time>2026-04-24T15:50:31Z</time></trkpt><trkpt lat="46.04082893222675" lon="12.027728190194342"><ele>331.0</ele><time>2026-04-24T15:50:32Z</time></trkpt><trkpt lat="46.040730482302415" lon="12.027800917638467"><ele>335.66666666666663</ele><time>2026-04-24T15:50:33Z</time></trkpt><trkpt lat="46.040616865750465" lon="12.027894561945805"><ele>340.3333333333333</ele><time>2026-04-24T15:50:34Z</time></trkpt><trkpt lat="46.040459964109594" lon="12.027987634422056"><ele>345.0</ele><time>2026-04-24T15:50:35Z</time></trkpt><trkpt lat="46.04030206642981" lon="12.028106409054594"><ele>345.0</ele><time>2026-04-24T15:50:36Z</time></trkpt><trkpt lat="46.040149472335465" lon="12.028221473124052"><ele>345.0</ele><time>2026-04-24T15:50:37Z</time></trkpt><trkpt lat="46.04002937398208" lon="12.02833818209602"><ele>345.0</ele><time>2026-04-24T15:50:38Z</time></trkpt><trkpt lat="46.03990516218178" lon="12.028414462354185"><ele>346.75</ele><time>2026-04-24T15:50:39Z</time></trkpt><trkpt lat="46.039803673513084" lon="12.028462784513424"><ele>348.5</ele><time>2026-04-24T15:50:39.999Z</time></trkpt><trkpt lat="46.03968153031951" lon="12.028489556447848"><ele>350.25</ele><time>2026-04-24T15:50:40.999Z</time></trkpt><trkpt lat="46.03954880661614" lon="12.02849007154722"><ele>352.0</ele><time>2026-04-24T15:50:41.999Z</time></trkpt><trkpt lat="46.03941855483368" lon="12.028451738342602"><ele>352.0</ele><time>2026-04-24T15:50:42.999Z</time></trkpt><trkpt lat="46.03929790269368" lon="12.028377214932354"><ele>352.0</ele><time>2026-04-24T15:50:43.999Z</time></trkpt><trkpt lat="46.03917769590345" lon="12.028281758726376"><ele>352.0</ele><time>2026-04-24T15:50:44.999Z</time></trkpt><trkpt lat="46.03907326152123" lon="12.028142104181434"><ele>352.0</ele><time>2026-04-24T15:50:45.999Z</time></trkpt><trkpt lat="46.038961224940984" lon="12.027960113185456"><ele>357.66666666666663</ele><time>2026-04-24T15:50:46.999Z</time></trkpt><trkpt lat="46.0388642243475" lon="12.027787232681458"><ele>363.3333333333333</ele><time>2026-04-24T15:50:47.999Z</time></trkpt><trkpt lat="46.038758833368355" lon="12.027605793415635"><ele>369.0</ele><time>2026-04-24T15:50:49Z</time></trkpt><trkpt lat="46.03863390429884" lon="12.027395826242518"><ele>369.0</ele><time>2026-04-24T15:50:50Z</time></trkpt><trkpt lat="46.03851257757489" lon="12.027203405398884"><ele>369.0</ele><time>2026-04-24T15:50:51Z</time></trkpt><trkpt lat="46.03841479772994" lon="12.027043221554651"><ele>369.0</ele><time>2026-04-24T15:50:52Z</time></trkpt><trkpt lat="46.038329433313656" lon="12.026894953897573"><ele>372.2</ele><time>2026-04-24T15:50:53Z</time></trkpt><trkpt lat="46.03825808056527" lon="12.02676908984487"><ele>375.4</ele><time>2026-04-24T15:50:54Z</time></trkpt><trkpt lat="46.03819888641637" lon="12.0266702062619"><ele>378.6</ele><time>2026-04-24T15:50:55Z</time></trkpt><trkpt lat="46.038138215296414" lon="12.02656608945896"><ele>381.8</ele><time>2026-04-24T15:50:56Z</time></trkpt><trkpt lat="46.03808949668457" lon="12.026486167627507"><ele>385.0</ele><time>2026-04-24T15:50:57Z</time></trkpt><trkpt lat="46.038030543552175" lon="12.02639899914875"><ele>385.1666666666667</ele><time>2026-04-24T15:50:58Z</time></trkpt><trkpt lat="46.037955149436165" lon="12.026346869528522"><ele>385.33333333333337</ele><time>2026-04-24T15:50:59Z</time></trkpt><trkpt lat="46.03787743520735" lon="12.026334122725283"><ele>385.5</ele><time>2026-04-24T15:51:00Z</time></trkpt><trkpt lat="46.03778329340542" lon="12.02634969734043"><ele>385.66666666666663</ele><time>2026-04-24T15:51:01Z</time></trkpt><trkpt lat="46.03770565600747" lon="12.026405698587944"><ele>385.8333333333333</ele><time>2026-04-24T15:51:02Z</time></trkpt><trkpt lat="46.03765041296828" lon="12.026480985359303"><ele>386.0</ele><time>2026-04-24T15:51:03Z</time></trkpt><trkpt lat="46.03760995150978" lon="12.026595196958468"><ele>385.8</ele><time>2026-04-24T15:51:04Z</time></trkpt><trkpt lat="46.037570091879616" lon="12.026727865386867"><ele>385.6</ele><time>2026-04-24T15:51:05Z</time></trkpt><trkpt lat="46.037573505806236" lon="12.026899728185082"><ele>385.4</ele><time>2026-04-24T15:51:06Z</time></trkpt><trkpt lat="46.03758040393435" lon="12.027052951390406"><ele>385.2</ele><time>2026-04-24T15:51:07Z</time></trkpt><trkpt lat="46.03757731457691" lon="12.027206992795408"><ele>385.0</ele><time>2026-04-24T15:51:08Z</time></trkpt><trkpt lat="46.03756325953239" lon="12.027351040225241"><ele>385.0</ele><time>2026-04-24T15:51:09Z</time></trkpt><trkpt lat="46.037541879673356" lon="12.027506557824198"><ele>385.0</ele><time>2026-04-24T15:51:10Z</time></trkpt><trkpt lat="46.037487235959595" lon="12.027633588971838"><ele>385.0</ele><time>2026-04-24T15:51:11Z</time></trkpt><trkpt lat="46.037427186850884" lon="12.027735670635746"><ele>385.0</ele><time>2026-04-24T15:51:12Z</time></trkpt><trkpt lat="46.037348376740255" lon="12.027851021428402"><ele>385.0</ele><time>2026-04-24T15:51:13Z</time></trkpt><trkpt lat="46.03724215929257" lon="12.027969418387473"><ele>388.0</ele><time>2026-04-24T15:51:14Z</time></trkpt><trkpt lat="46.03712485943864" lon="12.028076187055493"><ele>391.0</ele><time>2026-04-24T15:51:15Z</time></trkpt><trkpt lat="46.03699472414639" lon="12.028147603461738"><ele>394.0</ele><time>2026-04-24T15:51:16Z</time></trkpt><trkpt lat="46.03686033909216" lon="12.028198210173803"><ele>397.0</ele><time>2026-04-24T15:51:17Z</time></trkpt><trkpt lat="46.03670773792487" lon="12.02824853979293"><ele>400.5</ele><time>2026-04-24T15:51:18Z</time></trkpt><trkpt lat="46.03653814169995" lon="12.028301690170082"><ele>404.0</ele><time>2026-04-24T15:51:19Z</time></trkpt><trkpt lat="46.03641684180137" lon="12.028344978851091"><ele>407.5</ele><time>2026-04-24T15:51:20Z</time></trkpt><trkpt lat="46.036311136326724" lon="12.028375969819031"><ele>411.0</ele><time>2026-04-24T15:51:21Z</time></trkpt><trkpt lat="46.03622099179846" lon="12.028397167204218"><ele>411.0</ele><time>2026-04-24T15:51:22Z</time></trkpt><trkpt lat="46.036129595344505" lon="12.028412403939571"><ele>411.0</ele><time>2026-04-24T15:51:23Z</time></trkpt><trkpt lat="46.036033384925055" lon="12.028413206616467"><ele>411.0</ele><time>2026-04-24T15:51:24Z</time></trkpt><trkpt lat="46.035941565817225" lon="12.028377523601934"><ele>411.0</ele><time>2026-04-24T15:51:25Z</time></trkpt><trkpt lat="46.03584863276812" lon="12.028308880802449"><ele>411.0</ele><time>2026-04-24T15:51:26Z</time></trkpt><trkpt lat="46.035755098701124" lon="12.028209093529018"><ele>415.5</ele><time>2026-04-24T15:51:27Z</time></trkpt><trkpt lat="46.03566312120644" lon="12.028077180405502"><ele>420.0</ele><time>2026-04-24T15:51:28Z</time></trkpt><trkpt lat="46.035566356482526" lon="12.02791917259715"><ele>424.5</ele><time>2026-04-24T15:51:29Z</time></trkpt><trkpt lat="46.035444952705795" lon="12.027742536978128"><ele>429.0</ele><time>2026-04-24T15:51:30Z</time></trkpt><trkpt lat="46.03531588258909" lon="12.027564929429527"><ele>428.5</ele><time>2026-04-24T15:51:31Z</time></trkpt><trkpt lat="46.03521700552624" lon="12.027425863932953"><ele>428.0</ele><time>2026-04-24T15:51:32Z</time></trkpt><trkpt lat="46.03513070163537" lon="12.027289748786577"><ele>427.5</ele><time>2026-04-24T15:51:33Z</time></trkpt><trkpt lat="46.035056092260085" lon="12.027171639662706"><ele>427.0</ele><time>2026-04-24T15:51:34Z</time></trkpt><trkpt lat="46.03498157729826" lon="12.027042963095601"><ele>433.75</ele><time>2026-04-24T15:51:35Z</time></trkpt><trkpt lat="46.03491769554908" lon="12.026898371659078"><ele>440.5</ele><time>2026-04-24T15:51:36Z</time></trkpt><trkpt lat="46.03486440925647" lon="12.02672637439103"><ele>447.25</ele><time>2026-04-24T15:51:37Z</time></trkpt><trkpt lat="46.034830365822344" lon="12.02653868527009"><ele>454.0</ele><time>2026-04-24T15:51:38Z</time></trkpt><trkpt lat="46.03481419652159" lon="12.026352331565958"><ele>454.0</ele><time>2026-04-24T15:51:39Z</time></trkpt><trkpt lat="46.03477860090461" lon="12.026166207582538"><ele>454.0</ele><time>2026-04-24T15:51:40Z</time></trkpt><trkpt lat="46.034718891424525" lon="12.025968239454103"><ele>454.0</ele><time>2026-04-24T15:51:41Z</time></trkpt><trkpt lat="46.03464559662453" lon="12.02575954687194"><ele>454.0</ele><time>2026-04-24T15:51:42Z</time></trkpt><trkpt lat="46.034587805651924" lon="12.025531619164054"><ele>453.75</ele><time>2026-04-24T15:51:43Z</time></trkpt><trkpt lat="46.034549907188406" lon="12.02530028714671"><ele>453.5</ele><time>2026-04-24T15:51:44Z</time></trkpt><trkpt lat="46.03452123899021" lon="12.025098615695617"><ele>453.25</ele><time>2026-04-24T15:51:45Z</time></trkpt><trkpt lat="46.0344915176636" lon="12.024929323886273"><ele>453.0</ele><time>2026-04-24T15:51:46Z</time></trkpt><trkpt lat="46.034453693321986" lon="12.024777911435773"><ele>452.4</ele><time>2026-04-24T15:51:47Z</time></trkpt><trkpt lat="46.03439674230075" lon="12.024625750500642"><ele>451.79999999999995</ele><time>2026-04-24T15:51:48Z</time></trkpt><trkpt lat="46.03433561452618" lon="12.02447860533991"><ele>451.2</ele><time>2026-04-24T15:51:49Z</time></trkpt><trkpt lat="46.03427915717903" lon="12.024363593725722"><ele>450.6</ele><time>2026-04-24T15:51:50Z</time></trkpt><trkpt lat="46.03421214586477" lon="12.024241294074606"><ele>450.0</ele><time>2026-04-24T15:51:51Z</time></trkpt><trkpt lat="46.03413685764596" lon="12.024124767461991"><ele>449.6</ele><time>2026-04-24T15:51:52Z</time></trkpt><trkpt lat="46.0340719900393" lon="12.024030388386603"><ele>449.2</ele><time>2026-04-24T15:51:53Z</time></trkpt><trkpt lat="46.03401566541475" lon="12.02395695334612"><ele>448.79999999999995</ele><time>2026-04-24T15:51:54Z</time></trkpt><trkpt lat="46.03391023815891" lon="12.023878946168082"><ele>448.4</ele><time>2026-04-24T15:51:56Z</time></trkpt><trkpt lat="46.033835444951656" lon="12.023854504229382"><ele>448.0</ele><time>2026-04-24T15:51:57Z</time></trkpt><trkpt lat="46.033749393529895" lon="12.023878423212496"><ele>448.0</ele><time>2026-04-24T15:51:58Z</time></trkpt><trkpt lat="46.03366369230714" lon="12.023931133172786"><ele>447.99999999999994</ele><time>2026-04-24T15:51:59Z</time></trkpt><trkpt lat="46.033573481243536" lon="12.02398791834943"><ele>447.99999999999994</ele><time>2026-04-24T15:52:00Z</time></trkpt><trkpt lat="46.033458841112626" lon="12.024044365738158"><ele>448.0</ele><time>2026-04-24T15:52:01Z</time></trkpt><trkpt lat="46.0333609515331" lon="12.024098675135027"><ele>448.0</ele><time>2026-04-24T15:52:02Z</time></trkpt><trkpt lat="46.033281149551215" lon="12.024141137370547"><ele>449.6666666666667</ele><time>2026-04-24T15:52:03Z</time></trkpt><trkpt lat="46.033211697201516" lon="12.024169240521923"><ele>451.33333333333337</ele><time>2026-04-24T15:52:04Z</time></trkpt><trkpt lat="46.03314836361936" lon="12.024223748087818"><ele>453.0</ele><time>2026-04-24T15:52:05Z</time></trkpt><trkpt lat="46.03309242039807" lon="12.024321719011237"><ele>454.66666666666663</ele><time>2026-04-24T15:52:06Z</time></trkpt><trkpt lat="46.033051954839166" lon="12.024445190906219"><ele>456.3333333333333</ele><time>2026-04-24T15:52:07Z</time></trkpt><trkpt lat="46.03301975177234" lon="12.024596034015763"><ele>458.0</ele><time>2026-04-24T15:52:08Z</time></trkpt><trkpt lat="46.032992091930474" lon="12.02476662015783"><ele>458.0</ele><time>2026-04-24T15:52:09Z</time></trkpt><trkpt lat="46.03296433679956" lon="12.0249678309895"><ele>458.0</ele><time>2026-04-24T15:52:10Z</time></trkpt><trkpt lat="46.03294204197449" lon="12.025154496772483"><ele>458.0</ele><time>2026-04-24T15:52:11Z</time></trkpt><trkpt lat="46.03291110852567" lon="12.025355400193835"><ele>458.0</ele><time>2026-04-24T15:52:12Z</time></trkpt><trkpt lat="46.0328759180522" lon="12.025583493715887"><ele>462.66666666666663</ele><time>2026-04-24T15:52:13Z</time></trkpt><trkpt lat="46.032841725627705" lon="12.025800357919616"><ele>467.33333333333337</ele><time>2026-04-24T15:52:14Z</time></trkpt><trkpt lat="46.03280459583566" lon="12.026018846578046"><ele>472.0</ele><time>2026-04-24T15:52:15Z</time></trkpt><trkpt lat="46.032767888391575" lon="12.026249574830063"><ele>474.0</ele><time>2026-04-24T15:52:16Z</time></trkpt><trkpt lat="46.032734172658216" lon="12.026445447811893"><ele>476.0</ele><time>2026-04-24T15:52:17Z</time></trkpt><trkpt lat="46.032705979156574" lon="12.026606301355413"><ele>478.0</ele><time>2026-04-24T15:52:18Z</time></trkpt><trkpt lat="46.03267666576899" lon="12.026752605277496"><ele>480.0</ele><time>2026-04-24T15:52:19Z</time></trkpt><trkpt lat="46.032646239850855" lon="12.026908525222028"><ele>482.75</ele><time>2026-04-24T15:52:20Z</time></trkpt><trkpt lat="46.03262236077299" lon="12.027063105932099"><ele>485.5</ele><time>2026-04-24T15:52:21Z</time></trkpt><trkpt lat="46.032610513783446" lon="12.027211551195803"><ele>488.25</ele><time>2026-04-24T15:52:22Z</time></trkpt><trkpt lat="46.032622052270675" lon="12.027377194758747"><ele>491.0</ele><time>2026-04-24T15:52:23Z</time></trkpt><trkpt lat="46.0326567208127" lon="12.027559571053525"><ele>494.0</ele><time>2026-04-24T15:52:24Z</time></trkpt><trkpt lat="46.0326819865499" lon="12.027755269533236"><ele>497.0</ele><time>2026-04-24T15:52:25Z</time></trkpt><trkpt lat="46.032747746636026" lon="12.027960871892084"><ele>500.0</ele><time>2026-04-24T15:52:26Z</time></trkpt><trkpt lat="46.03281923895396" lon="12.028153214973463"><ele>503.0</ele><time>2026-04-24T15:52:27Z</time></trkpt><trkpt lat="46.03286218258898" lon="12.028311103622455"><ele>507.0</ele><time>2026-04-24T15:52:28Z</time></trkpt><trkpt lat="46.03290288397169" lon="12.028474211567001"><ele>511.0</ele><time>2026-04-24T15:52:29Z</time></trkpt><trkpt lat="46.03292604827141" lon="12.028638461921629"><ele>515.0</ele><time>2026-04-24T15:52:30Z</time></trkpt><trkpt lat="46.032943633404784" lon="12.02879413290804"><ele>519.0</ele><time>2026-04-24T15:52:31Z</time></trkpt><trkpt lat="46.03295577588484" lon="12.02896722512181"><ele>520.8</ele><time>2026-04-24T15:52:32Z</time></trkpt><trkpt lat="46.032962308466175" lon="12.029172465188678"><ele>522.5999999999999</ele><time>2026-04-24T15:52:33Z</time></trkpt><trkpt lat="46.03295905784183" lon="12.029345096184596"><ele>524.4</ele><time>2026-04-24T15:52:34Z</time></trkpt><trkpt lat="46.032951918049136" lon="12.02945666367591"><ele>526.1999999999999</ele><time>2026-04-24T15:52:35Z</time></trkpt><trkpt lat="46.03293941243951" lon="12.029573906526267"><ele>528.0</ele><time>2026-04-24T15:52:36Z</time></trkpt><trkpt lat="46.03289616420452" lon="12.029710774856918"><ele>528.0</ele><time>2026-04-24T15:52:37Z</time></trkpt><trkpt lat="46.03287012160071" lon="12.029885152770614"><ele>528.0</ele><time>2026-04-24T15:52:38Z</time></trkpt><trkpt lat="46.03280112783373" lon="12.03003088708022"><ele>528.0</ele><time>2026-04-24T15:52:39Z</time></trkpt><trkpt lat="46.03276223418305" lon="12.030188345773949"><ele>528.0</ele><time>2026-04-24T15:52:40Z</time></trkpt><trkpt lat="46.032733554545075" lon="12.030313717925539"><ele>527.8</ele><time>2026-04-24T15:52:41Z</time></trkpt><trkpt lat="46.0327183309284" lon="12.030452517288946"><ele>527.5999999999999</ele><time>2026-04-24T15:52:42Z</time></trkpt><trkpt lat="46.03272858228391" lon="12.030596449358143"><ele>527.4000000000001</ele><time>2026-04-24T15:52:43Z</time></trkpt><trkpt lat="46.03274189016194" lon="12.030735126585439"><ele>527.2</ele><time>2026-04-24T15:52:44Z</time></trkpt><trkpt lat="46.03277450669745" lon="12.03090995852361"><ele>527.0</ele><time>2026-04-24T15:52:45Z</time></trkpt><trkpt lat="46.032790419283806" lon="12.031082139735872"><ele>527.3333333333333</ele><time>2026-04-24T15:52:46Z</time></trkpt><trkpt lat="46.0328023888338" lon="12.031208073525441"><ele>527.6666666666666</ele><time>2026-04-24T15:52:47Z</time></trkpt><trkpt lat="46.03280720615666" lon="12.031329646062233"><ele>528.0</ele><time>2026-04-24T15:52:48Z</time></trkpt><trkpt lat="46.032801775920476" lon="12.031439328981428"><ele>528.3333333333334</ele><time>2026-04-24T15:52:49Z</time></trkpt><trkpt lat="46.03278200592778" lon="12.031551287315267"><ele>528.6666666666667</ele><time>2026-04-24T15:52:50Z</time></trkpt><trkpt lat="46.032748960878735" lon="12.031683155005933"><ele>529.0</ele><time>2026-04-24T15:52:51Z</time></trkpt><trkpt lat="46.03268868154427" lon="12.031816818223632"><ele>529.8</ele><time>2026-04-24T15:52:52Z</time></trkpt><trkpt lat="46.03261239056602" lon="12.031905350619654"><ele>530.5999999999999</ele><time>2026-04-24T15:52:52.999Z</time></trkpt><trkpt lat="46.03255056767123" lon="12.032013957173556"><ele>531.4</ele><time>2026-04-24T15:52:53.999Z</time></trkpt><trkpt lat="46.03245198765087" lon="12.032104005750668"><ele>532.1999999999999</ele><time>2026-04-24T15:52:55Z</time></trkpt><trkpt lat="46.032380712001554" lon="12.032220718632816"><ele>533.0</ele><time>2026-04-24T15:52:56Z</time></trkpt><trkpt lat="46.0323683567094" lon="12.032364236609737"><ele>538.25</ele><time>2026-04-24T15:52:57Z</time></trkpt><trkpt lat="46.03231392843559" lon="12.032523787845948"><ele>543.5</ele><time>2026-04-24T15:52:58Z</time></trkpt><trkpt lat="46.03227809815122" lon="12.032709249686276"><ele>548.75</ele><time>2026-04-24T15:52:59Z</time></trkpt><trkpt lat="46.032238048072394" lon="12.03293929658897"><ele>554.0</ele><time>2026-04-24T15:53:00Z</time></trkpt><trkpt lat="46.03219780337781" lon="12.033184204787707"><ele>554.75</ele><time>2026-04-24T15:53:01Z</time></trkpt><trkpt lat="46.03216635996695" lon="12.03337545265316"><ele>555.5</ele><time>2026-04-24T15:53:02Z</time></trkpt><trkpt lat="46.03213255241748" lon="12.033581080010661"><ele>556.25</ele><time>2026-04-24T15:53:03Z</time></trkpt><trkpt lat="46.03210359104276" lon="12.033753532416636"><ele>557.0</ele><time>2026-04-24T15:53:04Z</time></trkpt><trkpt lat="46.032080289955054" lon="12.033891623102788"><ele>557.0</ele><time>2026-04-24T15:53:05Z</time></trkpt><trkpt lat="46.03206963315783" lon="12.034047354762588"><ele>557.0</ele><time>2026-04-24T15:53:06Z</time></trkpt><trkpt lat="46.032035486969775" lon="12.034180114014623"><ele>557.0</ele><time>2026-04-24T15:53:07Z</time></trkpt><trkpt lat="46.03200278035726" lon="12.034305180695684"><ele>557.0</ele><time>2026-04-24T15:53:08Z</time></trkpt><trkpt lat="46.031962157468556" lon="12.034451502032073"><ele>557.0</ele><time>2026-04-24T15:53:09Z</time></trkpt><trkpt lat="46.031910458172895" lon="12.03459445278111"><ele>557.6</ele><time>2026-04-24T15:53:10Z</time></trkpt><trkpt lat="46.03187027974818" lon="12.034686131259159"><ele>558.2</ele><time>2026-04-24T15:53:11Z</time></trkpt><trkpt lat="46.0318108220833" lon="12.034785697349413"><ele>558.8</ele><time>2026-04-24T15:53:12Z</time></trkpt><trkpt lat="46.03173302316574" lon="12.034854295240823"><ele>559.4</ele><time>2026-04-24T15:53:13Z</time></trkpt><trkpt lat="46.03164172602391" lon="12.03487884978072"><ele>560.0</ele><time>2026-04-24T15:53:14Z</time></trkpt><trkpt lat="46.03153185235406" lon="12.03489798122447"><ele>564.0</ele><time>2026-04-24T15:53:15Z</time></trkpt><trkpt lat="46.03141013439714" lon="12.03490609044244"><ele>568.0</ele><time>2026-04-24T15:53:16Z</time></trkpt><trkpt lat="46.031288038211514" lon="12.034919845666984"><ele>572.0</ele><time>2026-04-24T15:53:17Z</time></trkpt><trkpt lat="46.031137368653766" lon="12.034938214697108"><ele>576.0</ele><time>2026-04-24T15:53:18Z</time></trkpt><trkpt lat="46.03098615674757" lon="12.03495246240679"><ele>576.0</ele><time>2026-04-24T15:53:19Z</time></trkpt><trkpt lat="46.03081483627479" lon="12.034970142506774"><ele>576.0</ele><time>2026-04-24T15:53:20Z</time></trkpt><trkpt lat="46.0306315089942" lon="12.03499232634714"><ele>576.0</ele><time>2026-04-24T15:53:21Z</time></trkpt><trkpt lat="46.03046517437596" lon="12.035014708489687"><ele>575.6666666666666</ele><time>2026-04-24T15:53:22Z</time></trkpt><trkpt lat="46.03028722377202" lon="12.035040018126134"><ele>575.3333333333333</ele><time>2026-04-24T15:53:23Z</time></trkpt><trkpt lat="46.030142117187346" lon="12.0350560343254"><ele>575.0</ele><time>2026-04-24T15:53:24Z</time></trkpt><trkpt lat="46.030009342962586" lon="12.035074605730594"><ele>576.75</ele><time>2026-04-24T15:53:25Z</time></trkpt><trkpt lat="46.02986984121551" lon="12.035091968570432"><ele>578.5</ele><time>2026-04-24T15:53:26Z</time></trkpt><trkpt lat="46.029744981240874" lon="12.035106027143417"><ele>580.25</ele><time>2026-04-24T15:53:27Z</time></trkpt><trkpt lat="46.02963924224291" lon="12.035107706819678"><ele>582.0</ele><time>2026-04-24T15:53:28Z</time></trkpt><trkpt lat="46.0295095203046" lon="12.035076015563241"><ele>582.0</ele><time>2026-04-24T15:53:29Z</time></trkpt><trkpt lat="46.02937318902487" lon="12.03501770937401"><ele>582.0</ele><time>2026-04-24T15:53:30Z</time></trkpt><trkpt lat="46.029222632711665" lon="12.03492462720479"><ele>582.0</ele><time>2026-04-24T15:53:31Z</time></trkpt><trkpt lat="46.029063614917575" lon="12.034816189388296"><ele>585.0</ele><time>2026-04-24T15:53:32Z</time></trkpt><trkpt lat="46.0289112193175" lon="12.034711417418132"><ele>588.0</ele><time>2026-04-24T15:53:33Z</time></trkpt><trkpt lat="46.028749073398984" lon="12.034599559699723"><ele>591.0</ele><time>2026-04-24T15:53:34Z</time></trkpt><trkpt lat="46.02860772274798" lon="12.034515371990537"><ele>591.0</ele><time>2026-04-24T15:53:35Z</time></trkpt><trkpt lat="46.028498694524856" lon="12.034430077457355"><ele>591.0</ele><time>2026-04-24T15:53:36Z</time></trkpt><trkpt lat="46.02838705422411" lon="12.034325814069733"><ele>591.0</ele><time>2026-04-24T15:53:37Z</time></trkpt><trkpt lat="46.028274992699735" lon="12.034200632051753"><ele>591.0</ele><time>2026-04-24T15:53:38Z</time></trkpt><trkpt lat="46.02816053345316" lon="12.034052655453753"><ele>597.6666666666666</ele><time>2026-04-24T15:53:39Z</time></trkpt><trkpt lat="46.028027800877034" lon="12.03389697781662"><ele>604.3333333333333</ele><time>2026-04-24T15:53:40Z</time></trkpt><trkpt lat="46.02790061548056" lon="12.033747658898704"><ele>611.0</ele><time>2026-04-24T15:53:41Z</time></trkpt><trkpt lat="46.02779574612972" lon="12.033624807015919"><ele>611.0</ele><time>2026-04-24T15:53:42Z</time></trkpt><trkpt lat="46.0276958274652" lon="12.033508461007088"><ele>611.0</ele><time>2026-04-24T15:53:43Z</time></trkpt><trkpt lat="46.02760376667924" lon="12.033398194153325"><ele>611.0</ele><time>2026-04-24T15:53:44Z</time></trkpt><trkpt lat="46.02751764238768" lon="12.033278213464206"><ele>611.0</ele><time>2026-04-24T15:53:45Z</time></trkpt><trkpt lat="46.02744418746947" lon="12.033115367987921"><ele>619.6666666666666</ele><time>2026-04-24T15:53:46Z</time></trkpt><trkpt lat="46.02737717887027" lon="12.032935334700902"><ele>628.3333333333334</ele><time>2026-04-24T15:53:47Z</time></trkpt><trkpt lat="46.02730439815152" lon="12.032745179754782"><ele>637.0</ele><time>2026-04-24T15:53:48Z</time></trkpt><trkpt lat="46.02723983981513" lon="12.032532314522545"><ele>635.0</ele><time>2026-04-24T15:53:49Z</time></trkpt><trkpt lat="46.02715279983426" lon="12.032289167634216"><ele>633.0</ele><time>2026-04-24T15:53:50Z</time></trkpt><trkpt lat="46.02707701311951" lon="12.032095274157378"><ele>631.0</ele><time>2026-04-24T15:53:51Z</time></trkpt><trkpt lat="46.02701241660361" lon="12.031905023911499"><ele>631.0</ele><time>2026-04-24T15:53:52Z</time></trkpt><trkpt lat="46.026943153465595" lon="12.031683810289405"><ele>631.0</ele><time>2026-04-24T15:53:53Z</time></trkpt><trkpt lat="46.02686338456969" lon="12.03144087590288"><ele>631.0</ele><time>2026-04-24T15:53:54Z</time></trkpt><trkpt lat="46.026794173817215" lon="12.031232325674544"><ele>631.0</ele><time>2026-04-24T15:53:55Z</time></trkpt><trkpt lat="46.02672485624899" lon="12.03101132204313"><ele>631.0</ele><time>2026-04-24T15:53:56Z</time></trkpt><trkpt lat="46.02665410805335" lon="12.030781111821161"><ele>631.0</ele><time>2026-04-24T15:53:57Z</time></trkpt><trkpt lat="46.026593504898294" lon="12.030587831319904"><ele>638.0</ele><time>2026-04-24T15:53:58Z</time></trkpt><trkpt lat="46.026518801262725" lon="12.030371155040271"><ele>645.0</ele><time>2026-04-24T15:53:59Z</time></trkpt><trkpt lat="46.02644111163134" lon="12.030131721894428"><ele>652.0</ele><time>2026-04-24T15:54:00Z</time></trkpt><trkpt lat="46.02637982852951" lon="12.029912571651922"><ele>652.25</ele><time>2026-04-24T15:54:01Z</time></trkpt><trkpt lat="46.02632383528404" lon="12.029733961754145"><ele>652.5</ele><time>2026-04-24T15:54:02Z</time></trkpt><trkpt lat="46.02627156475432" lon="12.029532462331014"><ele>652.75</ele><time>2026-04-24T15:54:03Z</time></trkpt><trkpt lat="46.026233872871316" lon="12.029319699003462"><ele>653.0</ele><time>2026-04-24T15:54:04Z</time></trkpt><trkpt lat="46.026196175873686" lon="12.02913275712242"><ele>653.0</ele><time>2026-04-24T15:54:05Z</time></trkpt><trkpt lat="46.02616478076932" lon="12.028975041907447"><ele>653.0</ele><time>2026-04-24T15:54:06Z</time></trkpt><trkpt lat="46.02613129193222" lon="12.028839538936385"><ele>653.0</ele><time>2026-04-24T15:54:07Z</time></trkpt><trkpt lat="46.026099049082326" lon="12.028721450525188"><ele>653.0</ele><time>2026-04-24T15:54:08Z</time></trkpt><trkpt lat="46.02605745898185" lon="12.028613447311313"><ele>653.0</ele><time>2026-04-24T15:54:09Z</time></trkpt><trkpt lat="46.0259899948663" lon="12.028523159190481"><ele>653.0</ele><time>2026-04-24T15:54:10Z</time></trkpt><trkpt lat="46.025895932175466" lon="12.028448701244402"><ele>653.0</ele><time>2026-04-24T15:54:11Z</time></trkpt><trkpt lat="46.02578048995556" lon="12.028383658677656"><ele>653.0</ele><time>2026-04-24T15:54:12Z</time></trkpt><trkpt lat="46.02566421345056" lon="12.028346352401853"><ele>653.0</ele><time>2026-04-24T15:54:13Z</time></trkpt><trkpt lat="46.02557995231429" lon="12.028273104123048"><ele>653.0</ele><time>2026-04-24T15:54:14Z</time></trkpt><trkpt lat="46.02550727831225" lon="12.028218614341995"><ele>655.8</ele><time>2026-04-24T15:54:15Z</time></trkpt><trkpt lat="46.025447839041156" lon="12.028147085695036"><ele>658.5999999999999</ele><time>2026-04-24T15:54:16Z</time></trkpt><trkpt lat="46.02539815274515" lon="12.028034977075533"><ele>661.4000000000001</ele><time>2026-04-24T15:54:17Z</time></trkpt><trkpt lat="46.02537750123584" lon="12.02789293128083"><ele>664.2</ele><time>2026-04-24T15:54:18Z</time></trkpt><trkpt lat="46.02534201930245" lon="12.02773123073709"><ele>667.0</ele><time>2026-04-24T15:54:19Z</time></trkpt><trkpt lat="46.02531466509112" lon="12.02753516947267"><ele>666.75</ele><time>2026-04-24T15:54:20Z</time></trkpt><trkpt lat="46.02528331741621" lon="12.027341022933982"><ele>666.5</ele><time>2026-04-24T15:54:21Z</time></trkpt><trkpt lat="46.025250012592686" lon="12.027133723682953"><ele>666.25</ele><time>2026-04-24T15:54:22Z</time></trkpt><trkpt lat="46.02522129302592" lon="12.026916393984257"><ele>666.0</ele><time>2026-04-24T15:54:23Z</time></trkpt><trkpt lat="46.02517429800785" lon="12.026707885878901"><ele>665.75</ele><time>2026-04-24T15:54:24Z</time></trkpt><trkpt lat="46.02513654633604" lon="12.026500414690494"><ele>665.5</ele><time>2026-04-24T15:54:25Z</time></trkpt><trkpt lat="46.025100717154864" lon="12.026328729235859"><ele>665.25</ele><time>2026-04-24T15:54:26Z</time></trkpt><trkpt lat="46.02504633810096" lon="12.026139049269203"><ele>665.0</ele><time>2026-04-24T15:54:27Z</time></trkpt><trkpt lat="46.02498810340958" lon="12.02597462605644"><ele>669.75</ele><time>2026-04-24T15:54:28Z</time></trkpt><trkpt lat="46.0249304092089" lon="12.025815389207198"><ele>674.5</ele><time>2026-04-24T15:54:29Z</time></trkpt><trkpt lat="46.02485573667313" lon="12.025624322760642"><ele>679.25</ele><time>2026-04-24T15:54:30Z</time></trkpt><trkpt lat="46.024775811865425" lon="12.025418405486146"><ele>684.0</ele><time>2026-04-24T15:54:31Z</time></trkpt><trkpt lat="46.02469341190343" lon="12.025206225243634"><ele>684.0</ele><time>2026-04-24T15:54:32Z</time></trkpt><trkpt lat="46.024617052504816" lon="12.025008932828744"><ele>684.0</ele><time>2026-04-24T15:54:32.999Z</time></trkpt><trkpt lat="46.02454576643528" lon="12.024854337388414"><ele>684.0</ele><time>2026-04-24T15:54:33.999Z</time></trkpt><trkpt lat="46.02447900606463" lon="12.024668764753997"><ele>684.0</ele><time>2026-04-24T15:54:34.999Z</time></trkpt><trkpt lat="46.02441954461819" lon="12.02453124866956"><ele>683.3333333333334</ele><time>2026-04-24T15:54:35.999Z</time></trkpt><trkpt lat="46.024371437970345" lon="12.024422647163188"><ele>682.6666666666666</ele><time>2026-04-24T15:54:36.999Z</time></trkpt><trkpt lat="46.02433584842355" lon="12.024331306555577"><ele>682.0</ele><time>2026-04-24T15:54:37.999Z</time></trkpt><trkpt lat="46.02426944448991" lon="12.024212986101125"><ele>681.3333333333333</ele><time>2026-04-24T15:54:39.999Z</time></trkpt><trkpt lat="46.02420856473416" lon="12.024180959681006"><ele>680.6666666666666</ele><time>2026-04-24T15:54:40.999Z</time></trkpt><trkpt lat="46.02409207715484" lon="12.024167677424522"><ele>680.0</ele><time>2026-04-24T15:54:42.999Z</time></trkpt><trkpt lat="46.024006193989656" lon="12.02429251379355"><ele>685.6666666666666</ele><time>2026-04-24T15:54:44.999Z</time></trkpt><trkpt lat="46.0240026973855" lon="12.024407883335842"><ele>691.3333333333333</ele><time>2026-04-24T15:54:45.999Z</time></trkpt><trkpt lat="46.02399738724677" lon="12.024518416319747"><ele>697.0</ele><time>2026-04-24T15:54:46.999Z</time></trkpt><trkpt lat="46.02402470434421" lon="12.024638221824906"><ele>702.6666666666666</ele><time>2026-04-24T15:54:47.999Z</time></trkpt><trkpt lat="46.024056898998765" lon="12.024762364841463"><ele>708.3333333333334</ele><time>2026-04-24T15:54:48.999Z</time></trkpt><trkpt lat="46.02408924084014" lon="12.02489532566144"><ele>714.0</ele><time>2026-04-24T15:54:49.999Z</time></trkpt><trkpt lat="46.024125874750965" lon="12.02504593185459"><ele>714.0</ele><time>2026-04-24T15:54:50.999Z</time></trkpt><trkpt lat="46.02415645454003" lon="12.025160676982074"><ele>714.0</ele><time>2026-04-24T15:54:51.999Z</time></trkpt><trkpt lat="46.02419747500983" lon="12.025257630809016"><ele>714.0</ele><time>2026-04-24T15:54:52.999Z</time></trkpt><trkpt lat="46.02419213068182" lon="12.02537613541975"><ele>714.0</ele><time>2026-04-24T15:54:53.999Z</time></trkpt><trkpt lat="46.02420161453062" lon="12.025495720188568"><ele>714.0</ele><time>2026-04-24T15:54:54.999Z</time></trkpt><trkpt lat="46.02414523611019" lon="12.025613011433581"><ele>714.0</ele><time>2026-04-24T15:54:55.999Z</time></trkpt><trkpt lat="46.02410561344522" lon="12.02575211954072"><ele>714.4000000000001</ele><time>2026-04-24T15:54:56.999Z</time></trkpt><trkpt lat="46.02406521024357" lon="12.025903521179945"><ele>714.8</ele><time>2026-04-24T15:54:57.999Z</time></trkpt><trkpt lat="46.024022484755406" lon="12.026079638991298"><ele>715.2</ele><time>2026-04-24T15:54:58.999Z</time></trkpt><trkpt lat="46.0239889864694" lon="12.026224022889632"><ele>715.5999999999999</ele><time>2026-04-24T15:54:59.999Z</time></trkpt><trkpt lat="46.023951925146854" lon="12.02633095902705"><ele>716.0</ele><time>2026-04-24T15:55:01Z</time></trkpt><trkpt lat="46.023890811672736" lon="12.02645245232095"><ele>716.0</ele><time>2026-04-24T15:55:02Z</time></trkpt><trkpt lat="46.023806774949385" lon="12.026577128408256"><ele>716.0</ele><time>2026-04-24T15:55:03Z</time></trkpt><trkpt lat="46.02369832228056" lon="12.026720722830472"><ele>716.0</ele><time>2026-04-24T15:55:04Z</time></trkpt><trkpt lat="46.02359108069237" lon="12.026833539104958"><ele>716.0</ele><time>2026-04-24T15:55:05Z</time></trkpt><trkpt lat="46.02351580213614" lon="12.026942534596756"><ele>715.4285714285714</ele><time>2026-04-24T15:55:06Z</time></trkpt><trkpt lat="46.02345350834514" lon="12.026991558038205"><ele>714.8571428571429</ele><time>2026-04-24T15:55:07Z</time></trkpt><trkpt lat="46.02338758887226" lon="12.027035281942656"><ele>714.2857142857142</ele><time>2026-04-24T15:55:08Z</time></trkpt><trkpt lat="46.023313282368285" lon="12.027057530966465"><ele>713.7142857142858</ele><time>2026-04-24T15:55:09Z</time></trkpt><trkpt lat="46.02324398209926" lon="12.027033871632863"><ele>713.1428571428571</ele><time>2026-04-24T15:55:10Z</time></trkpt><trkpt lat="46.02317587305409" lon="12.026988624807037"><ele>712.5714285714286</ele><time>2026-04-24T15:55:11Z</time></trkpt><trkpt lat="46.0231429789242" lon="12.02688135942115"><ele>712.0</ele><time>2026-04-24T15:55:12Z</time></trkpt><trkpt lat="46.02310767383602" lon="12.026673411692139"><ele>717.0</ele><time>2026-04-24T15:55:14Z</time></trkpt><trkpt lat="46.02308136376467" lon="12.026534785103408"><ele>722.0</ele><time>2026-04-24T15:55:15Z</time></trkpt><trkpt lat="46.023049212037435" lon="12.026357923290695"><ele>727.0</ele><time>2026-04-24T15:55:16Z</time></trkpt><trkpt lat="46.02300322651725" lon="12.026189460004048"><ele>732.0</ele><time>2026-04-24T15:55:17Z</time></trkpt><trkpt lat="46.022948919823776" lon="12.025991665714107"><ele>731.8</ele><time>2026-04-24T15:55:18Z</time></trkpt><trkpt lat="46.02290525173835" lon="12.025793676595505"><ele>731.6</ele><time>2026-04-24T15:55:19Z</time></trkpt><trkpt lat="46.02285550031824" lon="12.025639365184434"><ele>731.4</ele><time>2026-04-24T15:55:20Z</time></trkpt><trkpt lat="46.0228244390086" lon="12.025506933605186"><ele>731.1999999999999</ele><time>2026-04-24T15:55:21Z</time></trkpt><trkpt lat="46.022795682820345" lon="12.025393584874838"><ele>731.0</ele><time>2026-04-24T15:55:22Z</time></trkpt><trkpt lat="46.0227706553348" lon="12.02529565427423"><ele>731.0</ele><time>2026-04-24T15:55:23Z</time></trkpt><trkpt lat="46.022754214117434" lon="12.025192592159067"><ele>731.0</ele><time>2026-04-24T15:55:24Z</time></trkpt><trkpt lat="46.022719962074305" lon="12.025110615413116"><ele>731.0</ele><time>2026-04-24T15:55:25Z</time></trkpt><trkpt lat="46.02265385597499" lon="12.025044925410715"><ele>731.0</ele><time>2026-04-24T15:55:26Z</time></trkpt><trkpt lat="46.02256294891319" lon="12.025013082495795"><ele>731.0</ele><time>2026-04-24T15:55:27Z</time></trkpt><trkpt lat="46.02245271567983" lon="12.025016040969726"><ele>731.0</ele><time>2026-04-24T15:55:28Z</time></trkpt><trkpt lat="46.02233935420445" lon="12.025029691795432"><ele>732.8</ele><time>2026-04-24T15:55:29Z</time></trkpt><trkpt lat="46.0222688902963" lon="12.025029318950072"><ele>734.5999999999999</ele><time>2026-04-24T15:55:30Z</time></trkpt><trkpt lat="46.02219601093702" lon="12.024986871685003"><ele>736.4</ele><time>2026-04-24T15:55:31Z</time></trkpt><trkpt lat="46.02212441983431" lon="12.024914891088923"><ele>738.2</ele><time>2026-04-24T15:55:32Z</time></trkpt><trkpt lat="46.02205392811981" lon="12.024813099914951"><ele>740.0</ele><time>2026-04-24T15:55:33Z</time></trkpt><trkpt lat="46.021985544028965" lon="12.024668302931778"><ele>740.25</ele><time>2026-04-24T15:55:34Z</time></trkpt><trkpt lat="46.021912899786656" lon="12.024532807327697"><ele>740.5</ele><time>2026-04-24T15:55:35Z</time></trkpt><trkpt lat="46.02183425719902" lon="12.024380552181741"><ele>740.75</ele><time>2026-04-24T15:55:36Z</time></trkpt><trkpt lat="46.0217692452038" lon="12.02427307793924"><ele>741.0</ele><time>2026-04-24T15:55:37Z</time></trkpt><trkpt lat="46.02168740834162" lon="12.024173240008967"><ele>744.0</ele><time>2026-04-24T15:55:38Z</time></trkpt><trkpt lat="46.02158391439382" lon="12.024093585241719"><ele>747.0</ele><time>2026-04-24T15:55:39Z</time></trkpt><trkpt lat="46.02144739614881" lon="12.024014830196224"><ele>750.0</ele><time>2026-04-24T15:55:40Z</time></trkpt><trkpt lat="46.02129876982885" lon="12.023933313163706"><ele>753.0</ele><time>2026-04-24T15:55:41Z</time></trkpt><trkpt lat="46.021156765746056" lon="12.023854506393292"><ele>753.0</ele><time>2026-04-24T15:55:42Z</time></trkpt><trkpt lat="46.021045894494215" lon="12.023787387498336"><ele>753.0</ele><time>2026-04-24T15:55:43Z</time></trkpt><trkpt lat="46.02093692337847" lon="12.023706823301339"><ele>753.0</ele><time>2026-04-24T15:55:44Z</time></trkpt><trkpt lat="46.020826642659166" lon="12.023615520045205"><ele>753.0</ele><time>2026-04-24T15:55:45Z</time></trkpt><trkpt lat="46.020713965824555" lon="12.023501532526645"><ele>757.2</ele><time>2026-04-24T15:55:46Z</time></trkpt><trkpt lat="46.02062836579355" lon="12.023411681352172"><ele>761.4</ele><time>2026-04-24T15:55:47Z</time></trkpt><trkpt lat="46.02054045143588" lon="12.023335306502222"><ele>765.6</ele><time>2026-04-24T15:55:48Z</time></trkpt><trkpt lat="46.020452871093745" lon="12.023258282661223"><ele>769.8000000000001</ele><time>2026-04-24T15:55:49Z</time></trkpt><trkpt lat="46.02035512034194" lon="12.023206614597648"><ele>774.0</ele><time>2026-04-24T15:55:50Z</time></trkpt><trkpt lat="46.02025644962378" lon="12.023180056754477"><ele>774.0</ele><time>2026-04-24T15:55:51Z</time></trkpt><trkpt lat="46.02014433849019" lon="12.023182557475204"><ele>774.0</ele><time>2026-04-24T15:55:52Z</time></trkpt><trkpt lat="46.02001980844929" lon="12.023197918390325"><ele>774.0</ele><time>2026-04-24T15:55:53Z</time></trkpt><trkpt lat="46.01988151377158" lon="12.023217785305608"><ele>774.0</ele><time>2026-04-24T15:55:54Z</time></trkpt><trkpt lat="46.01973264441263" lon="12.02323152590968"><ele>776.6</ele><time>2026-04-24T15:55:55Z</time></trkpt><trkpt lat="46.01959410937182" lon="12.023249725017244"><ele>779.2</ele><time>2026-04-24T15:55:56Z</time></trkpt><trkpt lat="46.01948996067873" lon="12.02328315505986"><ele>781.8000000000001</ele><time>2026-04-24T15:55:57Z</time></trkpt><trkpt lat="46.01937975862293" lon="12.023290729251737"><ele>784.4000000000001</ele><time>2026-04-24T15:55:58Z</time></trkpt><trkpt lat="46.019286822422835" lon="12.023301635692452"><ele>787.0</ele><time>2026-04-24T15:55:59Z</time></trkpt><trkpt lat="46.019210502616886" lon="12.0233346779389"><ele>788.8571428571429</ele><time>2026-04-24T15:56:00Z</time></trkpt><trkpt lat="46.01912596840265" lon="12.023341083275149"><ele>790.7142857142857</ele><time>2026-04-24T15:56:01Z</time></trkpt><trkpt lat="46.019068200203776" lon="12.02330008906731"><ele>792.5714285714287</ele><time>2026-04-24T15:56:02Z</time></trkpt><trkpt lat="46.01900843205144" lon="12.023252237192532"><ele>794.4285714285714</ele><time>2026-04-24T15:56:03Z</time></trkpt><trkpt lat="46.01895633507638" lon="12.02316955387636"><ele>796.2857142857143</ele><time>2026-04-24T15:56:04Z</time></trkpt><trkpt lat="46.01889356389335" lon="12.023082045099876"><ele>798.1428571428572</ele><time>2026-04-24T15:56:05Z</time></trkpt><trkpt lat="46.01887194333657" lon="12.02299305235024"><ele>800.0</ele><time>2026-04-24T15:56:06Z</time></trkpt><trkpt lat="46.01883440617757" lon="12.022912471271622"><ele>800.0000000000001</ele><time>2026-04-24T15:56:07Z</time></trkpt><trkpt lat="46.01878192302725" lon="12.022858619320173"><ele>800.0</ele><time>2026-04-24T15:56:08Z</time></trkpt><trkpt lat="46.01871548755605" lon="12.022836574226895"><ele>800.0</ele><time>2026-04-24T15:56:09Z</time></trkpt><trkpt lat="46.01864329396919" lon="12.022852305754936"><ele>800.0</ele><time>2026-04-24T15:56:10Z</time></trkpt><trkpt lat="46.0185754139496" lon="12.022903837663033"><ele>800.0000000000001</ele><time>2026-04-24T15:56:11Z</time></trkpt><trkpt lat="46.01849310942538" lon="12.023100013661741"><ele>800.0</ele><time>2026-04-24T15:56:13Z</time></trkpt><trkpt lat="46.018482337323974" lon="12.023223342507693"><ele>801.2</ele><time>2026-04-24T15:56:14Z</time></trkpt><trkpt lat="46.018472388900804" lon="12.023346949967497"><ele>802.4</ele><time>2026-04-24T15:56:15Z</time></trkpt><trkpt lat="46.018464144291066" lon="12.02349314677579"><ele>803.5999999999999</ele><time>2026-04-24T15:56:16Z</time></trkpt><trkpt lat="46.01843446538478" lon="12.02365250549755"><ele>804.8</ele><time>2026-04-24T15:56:17Z</time></trkpt><trkpt lat="46.018425636801005" lon="12.023835660319937"><ele>806.0</ele><time>2026-04-24T15:56:18Z</time></trkpt><trkpt lat="46.01841248943078" lon="12.024033537392107"><ele>810.3333333333334</ele><time>2026-04-24T15:56:19Z</time></trkpt><trkpt lat="46.018404308606286" lon="12.024242068873688"><ele>814.6666666666667</ele><time>2026-04-24T15:56:20Z</time></trkpt><trkpt lat="46.018398399110055" lon="12.024450132017545"><ele>819.0</ele><time>2026-04-24T15:56:21Z</time></trkpt><trkpt lat="46.018398119707456" lon="12.024683468000575"><ele>819.0</ele><time>2026-04-24T15:56:22Z</time></trkpt><trkpt lat="46.01839578101099" lon="12.024949338155691"><ele>819.0</ele><time>2026-04-24T15:56:23Z</time></trkpt><trkpt lat="46.018394669928284" lon="12.025208208523138"><ele>819.0</ele><time>2026-04-24T15:56:24Z</time></trkpt><trkpt lat="46.018401562975164" lon="12.025418114543443"><ele>821.25</ele><time>2026-04-24T15:56:25Z</time></trkpt><trkpt lat="46.018402520343855" lon="12.025638282231972"><ele>823.5</ele><time>2026-04-24T15:56:26Z</time></trkpt><trkpt lat="46.01840214054917" lon="12.0258456835849"><ele>825.75</ele><time>2026-04-24T15:56:27Z</time></trkpt><trkpt lat="46.01841147898868" lon="12.026040203331979"><ele>828.0</ele><time>2026-04-24T15:56:28Z</time></trkpt><trkpt lat="46.01841807371357" lon="12.026195947301845"><ele>828.8</ele><time>2026-04-24T15:56:29Z</time></trkpt><trkpt lat="46.018422086633095" lon="12.026342988349603"><ele>829.5999999999999</ele><time>2026-04-24T15:56:30Z</time></trkpt><trkpt lat="46.01842152821302" lon="12.026471257736405"><ele>830.4000000000001</ele><time>2026-04-24T15:56:31Z</time></trkpt><trkpt lat="46.018435039886455" lon="12.026580749905483"><ele>831.2</ele><time>2026-04-24T15:56:32Z</time></trkpt><trkpt lat="46.018422129708135" lon="12.026690298729976"><ele>832.0</ele><time>2026-04-24T15:56:33Z</time></trkpt><trkpt lat="46.01835628709338" lon="12.026858432149105"><ele>835.3333333333333</ele><time>2026-04-24T15:56:35Z</time></trkpt><trkpt lat="46.01826653536648" lon="12.026918302638267"><ele>838.6666666666666</ele><time>2026-04-24T15:56:37Z</time></trkpt><trkpt lat="46.01819839938286" lon="12.026894311824869"><ele>842.0</ele><time>2026-04-24T15:56:38Z</time></trkpt><trkpt lat="46.018131534052664" lon="12.026815503805649"><ele>845.3333333333333</ele><time>2026-04-24T15:56:39Z</time></trkpt><trkpt lat="46.018069272250955" lon="12.026729751589514"><ele>848.6666666666666</ele><time>2026-04-24T15:56:40Z</time></trkpt><trkpt lat="46.018010481384586" lon="12.026645826342966"><ele>852.0</ele><time>2026-04-24T15:56:41Z</time></trkpt><trkpt lat="46.01791564298105" lon="12.026555772736373"><ele>852.0</ele><time>2026-04-24T15:56:43Z</time></trkpt><trkpt lat="46.017842614056825" lon="12.02655965682159"><ele>852.0</ele><time>2026-04-24T15:56:44Z</time></trkpt><trkpt lat="46.01777480751481" lon="12.026595506792331"><ele>852.0</ele><time>2026-04-24T15:56:45Z</time></trkpt><trkpt lat="46.01772674113547" lon="12.026659781689316"><ele>852.0</ele><time>2026-04-24T15:56:46Z</time></trkpt><trkpt lat="46.017691366733786" lon="12.02675489766952"><ele>852.0</ele><time>2026-04-24T15:56:47Z</time></trkpt><trkpt lat="46.01768105353999" lon="12.026868737953826"><ele>852.0</ele><time>2026-04-24T15:56:48Z</time></trkpt><trkpt lat="46.017664736727816" lon="12.027010971491292"><ele>853.25</ele><time>2026-04-24T15:56:49Z</time></trkpt><trkpt lat="46.01766274700581" lon="12.027165822612698"><ele>854.5</ele><time>2026-04-24T15:56:49.999Z</time></trkpt><trkpt lat="46.01765639337855" lon="12.027348815232907"><ele>855.75</ele><time>2026-04-24T15:56:50.999Z</time></trkpt><trkpt lat="46.01765142828161" lon="12.02756783696459"><ele>857.0</ele><time>2026-04-24T15:56:51.999Z</time></trkpt><trkpt lat="46.017654965889776" lon="12.027736902274398"><ele>858.0</ele><time>2026-04-24T15:56:52.999Z</time></trkpt><trkpt lat="46.01765369366733" lon="12.027916041860232"><ele>859.0</ele><time>2026-04-24T15:56:53.999Z</time></trkpt><trkpt lat="46.017648797266865" lon="12.028092432433507"><ele>860.0</ele><time>2026-04-24T15:56:54.999Z</time></trkpt><trkpt lat="46.017640851040206" lon="12.02822142978099"><ele>861.0</ele><time>2026-04-24T15:56:55.999Z</time></trkpt><trkpt lat="46.01762947490207" lon="12.028339308752937"><ele>862.0</ele><time>2026-04-24T15:56:56.999Z</time></trkpt><trkpt lat="46.017601481256214" lon="12.028427479351913"><ele>862.0</ele><time>2026-04-24T15:56:57.999Z</time></trkpt><trkpt lat="46.01754698778072" lon="12.028509805328198"><ele>862.0</ele><time>2026-04-24T15:56:58.999Z</time></trkpt><trkpt lat="46.01746918175525" lon="12.028569201606224"><ele>862.0</ele><time>2026-04-24T15:56:59.999Z</time></trkpt><trkpt lat="46.01737149791255" lon="12.028607488284843"><ele>862.0</ele><time>2026-04-24T15:57:00.999Z</time></trkpt><trkpt lat="46.01725422274035" lon="12.0286205683318"><ele>862.0</ele><time>2026-04-24T15:57:01.999Z</time></trkpt><trkpt lat="46.01714645908538" lon="12.02864554995759"><ele>863.7142857142858</ele><time>2026-04-24T15:57:02.999Z</time></trkpt><trkpt lat="46.017061862358304" lon="12.028663689413724"><ele>865.4285714285713</ele><time>2026-04-24T15:57:03.999Z</time></trkpt><trkpt lat="46.01699505363262" lon="12.028683950700248"><ele>867.1428571428571</ele><time>2026-04-24T15:57:04.999Z</time></trkpt><trkpt lat="46.01692899346696" lon="12.02871990432103"><ele>868.8571428571429</ele><time>2026-04-24T15:57:05.999Z</time></trkpt><trkpt lat="46.016869976219226" lon="12.028782743497455"><ele>870.5714285714287</ele><time>2026-04-24T15:57:07Z</time></trkpt><trkpt lat="46.016828361114214" lon="12.028870436754703"><ele>872.2857142857142</ele><time>2026-04-24T15:57:08Z</time></trkpt><trkpt lat="46.01680836397256" lon="12.02897130558334"><ele>874.0</ele><time>2026-04-24T15:57:09Z</time></trkpt><trkpt lat="46.01681336275838" lon="12.02908328772284"><ele>875.0</ele><time>2026-04-24T15:57:10Z</time></trkpt><trkpt lat="46.01684506873928" lon="12.029215019772504"><ele>876.0000000000001</ele><time>2026-04-24T15:57:11Z</time></trkpt><trkpt lat="46.01688511983159" lon="12.029344626643349"><ele>877.0000000000001</ele><time>2026-04-24T15:57:12Z</time></trkpt><trkpt lat="46.0169234040711" lon="12.029479359034587"><ele>878.0</ele><time>2026-04-24T15:57:13Z</time></trkpt><trkpt lat="46.01694142416272" lon="12.029592787028417"><ele>879.0</ele><time>2026-04-24T15:57:14Z</time></trkpt><trkpt lat="46.01695361441555" lon="12.02973490492252"><ele>879.0</ele><time>2026-04-24T15:57:15Z</time></trkpt><trkpt lat="46.01694558567253" lon="12.029888881491702"><ele>879.0000000000001</ele><time>2026-04-24T15:57:16Z</time></trkpt><trkpt lat="46.016918865888954" lon="12.030044248319717"><ele>879.0000000000001</ele><time>2026-04-24T15:57:17Z</time></trkpt><trkpt lat="46.016897253189995" lon="12.030186101829786"><ele>879.0</ele><time>2026-04-24T15:57:18Z</time></trkpt><trkpt lat="46.0168680365244" lon="12.030289354143072"><ele>879.0</ele><time>2026-04-24T15:57:19Z</time></trkpt><trkpt lat="46.016850722690364" lon="12.03038769778645"><ele>879.2</ele><time>2026-04-24T15:57:20Z</time></trkpt><trkpt lat="46.016799329750256" lon="12.030540114933514"><ele>879.4000000000001</ele><time>2026-04-24T15:57:22Z</time></trkpt><trkpt lat="46.01671036289826" lon="12.03062633973697"><ele>879.6</ele><time>2026-04-24T15:57:24Z</time></trkpt><trkpt lat="46.016611410168174" lon="12.030565537470236"><ele>879.8</ele><time>2026-04-24T15:57:25Z</time></trkpt><trkpt lat="46.01655058764968" lon="12.030497371465952"><ele>880.0</ele><time>2026-04-24T15:57:26Z</time></trkpt><trkpt lat="46.01648877484915" lon="12.03040189250479"><ele>885.75</ele><time>2026-04-24T15:57:27Z</time></trkpt><trkpt lat="46.0164198948117" lon="12.03028472078478"><ele>891.5</ele><time>2026-04-24T15:57:28Z</time></trkpt><trkpt lat="46.01635115098031" lon="12.03017568665276"><ele>897.25</ele><time>2026-04-24T15:57:29Z</time></trkpt><trkpt lat="46.01625810185712" lon="12.030018703943583"><ele>903.0</ele><time>2026-04-24T15:57:30Z</time></trkpt><trkpt lat="46.016175933207876" lon="12.029871976598645"><ele>903.0</ele><time>2026-04-24T15:57:31Z</time></trkpt><trkpt lat="46.016114768136276" lon="12.029753203031477"><ele>903.0</ele><time>2026-04-24T15:57:32Z</time></trkpt><trkpt lat="46.016070116047686" lon="12.029608074361253"><ele>903.0</ele><time>2026-04-24T15:57:33Z</time></trkpt><trkpt lat="46.01602951743821" lon="12.02943959725678"><ele>903.0</ele><time>2026-04-24T15:57:34Z</time></trkpt><trkpt lat="46.0159959144982" lon="12.029299284513762"><ele>903.0</ele><time>2026-04-24T15:57:35Z</time></trkpt><trkpt lat="46.01596678461942" lon="12.029191654945686"><ele>902.6666666666666</ele><time>2026-04-24T15:57:36Z</time></trkpt><trkpt lat="46.01593532393194" lon="12.029071802707406"><ele>902.3333333333333</ele><time>2026-04-24T15:57:37Z</time></trkpt><trkpt lat="46.0159112396051" lon="12.028976710236249"><ele>902.0</ele><time>2026-04-24T15:57:38Z</time></trkpt><trkpt lat="46.01584835306825" lon="12.02884522318175"><ele>901.6666666666666</ele><time>2026-04-24T15:57:40Z</time></trkpt><trkpt lat="46.01578673191845" lon="12.02881806231372"><ele>901.3333333333333</ele><time>2026-04-24T15:57:41Z</time></trkpt><trkpt lat="46.01572075148845" lon="12.028843844249987"><ele>901.0</ele><time>2026-04-24T15:57:42Z</time></trkpt><trkpt lat="46.01565643981425" lon="12.028897779713299"><ele>904.6666666666666</ele><time>2026-04-24T15:57:43Z</time></trkpt><trkpt lat="46.015617848593735" lon="12.028981097256056"><ele>908.3333333333333</ele><time>2026-04-24T15:57:44Z</time></trkpt><trkpt lat="46.0156052043488" lon="12.029079321256612"><ele>912.0</ele><time>2026-04-24T15:57:45Z</time></trkpt><trkpt lat="46.01561283103933" lon="12.029188235747666"><ele>915.6666666666667</ele><time>2026-04-24T15:57:46Z</time></trkpt><trkpt lat="46.01564395969989" lon="12.029326055301082"><ele>919.3333333333334</ele><time>2026-04-24T15:57:47Z</time></trkpt><trkpt lat="46.01568153422613" lon="12.029454202158696"><ele>923.0</ele><time>2026-04-24T15:57:48Z</time></trkpt><trkpt lat="46.01571992262764" lon="12.029594738792742"><ele>923.0000000000001</ele><time>2026-04-24T15:57:49Z</time></trkpt><trkpt lat="46.01574871641672" lon="12.02972048321544"><ele>923.0</ele><time>2026-04-24T15:57:50Z</time></trkpt><trkpt lat="46.015772060576325" lon="12.02982627206004"><ele>923.0</ele><time>2026-04-24T15:57:51Z</time></trkpt><trkpt lat="46.01577768147141" lon="12.029926855348391"><ele>923.0</ele><time>2026-04-24T15:57:52Z</time></trkpt><trkpt lat="46.01575947515313" lon="12.030035402512185"><ele>923.0000000000001</ele><time>2026-04-24T15:57:53Z</time></trkpt><trkpt lat="46.015717403648424" lon="12.030127077820719"><ele>923.0</ele><time>2026-04-24T15:57:54Z</time></trkpt><trkpt lat="46.015641786179806" lon="12.03016300963777"><ele>921.5999999999999</ele><time>2026-04-24T15:57:55Z</time></trkpt><trkpt lat="46.015561068389985" lon="12.030227869796194"><ele>920.1999999999999</ele><time>2026-04-24T15:57:56Z</time></trkpt><trkpt lat="46.01546538134764" lon="12.030217026813487"><ele>918.8</ele><time>2026-04-24T15:57:57Z</time></trkpt><trkpt lat="46.015381721458645" lon="12.030194913472462"><ele>917.4</ele><time>2026-04-24T15:57:58Z</time></trkpt><trkpt lat="46.01529392004065" lon="12.030139987808845"><ele>916.0</ele><time>2026-04-24T15:57:59Z</time></trkpt><trkpt lat="46.01520510802126" lon="12.030061834491038"><ele>917.4</ele><time>2026-04-24T15:58:00Z</time></trkpt><trkpt lat="46.015126073231094" lon="12.029973311321784"><ele>918.8</ele><time>2026-04-24T15:58:01Z</time></trkpt><trkpt lat="46.01504678887583" lon="12.029879819059467"><ele>920.1999999999999</ele><time>2026-04-24T15:58:02Z</time></trkpt><trkpt lat="46.01497595516568" lon="12.029782008480666"><ele>921.5999999999999</ele><time>2026-04-24T15:58:03Z</time></trkpt><trkpt lat="46.01491285711053" lon="12.029671229508052"><ele>923.0</ele><time>2026-04-24T15:58:04Z</time></trkpt><trkpt lat="46.014852925954436" lon="12.02954491683341"><ele>924.5999999999999</ele><time>2026-04-24T15:58:05Z</time></trkpt><trkpt lat="46.014800607461886" lon="12.029396722789631"><ele>926.1999999999999</ele><time>2026-04-24T15:58:06Z</time></trkpt><trkpt lat="46.014769988659566" lon="12.02927805218672"><ele>927.8</ele><time>2026-04-24T15:58:07Z</time></trkpt><trkpt lat="46.014743633106754" lon="12.029165758939245"><ele>929.4</ele><time>2026-04-24T15:58:08Z</time></trkpt><trkpt lat="46.014737737095835" lon="12.029042452058254"><ele>931.0</ele><time>2026-04-24T15:58:09Z</time></trkpt><trkpt lat="46.014754020480915" lon="12.028914175009316"><ele>933.1999999999999</ele><time>2026-04-24T15:58:10Z</time></trkpt><trkpt lat="46.01475776636982" lon="12.02877863945168"><ele>935.3999999999999</ele><time>2026-04-24T15:58:11Z</time></trkpt><trkpt lat="46.014728185054686" lon="12.028648383040208"><ele>937.6</ele><time>2026-04-24T15:58:12Z</time></trkpt><trkpt lat="46.01467883079691" lon="12.028511774132584"><ele>939.8</ele><time>2026-04-24T15:58:13Z</time></trkpt><trkpt lat="46.01462541453477" lon="12.028385782601816"><ele>942.0</ele><time>2026-04-24T15:58:14Z</time></trkpt><trkpt lat="46.014554180015985" lon="12.028240451832389"><ele>943.25</ele><time>2026-04-24T15:58:15Z</time></trkpt><trkpt lat="46.01447410664749" lon="12.028084186877798"><ele>944.5</ele><time>2026-04-24T15:58:16Z</time></trkpt><trkpt lat="46.01439953146827" lon="12.02792610054747"><ele>945.75</ele><time>2026-04-24T15:58:17Z</time></trkpt><trkpt lat="46.014316539952326" lon="12.027753398584288"><ele>947.0</ele><time>2026-04-24T15:58:18Z</time></trkpt><trkpt lat="46.01423348743494" lon="12.027582295546877"><ele>956.5</ele><time>2026-04-24T15:58:19Z</time></trkpt><trkpt lat="46.01414702673642" lon="12.027400290663309"><ele>966.0</ele><time>2026-04-24T15:58:20Z</time></trkpt><trkpt lat="46.01406536885661" lon="12.027244558774525"><ele>975.5</ele><time>2026-04-24T15:58:21Z</time></trkpt><trkpt lat="46.013990554293585" lon="12.027111630461484"><ele>985.0</ele><time>2026-04-24T15:58:22Z</time></trkpt><trkpt lat="46.01391194620932" lon="12.026953054669482"><ele>985.0</ele><time>2026-04-24T15:58:23Z</time></trkpt><trkpt lat="46.01382756322966" lon="12.026823995231078"><ele>985.0</ele><time>2026-04-24T15:58:24Z</time></trkpt><trkpt lat="46.013758819666805" lon="12.026705397102443"><ele>985.0</ele><time>2026-04-24T15:58:25Z</time></trkpt><trkpt lat="46.01370964532032" lon="12.026588903789605"><ele>985.0</ele><time>2026-04-24T15:58:26Z</time></trkpt><trkpt lat="46.01367368718659" lon="12.026425749859472"><ele>985.0</ele><time>2026-04-24T15:58:27Z</time></trkpt><trkpt lat="46.01362887082892" lon="12.026245843135268"><ele>983.6666666666666</ele><time>2026-04-24T15:58:28Z</time></trkpt><trkpt lat="46.01357214499952" lon="12.026070829258694"><ele>982.3333333333333</ele><time>2026-04-24T15:58:29Z</time></trkpt><trkpt lat="46.01351949180863" lon="12.025939943067337"><ele>981.0</ele><time>2026-04-24T15:58:30Z</time></trkpt><trkpt lat="46.0060170896678" lon="12.021850860025335"><ele>1006.1999999999999</ele><time>2026-04-24T15:59:43Z</time></trkpt><trkpt lat="46.005892026285494" lon="12.021740573146225"><ele>1031.3999999999999</ele><time>2026-04-24T15:59:44Z</time></trkpt><trkpt lat="46.00579200033354" lon="12.02163820311105"><ele>1056.6</ele><time>2026-04-24T15:59:45Z</time></trkpt><trkpt lat="46.005735434298586" lon="12.02155357364031"><ele>1081.8</ele><time>2026-04-24T15:59:46Z</time></trkpt><trkpt lat="46.00565889859901" lon="12.021472672566848"><ele>1107.0</ele><time>2026-04-24T15:59:47Z</time></trkpt><trkpt lat="46.00555213483978" lon="12.021411799579319"><ele>1110.25</ele><time>2026-04-24T15:59:48Z</time></trkpt><trkpt lat="46.005425148637784" lon="12.021355370269099"><ele>1113.5</ele><time>2026-04-24T15:59:49Z</time></trkpt><trkpt lat="46.005312779239034" lon="12.02128796145301"><ele>1116.75</ele><time>2026-04-24T15:59:50Z</time></trkpt><trkpt lat="46.00520424992726" lon="12.021194693290646"><ele>1120.0</ele><time>2026-04-24T15:59:51Z</time></trkpt><trkpt lat="46.005099352112325" lon="12.021080745269158"><ele>1119.8</ele><time>2026-04-24T15:59:52Z</time></trkpt><trkpt lat="46.004994175658446" lon="12.021008903535607"><ele>1119.6</ele><time>2026-04-24T15:59:53Z</time></trkpt><trkpt lat="46.00486882772404" lon="12.02095422678347"><ele>1119.4</ele><time>2026-04-24T15:59:54Z</time></trkpt><trkpt lat="46.00475964208539" lon="12.020930460552043"><ele>1119.2</ele><time>2026-04-24T15:59:55Z</time></trkpt><trkpt lat="46.004676238492564" lon="12.020924659759574"><ele>1119.0</ele><time>2026-04-24T15:59:56Z</time></trkpt><trkpt lat="46.00459212944911" lon="12.020908977856154"><ele>1119.0</ele><time>2026-04-24T15:59:57Z</time></trkpt><trkpt lat="46.00449742209697" lon="12.020883653291609"><ele>1119.0</ele><time>2026-04-24T15:59:58Z</time></trkpt><trkpt lat="46.00440505448965" lon="12.020834692759237"><ele>1119.0</ele><time>2026-04-24T15:59:59Z</time></trkpt><trkpt lat="46.00431452912843" lon="12.020767892946507"><ele>1119.0</ele><time>2026-04-24T16:00:00Z</time></trkpt><trkpt lat="46.00413282123439" lon="12.020573182672816"><ele>1122.75</ele><time>2026-04-24T16:00:02Z</time></trkpt><trkpt lat="46.004017000489114" lon="12.02044643651837"><ele>1126.5</ele><time>2026-04-24T16:00:03Z</time></trkpt><trkpt lat="46.003876664665135" lon="12.020311892968593"><ele>1130.25</ele><time>2026-04-24T16:00:04Z</time></trkpt><trkpt lat="46.003770216935166" lon="12.020193887720646"><ele>1134.0</ele><time>2026-04-24T16:00:05Z</time></trkpt><trkpt lat="46.00365960012603" lon="12.020077087691604"><ele>1136.3333333333333</ele><time>2026-04-24T16:00:06Z</time></trkpt><trkpt lat="46.00353305146431" lon="12.019962462982418"><ele>1138.6666666666665</ele><time>2026-04-24T16:00:07Z</time></trkpt><trkpt lat="46.00339703505161" lon="12.019846696509214"><ele>1141.0</ele><time>2026-04-24T16:00:08Z</time></trkpt><trkpt lat="46.0032582084761" lon="12.019744167673709"><ele>1142.75</ele><time>2026-04-24T16:00:09Z</time></trkpt><trkpt lat="46.003129680477116" lon="12.01965048390869"><ele>1144.5</ele><time>2026-04-24T16:00:10Z</time></trkpt><trkpt lat="46.00301371639521" lon="12.019573489584827"><ele>1146.25</ele><time>2026-04-24T16:00:11Z</time></trkpt><trkpt lat="46.002893003622475" lon="12.019508291123369"><ele>1148.0</ele><time>2026-04-24T16:00:12Z</time></trkpt><trkpt lat="46.00279448332601" lon="12.019463122210125"><ele>1148.0</ele><time>2026-04-24T16:00:13Z</time></trkpt><trkpt lat="46.00269569436057" lon="12.019398139396635"><ele>1148.0</ele><time>2026-04-24T16:00:14Z</time></trkpt><trkpt lat="46.002601416537686" lon="12.019311056570826"><ele>1148.0</ele><time>2026-04-24T16:00:15Z</time></trkpt><trkpt lat="46.00250504070061" lon="12.019217814016967"><ele>1148.0</ele><time>2026-04-24T16:00:16Z</time></trkpt><trkpt lat="46.00240027548708" lon="12.01912234723692"><ele>1152.0</ele><time>2026-04-24T16:00:17Z</time></trkpt><trkpt lat="46.002316948661765" lon="12.019042845715829"><ele>1156.0</ele><time>2026-04-24T16:00:18Z</time></trkpt><trkpt lat="46.002209511468735" lon="12.01893815317261"><ele>1160.0</ele><time>2026-04-24T16:00:19Z</time></trkpt><trkpt lat="46.00208923316341" lon="12.018815690169728"><ele>1164.0</ele><time>2026-04-24T16:00:20Z</time></trkpt><trkpt lat="46.00196591664205" lon="12.01870325574311"><ele>1165.0</ele><time>2026-04-24T16:00:21Z</time></trkpt><trkpt lat="46.00165370816134" lon="12.018517784086866"><ele>1166.0</ele><time>2026-04-24T16:00:23Z</time></trkpt><trkpt lat="46.001482177839705" lon="12.018439877695089"><ele>1166.0</ele><time>2026-04-24T16:00:24Z</time></trkpt><trkpt lat="46.0013376733966" lon="12.018371456517439"><ele>1166.0</ele><time>2026-04-24T16:00:25Z</time></trkpt><trkpt lat="46.00120917563719" lon="12.018315555494338"><ele>1166.0</ele><time>2026-04-24T16:00:26Z</time></trkpt><trkpt lat="46.001100546293046" lon="12.01827186016185"><ele>1166.0</ele><time>2026-04-24T16:00:27Z</time></trkpt><trkpt lat="46.0009961903646" lon="12.018230885071823"><ele>1167.8</ele><time>2026-04-24T16:00:28Z</time></trkpt><trkpt lat="46.00091777887883" lon="12.018191093339256"><ele>1169.6</ele><time>2026-04-24T16:00:29Z</time></trkpt><trkpt lat="46.000839766882805" lon="12.01813028916946"><ele>1171.4</ele><time>2026-04-24T16:00:30Z</time></trkpt><trkpt lat="46.00075837450819" lon="12.018042725216999"><ele>1173.2</ele><time>2026-04-24T16:00:31Z</time></trkpt><trkpt lat="46.00067081860248" lon="12.017932005876926"><ele>1175.0</ele><time>2026-04-24T16:00:32Z</time></trkpt><trkpt lat="46.0006051382739" lon="12.01785302799524"><ele>1175.0</ele><time>2026-04-24T16:00:33Z</time></trkpt><trkpt lat="46.00052913006429" lon="12.017754729397032"><ele>1175.0</ele><time>2026-04-24T16:00:35Z</time></trkpt><trkpt lat="46.00046293579444" lon="12.01760111668424"><ele>1175.0</ele><time>2026-04-24T16:00:37Z</time></trkpt><trkpt lat="46.00043870522862" lon="12.017463649627143"><ele>1175.0</ele><time>2026-04-24T16:00:39Z</time></trkpt><trkpt lat="46.00042113312584" lon="12.017323828040867"><ele>1175.0</ele><time>2026-04-24T16:00:41Z</time></trkpt><trkpt lat="46.000402969781554" lon="12.017176392580161"><ele>1174.8</ele><time>2026-04-24T16:00:43Z</time></trkpt><trkpt lat="46.00033864688014" lon="12.016908536959875"><ele>1174.6</ele><time>2026-04-24T16:00:47Z</time></trkpt><trkpt lat="46.000304897680046" lon="12.01680602421416"><ele>1174.4</ele><time>2026-04-24T16:00:49Z</time></trkpt><trkpt lat="46.00026263582082" lon="12.016720155101345"><ele>1174.2</ele><time>2026-04-24T16:00:51Z</time></trkpt><trkpt lat="46.00019944860866" lon="12.016616346367778"><ele>1174.0</ele><time>2026-04-24T16:00:53Z</time></trkpt><trkpt lat="46.00012134816627" lon="12.016552935116767"><ele>1170.1666666666665</ele><time>2026-04-24T16:00:55Z</time></trkpt><trkpt lat="46.00005299666074" lon="12.016512905522964"><ele>1166.3333333333333</ele><time>2026-04-24T16:00:57Z</time></trkpt><trkpt lat="45.999981134863816" lon="12.016482135842198"><ele>1162.5</ele><time>2026-04-24T16:00:59Z</time></trkpt><trkpt lat="45.99991425968117" lon="12.016468048429967"><ele>1158.6666666666667</ele><time>2026-04-24T16:01:01Z</time></trkpt><trkpt lat="45.99985132184838" lon="12.016426142415574"><ele>1154.8333333333335</ele><time>2026-04-24T16:01:03Z</time></trkpt><trkpt lat="45.99977170753259" lon="12.01639724498704"><ele>1151.0</ele><time>2026-04-24T16:01:04.999Z</time></trkpt><trkpt lat="45.99955031850227" lon="12.016272301268428"><ele>1151.0</ele><time>2026-04-24T16:01:08.999Z</time></trkpt><trkpt lat="45.99945925473247" lon="12.016268766892725"><ele>1151.0</ele><time>2026-04-24T16:01:10.999Z</time></trkpt><trkpt lat="45.99937295072481" lon="12.016265160147393"><ele>1151.0</ele><time>2026-04-24T16:01:12.999Z</time></trkpt><trkpt lat="45.99930996980484" lon="12.01624965210583"><ele>1151.0</ele><time>2026-04-24T16:01:13.999Z</time></trkpt><trkpt lat="45.99920974524611" lon="12.016269433912724"><ele>1151.0</ele><time>2026-04-24T16:01:15.999Z</time></trkpt><trkpt lat="45.99911047570483" lon="12.016308932921087"><ele>1151.0</ele><time>2026-04-24T16:01:17.999Z</time></trkpt><trkpt lat="45.99901466032421" lon="12.016378991372463"><ele>1152.0</ele><time>2026-04-24T16:01:20Z</time></trkpt><trkpt lat="45.99894608848031" lon="12.01642881368465"><ele>1153.0</ele><time>2026-04-24T16:01:22Z</time></trkpt><trkpt lat="45.99885283476443" lon="12.016418660929048"><ele>1154.0</ele><time>2026-04-24T16:01:24Z</time></trkpt><trkpt lat="45.99877007523485" lon="12.016338236654303"><ele>1155.0</ele><time>2026-04-24T16:01:26Z</time></trkpt><trkpt lat="45.99864104266475" lon="12.016190399115295"><ele>1156.0</ele><time>2026-04-24T16:01:28Z</time></trkpt><trkpt lat="45.99858554073052" lon="12.016139989639465"><ele>1156.0</ele><time>2026-04-24T16:01:29Z</time></trkpt><trkpt lat="45.9985189607991" lon="12.016092133059583"><ele>1156.0</ele><time>2026-04-24T16:01:30Z</time></trkpt><trkpt lat="45.99845128832871" lon="12.016053964666135"><ele>1156.0</ele><time>2026-04-24T16:01:31Z</time></trkpt><trkpt lat="45.99834248380323" lon="12.01601006164109"><ele>1156.0</ele><time>2026-04-24T16:01:33Z</time></trkpt><trkpt lat="45.998215755207625" lon="12.015975400959544"><ele>1156.0</ele><time>2026-04-24T16:01:35Z</time></trkpt><trkpt lat="45.99815212947241" lon="12.015960350360622"><ele>1155.8333333333333</ele><time>2026-04-24T16:01:36Z</time></trkpt><trkpt lat="45.99807783511554" lon="12.015940400849672"><ele>1155.6666666666665</ele><time>2026-04-24T16:01:37Z</time></trkpt><trkpt lat="45.997998859513366" lon="12.015927478942764"><ele>1155.5</ele><time>2026-04-24T16:01:38Z</time></trkpt><trkpt lat="45.99792591979935" lon="12.015916562845167"><ele>1155.3333333333333</ele><time>2026-04-24T16:01:39Z</time></trkpt><trkpt lat="45.99784784969754" lon="12.015902197921495"><ele>1155.1666666666667</ele><time>2026-04-24T16:01:40Z</time></trkpt><trkpt lat="45.99777042316832" lon="12.015885006715722"><ele>1155.0</ele><time>2026-04-24T16:01:41Z</time></trkpt><trkpt lat="45.99769059183795" lon="12.015864488489184"><ele>1155.0</ele><time>2026-04-24T16:01:42Z</time></trkpt><trkpt lat="45.99761546935362" lon="12.015840618647603"><ele>1155.0</ele><time>2026-04-24T16:01:43Z</time></trkpt><trkpt lat="45.99754522977056" lon="12.015820763624543"><ele>1155.0</ele><time>2026-04-24T16:01:44Z</time></trkpt><trkpt lat="45.99748020685093" lon="12.01580147234928"><ele>1155.0</ele><time>2026-04-24T16:01:45Z</time></trkpt><trkpt lat="45.99740963900871" lon="12.015778044116097"><ele>1155.0</ele><time>2026-04-24T16:01:46Z</time></trkpt><trkpt lat="45.99733917622261" lon="12.015761674399888"><ele>1155.0</ele><time>2026-04-24T16:01:47Z</time></trkpt><trkpt lat="45.99721309959134" lon="12.015711915460082"><ele>1154.0</ele><time>2026-04-24T16:01:49Z</time></trkpt><trkpt lat="45.99714474577487" lon="12.015672566016645"><ele>1153.0</ele><time>2026-04-24T16:01:50Z</time></trkpt><trkpt lat="45.99707255447416" lon="12.015639100570127"><ele>1152.0</ele><time>2026-04-24T16:01:51Z</time></trkpt><trkpt lat="45.99699456203027" lon="12.015592247951075"><ele>1151.0</ele><time>2026-04-24T16:01:52Z</time></trkpt><trkpt lat="45.99691255389765" lon="12.015551494945816"><ele>1150.0</ele><time>2026-04-24T16:01:53Z</time></trkpt><trkpt lat="45.99682791556527" lon="12.015512892077538"><ele>1149.0</ele><time>2026-04-24T16:01:54Z</time></trkpt><trkpt lat="45.996756799907786" lon="12.015480718410007"><ele>1149.0</ele><time>2026-04-24T16:01:55Z</time></trkpt><trkpt lat="45.996690515791045" lon="12.015447700579342"><ele>1149.0</ele><time>2026-04-24T16:01:56Z</time></trkpt><trkpt lat="45.9966105581037" lon="12.0153892727684"><ele>1149.0</ele><time>2026-04-24T16:01:57Z</time></trkpt><trkpt lat="45.99654087227705" lon="12.015327043881122"><ele>1149.0</ele><time>2026-04-24T16:01:58Z</time></trkpt><trkpt lat="45.99647200373262" lon="12.01526553987023"><ele>1149.0</ele><time>2026-04-24T16:01:59Z</time></trkpt><trkpt lat="45.99640261758654" lon="12.015215567706267"><ele>1149.0</ele><time>2026-04-24T16:02:00Z</time></trkpt><trkpt lat="45.99633303357315" lon="12.01517734408633"><ele>1148.0</ele><time>2026-04-24T16:02:01Z</time></trkpt><trkpt lat="45.996268900630156" lon="12.01514550213071"><ele>1147.0</ele><time>2026-04-24T16:02:02Z</time></trkpt><trkpt lat="45.99620043863644" lon="12.015113688068212"><ele>1146.0</ele><time>2026-04-24T16:02:03Z</time></trkpt><trkpt lat="45.99613405450773" lon="12.015057425758604"><ele>1145.0</ele><time>2026-04-24T16:02:04Z</time></trkpt><trkpt lat="45.99606504167628" lon="12.015016142490829"><ele>1144.0</ele><time>2026-04-24T16:02:05Z</time></trkpt><trkpt lat="45.99599226799047" lon="12.015015748781012"><ele>1143.0</ele><time>2026-04-24T16:02:06Z</time></trkpt><trkpt lat="45.99591359536436" lon="12.014981612868917"><ele>1142.0</ele><time>2026-04-24T16:02:07Z</time></trkpt><trkpt lat="45.99585257597777" lon="12.014951941471804"><ele>1147.2</ele><time>2026-04-24T16:02:08Z</time></trkpt><trkpt lat="45.99567469672275" lon="12.014886046629117"><ele>1152.4</ele><time>2026-04-24T16:02:10Z</time></trkpt><trkpt lat="45.99561420222902" lon="12.01483391626067"><ele>1157.6</ele><time>2026-04-24T16:02:11Z</time></trkpt><trkpt lat="45.995522464508596" lon="12.014825155116258"><ele>1162.8</ele><time>2026-04-24T16:02:12Z</time></trkpt><trkpt lat="45.99543384561965" lon="12.014763476481807"><ele>1168.0</ele><time>2026-04-24T16:02:13Z</time></trkpt><trkpt lat="45.99535180081513" lon="12.014732139259436"><ele>1168.0</ele><time>2026-04-24T16:02:14Z</time></trkpt><trkpt lat="45.99523869589952" lon="12.014681838453354"><ele>1168.0</ele><time>2026-04-24T16:02:16Z</time></trkpt><trkpt lat="45.99511242154047" lon="12.014599612782169"><ele>1168.0</ele><time>2026-04-24T16:02:18Z</time></trkpt><trkpt lat="45.99504034319739" lon="12.01454597146476"><ele>1168.0</ele><time>2026-04-24T16:02:19Z</time></trkpt><trkpt lat="45.99497964510749" lon="12.014495942602544"><ele>1168.0</ele><time>2026-04-24T16:02:20Z</time></trkpt><trkpt lat="45.994920829332" lon="12.014432289544086"><ele>1168.6666666666665</ele><time>2026-04-24T16:02:21Z</time></trkpt><trkpt lat="45.99486270437733" lon="12.014367688593534"><ele>1169.3333333333333</ele><time>2026-04-24T16:02:22Z</time></trkpt><trkpt lat="45.99480400444363" lon="12.014330307745471"><ele>1170.0</ele><time>2026-04-24T16:02:23Z</time></trkpt><trkpt lat="45.99474415645329" lon="12.014272576523593"><ele>1170.6666666666667</ele><time>2026-04-24T16:02:24Z</time></trkpt><trkpt lat="45.994674976494096" lon="12.014205410308717"><ele>1171.3333333333335</ele><time>2026-04-24T16:02:25Z</time></trkpt><trkpt lat="45.994612107356026" lon="12.014115027788568"><ele>1172.0</ele><time>2026-04-24T16:02:26Z</time></trkpt><trkpt lat="45.99454631913971" lon="12.014053867217848"><ele>1172.0</ele><time>2026-04-24T16:02:27Z</time></trkpt><trkpt lat="45.99446412749592" lon="12.013962791492022"><ele>1172.0</ele><time>2026-04-24T16:02:28Z</time></trkpt><trkpt lat="45.9943893450392" lon="12.013889593081588"><ele>1172.0</ele><time>2026-04-24T16:02:29Z</time></trkpt><trkpt lat="45.99426571237253" lon="12.013757062999842"><ele>1172.0</ele><time>2026-04-24T16:02:31Z</time></trkpt><trkpt lat="45.99419240270752" lon="12.013673759978971"><ele>1172.0</ele><time>2026-04-24T16:02:32Z</time></trkpt><trkpt lat="45.99412630504391" lon="12.013606413828468"><ele>1173.9999999999998</ele><time>2026-04-24T16:02:33Z</time></trkpt><trkpt lat="45.99406437046878" lon="12.013544282958982"><ele>1176.0</ele><time>2026-04-24T16:02:34Z</time></trkpt><trkpt lat="45.99400124460039" lon="12.013489293618294"><ele>1178.0</ele><time>2026-04-24T16:02:35Z</time></trkpt><trkpt lat="45.99394109563578" lon="12.013448852392099"><ele>1180.0</ele><time>2026-04-24T16:02:36Z</time></trkpt><trkpt lat="45.99387549129003" lon="12.013421381345651"><ele>1182.0</ele><time>2026-04-24T16:02:37Z</time></trkpt><trkpt lat="45.99380442735826" lon="12.013409677078641"><ele>1183.9999999999998</ele><time>2026-04-24T16:02:38Z</time></trkpt><trkpt lat="45.99372544223782" lon="12.013396284951867"><ele>1186.0</ele><time>2026-04-24T16:02:39Z</time></trkpt><trkpt lat="45.993642109130406" lon="12.013390289356481"><ele>1186.0</ele><time>2026-04-24T16:02:40Z</time></trkpt><trkpt lat="45.993562076272276" lon="12.01338283704731"><ele>1186.0</ele><time>2026-04-24T16:02:41Z</time></trkpt><trkpt lat="45.99347958283979" lon="12.013362133659392"><ele>1186.0</ele><time>2026-04-24T16:02:42Z</time></trkpt><trkpt lat="45.99340214729372" lon="12.013358685104818"><ele>1186.0</ele><time>2026-04-24T16:02:43Z</time></trkpt><trkpt lat="45.993318926830796" lon="12.013360266537022"><ele>1186.0</ele><time>2026-04-24T16:02:44Z</time></trkpt><trkpt lat="45.99323355461305" lon="12.013366781800997"><ele>1186.0</ele><time>2026-04-24T16:02:45Z</time></trkpt><trkpt lat="45.99314443081648" lon="12.013372145252394"><ele>1188.2</ele><time>2026-04-24T16:02:46Z</time></trkpt><trkpt lat="45.993050307147534" lon="12.013375220776231"><ele>1190.3999999999999</ele><time>2026-04-24T16:02:47Z</time></trkpt><trkpt lat="45.992953399867815" lon="12.013384038379979"><ele>1192.6</ele><time>2026-04-24T16:02:48Z</time></trkpt><trkpt lat="45.99286555805318" lon="12.01339133976877"><ele>1194.8</ele><time>2026-04-24T16:02:49Z</time></trkpt><trkpt lat="45.99277625442953" lon="12.013400695883364"><ele>1197.0</ele><time>2026-04-24T16:02:50Z</time></trkpt><trkpt lat="45.992585786516585" lon="12.013415599685885"><ele>1198.3333333333333</ele><time>2026-04-24T16:02:52Z</time></trkpt><trkpt lat="45.992496177114056" lon="12.013414790916286"><ele>1199.6666666666667</ele><time>2026-04-24T16:02:53Z</time></trkpt><trkpt lat="45.99240136610588" lon="12.013415417582813"><ele>1201.0</ele><time>2026-04-24T16:02:54Z</time></trkpt><trkpt lat="45.992314149664196" lon="12.013417393382067"><ele>1202.3333333333335</ele><time>2026-04-24T16:02:55Z</time></trkpt><trkpt lat="45.99222592338975" lon="12.01340239950164"><ele>1203.6666666666667</ele><time>2026-04-24T16:02:56Z</time></trkpt><trkpt lat="45.99213779072068" lon="12.01339567867913"><ele>1205.0</ele><time>2026-04-24T16:02:57Z</time></trkpt><trkpt lat="45.99205056231511" lon="12.013408635114935"><ele>1205.0</ele><time>2026-04-24T16:02:58Z</time></trkpt><trkpt lat="45.99196120114894" lon="12.013434106819105"><ele>1205.0</ele><time>2026-04-24T16:02:59Z</time></trkpt><trkpt lat="45.99187557699546" lon="12.013465479353055"><ele>1205.0</ele><time>2026-04-24T16:03:00Z</time></trkpt><trkpt lat="45.99178454918565" lon="12.01349109025278"><ele>1205.0</ele><time>2026-04-24T16:03:01Z</time></trkpt><trkpt lat="45.99169824095458" lon="12.013514564831267"><ele>1205.0</ele><time>2026-04-24T16:03:02Z</time></trkpt><trkpt lat="45.99160393159109" lon="12.013530890772593"><ele>1206.1666666666667</ele><time>2026-04-24T16:03:03Z</time></trkpt><trkpt lat="45.9915084224749" lon="12.013528693693925"><ele>1207.3333333333335</ele><time>2026-04-24T16:03:03.999Z</time></trkpt><trkpt lat="45.991420402748815" lon="12.013530839557927"><ele>1208.5</ele><time>2026-04-24T16:03:04.999Z</time></trkpt><trkpt lat="45.99133728674032" lon="12.013529329286174"><ele>1209.6666666666667</ele><time>2026-04-24T16:03:05.999Z</time></trkpt><trkpt lat="45.991261928903825" lon="12.013529137254535"><ele>1210.8333333333333</ele><time>2026-04-24T16:03:06.999Z</time></trkpt><trkpt lat="45.991183931694074" lon="12.013513816621186"><ele>1212.0</ele><time>2026-04-24T16:03:07.999Z</time></trkpt><trkpt lat="45.991110724933904" lon="12.013486561684074"><ele>1212.0</ele><time>2026-04-24T16:03:08.999Z</time></trkpt><trkpt lat="45.99103811842894" lon="12.013469409962703"><ele>1212.0</ele><time>2026-04-24T16:03:09.999Z</time></trkpt><trkpt lat="45.990959362489185" lon="12.013450283631519"><ele>1212.0</ele><time>2026-04-24T16:03:10.999Z</time></trkpt><trkpt lat="45.990760531704765" lon="12.013444944232036"><ele>1212.0</ele><time>2026-04-24T16:03:13.999Z</time></trkpt><trkpt lat="45.990683111538" lon="12.013442704982756"><ele>1212.0</ele><time>2026-04-24T16:03:14.999Z</time></trkpt><trkpt lat="45.99061335691385" lon="12.013435410281726"><ele>1212.5</ele><time>2026-04-24T16:03:15.999Z</time></trkpt><trkpt lat="45.990535035689305" lon="12.01342313343539"><ele>1213.0</ele><time>2026-04-24T16:03:16.999Z</time></trkpt><trkpt lat="45.99045780315974" lon="12.013409407153219"><ele>1213.5</ele><time>2026-04-24T16:03:17.999Z</time></trkpt><trkpt lat="45.990381550601626" lon="12.013398519432522"><ele>1214.0</ele><time>2026-04-24T16:03:18.999Z</time></trkpt><trkpt lat="45.9903048948152" lon="12.013403463721685"><ele>1214.5</ele><time>2026-04-24T16:03:19.999Z</time></trkpt><trkpt lat="45.99021411810028" lon="12.013406721547094"><ele>1215.0</ele><time>2026-04-24T16:03:20.999Z</time></trkpt><trkpt lat="45.990127456979955" lon="12.013424042766605"><ele>1215.0</ele><time>2026-04-24T16:03:21.999Z</time></trkpt><trkpt lat="45.99005335816448" lon="12.013443897155547"><ele>1215.0</ele><time>2026-04-24T16:03:22.999Z</time></trkpt><trkpt lat="45.9899839523067" lon="12.013460343280572"><ele>1215.0</ele><time>2026-04-24T16:03:23.999Z</time></trkpt><trkpt lat="45.98990221135092" lon="12.013447892530763"><ele>1215.0</ele><time>2026-04-24T16:03:25Z</time></trkpt><trkpt lat="45.9898161178034" lon="12.0134666429619"><ele>1215.0</ele><time>2026-04-24T16:03:26Z</time></trkpt><trkpt lat="45.98972543267841" lon="12.013452786661716"><ele>1215.0</ele><time>2026-04-24T16:03:27Z</time></trkpt><trkpt lat="45.989635052468316" lon="12.013434569717207"><ele>1214.6</ele><time>2026-04-24T16:03:28Z</time></trkpt><trkpt lat="45.98954261510514" lon="12.013390619794153"><ele>1214.2</ele><time>2026-04-24T16:03:29Z</time></trkpt><trkpt lat="45.98944423723504" lon="12.013396722316378"><ele>1213.8</ele><time>2026-04-24T16:03:30Z</time></trkpt><trkpt lat="45.989348015900454" lon="12.013380780782958"><ele>1213.4</ele><time>2026-04-24T16:03:31Z</time></trkpt><trkpt lat="45.98925394055456" lon="12.013369230859963"><ele>1213.0</ele><time>2026-04-24T16:03:32Z</time></trkpt><trkpt lat="45.98907437163821" lon="12.013332577594339"><ele>1209.0</ele><time>2026-04-24T16:03:34Z</time></trkpt><trkpt lat="45.98899599350589" lon="12.013316787097494"><ele>1205.0</ele><time>2026-04-24T16:03:35Z</time></trkpt><trkpt lat="45.98891068256334" lon="12.01330859777633"><ele>1201.0</ele><time>2026-04-24T16:03:36Z</time></trkpt><trkpt lat="45.98882090954926" lon="12.013301542408733"><ele>1197.0</ele><time>2026-04-24T16:03:37Z</time></trkpt><trkpt lat="45.98873785225962" lon="12.013284403257432"><ele>1193.0</ele><time>2026-04-24T16:03:38Z</time></trkpt><trkpt lat="45.988646996802004" lon="12.013255571396915"><ele>1189.0</ele><time>2026-04-24T16:03:39Z</time></trkpt><trkpt lat="45.98856387291933" lon="12.013214452768946"><ele>1189.0</ele><time>2026-04-24T16:03:40Z</time></trkpt><trkpt lat="45.988494011296325" lon="12.013138771906293"><ele>1189.0</ele><time>2026-04-24T16:03:41Z</time></trkpt><trkpt lat="45.9884180790448" lon="12.013081104152892"><ele>1189.0</ele><time>2026-04-24T16:03:42Z</time></trkpt><trkpt lat="45.98833518556598" lon="12.013059503531482"><ele>1189.0</ele><time>2026-04-24T16:03:43Z</time></trkpt><trkpt lat="45.988256306085226" lon="12.013013377801542"><ele>1189.0</ele><time>2026-04-24T16:03:44Z</time></trkpt><trkpt lat="45.98817087441089" lon="12.013002889315555"><ele>1189.0</ele><time>2026-04-24T16:03:45Z</time></trkpt><trkpt lat="45.98808541001523" lon="12.012993809138235"><ele>1189.6666666666665</ele><time>2026-04-24T16:03:46Z</time></trkpt><trkpt lat="45.98800403201751" lon="12.012984975027349"><ele>1190.3333333333333</ele><time>2026-04-24T16:03:47Z</time></trkpt><trkpt lat="45.98792449095306" lon="12.012998922961684"><ele>1191.0</ele><time>2026-04-24T16:03:48Z</time></trkpt><trkpt lat="45.98783757374803" lon="12.01298024559379"><ele>1191.6666666666667</ele><time>2026-04-24T16:03:49Z</time></trkpt><trkpt lat="45.98775218834958" lon="12.012956314928676"><ele>1192.3333333333335</ele><time>2026-04-24T16:03:50Z</time></trkpt><trkpt lat="45.98766758900274" lon="12.012928062116027"><ele>1193.0</ele><time>2026-04-24T16:03:51Z</time></trkpt><trkpt lat="45.9875816932296" lon="12.012897403124562"><ele>1194.25</ele><time>2026-04-24T16:03:52Z</time></trkpt><trkpt lat="45.98749282973059" lon="12.012862801849511"><ele>1195.5</ele><time>2026-04-24T16:03:53Z</time></trkpt><trkpt lat="45.987290354827834" lon="12.012787517710617"><ele>1196.75</ele><time>2026-04-24T16:03:55Z</time></trkpt><trkpt lat="45.987205520986144" lon="12.012736789524139"><ele>1198.0</ele><time>2026-04-24T16:03:56Z</time></trkpt><trkpt lat="45.98711713242094" lon="12.012700882902639"><ele>1198.0</ele><time>2026-04-24T16:03:57Z</time></trkpt><trkpt lat="45.9870323640449" lon="12.012661347839716"><ele>1198.0</ele><time>2026-04-24T16:03:58Z</time></trkpt><trkpt lat="45.98694729062365" lon="12.012613629523393"><ele>1198.0</ele><time>2026-04-24T16:03:59Z</time></trkpt><trkpt lat="45.98687030207945" lon="12.012556130753618"><ele>1198.0</ele><time>2026-04-24T16:04:00Z</time></trkpt><trkpt lat="45.98680365283226" lon="12.012489136893706"><ele>1198.0</ele><time>2026-04-24T16:04:01Z</time></trkpt><trkpt lat="45.98672678957988" lon="12.012412070440464"><ele>1198.0</ele><time>2026-04-24T16:04:02Z</time></trkpt><trkpt lat="45.98664432785577" lon="12.012350620052283"><ele>1196.8333333333333</ele><time>2026-04-24T16:04:03Z</time></trkpt><trkpt lat="45.98656631413361" lon="12.012271648053355"><ele>1195.6666666666665</ele><time>2026-04-24T16:04:04Z</time></trkpt><trkpt lat="45.98648060945934" lon="12.01221906548503"><ele>1194.5</ele><time>2026-04-24T16:04:05Z</time></trkpt><trkpt lat="45.98639994280091" lon="12.012162531949212"><ele>1193.3333333333333</ele><time>2026-04-24T16:04:06Z</time></trkpt><trkpt lat="45.986321998313755" lon="12.01209915602676"><ele>1192.1666666666667</ele><time>2026-04-24T16:04:07Z</time></trkpt><trkpt lat="45.98625901259263" lon="12.012033722866153"><ele>1191.0</ele><time>2026-04-24T16:04:08Z</time></trkpt><trkpt lat="45.98621076306219" lon="12.01192491382327"><ele>1191.0</ele><time>2026-04-24T16:04:09Z</time></trkpt><trkpt lat="45.986142065736544" lon="12.011864938087754"><ele>1191.0</ele><time>2026-04-24T16:04:10Z</time></trkpt><trkpt lat="45.98607188713438" lon="12.011789046529262"><ele>1191.0</ele><time>2026-04-24T16:04:11Z</time></trkpt><trkpt lat="45.986001998368835" lon="12.01171324407107"><ele>1191.0</ele><time>2026-04-24T16:04:12Z</time></trkpt><trkpt lat="45.98595343585031" lon="12.011623331788186"><ele>1191.0</ele><time>2026-04-24T16:04:13Z</time></trkpt><trkpt lat="45.9858906333914" lon="12.011576592798129"><ele>1191.0</ele><time>2026-04-24T16:04:14Z</time></trkpt><trkpt lat="45.98570745229445" lon="12.011359733843834"><ele>1190.2</ele><time>2026-04-24T16:04:18Z</time></trkpt><trkpt lat="45.985639618699004" lon="12.011324206064025"><ele>1189.3999999999999</ele><time>2026-04-24T16:04:19Z</time></trkpt><trkpt lat="45.9855222261769" lon="12.011270573163095"><ele>1188.6</ele><time>2026-04-24T16:04:21Z</time></trkpt><trkpt lat="45.98540211306313" lon="12.011186813819204"><ele>1187.8</ele><time>2026-04-24T16:04:23Z</time></trkpt><trkpt lat="45.98534500721529" lon="12.01112637799319"><ele>1187.0</ele><time>2026-04-24T16:04:24Z</time></trkpt><trkpt lat="45.98527597439376" lon="12.011072665742983"><ele>1187.0</ele><time>2026-04-24T16:04:25Z</time></trkpt><trkpt lat="45.98520803457627" lon="12.011045051802993"><ele>1187.0</ele><time>2026-04-24T16:04:26Z</time></trkpt><trkpt lat="45.98508431452299" lon="12.011014151489183"><ele>1187.0</ele><time>2026-04-24T16:04:28Z</time></trkpt><trkpt lat="45.98499138236566" lon="12.011009185668208"><ele>1187.0</ele><time>2026-04-24T16:04:29Z</time></trkpt><trkpt lat="45.98487274073263" lon="12.010962894283429"><ele>1187.0</ele><time>2026-04-24T16:04:31Z</time></trkpt><trkpt lat="45.98481767544292" lon="12.010917545558891"><ele>1185.6</ele><time>2026-04-24T16:04:32Z</time></trkpt><trkpt lat="45.98474672217763" lon="12.010855039337443"><ele>1184.2</ele><time>2026-04-24T16:04:33Z</time></trkpt><trkpt lat="45.98469114822707" lon="12.010803090081591"><ele>1182.8</ele><time>2026-04-24T16:04:34Z</time></trkpt><trkpt lat="45.984619443636326" lon="12.010744756404028"><ele>1181.4</ele><time>2026-04-24T16:04:35Z</time></trkpt><trkpt lat="45.98446704947195" lon="12.010560146363979"><ele>1180.0</ele><time>2026-04-24T16:04:37Z</time></trkpt><trkpt lat="45.98440272621145" lon="12.010499197785087"><ele>1180.0</ele><time>2026-04-24T16:04:38Z</time></trkpt><trkpt lat="45.984310581326575" lon="12.010424491031543"><ele>1180.0</ele><time>2026-04-24T16:04:40Z</time></trkpt><trkpt lat="45.98419131806386" lon="12.010411793414512"><ele>1180.0</ele><time>2026-04-24T16:04:42Z</time></trkpt><trkpt lat="45.98411840105289" lon="12.01040368638859"><ele>1180.0</ele><time>2026-04-24T16:04:43Z</time></trkpt><trkpt lat="45.98404521051128" lon="12.010402523068464"><ele>1180.0</ele><time>2026-04-24T16:04:44Z</time></trkpt><trkpt lat="45.983969143102414" lon="12.010404171166922"><ele>1180.0</ele><time>2026-04-24T16:04:46Z</time></trkpt><trkpt lat="45.98387464041464" lon="12.010336663329753"><ele>1183.8</ele><time>2026-04-24T16:04:48Z</time></trkpt><trkpt lat="45.98379821069305" lon="12.010276978840592"><ele>1187.6</ele><time>2026-04-24T16:04:50Z</time></trkpt><trkpt lat="45.98371946634996" lon="12.010288050045082"><ele>1191.4</ele><time>2026-04-24T16:04:52Z</time></trkpt><trkpt lat="45.98364650365147" lon="12.010410059652523"><ele>1195.2</ele><time>2026-04-24T16:04:54Z</time></trkpt><trkpt lat="45.98359042492292" lon="12.01059205436898"><ele>1199.0</ele><time>2026-04-24T16:04:56Z</time></trkpt><trkpt lat="45.98352137387726" lon="12.010794912285963"><ele>1200.2857142857144</ele><time>2026-04-24T16:04:58Z</time></trkpt><trkpt lat="45.98348954007211" lon="12.010893751125716"><ele>1201.5714285714284</ele><time>2026-04-24T16:04:58.999Z</time></trkpt><trkpt lat="45.98346170902213" lon="12.010979475449396"><ele>1202.857142857143</ele><time>2026-04-24T16:04:59.999Z</time></trkpt><trkpt lat="45.98342955481826" lon="12.011062656355275"><ele>1204.1428571428573</ele><time>2026-04-24T16:05:00.999Z</time></trkpt><trkpt lat="45.98339601990719" lon="12.011146422899275"><ele>1205.4285714285716</ele><time>2026-04-24T16:05:01.999Z</time></trkpt><trkpt lat="45.983359695314405" lon="12.011220715487227"><ele>1206.7142857142858</ele><time>2026-04-24T16:05:02.999Z</time></trkpt><trkpt lat="45.98327075952644" lon="12.011311166522187"><ele>1208.0</ele><time>2026-04-24T16:05:03.999Z</time></trkpt><trkpt lat="45.983210521727685" lon="12.011353824259022"><ele>1208.0</ele><time>2026-04-24T16:05:04.999Z</time></trkpt><trkpt lat="45.98313495002018" lon="12.011371674996596"><ele>1208.0</ele><time>2026-04-24T16:05:05.999Z</time></trkpt><trkpt lat="45.98306586585891" lon="12.01138668283005"><ele>1208.0</ele><time>2026-04-24T16:05:06.999Z</time></trkpt><trkpt lat="45.98293098320771" lon="12.011433743303794"><ele>1208.0</ele><time>2026-04-24T16:05:08.999Z</time></trkpt><trkpt lat="45.982864867183594" lon="12.011477841234386"><ele>1208.0</ele><time>2026-04-24T16:05:09.999Z</time></trkpt><trkpt lat="45.98276864362566" lon="12.011550862563578"><ele>1208.0</ele><time>2026-04-24T16:05:11.999Z</time></trkpt><trkpt lat="45.982660966442104" lon="12.011625054715244"><ele>1208.0</ele><time>2026-04-24T16:05:13.999Z</time></trkpt><trkpt lat="45.98259052307228" lon="12.011765968661722"><ele>1208.0</ele><time>2026-04-24T16:05:15.999Z</time></trkpt><trkpt lat="45.98256112007362" lon="12.011861462304699"><ele>1208.0</ele><time>2026-04-24T16:05:16.999Z</time></trkpt><trkpt lat="45.982512716094824" lon="12.012081212837325"><ele>1206.4</ele><time>2026-04-24T16:05:18.999Z</time></trkpt><trkpt lat="45.98245543649195" lon="12.012273739942108"><ele>1204.8</ele><time>2026-04-24T16:05:20.999Z</time></trkpt><trkpt lat="45.98239709803907" lon="12.012362107085947"><ele>1203.2</ele><time>2026-04-24T16:05:21.999Z</time></trkpt><trkpt lat="45.982318082141845" lon="12.012507425531416"><ele>1201.6</ele><time>2026-04-24T16:05:23.999Z</time></trkpt><trkpt lat="45.98226558774059" lon="12.012565960732333"><ele>1200.0</ele><time>2026-04-24T16:05:24.999Z</time></trkpt><trkpt lat="45.98219883205797" lon="12.012626406684287"><ele>1202.7142857142856</ele><time>2026-04-24T16:05:25.999Z</time></trkpt><trkpt lat="45.98211440769937" lon="12.01265596830697"><ele>1205.4285714285713</ele><time>2026-04-24T16:05:26.999Z</time></trkpt><trkpt lat="45.98205255696337" lon="12.012694588216121"><ele>1208.142857142857</ele><time>2026-04-24T16:05:27.999Z</time></trkpt><trkpt lat="45.98199428122474" lon="12.012738249686603"><ele>1210.8571428571427</ele><time>2026-04-24T16:05:28.999Z</time></trkpt><trkpt lat="45.981942639237516" lon="12.012806050491177"><ele>1213.5714285714284</ele><time>2026-04-24T16:05:29.999Z</time></trkpt><trkpt lat="45.9818783437553" lon="12.012857636015692"><ele>1216.2857142857142</ele><time>2026-04-24T16:05:31Z</time></trkpt><trkpt lat="45.981822592178354" lon="12.012947599261137"><ele>1219.0</ele><time>2026-04-24T16:05:32Z</time></trkpt><trkpt lat="45.981750068369344" lon="12.012992789464144"><ele>1216.8</ele><time>2026-04-24T16:05:33Z</time></trkpt><trkpt lat="45.98168036619366" lon="12.013062755325944"><ele>1214.6000000000001</ele><time>2026-04-24T16:05:34Z</time></trkpt><trkpt lat="45.98159925845077" lon="12.013137205931363"><ele>1212.4</ele><time>2026-04-24T16:05:35Z</time></trkpt><trkpt lat="45.9815266324408" lon="12.013232527838401"><ele>1210.2</ele><time>2026-04-24T16:05:36Z</time></trkpt><trkpt lat="45.981440526808235" lon="12.013293855783369"><ele>1208.0</ele><time>2026-04-24T16:05:37Z</time></trkpt><trkpt lat="45.981358612003476" lon="12.013346971764792"><ele>1208.0</ele><time>2026-04-24T16:05:38Z</time></trkpt><trkpt lat="45.98120579835016" lon="12.013443089835018"><ele>1208.0</ele><time>2026-04-24T16:05:40Z</time></trkpt><trkpt lat="45.981132806873035" lon="12.013466426135148"><ele>1208.0</ele><time>2026-04-24T16:05:41Z</time></trkpt><trkpt lat="45.981060995797236" lon="12.013450492747024"><ele>1208.0</ele><time>2026-04-24T16:05:42Z</time></trkpt><trkpt lat="45.98099044731523" lon="12.013416861063206"><ele>1208.0</ele><time>2026-04-24T16:05:43Z</time></trkpt><trkpt lat="45.980918595608586" lon="12.013387997910709"><ele>1207.8333333333335</ele><time>2026-04-24T16:05:44Z</time></trkpt><trkpt lat="45.980841735717306" lon="12.013355274383738"><ele>1207.6666666666667</ele><time>2026-04-24T16:05:45Z</time></trkpt><trkpt lat="45.98075306970864" lon="12.013341125351092"><ele>1207.5</ele><time>2026-04-24T16:05:46Z</time></trkpt><trkpt lat="45.98066756968406" lon="12.013345120214721"><ele>1207.3333333333333</ele><time>2026-04-24T16:05:47Z</time></trkpt><trkpt lat="45.98059473903729" lon="12.013366092420343"><ele>1207.1666666666665</ele><time>2026-04-24T16:05:48Z</time></trkpt><trkpt lat="45.98053197669771" lon="12.013376847678956"><ele>1207.0</ele><time>2026-04-24T16:05:49Z</time></trkpt><trkpt lat="45.980463044997684" lon="12.013383564241256"><ele>1207.0</ele><time>2026-04-24T16:05:50Z</time></trkpt><trkpt lat="45.98035709680643" lon="12.013396566658818"><ele>1207.0</ele><time>2026-04-24T16:05:52Z</time></trkpt><trkpt lat="45.9802429746597" lon="12.013454255043406"><ele>1207.0</ele><time>2026-04-24T16:05:54Z</time></trkpt><trkpt lat="45.980138544238436" lon="12.01358216917338"><ele>1207.0</ele><time>2026-04-24T16:05:56Z</time></trkpt><trkpt lat="45.98007719234197" lon="12.013655075441035"><ele>1207.0</ele><time>2026-04-24T16:05:57Z</time></trkpt><trkpt lat="45.98001591159598" lon="12.01375698441959"><ele>1206.0</ele><time>2026-04-24T16:05:59Z</time></trkpt><trkpt lat="45.97997403950826" lon="12.014009316931329"><ele>1205.0</ele><time>2026-04-24T16:06:02Z</time></trkpt><trkpt lat="45.97996759396768" lon="12.014112609786805"><ele>1204.0</ele><time>2026-04-24T16:06:03Z</time></trkpt><trkpt lat="45.97995836009293" lon="12.014206651914764"><ele>1203.0</ele><time>2026-04-24T16:06:04Z</time></trkpt><trkpt lat="45.97994242947327" lon="12.014306779470887"><ele>1202.0</ele><time>2026-04-24T16:06:05Z</time></trkpt><trkpt lat="45.97991229456371" lon="12.014399911118844"><ele>1204.2857142857142</ele><time>2026-04-24T16:06:06Z</time></trkpt><trkpt lat="45.979882397388664" lon="12.014512468965012"><ele>1206.5714285714287</ele><time>2026-04-24T16:06:07Z</time></trkpt><trkpt lat="45.97986306339841" lon="12.014616734473234"><ele>1208.857142857143</ele><time>2026-04-24T16:06:08Z</time></trkpt><trkpt lat="45.97983555079854" lon="12.01472990996335"><ele>1211.142857142857</ele><time>2026-04-24T16:06:09Z</time></trkpt><trkpt lat="45.97980602703475" lon="12.01481640726265"><ele>1213.4285714285716</ele><time>2026-04-24T16:06:10Z</time></trkpt><trkpt lat="45.979773642090315" lon="12.014894994737912"><ele>1215.7142857142858</ele><time>2026-04-24T16:06:11Z</time></trkpt><trkpt lat="45.9797321270899" lon="12.01496663406727"><ele>1218.0</ele><time>2026-04-24T16:06:12Z</time></trkpt><trkpt lat="45.97967445776017" lon="12.015026733114865"><ele>1218.1666666666667</ele><time>2026-04-24T16:06:13Z</time></trkpt><trkpt lat="45.979597642903414" lon="12.015077562650426"><ele>1218.3333333333333</ele><time>2026-04-24T16:06:14Z</time></trkpt><trkpt lat="45.979520549345594" lon="12.015114165228862"><ele>1218.5</ele><time>2026-04-24T16:06:15Z</time></trkpt><trkpt lat="45.979446869886225" lon="12.015155965117044"><ele>1218.6666666666665</ele><time>2026-04-24T16:06:16Z</time></trkpt><trkpt lat="45.979367917272214" lon="12.01521296151064"><ele>1218.8333333333333</ele><time>2026-04-24T16:06:17Z</time></trkpt><trkpt lat="45.97929012387272" lon="12.015265116531014"><ele>1219.0</ele><time>2026-04-24T16:06:18Z</time></trkpt><trkpt lat="45.97920322959156" lon="12.015313099931982"><ele>1221.4</ele><time>2026-04-24T16:06:19Z</time></trkpt><trkpt lat="45.979105958154925" lon="12.015351630936292"><ele>1223.8000000000002</ele><time>2026-04-24T16:06:20Z</time></trkpt><trkpt lat="45.97892315282271" lon="12.0154036516936"><ele>1226.1999999999998</ele><time>2026-04-24T16:06:22Z</time></trkpt><trkpt lat="45.97885770060719" lon="12.015423876358335"><ele>1228.6</ele><time>2026-04-24T16:06:23Z</time></trkpt><trkpt lat="45.978776000550226" lon="12.01544031341871"><ele>1231.0</ele><time>2026-04-24T16:06:24Z</time></trkpt><trkpt lat="45.97869448369779" lon="12.015448600869213"><ele>1231.0</ele><time>2026-04-24T16:06:25Z</time></trkpt><trkpt lat="45.978598844621516" lon="12.015475293721675"><ele>1231.0</ele><time>2026-04-24T16:06:26Z</time></trkpt><trkpt lat="45.978496621451086" lon="12.015521515652392"><ele>1231.0</ele><time>2026-04-24T16:06:27Z</time></trkpt><trkpt lat="45.978403910920235" lon="12.015581934612078"><ele>1231.0</ele><time>2026-04-24T16:06:28Z</time></trkpt><trkpt lat="45.97831829243601" lon="12.015626949434488"><ele>1231.0</ele><time>2026-04-24T16:06:29Z</time></trkpt><trkpt lat="45.97823564196634" lon="12.015674503796985"><ele>1231.1666666666665</ele><time>2026-04-24T16:06:30Z</time></trkpt><trkpt lat="45.97814025063931" lon="12.015713651088136"><ele>1231.3333333333333</ele><time>2026-04-24T16:06:31Z</time></trkpt><trkpt lat="45.97806314604896" lon="12.015749225329383"><ele>1231.5</ele><time>2026-04-24T16:06:32Z</time></trkpt><trkpt lat="45.97798464638379" lon="12.015789284442334"><ele>1231.6666666666667</ele><time>2026-04-24T16:06:33Z</time></trkpt><trkpt lat="45.97791471543844" lon="12.015810964221934"><ele>1231.8333333333335</ele><time>2026-04-24T16:06:34Z</time></trkpt><trkpt lat="45.977843328004404" lon="12.015827800412316"><ele>1232.0</ele><time>2026-04-24T16:06:35Z</time></trkpt><trkpt lat="45.977773072821755" lon="12.015834369298052"><ele>1232.0</ele><time>2026-04-24T16:06:36Z</time></trkpt><trkpt lat="45.97769466938655" lon="12.01583620452494"><ele>1232.0</ele><time>2026-04-24T16:06:37Z</time></trkpt><trkpt lat="45.97761955489776" lon="12.015835416283975"><ele>1232.0</ele><time>2026-04-24T16:06:38Z</time></trkpt><trkpt lat="45.977543444462874" lon="12.015863985696605"><ele>1232.0</ele><time>2026-04-24T16:06:39Z</time></trkpt><trkpt lat="45.97746947665885" lon="12.015922240447109"><ele>1232.0</ele><time>2026-04-24T16:06:40Z</time></trkpt><trkpt lat="45.97739953042909" lon="12.016009828046483"><ele>1232.0</ele><time>2026-04-24T16:06:41Z</time></trkpt><trkpt lat="45.97724164493571" lon="12.016135921931326"><ele>1234.8333333333335</ele><time>2026-04-24T16:06:44Z</time></trkpt><trkpt lat="45.97719163218953" lon="12.016053356417187"><ele>1237.6666666666667</ele><time>2026-04-24T16:06:47Z</time></trkpt><trkpt lat="45.977181115949996" lon="12.015906175058927"><ele>1240.5</ele><time>2026-04-24T16:06:49Z</time></trkpt><trkpt lat="45.977151677040176" lon="12.015818520357668"><ele>1243.3333333333333</ele><time>2026-04-24T16:06:50Z</time></trkpt><trkpt lat="45.97711109889186" lon="12.015714317873542"><ele>1246.1666666666665</ele><time>2026-04-24T16:06:51Z</time></trkpt><trkpt lat="45.97706484149768" lon="12.015577942085766"><ele>1249.0</ele><time>2026-04-24T16:06:52Z</time></trkpt><trkpt lat="45.97705556462209" lon="12.01543544647661"><ele>1248.25</ele><time>2026-04-24T16:06:53Z</time></trkpt><trkpt lat="45.97704181385539" lon="12.01529746103286"><ele>1247.5</ele><time>2026-04-24T16:06:54Z</time></trkpt><trkpt lat="45.976999348858584" lon="12.015155824330224"><ele>1246.75</ele><time>2026-04-24T16:06:55Z</time></trkpt><trkpt lat="45.9769264234926" lon="12.01500184238289"><ele>1246.0</ele><time>2026-04-24T16:06:56Z</time></trkpt><trkpt lat="45.976862580398354" lon="12.014861939961754"><ele>1246.0</ele><time>2026-04-24T16:06:57Z</time></trkpt><trkpt lat="45.97683034939303" lon="12.01477792403393"><ele>1246.0</ele><time>2026-04-24T16:06:58Z</time></trkpt><trkpt lat="45.97678668134764" lon="12.014687019353493"><ele>1246.0</ele><time>2026-04-24T16:06:59Z</time></trkpt><trkpt lat="45.97673062691514" lon="12.014585720968379"><ele>1246.0</ele><time>2026-04-24T16:07:00Z</time></trkpt><trkpt lat="45.97667124846049" lon="12.014479639535509"><ele>1246.0</ele><time>2026-04-24T16:07:01Z</time></trkpt><trkpt lat="45.97662092509555" lon="12.014386670992765"><ele>1246.0</ele><time>2026-04-24T16:07:02Z</time></trkpt><trkpt lat="45.97650715414611" lon="12.01417169105707"><ele>1247.142857142857</ele><time>2026-04-24T16:07:06Z</time></trkpt><trkpt lat="45.97645699803971" lon="12.014097101988432"><ele>1248.2857142857142</ele><time>2026-04-24T16:07:07.999Z</time></trkpt><trkpt lat="45.976397111896674" lon="12.014145329149198"><ele>1249.4285714285716</ele><time>2026-04-24T16:07:08.999Z</time></trkpt><trkpt lat="45.97641254968646" lon="12.014266378711412"><ele>1250.5714285714284</ele><time>2026-04-24T16:07:09.999Z</time></trkpt><trkpt lat="45.976419247649176" lon="12.014364599854227"><ele>1251.7142857142858</ele><time>2026-04-24T16:07:10.999Z</time></trkpt><trkpt lat="45.97642620992227" lon="12.014460787323372"><ele>1252.857142857143</ele><time>2026-04-24T16:07:11.999Z</time></trkpt><trkpt lat="45.97642068756429" lon="12.014565316211172"><ele>1254.0</ele><time>2026-04-24T16:07:12.999Z</time></trkpt><trkpt lat="45.97640304433982" lon="12.014671333508064"><ele>1257.3333333333333</ele><time>2026-04-24T16:07:13.999Z</time></trkpt><trkpt lat="45.976379580614186" lon="12.014781399014723"><ele>1260.6666666666667</ele><time>2026-04-24T16:07:14.999Z</time></trkpt><trkpt lat="45.97634979259933" lon="12.014895017593181"><ele>1264.0</ele><time>2026-04-24T16:07:15.999Z</time></trkpt><trkpt lat="45.9763294733132" lon="12.015002901433448"><ele>1267.3333333333335</ele><time>2026-04-24T16:07:16.999Z</time></trkpt><trkpt lat="45.97629199228531" lon="12.015092218383918"><ele>1270.6666666666667</ele><time>2026-04-24T16:07:17.999Z</time></trkpt><trkpt lat="45.97624017091575" lon="12.015150145271667"><ele>1274.0</ele><time>2026-04-24T16:07:18.999Z</time></trkpt><trkpt lat="45.976180499061336" lon="12.015234204388953"><ele>1276.25</ele><time>2026-04-24T16:07:19.999Z</time></trkpt><trkpt lat="45.976101273080424" lon="12.01532851926224"><ele>1278.5</ele><time>2026-04-24T16:07:20.999Z</time></trkpt><trkpt lat="45.976066211150744" lon="12.015458626659138"><ele>1280.75</ele><time>2026-04-24T16:07:21.999Z</time></trkpt><trkpt lat="45.976014700951595" lon="12.015525919681888"><ele>1283.0</ele><time>2026-04-24T16:07:22.999Z</time></trkpt><trkpt lat="45.97524539778656" lon="12.016119046648651"><ele>1287.4</ele><time>2026-04-24T16:12:07.999Z</time></trkpt><trkpt lat="45.97533769203038" lon="12.016057769660472"><ele>1291.8000000000002</ele><time>2026-04-24T16:12:13.999Z</time></trkpt><trkpt lat="45.97544664259346" lon="12.01602669190084"><ele>1296.2</ele><time>2026-04-24T16:12:15.999Z</time></trkpt><trkpt lat="45.97554122087867" lon="12.015955458937407"><ele>1300.6</ele><time>2026-04-24T16:12:17.999Z</time></trkpt><trkpt lat="45.975615017104786" lon="12.015909883385747"><ele>1305.0</ele><time>2026-04-24T16:12:18.999Z</time></trkpt><trkpt lat="45.97571044600445" lon="12.015841290453496"><ele>1305.5</ele><time>2026-04-24T16:12:19.999Z</time></trkpt><trkpt lat="45.97580376054043" lon="12.015774188426676"><ele>1306.0</ele><time>2026-04-24T16:12:21.999Z</time></trkpt><trkpt lat="45.9758644337195" lon="12.015728630070939"><ele>1306.5</ele><time>2026-04-24T16:12:22.999Z</time></trkpt><trkpt lat="45.97594740636843" lon="12.015681136555568"><ele>1307.0</ele><time>2026-04-24T16:12:24.999Z</time></trkpt><trkpt lat="45.976001075460054" lon="12.015624492588254"><ele>1307.5</ele><time>2026-04-24T16:12:26.999Z</time></trkpt><trkpt lat="45.97606547754481" lon="12.015510648294411"><ele>1308.0</ele><time>2026-04-24T16:12:29Z</time></trkpt><trkpt lat="45.976094430276454" lon="12.015427197674635"><ele>1303.0</ele><time>2026-04-24T16:12:30Z</time></trkpt><trkpt lat="45.97616048686687" lon="12.015286877645487"><ele>1298.0</ele><time>2026-04-24T16:12:32Z</time></trkpt><trkpt lat="45.97625628912976" lon="12.01518338069507"><ele>1293.0</ele><time>2026-04-24T16:12:34Z</time></trkpt><trkpt lat="45.97633049759301" lon="12.015042679223729"><ele>1288.0</ele><time>2026-04-24T16:12:36Z</time></trkpt><trkpt lat="45.976362676494226" lon="12.014950927609965"><ele>1283.0</ele><time>2026-04-24T16:12:37Z</time></trkpt><trkpt lat="45.9763844857572" lon="12.014859322300639"><ele>1281.5</ele><time>2026-04-24T16:12:38Z</time></trkpt><trkpt lat="45.976411949501646" lon="12.014728048004867"><ele>1280.0</ele><time>2026-04-24T16:12:40Z</time></trkpt><trkpt lat="45.97643839686583" lon="12.014612843973033"><ele>1278.5</ele><time>2026-04-24T16:12:42Z</time></trkpt><trkpt lat="45.97644814652997" lon="12.014501147928804"><ele>1277.0</ele><time>2026-04-24T16:12:44Z</time></trkpt><trkpt lat="45.97643726743073" lon="12.014373186450005"><ele>1275.5</ele><time>2026-04-24T16:12:46Z</time></trkpt><trkpt lat="45.97641148264222" lon="12.014245691259712"><ele>1274.0</ele><time>2026-04-24T16:12:48Z</time></trkpt><trkpt lat="45.9764152758136" lon="12.0141485975621"><ele>1274.0</ele><time>2026-04-24T16:12:50Z</time></trkpt><trkpt lat="45.9764788968598" lon="12.0141380642479"><ele>1274.0</ele><time>2026-04-24T16:12:52Z</time></trkpt><trkpt lat="45.97652831689886" lon="12.014229024574895"><ele>1274.0</ele><time>2026-04-24T16:12:54Z</time></trkpt><trkpt lat="45.97661036659653" lon="12.014381487023282"><ele>1274.0</ele><time>2026-04-24T16:12:56Z</time></trkpt><trkpt lat="45.976658327835494" lon="12.014450993179556"><ele>1274.0</ele><time>2026-04-24T16:12:57Z</time></trkpt><trkpt lat="45.97673291396082" lon="12.014577119472309"><ele>1270.5</ele><time>2026-04-24T16:12:59Z</time></trkpt><trkpt lat="45.976792216170374" lon="12.014713303435643"><ele>1267.0</ele><time>2026-04-24T16:13:01Z</time></trkpt><trkpt lat="45.97685634272672" lon="12.014854526730756"><ele>1263.5</ele><time>2026-04-24T16:13:03Z</time></trkpt><trkpt lat="45.97691623255519" lon="12.014998473209621"><ele>1260.0</ele><time>2026-04-24T16:13:05Z</time></trkpt><trkpt lat="45.97697232026655" lon="12.015137784366498"><ele>1260.0</ele><time>2026-04-24T16:13:07Z</time></trkpt><trkpt lat="45.97702483943344" lon="12.015283691127262"><ele>1260.0</ele><time>2026-04-24T16:13:09Z</time></trkpt><trkpt lat="45.97705298975396" lon="12.01542817771283"><ele>1260.0</ele><time>2026-04-24T16:13:11Z</time></trkpt><trkpt lat="45.97707528996021" lon="12.015595849855973"><ele>1260.0</ele><time>2026-04-24T16:13:13Z</time></trkpt><trkpt lat="45.977109374568535" lon="12.015743112522204"><ele>1260.0</ele><time>2026-04-24T16:13:15Z</time></trkpt><trkpt lat="45.977169502038656" lon="12.015852121934154"><ele>1258.1666666666667</ele><time>2026-04-24T16:13:17Z</time></trkpt><trkpt lat="45.97719006458223" lon="12.01595968992428"><ele>1256.3333333333333</ele><time>2026-04-24T16:13:19Z</time></trkpt><trkpt lat="45.97718239563991" lon="12.016076649795464"><ele>1254.5</ele><time>2026-04-24T16:13:21Z</time></trkpt><trkpt lat="45.97722646645373" lon="12.016148659172906"><ele>1252.6666666666665</ele><time>2026-04-24T16:13:23Z</time></trkpt><trkpt lat="45.97731344062113" lon="12.016102610585374"><ele>1250.8333333333333</ele><time>2026-04-24T16:13:25Z</time></trkpt><trkpt lat="45.977367304168546" lon="12.016052871604579"><ele>1249.0</ele><time>2026-04-24T16:13:26Z</time></trkpt><trkpt lat="45.97742932677645" lon="12.016000218232275"><ele>1248.9999999999998</ele><time>2026-04-24T16:13:27Z</time></trkpt><trkpt lat="45.97748418836219" lon="12.015951003818344"><ele>1249.0</ele><time>2026-04-24T16:13:28Z</time></trkpt><trkpt lat="45.97753939330154" lon="12.01590227494597"><ele>1249.0</ele><time>2026-04-24T16:13:29Z</time></trkpt><trkpt lat="45.977600154891476" lon="12.015858951884525"><ele>1249.0</ele><time>2026-04-24T16:13:30Z</time></trkpt><trkpt lat="45.97766771656658" lon="12.01582873062877"><ele>1249.0</ele><time>2026-04-24T16:13:31Z</time></trkpt><trkpt lat="45.97773837671025" lon="12.015829905745042"><ele>1248.9999999999998</ele><time>2026-04-24T16:13:32Z</time></trkpt><trkpt lat="45.97781336395523" lon="12.015843603710506"><ele>1249.0</ele><time>2026-04-24T16:13:33Z</time></trkpt><trkpt lat="45.977893138588705" lon="12.015836445611358"><ele>1245.6666666666665</ele><time>2026-04-24T16:13:34Z</time></trkpt><trkpt lat="45.977965122482175" lon="12.01581375174609"><ele>1242.3333333333333</ele><time>2026-04-24T16:13:35Z</time></trkpt><trkpt lat="45.97803735100064" lon="12.015774684349124"><ele>1239.0</ele><time>2026-04-24T16:13:36Z</time></trkpt><trkpt lat="45.97810640267178" lon="12.015734302771302"><ele>1235.6666666666667</ele><time>2026-04-24T16:13:37Z</time></trkpt><trkpt lat="45.978180005988314" lon="12.015694883597973"><ele>1232.3333333333335</ele><time>2026-04-24T16:13:38Z</time></trkpt><trkpt lat="45.978258564789115" lon="12.015653914972475"><ele>1229.0</ele><time>2026-04-24T16:13:39Z</time></trkpt><trkpt lat="45.978336715724005" lon="12.01561685969238"><ele>1229.2857142857144</ele><time>2026-04-24T16:13:40Z</time></trkpt><trkpt lat="45.97841043566522" lon="12.015585111617188"><ele>1229.5714285714287</ele><time>2026-04-24T16:13:41Z</time></trkpt><trkpt lat="45.9784800339929" lon="12.015551050384934"><ele>1229.857142857143</ele><time>2026-04-24T16:13:42Z</time></trkpt><trkpt lat="45.97855042893353" lon="12.015517276726976"><ele>1230.1428571428573</ele><time>2026-04-24T16:13:43Z</time></trkpt><trkpt lat="45.9786266214296" lon="12.015481517103234"><ele>1230.4285714285716</ele><time>2026-04-24T16:13:44Z</time></trkpt><trkpt lat="45.97869091041878" lon="12.01545570156522"><ele>1230.7142857142858</ele><time>2026-04-24T16:13:45Z</time></trkpt><trkpt lat="45.978761078241476" lon="12.015444956532981"><ele>1231.0</ele><time>2026-04-24T16:13:46Z</time></trkpt><trkpt lat="45.97882549438722" lon="12.015430590519879"><ele>1231.0</ele><time>2026-04-24T16:13:47Z</time></trkpt><trkpt lat="45.978946062414096" lon="12.015394448383882"><ele>1231.0</ele><time>2026-04-24T16:13:49Z</time></trkpt><trkpt lat="45.97901355035263" lon="12.015374013359981"><ele>1231.0</ele><time>2026-04-24T16:13:50Z</time></trkpt><trkpt lat="45.97908596917857" lon="12.015346961888618"><ele>1231.0</ele><time>2026-04-24T16:13:51Z</time></trkpt><trkpt lat="45.979155018335256" lon="12.015324006014543"><ele>1231.0</ele><time>2026-04-24T16:13:52Z</time></trkpt><trkpt lat="45.979218368434324" lon="12.0152973239685"><ele>1231.0</ele><time>2026-04-24T16:13:53Z</time></trkpt><trkpt lat="45.97933127041387" lon="12.01524519674366"><ele>1228.6</ele><time>2026-04-24T16:13:55Z</time></trkpt><trkpt lat="45.97939495169667" lon="12.015203582904002"><ele>1226.1999999999998</ele><time>2026-04-24T16:13:56Z</time></trkpt><trkpt lat="45.979453067263954" lon="12.015162621636607"><ele>1223.8000000000002</ele><time>2026-04-24T16:13:57Z</time></trkpt><trkpt lat="45.97954585258995" lon="12.015099819589118"><ele>1221.4</ele><time>2026-04-24T16:13:59Z</time></trkpt><trkpt lat="45.979638038378354" lon="12.015028868139852"><ele>1219.0</ele><time>2026-04-24T16:14:01Z</time></trkpt><trkpt lat="45.97972880131246" lon="12.014942590663777"><ele>1218.8333333333333</ele><time>2026-04-24T16:14:03Z</time></trkpt><trkpt lat="45.979775548744435" lon="12.01485424299992"><ele>1218.6666666666665</ele><time>2026-04-24T16:14:04Z</time></trkpt><trkpt lat="45.979817874331" lon="12.01475261223924"><ele>1218.5</ele><time>2026-04-24T16:14:05Z</time></trkpt><trkpt lat="45.979847908757726" lon="12.014660202180355"><ele>1218.3333333333333</ele><time>2026-04-24T16:14:06Z</time></trkpt><trkpt lat="45.97986332845756" lon="12.014568453590053"><ele>1218.1666666666667</ele><time>2026-04-24T16:14:07Z</time></trkpt><trkpt lat="45.979886747733026" lon="12.014483327020661"><ele>1218.0</ele><time>2026-04-24T16:14:08Z</time></trkpt><trkpt lat="45.97992776481087" lon="12.01429546457692"><ele>1218.0</ele><time>2026-04-24T16:14:10Z</time></trkpt><trkpt lat="45.979943780725385" lon="12.014198136109332"><ele>1218.0</ele><time>2026-04-24T16:14:11Z</time></trkpt><trkpt lat="45.97996629387304" lon="12.014111518433038"><ele>1218.0</ele><time>2026-04-24T16:14:12Z</time></trkpt><trkpt lat="45.97998142196454" lon="12.014018769414456"><ele>1218.0</ele><time>2026-04-24T16:14:13Z</time></trkpt><trkpt lat="45.97998778234931" lon="12.013863200234312"><ele>1218.0</ele><time>2026-04-24T16:14:15Z</time></trkpt><trkpt lat="45.98003294446248" lon="12.0137236908419"><ele>1218.0</ele><time>2026-04-24T16:14:17Z</time></trkpt><trkpt lat="45.9801232894299" lon="12.013623875390309"><ele>1215.8</ele><time>2026-04-24T16:14:19Z</time></trkpt><trkpt lat="45.98021240797611" lon="12.013516922714468"><ele>1213.6</ele><time>2026-04-24T16:14:21Z</time></trkpt><trkpt lat="45.980296293854806" lon="12.013440617613707"><ele>1211.4</ele><time>2026-04-24T16:14:23Z</time></trkpt><trkpt lat="45.9803992398051" lon="12.013413720587675"><ele>1209.2</ele><time>2026-04-24T16:14:25Z</time></trkpt><trkpt lat="45.980475180842646" lon="12.013412772864001"><ele>1207.0</ele><time>2026-04-24T16:14:26Z</time></trkpt><trkpt lat="45.980542506450504" lon="12.01340835433832"><ele>1207.0</ele><time>2026-04-24T16:14:27Z</time></trkpt><trkpt lat="45.98066511547593" lon="12.013404327879277"><ele>1207.0</ele><time>2026-04-24T16:14:29Z</time></trkpt><trkpt lat="45.980796423564776" lon="12.013395851407665"><ele>1207.0</ele><time>2026-04-24T16:14:31Z</time></trkpt><trkpt lat="45.98086112567354" lon="12.013402005142131"><ele>1207.0</ele><time>2026-04-24T16:14:32Z</time></trkpt><trkpt lat="45.98097034531763" lon="12.013452883320184"><ele>1207.0</ele><time>2026-04-24T16:14:34Z</time></trkpt><trkpt lat="45.981089613019044" lon="12.013489088276108"><ele>1207.1666666666665</ele><time>2026-04-24T16:14:36Z</time></trkpt><trkpt lat="45.98116317474602" lon="12.013490396370829"><ele>1207.3333333333333</ele><time>2026-04-24T16:14:37Z</time></trkpt><trkpt lat="45.981243499918556" lon="12.013466598167835"><ele>1207.5</ele><time>2026-04-24T16:14:38Z</time></trkpt><trkpt lat="45.98131903709832" lon="12.013419816227776"><ele>1207.6666666666667</ele><time>2026-04-24T16:14:39Z</time></trkpt><trkpt lat="45.98138506532881" lon="12.013362637104743"><ele>1207.8333333333335</ele><time>2026-04-24T16:14:40Z</time></trkpt><trkpt lat="45.98145679007962" lon="12.013303516294144"><ele>1208.0</ele><time>2026-04-24T16:14:41Z</time></trkpt><trkpt lat="45.98153893370532" lon="12.01325053409061"><ele>1209.8333333333335</ele><time>2026-04-24T16:14:42Z</time></trkpt><trkpt lat="45.981617728025114" lon="12.013204380916784"><ele>1211.6666666666667</ele><time>2026-04-24T16:14:43Z</time></trkpt><trkpt lat="45.981691569675114" lon="12.013147503730096"><ele>1213.5</ele><time>2026-04-24T16:14:44Z</time></trkpt><trkpt lat="45.98175286888605" lon="12.013071643773335"><ele>1215.3333333333333</ele><time>2026-04-24T16:14:45Z</time></trkpt><trkpt lat="45.98182089383272" lon="12.013005803153527"><ele>1217.1666666666665</ele><time>2026-04-24T16:14:46Z</time></trkpt><trkpt lat="45.98188810002456" lon="12.012924999109606"><ele>1219.0</ele><time>2026-04-24T16:14:47Z</time></trkpt><trkpt lat="45.98195116506622" lon="12.012846270721619"><ele>1219.0</ele><time>2026-04-24T16:14:48Z</time></trkpt><trkpt lat="45.982017171993625" lon="12.012746635456963"><ele>1219.0</ele><time>2026-04-24T16:14:49Z</time></trkpt><trkpt lat="45.98210568542975" lon="12.012709410434574"><ele>1219.0</ele><time>2026-04-24T16:14:50Z</time></trkpt><trkpt lat="45.982159256516006" lon="12.012658244627016"><ele>1219.0</ele><time>2026-04-24T16:14:51Z</time></trkpt><trkpt lat="45.98223735929151" lon="12.01263764725486"><ele>1219.0</ele><time>2026-04-24T16:14:52Z</time></trkpt><trkpt lat="45.98230074307919" lon="12.01258700976559"><ele>1219.0</ele><time>2026-04-24T16:14:53Z</time></trkpt><trkpt lat="45.98235079233857" lon="12.012494837420498"><ele>1220.5</ele><time>2026-04-24T16:14:54Z</time></trkpt><trkpt lat="45.9824050215794" lon="12.01240350681465"><ele>1222.0</ele><time>2026-04-24T16:14:55Z</time></trkpt><trkpt lat="45.982469812521515" lon="12.01230579432525"><ele>1223.5</ele><time>2026-04-24T16:14:56Z</time></trkpt><trkpt lat="45.98250767646569" lon="12.01221270106861"><ele>1225.0</ele><time>2026-04-24T16:14:57Z</time></trkpt><trkpt lat="45.9825457953835" lon="12.012109636522553"><ele>1226.5</ele><time>2026-04-24T16:14:58Z</time></trkpt><trkpt lat="45.982574449689665" lon="12.012022182605017"><ele>1228.0</ele><time>2026-04-24T16:14:59Z</time></trkpt><trkpt lat="45.98260365490543" lon="12.011906649111495"><ele>1228.0</ele><time>2026-04-24T16:15:00Z</time></trkpt><trkpt lat="45.982644637058826" lon="12.011732136349929"><ele>1228.0</ele><time>2026-04-24T16:15:02Z</time></trkpt><trkpt lat="45.98270406287926" lon="12.011610284249738"><ele>1228.0</ele><time>2026-04-24T16:15:04Z</time></trkpt><trkpt lat="45.98276874969549" lon="12.01156175692172"><ele>1228.0</ele><time>2026-04-24T16:15:05Z</time></trkpt><trkpt lat="45.98284678340355" lon="12.011513042346909"><ele>1228.0</ele><time>2026-04-24T16:15:06Z</time></trkpt><trkpt lat="45.982918243390564" lon="12.011471685545983"><ele>1227.6666666666665</ele><time>2026-04-24T16:15:07Z</time></trkpt><trkpt lat="45.98300431678265" lon="12.011429842023874"><ele>1227.3333333333333</ele><time>2026-04-24T16:15:08Z</time></trkpt><trkpt lat="45.98307430872107" lon="12.01140428061875"><ele>1227.0</ele><time>2026-04-24T16:15:09Z</time></trkpt><trkpt lat="45.98319314109807" lon="12.011373072463838"><ele>1226.6666666666667</ele><time>2026-04-24T16:15:11Z</time></trkpt><trkpt lat="45.983269584700984" lon="12.011326435487911"><ele>1226.3333333333335</ele><time>2026-04-24T16:15:12Z</time></trkpt><trkpt lat="45.98333285237403" lon="12.011252593371404"><ele>1226.0</ele><time>2026-04-24T16:15:13Z</time></trkpt><trkpt lat="45.9833824028642" lon="12.01117057012019"><ele>1226.0</ele><time>2026-04-24T16:15:14Z</time></trkpt><trkpt lat="45.98340629789278" lon="12.011059541997284"><ele>1226.0</ele><time>2026-04-24T16:15:15Z</time></trkpt><trkpt lat="45.98345704831817" lon="12.010966604054746"><ele>1226.0</ele><time>2026-04-24T16:15:16Z</time></trkpt><trkpt lat="45.983480030743856" lon="12.01085114629093"><ele>1226.0</ele><time>2026-04-24T16:15:17Z</time></trkpt><trkpt lat="45.98351409016402" lon="12.01075257816891"><ele>1226.0</ele><time>2026-04-24T16:15:18Z</time></trkpt><trkpt lat="45.983551332066476" lon="12.01065683017983"><ele>1226.0</ele><time>2026-04-24T16:15:19Z</time></trkpt><trkpt lat="45.98358209575437" lon="12.01056840463957"><ele>1221.5</ele><time>2026-04-24T16:15:20Z</time></trkpt><trkpt lat="45.983612937219" lon="12.010473627105295"><ele>1217.0</ele><time>2026-04-24T16:15:21Z</time></trkpt><trkpt lat="45.98365175390677" lon="12.010381536306703"><ele>1212.5</ele><time>2026-04-24T16:15:23Z</time></trkpt><trkpt lat="45.98375495261701" lon="12.010301128124627"><ele>1208.0</ele><time>2026-04-24T16:15:25Z</time></trkpt><trkpt lat="45.98384679162321" lon="12.010338050194711"><ele>1203.5</ele><time>2026-04-24T16:15:27Z</time></trkpt><trkpt lat="45.98388382321371" lon="12.010414978901085"><ele>1199.0</ele><time>2026-04-24T16:15:28Z</time></trkpt><trkpt lat="45.98400720280627" lon="12.01045013833213"><ele>1199.0</ele><time>2026-04-24T16:15:30Z</time></trkpt><trkpt lat="45.98411589170728" lon="12.010464576366548"><ele>1199.0</ele><time>2026-04-24T16:15:32Z</time></trkpt><trkpt lat="45.98422984159624" lon="12.010481982934017"><ele>1199.0</ele><time>2026-04-24T16:15:34Z</time></trkpt><trkpt lat="45.984298336218615" lon="12.010495214265775"><ele>1199.0</ele><time>2026-04-24T16:15:35Z</time></trkpt><trkpt lat="45.984413748045384" lon="12.010546194068414"><ele>1199.0</ele><time>2026-04-24T16:15:37Z</time></trkpt><trkpt lat="45.98447934077337" lon="12.010625364307248"><ele>1199.8333333333335</ele><time>2026-04-24T16:15:38Z</time></trkpt><trkpt lat="45.98455309735675" lon="12.010712694614966"><ele>1200.6666666666667</ele><time>2026-04-24T16:15:39Z</time></trkpt><trkpt lat="45.984621195048106" lon="12.010782476845408"><ele>1201.5</ele><time>2026-04-24T16:15:40Z</time></trkpt><trkpt lat="45.984689492098" lon="12.01084105377968"><ele>1202.3333333333333</ele><time>2026-04-24T16:15:41Z</time></trkpt><trkpt lat="45.98476215283927" lon="12.010906149329333"><ele>1203.1666666666665</ele><time>2026-04-24T16:15:42Z</time></trkpt><trkpt lat="45.98482636816182" lon="12.010955267429544"><ele>1204.0</ele><time>2026-04-24T16:15:43Z</time></trkpt><trkpt lat="45.98489637013908" lon="12.010988602580788"><ele>1204.0</ele><time>2026-04-24T16:15:44Z</time></trkpt><trkpt lat="45.984959869585005" lon="12.011033868942306"><ele>1204.0</ele><time>2026-04-24T16:15:45Z</time></trkpt><trkpt lat="45.98507024200149" lon="12.011081903443317"><ele>1204.0</ele><time>2026-04-24T16:15:47Z</time></trkpt><trkpt lat="45.9851764048489" lon="12.011099218777186"><ele>1204.0</ele><time>2026-04-24T16:15:48Z</time></trkpt><trkpt lat="45.98525670502074" lon="12.011111921332201"><ele>1204.0</ele><time>2026-04-24T16:15:49Z</time></trkpt><trkpt lat="45.98532561504412" lon="12.011135371706104"><ele>1204.0</ele><time>2026-04-24T16:15:50Z</time></trkpt><trkpt lat="45.98538229337933" lon="12.011199566612287"><ele>1201.1666666666665</ele><time>2026-04-24T16:15:51Z</time></trkpt><trkpt lat="45.985452174089616" lon="12.011267674461148"><ele>1198.3333333333333</ele><time>2026-04-24T16:15:52Z</time></trkpt><trkpt lat="45.98555391142453" lon="12.011322644392413"><ele>1195.5</ele><time>2026-04-24T16:15:53Z</time></trkpt><trkpt lat="45.98561867707335" lon="12.01135327455624"><ele>1192.6666666666667</ele><time>2026-04-24T16:15:54Z</time></trkpt><trkpt lat="45.98569618405231" lon="12.011390350600795"><ele>1189.8333333333335</ele><time>2026-04-24T16:15:55Z</time></trkpt><trkpt lat="45.98578112936992" lon="12.011460465612723"><ele>1187.0</ele><time>2026-04-24T16:15:56Z</time></trkpt><trkpt lat="45.98586852503391" lon="12.011574406285591"><ele>1187.6666666666667</ele><time>2026-04-24T16:15:58Z</time></trkpt><trkpt lat="45.98594244749392" lon="12.011642218826616"><ele>1188.3333333333335</ele><time>2026-04-24T16:15:59Z</time></trkpt><trkpt lat="45.98600445867618" lon="12.011734019178164"><ele>1189.0</ele><time>2026-04-24T16:16:00Z</time></trkpt><trkpt lat="45.98606928644961" lon="12.011812450496747"><ele>1189.6666666666667</ele><time>2026-04-24T16:16:01Z</time></trkpt><trkpt lat="45.98613827511658" lon="12.011878048035237"><ele>1190.3333333333333</ele><time>2026-04-24T16:16:02Z</time></trkpt><trkpt lat="45.98619349503364" lon="12.011966413637058"><ele>1191.0</ele><time>2026-04-24T16:16:03Z</time></trkpt><trkpt lat="45.98625086530632" lon="12.012053776345105"><ele>1191.0</ele><time>2026-04-24T16:16:04Z</time></trkpt><trkpt lat="45.98632663641287" lon="12.012119445237962"><ele>1191.0</ele><time>2026-04-24T16:16:05Z</time></trkpt><trkpt lat="45.986388939467034" lon="12.012182389346608"><ele>1191.0</ele><time>2026-04-24T16:16:06Z</time></trkpt><trkpt lat="45.9864609085394" lon="12.012230636650905"><ele>1191.0</ele><time>2026-04-24T16:16:07Z</time></trkpt><trkpt lat="45.98652470837011" lon="12.012272835418289"><ele>1191.0</ele><time>2026-04-24T16:16:08.001Z</time></trkpt><trkpt lat="45.986588521619396" lon="12.012316288645765"><ele>1191.0</ele><time>2026-04-24T16:16:09.001Z</time></trkpt><trkpt lat="45.986709029994756" lon="12.01242683561015"><ele>1192.3999999999999</ele><time>2026-04-24T16:16:11.001Z</time></trkpt><trkpt lat="45.98677570175448" lon="12.012527969800232"><ele>1193.8</ele><time>2026-04-24T16:16:12.001Z</time></trkpt><trkpt lat="45.98685935206061" lon="12.012606039752884"><ele>1195.1999999999998</ele><time>2026-04-24T16:16:13.001Z</time></trkpt><trkpt lat="45.986941191756095" lon="12.012678683962175"><ele>1196.6</ele><time>2026-04-24T16:16:14.001Z</time></trkpt><trkpt lat="45.9870305962462" lon="12.01271084449681"><ele>1198.0</ele><time>2026-04-24T16:16:15.001Z</time></trkpt><trkpt lat="45.987114047188896" lon="12.012763529091938"><ele>1198.0</ele><time>2026-04-24T16:16:16.001Z</time></trkpt><trkpt lat="45.987202411444876" lon="12.012778002028385"><ele>1198.0</ele><time>2026-04-24T16:16:17.001Z</time></trkpt><trkpt lat="45.98729158796873" lon="12.012805422703206"><ele>1198.0</ele><time>2026-04-24T16:16:18.001Z</time></trkpt><trkpt lat="45.98738783571668" lon="12.012833472318109"><ele>1198.0</ele><time>2026-04-24T16:16:19.001Z</time></trkpt><trkpt lat="45.98747937959992" lon="12.012866137296921"><ele>1198.0</ele><time>2026-04-24T16:16:20.001Z</time></trkpt><trkpt lat="45.987562352297765" lon="12.012897867050757"><ele>1197.1666666666665</ele><time>2026-04-24T16:16:21.001Z</time></trkpt><trkpt lat="45.98763078494762" lon="12.012924196885937"><ele>1196.3333333333333</ele><time>2026-04-24T16:16:22Z</time></trkpt><trkpt lat="45.987711861207636" lon="12.012958039007104"><ele>1195.5</ele><time>2026-04-24T16:16:23Z</time></trkpt><trkpt lat="45.98779339988277" lon="12.01298962051422"><ele>1194.6666666666667</ele><time>2026-04-24T16:16:24Z</time></trkpt><trkpt lat="45.987880135366915" lon="12.013016413329233"><ele>1193.8333333333335</ele><time>2026-04-24T16:16:25Z</time></trkpt><trkpt lat="45.9879640345893" lon="12.013032573547939"><ele>1193.0</ele><time>2026-04-24T16:16:26Z</time></trkpt><trkpt lat="45.988049442562875" lon="12.0130440869293"><ele>1193.0</ele><time>2026-04-24T16:16:27Z</time></trkpt><trkpt lat="45.98814024997806" lon="12.013047335853111"><ele>1193.0</ele><time>2026-04-24T16:16:28Z</time></trkpt><trkpt lat="45.98823051397488" lon="12.013060583321604"><ele>1193.0</ele><time>2026-04-24T16:16:29Z</time></trkpt><trkpt lat="45.98831829373752" lon="12.013080104065976"><ele>1193.0</ele><time>2026-04-24T16:16:30Z</time></trkpt><trkpt lat="45.98839206677628" lon="12.013109923865786"><ele>1193.0</ele><time>2026-04-24T16:16:31Z</time></trkpt><trkpt lat="45.98847642225081" lon="12.013188186043054"><ele>1193.0</ele><time>2026-04-24T16:16:32Z</time></trkpt><trkpt lat="45.98855065605167" lon="12.013241331482394"><ele>1192.3333333333335</ele><time>2026-04-24T16:16:33Z</time></trkpt><trkpt lat="45.988622686570665" lon="12.013291934220026"><ele>1191.6666666666667</ele><time>2026-04-24T16:16:34Z</time></trkpt><trkpt lat="45.98870899654194" lon="12.013325495530493"><ele>1191.0</ele><time>2026-04-24T16:16:35Z</time></trkpt><trkpt lat="45.988790367679556" lon="12.013341581128405"><ele>1190.3333333333333</ele><time>2026-04-24T16:16:36Z</time></trkpt><trkpt lat="45.98888130827979" lon="12.013352689310597"><ele>1189.6666666666665</ele><time>2026-04-24T16:16:37Z</time></trkpt><trkpt lat="45.988979669962944" lon="12.01335821530322"><ele>1189.0</ele><time>2026-04-24T16:16:38Z</time></trkpt><trkpt lat="45.98907280519209" lon="12.0133678540229"><ele>1192.6000000000001</ele><time>2026-04-24T16:16:39Z</time></trkpt><trkpt lat="45.98916006467447" lon="12.013384154454133"><ele>1196.2</ele><time>2026-04-24T16:16:40Z</time></trkpt><trkpt lat="45.989244575179605" lon="12.013392589562448"><ele>1199.8000000000002</ele><time>2026-04-24T16:16:41Z</time></trkpt><trkpt lat="45.98933954484878" lon="12.013401910525845"><ele>1203.4</ele><time>2026-04-24T16:16:42Z</time></trkpt><trkpt lat="45.98944671324833" lon="12.013417802052343"><ele>1207.0</ele><time>2026-04-24T16:16:43Z</time></trkpt><trkpt lat="45.98953487000563" lon="12.013430052582867"><ele>1208.0</ele><time>2026-04-24T16:16:44Z</time></trkpt><trkpt lat="45.989616833413365" lon="12.013443752718983"><ele>1209.0</ele><time>2026-04-24T16:16:45Z</time></trkpt><trkpt lat="45.989709303606034" lon="12.013464698098602"><ele>1210.0</ele><time>2026-04-24T16:16:46Z</time></trkpt><trkpt lat="45.989792689985684" lon="12.013477724158742"><ele>1211.0</ele><time>2026-04-24T16:16:47Z</time></trkpt><trkpt lat="45.989879568205815" lon="12.013485063628078"><ele>1212.0</ele><time>2026-04-24T16:16:48Z</time></trkpt><trkpt lat="45.9899784791306" lon="12.01347601139"><ele>1213.0</ele><time>2026-04-24T16:16:49Z</time></trkpt><trkpt lat="45.99007286282966" lon="12.013463597489736"><ele>1213.4</ele><time>2026-04-24T16:16:50Z</time></trkpt><trkpt lat="45.99017162641432" lon="12.013445408428957"><ele>1213.8</ele><time>2026-04-24T16:16:51Z</time></trkpt><trkpt lat="45.990276078842776" lon="12.013423269969413"><ele>1214.2</ele><time>2026-04-24T16:16:52Z</time></trkpt><trkpt lat="45.99038259434461" lon="12.013443656174779"><ele>1214.6</ele><time>2026-04-24T16:16:53Z</time></trkpt><trkpt lat="45.990483627800735" lon="12.013458149227825"><ele>1215.0</ele><time>2026-04-24T16:16:54Z</time></trkpt><trkpt lat="45.990590482379" lon="12.013470620574807"><ele>1215.0</ele><time>2026-04-24T16:16:55Z</time></trkpt><trkpt lat="45.99070014102491" lon="12.013454915112474"><ele>1215.0</ele><time>2026-04-24T16:16:56Z</time></trkpt><trkpt lat="45.99078681074785" lon="12.013460472854673"><ele>1215.0</ele><time>2026-04-24T16:16:57Z</time></trkpt><trkpt lat="45.9908650873463" lon="12.013470919860886"><ele>1215.0</ele><time>2026-04-24T16:16:58Z</time></trkpt><trkpt lat="45.99096914959484" lon="12.013480408496278"><ele>1215.0</ele><time>2026-04-24T16:16:59Z</time></trkpt><trkpt lat="45.99104347462343" lon="12.01349136856955"><ele>1214.5</ele><time>2026-04-24T16:17:00Z</time></trkpt><trkpt lat="45.99111224129698" lon="12.013507732730078"><ele>1214.0</ele><time>2026-04-24T16:17:01Z</time></trkpt><trkpt lat="45.99119608762596" lon="12.013535971570267"><ele>1213.5</ele><time>2026-04-24T16:17:02Z</time></trkpt><trkpt lat="45.99127851346814" lon="12.013555384442036"><ele>1213.0</ele><time>2026-04-24T16:17:03Z</time></trkpt><trkpt lat="45.991369414513" lon="12.013562090510948"><ele>1212.5</ele><time>2026-04-24T16:17:04Z</time></trkpt><trkpt lat="45.99144541429088" lon="12.013556264527935"><ele>1212.0</ele><time>2026-04-24T16:17:05Z</time></trkpt><trkpt lat="45.991543447163195" lon="12.01355414396158"><ele>1212.0</ele><time>2026-04-24T16:17:06Z</time></trkpt><trkpt lat="45.991629791899065" lon="12.013553004201729"><ele>1212.0</ele><time>2026-04-24T16:17:07Z</time></trkpt><trkpt lat="45.991731384833784" lon="12.01355111232436"><ele>1212.0</ele><time>2026-04-24T16:17:08Z</time></trkpt><trkpt lat="45.991830182346504" lon="12.013531223570613"><ele>1212.0</ele><time>2026-04-24T16:17:09Z</time></trkpt><trkpt lat="45.99192198439072" lon="12.013502936796856"><ele>1212.0</ele><time>2026-04-24T16:17:10Z</time></trkpt><trkpt lat="45.99201861075268" lon="12.013470579668322"><ele>1210.8333333333333</ele><time>2026-04-24T16:17:11Z</time></trkpt><trkpt lat="45.992105154726374" lon="12.013446816624567"><ele>1209.6666666666667</ele><time>2026-04-24T16:17:12Z</time></trkpt><trkpt lat="45.992182469863316" lon="12.013433246212031"><ele>1208.5</ele><time>2026-04-24T16:17:13Z</time></trkpt><trkpt lat="45.99227458780938" lon="12.01342799730057"><ele>1207.3333333333335</ele><time>2026-04-24T16:17:14Z</time></trkpt><trkpt lat="45.99237372242769" lon="12.013445953365654"><ele>1206.1666666666667</ele><time>2026-04-24T16:17:15Z</time></trkpt><trkpt lat="45.992462802766774" lon="12.013454598772292"><ele>1205.0</ele><time>2026-04-24T16:17:16Z</time></trkpt><trkpt lat="45.99255731497858" lon="12.013454067385965"><ele>1203.6666666666667</ele><time>2026-04-24T16:17:17Z</time></trkpt><trkpt lat="45.9926680911491" lon="12.013452110144735"><ele>1202.3333333333335</ele><time>2026-04-24T16:17:18Z</time></trkpt><trkpt lat="45.9927429442241" lon="12.013435602678086"><ele>1201.0</ele><time>2026-04-24T16:17:19Z</time></trkpt><trkpt lat="45.99281006683143" lon="12.013411590004862"><ele>1199.6666666666667</ele><time>2026-04-24T16:17:20Z</time></trkpt><trkpt lat="45.9929059204074" lon="12.013406477156263"><ele>1198.3333333333333</ele><time>2026-04-24T16:17:21Z</time></trkpt><trkpt lat="45.99299754547649" lon="12.013402733471386"><ele>1197.0</ele><time>2026-04-24T16:17:22Z</time></trkpt><trkpt lat="45.99308606245174" lon="12.013402423319848"><ele>1197.0</ele><time>2026-04-24T16:17:23Z</time></trkpt><trkpt lat="45.99317190986867" lon="12.013406022216413"><ele>1197.0</ele><time>2026-04-24T16:17:24Z</time></trkpt><trkpt lat="45.99324314350609" lon="12.013399512833287"><ele>1197.0</ele><time>2026-04-24T16:17:25Z</time></trkpt><trkpt lat="45.99330813337025" lon="12.013391438695209"><ele>1197.0</ele><time>2026-04-24T16:17:26Z</time></trkpt><trkpt lat="45.99337352952512" lon="12.013397172973034"><ele>1197.0</ele><time>2026-04-24T16:17:27Z</time></trkpt><trkpt lat="45.99349003222857" lon="12.01340333789015"><ele>1197.0</ele><time>2026-04-24T16:17:29Z</time></trkpt><trkpt lat="45.9935903805065" lon="12.013415628815094"><ele>1195.1666666666667</ele><time>2026-04-24T16:17:31Z</time></trkpt><trkpt lat="45.993666416236096" lon="12.013425371052236"><ele>1193.3333333333333</ele><time>2026-04-24T16:17:32Z</time></trkpt><trkpt lat="45.993734110218554" lon="12.013435417081691"><ele>1191.5</ele><time>2026-04-24T16:17:33Z</time></trkpt><trkpt lat="45.993837599895365" lon="12.013445326988714"><ele>1189.6666666666665</ele><time>2026-04-24T16:17:35Z</time></trkpt><trkpt lat="45.99394440258637" lon="12.013490654203595"><ele>1187.8333333333333</ele><time>2026-04-24T16:17:37Z</time></trkpt><trkpt lat="45.99400906038645" lon="12.013529239569792"><ele>1186.0</ele><time>2026-04-24T16:17:38Z</time></trkpt><trkpt lat="45.99411135730816" lon="12.0136259803452"><ele>1186.0</ele><time>2026-04-24T16:17:40Z</time></trkpt><trkpt lat="45.99416238526431" lon="12.013679934235295"><ele>1186.0</ele><time>2026-04-24T16:17:41Z</time></trkpt><trkpt lat="45.99426117243244" lon="12.013788629906214"><ele>1186.0</ele><time>2026-04-24T16:17:43Z</time></trkpt><trkpt lat="45.99432260959964" lon="12.013849524909645"><ele>1186.0</ele><time>2026-04-24T16:17:44Z</time></trkpt><trkpt lat="45.99438770304817" lon="12.013933670426253"><ele>1186.0</ele><time>2026-04-24T16:17:45Z</time></trkpt><trkpt lat="45.99444528005006" lon="12.014004271101678"><ele>1186.0</ele><time>2026-04-24T16:17:46Z</time></trkpt><trkpt lat="45.994498449299506" lon="12.014061009140768"><ele>1184.3999999999999</ele><time>2026-04-24T16:17:47Z</time></trkpt><trkpt lat="45.994597670771775" lon="12.014161266732303"><ele>1182.8</ele><time>2026-04-24T16:17:49Z</time></trkpt><trkpt lat="45.994649912703466" lon="12.014214605507897"><ele>1181.1999999999998</ele><time>2026-04-24T16:17:50Z</time></trkpt><trkpt lat="45.994731286599134" lon="12.01430328155989"><ele>1179.6</ele><time>2026-04-24T16:17:52Z</time></trkpt><trkpt lat="45.99478680969504" lon="12.014365800504658"><ele>1178.0</ele><time>2026-04-24T16:17:53Z</time></trkpt><trkpt lat="45.99488433657072" lon="12.014453523512998"><ele>1178.0</ele><time>2026-04-24T16:17:55Z</time></trkpt><trkpt lat="45.9949479860695" lon="12.01452292334182"><ele>1178.0</ele><time>2026-04-24T16:17:56Z</time></trkpt><trkpt lat="45.99507171711637" lon="12.014678785926984"><ele>1178.0</ele><time>2026-04-24T16:17:58Z</time></trkpt><trkpt lat="45.99517324936923" lon="12.014739872351281"><ele>1178.0</ele><time>2026-04-24T16:18:00Z</time></trkpt><trkpt lat="45.99522946114148" lon="12.01478328473791"><ele>1178.0</ele><time>2026-04-24T16:18:01Z</time></trkpt><trkpt lat="45.99535169786025" lon="12.014845241280108"><ele>1177.8333333333335</ele><time>2026-04-24T16:18:03Z</time></trkpt><trkpt lat="45.99542530341385" lon="12.014880479786267"><ele>1177.6666666666667</ele><time>2026-04-24T16:18:04Z</time></trkpt><trkpt lat="45.995494525443846" lon="12.01488776287682"><ele>1177.5</ele><time>2026-04-24T16:18:05Z</time></trkpt><trkpt lat="45.99556976001917" lon="12.014904910814558"><ele>1177.3333333333333</ele><time>2026-04-24T16:18:06Z</time></trkpt><trkpt lat="45.995664625537536" lon="12.014939371696642"><ele>1177.1666666666665</ele><time>2026-04-24T16:18:07Z</time></trkpt><trkpt lat="45.99573676730155" lon="12.01496386359368"><ele>1177.0</ele><time>2026-04-24T16:18:08Z</time></trkpt><trkpt lat="45.995817543502376" lon="12.015003159512688"><ele>1173.4</ele><time>2026-04-24T16:18:09Z</time></trkpt><trkpt lat="45.995950817611956" lon="12.015008388876584"><ele>1169.8000000000002</ele><time>2026-04-24T16:18:11Z</time></trkpt><trkpt lat="45.99604392905826" lon="12.014994852430245"><ele>1166.2</ele><time>2026-04-24T16:18:12Z</time></trkpt><trkpt lat="45.99612653833515" lon="12.015005153645435"><ele>1162.6000000000001</ele><time>2026-04-24T16:18:13Z</time></trkpt><trkpt lat="45.99620461298536" lon="12.01503067032794"><ele>1159.0</ele><time>2026-04-24T16:18:14.001Z</time></trkpt><trkpt lat="45.996263035247225" lon="12.01508404358021"><ele>1159.0</ele><time>2026-04-24T16:18:15.001Z</time></trkpt><trkpt lat="45.99631992572611" lon="12.015166698552854"><ele>1159.0</ele><time>2026-04-24T16:18:16.001Z</time></trkpt><trkpt lat="45.99637512712629" lon="12.0152160294734"><ele>1159.0</ele><time>2026-04-24T16:18:17.001Z</time></trkpt><trkpt lat="45.99643072692492" lon="12.01527343068583"><ele>1159.0</ele><time>2026-04-24T16:18:18.001Z</time></trkpt><trkpt lat="45.996512393009155" lon="12.015302405286265"><ele>1159.0</ele><time>2026-04-24T16:18:19.001Z</time></trkpt><trkpt lat="45.99658984083289" lon="12.01536933162375"><ele>1159.0</ele><time>2026-04-24T16:18:20.001Z</time></trkpt><trkpt lat="45.99666215840748" lon="12.015445961003891"><ele>1157.3333333333333</ele><time>2026-04-24T16:18:21.001Z</time></trkpt><trkpt lat="45.99671608473465" lon="12.015493867916542"><ele>1155.6666666666665</ele><time>2026-04-24T16:18:22.001Z</time></trkpt><trkpt lat="45.99677483777686" lon="12.015534651314828"><ele>1154.0</ele><time>2026-04-24T16:18:23.001Z</time></trkpt><trkpt lat="45.9968823309437" lon="12.015564897179061"><ele>1152.3333333333333</ele><time>2026-04-24T16:18:25.001Z</time></trkpt><trkpt lat="45.997004648489686" lon="12.015599443726929"><ele>1150.6666666666667</ele><time>2026-04-24T16:18:27.001Z</time></trkpt><trkpt lat="45.99707625797842" lon="12.015642274478905"><ele>1149.0</ele><time>2026-04-24T16:18:28.001Z</time></trkpt><trkpt lat="45.997191612495946" lon="12.015719697555525"><ele>1149.0</ele><time>2026-04-24T16:18:30.001Z</time></trkpt><trkpt lat="45.99725301984875" lon="12.015752150738635"><ele>1149.0</ele><time>2026-04-24T16:18:31.001Z</time></trkpt><trkpt lat="45.9973384461905" lon="12.015781445215088"><ele>1149.0</ele><time>2026-04-24T16:18:32.001Z</time></trkpt><trkpt lat="45.99742484500056" lon="12.015821043058468"><ele>1149.0</ele><time>2026-04-24T16:18:33.001Z</time></trkpt><trkpt lat="45.997502246776726" lon="12.015843818934956"><ele>1149.0</ele><time>2026-04-24T16:18:34Z</time></trkpt><trkpt lat="45.997565124111794" lon="12.015857975455187"><ele>1149.0</ele><time>2026-04-24T16:18:35Z</time></trkpt><trkpt lat="45.997629396815114" lon="12.01587183919814"><ele>1150.2</ele><time>2026-04-24T16:18:36Z</time></trkpt><trkpt lat="45.99771141942774" lon="12.015894949334703"><ele>1151.4</ele><time>2026-04-24T16:18:37Z</time></trkpt><trkpt lat="45.99779784980713" lon="12.015912281808278"><ele>1152.6</ele><time>2026-04-24T16:18:38Z</time></trkpt><trkpt lat="45.99791188697059" lon="12.015928641058123"><ele>1153.8</ele><time>2026-04-24T16:18:39Z</time></trkpt><trkpt lat="45.998035089024405" lon="12.015952315011859"><ele>1155.0</ele><time>2026-04-24T16:18:40Z</time></trkpt><trkpt lat="45.99813236280458" lon="12.015992524881314"><ele>1155.0</ele><time>2026-04-24T16:18:41Z</time></trkpt><trkpt lat="45.99821883570324" lon="12.016015511843214"><ele>1155.0</ele><time>2026-04-24T16:18:42Z</time></trkpt><trkpt lat="45.99831187193926" lon="12.016044842289983"><ele>1155.0</ele><time>2026-04-24T16:18:43Z</time></trkpt><trkpt lat="45.998400488399874" lon="12.016083339223105"><ele>1155.0</ele><time>2026-04-24T16:18:44Z</time></trkpt><trkpt lat="45.998472385762966" lon="12.01612468090939"><ele>1155.0</ele><time>2026-04-24T16:18:45Z</time></trkpt><trkpt lat="45.99855127307256" lon="12.016165863521422"><ele>1155.0</ele><time>2026-04-24T16:18:46Z</time></trkpt><trkpt lat="45.998629967367606" lon="12.016254177646385"><ele>1155.1666666666667</ele><time>2026-04-24T16:18:47Z</time></trkpt><trkpt lat="45.998707778374126" lon="12.016363442813596"><ele>1155.3333333333333</ele><time>2026-04-24T16:18:48Z</time></trkpt><trkpt lat="45.99877193520989" lon="12.016440040510863"><ele>1155.5</ele><time>2026-04-24T16:18:49Z</time></trkpt><trkpt lat="45.99883677360034" lon="12.016483616687712"><ele>1155.6666666666665</ele><time>2026-04-24T16:18:50Z</time></trkpt><trkpt lat="45.99891509376844" lon="12.01650124542502"><ele>1155.8333333333333</ele><time>2026-04-24T16:18:51Z</time></trkpt><trkpt lat="45.999006412811866" lon="12.016479914450702"><ele>1156.0</ele><time>2026-04-24T16:18:52Z</time></trkpt><trkpt lat="45.99910129567484" lon="12.01641067750983"><ele>1155.0</ele><time>2026-04-24T16:18:53Z</time></trkpt><trkpt lat="45.99918505928302" lon="12.016351446859439"><ele>1154.0</ele><time>2026-04-24T16:18:54Z</time></trkpt><trkpt lat="45.999281253264876" lon="12.016310201800168"><ele>1153.0</ele><time>2026-04-24T16:18:56Z</time></trkpt><trkpt lat="45.99936252467544" lon="12.0163306054922"><ele>1152.0</ele><time>2026-04-24T16:18:57Z</time></trkpt><trkpt lat="45.99946695630858" lon="12.016320064403258"><ele>1151.0</ele><time>2026-04-24T16:18:58Z</time></trkpt><trkpt lat="45.99958902233142" lon="12.01636912869855"><ele>1151.0</ele><time>2026-04-24T16:19:00Z</time></trkpt><trkpt lat="45.99965769124408" lon="12.016396631035509"><ele>1151.0</ele><time>2026-04-24T16:19:01Z</time></trkpt><trkpt lat="45.9997356726109" lon="12.016428693764643"><ele>1151.0</ele><time>2026-04-24T16:19:02Z</time></trkpt><trkpt lat="45.999821939521205" lon="12.016466169145215"><ele>1151.0</ele><time>2026-04-24T16:19:03Z</time></trkpt><trkpt lat="45.99992605046334" lon="12.016495366370131"><ele>1151.0</ele><time>2026-04-24T16:19:04Z</time></trkpt><trkpt lat="46.00000917530693" lon="12.016537700134394"><ele>1151.0</ele><time>2026-04-24T16:19:05Z</time></trkpt><trkpt lat="46.000087643613504" lon="12.016581872813964"><ele>1154.8333333333335</ele><time>2026-04-24T16:19:06Z</time></trkpt><trkpt lat="46.00018939307486" lon="12.016658504519816"><ele>1158.6666666666667</ele><time>2026-04-24T16:19:08Z</time></trkpt><trkpt lat="46.0002418514965" lon="12.016720463002613"><ele>1162.5</ele><time>2026-04-24T16:19:09Z</time></trkpt><trkpt lat="46.00030026486999" lon="12.016799577648872"><ele>1166.3333333333333</ele><time>2026-04-24T16:19:10Z</time></trkpt><trkpt lat="46.000326277737365" lon="12.01692407872772"><ele>1170.1666666666665</ele><time>2026-04-24T16:19:11Z</time></trkpt><trkpt lat="46.00034859642618" lon="12.017024510396705"><ele>1174.0</ele><time>2026-04-24T16:19:12Z</time></trkpt><trkpt lat="46.000382196484125" lon="12.017176334927377"><ele>1174.0</ele><time>2026-04-24T16:19:13Z</time></trkpt><trkpt lat="46.000393895844354" lon="12.01732224628262"><ele>1174.0</ele><time>2026-04-24T16:19:14Z</time></trkpt><trkpt lat="46.00040788573332" lon="12.01742525044898"><ele>1174.0</ele><time>2026-04-24T16:19:15Z</time></trkpt><trkpt lat="46.00043655231584" lon="12.017613718212262"><ele>1174.0</ele><time>2026-04-24T16:19:17Z</time></trkpt><trkpt lat="46.000485983402456" lon="12.017729890128285"><ele>1174.0</ele><time>2026-04-24T16:19:18Z</time></trkpt><trkpt lat="46.00052226321383" lon="12.017830135011293"><ele>1174.1666666666665</ele><time>2026-04-24T16:19:19Z</time></trkpt><trkpt lat="46.000579788718674" lon="12.017882864277288"><ele>1174.3333333333333</ele><time>2026-04-24T16:19:20Z</time></trkpt><trkpt lat="46.00069346024259" lon="12.017999770730965"><ele>1174.5</ele><time>2026-04-24T16:19:22Z</time></trkpt><trkpt lat="46.00073848205788" lon="12.018080161909493"><ele>1174.6666666666667</ele><time>2026-04-24T16:19:23Z</time></trkpt><trkpt lat="46.00078801455822" lon="12.018145195120072"><ele>1174.8333333333335</ele><time>2026-04-24T16:19:24Z</time></trkpt><trkpt lat="46.000864552108084" lon="12.018194479461249"><ele>1175.0</ele><time>2026-04-24T16:19:25Z</time></trkpt><trkpt lat="46.00093209844055" lon="12.018241701670489"><ele>1175.5</ele><time>2026-04-24T16:19:26Z</time></trkpt><trkpt lat="46.001007533583916" lon="12.018290446292665"><ele>1176.0</ele><time>2026-04-24T16:19:27Z</time></trkpt><trkpt lat="46.0010924706242" lon="12.01832242774085"><ele>1176.5</ele><time>2026-04-24T16:19:28Z</time></trkpt><trkpt lat="46.001182914312274" lon="12.018350056206302"><ele>1177.0</ele><time>2026-04-24T16:19:29Z</time></trkpt><trkpt lat="46.00127035696263" lon="12.018383689610445"><ele>1177.5</ele><time>2026-04-24T16:19:30Z</time></trkpt><trkpt lat="46.00135295217047" lon="12.018406284796924"><ele>1178.0</ele><time>2026-04-24T16:19:31Z</time></trkpt><trkpt lat="46.001446249845614" lon="12.018446662331705"><ele>1175.6</ele><time>2026-04-24T16:19:32Z</time></trkpt><trkpt lat="46.00153986521101" lon="12.01849477768914"><ele>1173.1999999999998</ele><time>2026-04-24T16:19:33Z</time></trkpt><trkpt lat="46.00162103422005" lon="12.018540436832495"><ele>1170.8</ele><time>2026-04-24T16:19:34Z</time></trkpt><trkpt lat="46.00170673830797" lon="12.018592495928454"><ele>1168.3999999999999</ele><time>2026-04-24T16:19:35Z</time></trkpt><trkpt lat="46.00178770579755" lon="12.018634948117553"><ele>1166.0</ele><time>2026-04-24T16:19:36Z</time></trkpt><trkpt lat="46.00186555147939" lon="12.018680850006048"><ele>1165.6</ele><time>2026-04-24T16:19:37Z</time></trkpt><trkpt lat="46.001943232991586" lon="12.01873195770013"><ele>1165.1999999999998</ele><time>2026-04-24T16:19:38Z</time></trkpt><trkpt lat="46.00201242774656" lon="12.01878644097679"><ele>1164.8000000000002</ele><time>2026-04-24T16:19:39Z</time></trkpt><trkpt lat="46.00209211550729" lon="12.018856158548672"><ele>1164.4</ele><time>2026-04-24T16:19:40Z</time></trkpt><trkpt lat="46.00217197556504" lon="12.018942597224436"><ele>1164.0</ele><time>2026-04-24T16:19:41Z</time></trkpt><trkpt lat="46.002248417364974" lon="12.019029410423228"><ele>1164.0</ele><time>2026-04-24T16:19:42Z</time></trkpt><trkpt lat="46.0023209448162" lon="12.019111641922715"><ele>1164.0</ele><time>2026-04-24T16:19:43Z</time></trkpt><trkpt lat="46.00238432853414" lon="12.019170714936708"><ele>1164.0</ele><time>2026-04-24T16:19:44Z</time></trkpt><trkpt lat="46.002457618220085" lon="12.019240293970014"><ele>1164.0</ele><time>2026-04-24T16:19:45Z</time></trkpt><trkpt lat="46.002527679612925" lon="12.019302841369628"><ele>1164.0</ele><time>2026-04-24T16:19:46Z</time></trkpt><trkpt lat="46.00259802766504" lon="12.019367270866455"><ele>1164.0</ele><time>2026-04-24T16:19:47Z</time></trkpt><trkpt lat="46.002677223637264" lon="12.01943617112547"><ele>1160.8</ele><time>2026-04-24T16:19:48Z</time></trkpt><trkpt lat="46.00275861239797" lon="12.019503307553592"><ele>1157.6000000000001</ele><time>2026-04-24T16:19:49Z</time></trkpt><trkpt lat="46.002842588802615" lon="12.01955886549637"><ele>1154.4</ele><time>2026-04-24T16:19:50Z</time></trkpt><trkpt lat="46.00293132381215" lon="12.019605656502337"><ele>1151.2</ele><time>2026-04-24T16:19:51Z</time></trkpt><trkpt lat="46.00301800698572" lon="12.019651071318478"><ele>1148.0</ele><time>2026-04-24T16:19:52Z</time></trkpt><trkpt lat="46.00310384539526" lon="12.019701704057235"><ele>1148.0</ele><time>2026-04-24T16:19:53Z</time></trkpt><trkpt lat="46.003184655832314" lon="12.019753342575454"><ele>1148.0</ele><time>2026-04-24T16:19:54Z</time></trkpt><trkpt lat="46.00326569331464" lon="12.019809203704638"><ele>1148.0</ele><time>2026-04-24T16:19:55Z</time></trkpt><trkpt lat="46.00334273524889" lon="12.019869888220144"><ele>1148.0</ele><time>2026-04-24T16:19:56Z</time></trkpt><trkpt lat="46.00342022041682" lon="12.019927029106183"><ele>1148.0</ele><time>2026-04-24T16:19:57Z</time></trkpt><trkpt lat="46.0034984265791" lon="12.01999332039038"><ele>1148.0</ele><time>2026-04-24T16:19:58Z</time></trkpt><trkpt lat="46.00357326615313" lon="12.020055877531062"><ele>1145.6666666666667</ele><time>2026-04-24T16:19:59Z</time></trkpt><trkpt lat="46.00363892423999" lon="12.020127209996108"><ele>1143.3333333333335</ele><time>2026-04-24T16:20:00Z</time></trkpt><trkpt lat="46.00371264560214" lon="12.020211713808735"><ele>1141.0</ele><time>2026-04-24T16:20:01Z</time></trkpt><trkpt lat="46.003786009364994" lon="12.020287674635302"><ele>1138.6666666666667</ele><time>2026-04-24T16:20:02Z</time></trkpt><trkpt lat="46.003856112307794" lon="12.020364403151504"><ele>1136.3333333333333</ele><time>2026-04-24T16:20:03Z</time></trkpt><trkpt lat="46.00393061806823" lon="12.020443888344351"><ele>1134.0</ele><time>2026-04-24T16:20:04Z</time></trkpt><trkpt lat="46.00400317997541" lon="12.020525966974656"><ele>1134.0</ele><time>2026-04-24T16:20:05Z</time></trkpt><trkpt lat="46.00406990330233" lon="12.020604699029455"><ele>1134.0</ele><time>2026-04-24T16:20:06Z</time></trkpt><trkpt lat="46.00413513102016" lon="12.020687360222915"><ele>1134.0</ele><time>2026-04-24T16:20:07Z</time></trkpt><trkpt lat="46.00420018745763" lon="12.02076131765086"><ele>1134.0</ele><time>2026-04-24T16:20:08Z</time></trkpt><trkpt lat="46.00426096370002" lon="12.020829542082964"><ele>1134.0</ele><time>2026-04-24T16:20:09Z</time></trkpt><trkpt lat="46.00432468487418" lon="12.02088752607503"><ele>1134.0</ele><time>2026-04-24T16:20:10Z</time></trkpt><trkpt lat="46.00439296671156" lon="12.020901237578604"><ele>1131.0</ele><time>2026-04-24T16:20:11Z</time></trkpt><trkpt lat="46.00446268612029" lon="12.02094917885203"><ele>1128.0</ele><time>2026-04-24T16:20:12Z</time></trkpt><trkpt lat="46.00453849904581" lon="12.020964256022207"><ele>1125.0</ele><time>2026-04-24T16:20:13Z</time></trkpt><trkpt lat="46.00466523620834" lon="12.021004006068287"><ele>1122.0</ele><time>2026-04-24T16:20:14Z</time></trkpt><trkpt lat="46.00476265337679" lon="12.021009790764259"><ele>1119.0</ele><time>2026-04-24T16:20:15Z</time></trkpt><trkpt lat="46.00486127287524" lon="12.021033628530015"><ele>1119.0</ele><time>2026-04-24T16:20:16Z</time></trkpt><trkpt lat="46.004958101878515" lon="12.021086204289501"><ele>1119.0</ele><time>2026-04-24T16:20:17Z</time></trkpt><trkpt lat="46.00505070988448" lon="12.0211448009888"><ele>1119.0</ele><time>2026-04-24T16:20:18Z</time></trkpt><trkpt lat="46.00512550389705" lon="12.021215077590439"><ele>1119.0</ele><time>2026-04-24T16:20:19Z</time></trkpt><trkpt lat="46.00518878691412" lon="12.021267044012726"><ele>1119.0</ele><time>2026-04-24T16:20:20.001Z</time></trkpt><trkpt lat="46.005278189654945" lon="12.021334907192426"><ele>1119.2</ele><time>2026-04-24T16:20:21.001Z</time></trkpt><trkpt lat="46.00537699877186" lon="12.021389870286468"><ele>1119.4</ele><time>2026-04-24T16:20:22.001Z</time></trkpt><trkpt lat="46.00547923264126" lon="12.02143831817474"><ele>1119.6</ele><time>2026-04-24T16:20:23.001Z</time></trkpt><trkpt lat="46.0055774404262" lon="12.021492261107435"><ele>1119.8</ele><time>2026-04-24T16:20:24.001Z</time></trkpt><trkpt lat="46.00565750205101" lon="12.021541824422735"><ele>1120.0</ele><time>2026-04-24T16:20:25.001Z</time></trkpt><trkpt lat="46.00572845494608" lon="12.021589587503183"><ele>1117.6</ele><time>2026-04-24T16:20:26.001Z</time></trkpt><trkpt lat="46.00580429102962" lon="12.02169241475212"><ele>1115.2</ele><time>2026-04-24T16:20:27.001Z</time></trkpt><trkpt lat="46.0058847987073" lon="12.021796302260972"><ele>1112.8</ele><time>2026-04-24T16:20:28.001Z</time></trkpt><trkpt lat="46.00596502403976" lon="12.021888041250378"><ele>1110.4</ele><time>2026-04-24T16:20:29.001Z</time></trkpt><trkpt lat="46.00605116978541" lon="12.021963712767196"><ele>1108.0</ele><time>2026-04-24T16:20:30.001Z</time></trkpt><trkpt lat="46.00613936880982" lon="12.02203538824673"><ele>1107.8</ele><time>2026-04-24T16:20:31.001Z</time></trkpt><trkpt lat="46.006239329352034" lon="12.022087605427295"><ele>1107.6</ele><time>2026-04-24T16:20:32Z</time></trkpt><trkpt lat="46.00634204498686" lon="12.022149804272601"><ele>1107.4</ele><time>2026-04-24T16:20:33Z</time></trkpt><trkpt lat="46.00644388486925" lon="12.022183226679482"><ele>1107.2</ele><time>2026-04-24T16:20:34Z</time></trkpt><trkpt lat="46.00655566330425" lon="12.022225909504254"><ele>1107.0</ele><time>2026-04-24T16:20:35Z</time></trkpt><trkpt lat="46.006658094698594" lon="12.022249936130345"><ele>1104.4</ele><time>2026-04-24T16:20:36Z</time></trkpt><trkpt lat="46.0067605178867" lon="12.02227489732087"><ele>1101.8000000000002</ele><time>2026-04-24T16:20:37Z</time></trkpt><trkpt lat="46.006853430510965" lon="12.022331893942608"><ele>1099.2</ele><time>2026-04-24T16:20:38Z</time></trkpt><trkpt lat="46.00695000204928" lon="12.022375468220222"><ele>1096.6000000000001</ele><time>2026-04-24T16:20:39Z</time></trkpt><trkpt lat="46.00704642010215" lon="12.022431399799459"><ele>1094.0</ele><time>2026-04-24T16:20:40Z</time></trkpt><trkpt lat="46.00713627362259" lon="12.022494038707066"><ele>1092.0</ele><time>2026-04-24T16:20:41Z</time></trkpt><trkpt lat="46.007229592183215" lon="12.022575238481917"><ele>1090.0</ele><time>2026-04-24T16:20:42Z</time></trkpt><trkpt lat="46.007310127483" lon="12.022674468430255"><ele>1088.0</ele><time>2026-04-24T16:20:43Z</time></trkpt><trkpt lat="46.00738239992433" lon="12.022783614958565"><ele>1086.0</ele><time>2026-04-24T16:20:44Z</time></trkpt><trkpt lat="46.00745103273436" lon="12.022869511494887"><ele>1084.0</ele><time>2026-04-24T16:20:45Z</time></trkpt><trkpt lat="46.00753671921861" lon="12.022947615887112"><ele>1081.4</ele><time>2026-04-24T16:20:46Z</time></trkpt><trkpt lat="46.007623847887814" lon="12.023002966065361"><ele>1078.8000000000002</ele><time>2026-04-24T16:20:47Z</time></trkpt><trkpt lat="46.00771252275449" lon="12.023035601110708"><ele>1076.1999999999998</ele><time>2026-04-24T16:20:48Z</time></trkpt><trkpt lat="46.007801158230635" lon="12.023076078123916"><ele>1073.6</ele><time>2026-04-24T16:20:49Z</time></trkpt><trkpt lat="46.00788881900125" lon="12.023120990849531"><ele>1071.0</ele><time>2026-04-24T16:20:50Z</time></trkpt><trkpt lat="46.00798392099912" lon="12.023139924739525"><ele>1071.0</ele><time>2026-04-24T16:20:51Z</time></trkpt><trkpt lat="46.00807765859555" lon="12.02314820193393"><ele>1071.0</ele><time>2026-04-24T16:20:52Z</time></trkpt><trkpt lat="46.00817106603409" lon="12.023130924486036"><ele>1071.0</ele><time>2026-04-24T16:20:53Z</time></trkpt><trkpt lat="46.00825037822811" lon="12.023098776201937"><ele>1071.0</ele><time>2026-04-24T16:20:54Z</time></trkpt><trkpt lat="46.00833421629241" lon="12.023098785728456"><ele>1071.0</ele><time>2026-04-24T16:20:55Z</time></trkpt><trkpt lat="46.00841768609631" lon="12.023063817162367"><ele>1071.0</ele><time>2026-04-24T16:20:56Z</time></trkpt><trkpt lat="46.008499949953276" lon="12.023063953037713"><ele>1068.6666666666667</ele><time>2026-04-24T16:20:57Z</time></trkpt><trkpt lat="46.00857048292204" lon="12.023092635727467"><ele>1066.3333333333333</ele><time>2026-04-24T16:20:58Z</time></trkpt><trkpt lat="46.008656019043165" lon="12.023141740378195"><ele>1064.0</ele><time>2026-04-24T16:20:59Z</time></trkpt><trkpt lat="46.00872898141295" lon="12.023206177243985"><ele>1061.6666666666665</ele><time>2026-04-24T16:21:00Z</time></trkpt><trkpt lat="46.008800966858495" lon="12.023290173308736"><ele>1059.3333333333333</ele><time>2026-04-24T16:21:01Z</time></trkpt><trkpt lat="46.008864303446124" lon="12.02338944101152"><ele>1057.0</ele><time>2026-04-24T16:21:02Z</time></trkpt><trkpt lat="46.00893964292416" lon="12.023498846810623"><ele>1057.0</ele><time>2026-04-24T16:21:03Z</time></trkpt><trkpt lat="46.00902532557203" lon="12.023604846043312"><ele>1057.0</ele><time>2026-04-24T16:21:04Z</time></trkpt><trkpt lat="46.00910632465582" lon="12.023715424264422"><ele>1057.0</ele><time>2026-04-24T16:21:05Z</time></trkpt><trkpt lat="46.009190904897046" lon="12.023833036283"><ele>1057.0</ele><time>2026-04-24T16:21:06Z</time></trkpt><trkpt lat="46.009261472705866" lon="12.02393715667135"><ele>1057.0</ele><time>2026-04-24T16:21:07Z</time></trkpt><trkpt lat="46.009321488485284" lon="12.024027390260398"><ele>1055.6</ele><time>2026-04-24T16:21:08Z</time></trkpt><trkpt lat="46.00940944643206" lon="12.02410193978097"><ele>1054.2</ele><time>2026-04-24T16:21:09Z</time></trkpt><trkpt lat="46.00949570052337" lon="12.024181970490565"><ele>1052.8</ele><time>2026-04-24T16:21:10Z</time></trkpt><trkpt lat="46.00958177644822" lon="12.024254932420108"><ele>1051.4</ele><time>2026-04-24T16:21:11Z</time></trkpt><trkpt lat="46.00967424727568" lon="12.02431675733315"><ele>1050.0</ele><time>2026-04-24T16:21:12Z</time></trkpt><trkpt lat="46.00976705342872" lon="12.024366491638803"><ele>1050.0</ele><time>2026-04-24T16:21:13Z</time></trkpt><trkpt lat="46.0098636677257" lon="12.024395999948501"><ele>1050.0</ele><time>2026-04-24T16:21:14Z</time></trkpt><trkpt lat="46.00995871488958" lon="12.024417093619924"><ele>1050.0</ele><time>2026-04-24T16:21:15Z</time></trkpt><trkpt lat="46.01004419049307" lon="12.024442496965014"><ele>1050.0</ele><time>2026-04-24T16:21:16Z</time></trkpt><trkpt lat="46.01017428609849" lon="12.024526426865647"><ele>1050.0</ele><time>2026-04-24T16:21:18Z</time></trkpt><trkpt lat="46.010280378374276" lon="12.024588265127106"><ele>1046.8</ele><time>2026-04-24T16:21:19Z</time></trkpt><trkpt lat="46.010359781740775" lon="12.024607446720033"><ele>1043.6</ele><time>2026-04-24T16:21:20Z</time></trkpt><trkpt lat="46.01055418250007" lon="12.024653360554952"><ele>1040.4</ele><time>2026-04-24T16:21:22Z</time></trkpt><trkpt lat="46.01063692023356" lon="12.024660031190617"><ele>1037.2</ele><time>2026-04-24T16:21:23Z</time></trkpt><trkpt lat="46.0107159810186" lon="12.024642601563974"><ele>1034.0</ele><time>2026-04-24T16:21:24Z</time></trkpt><trkpt lat="46.01082169895679" lon="12.024608326878345"><ele>1029.0</ele><time>2026-04-24T16:21:25Z</time></trkpt><trkpt lat="46.01093950676458" lon="12.02453663640429"><ele>1024.0</ele><time>2026-04-24T16:21:26Z</time></trkpt><trkpt lat="46.0110499826902" lon="12.024493791499177"><ele>1019.0000000000001</ele><time>2026-04-24T16:21:27Z</time></trkpt><trkpt lat="46.01113241395836" lon="12.024423573827947"><ele>1014.0</ele><time>2026-04-24T16:21:28Z</time></trkpt><trkpt lat="46.01121806836172" lon="12.024402648200752"><ele>1009.0</ele><time>2026-04-24T16:21:29Z</time></trkpt><trkpt lat="46.01129679519298" lon="12.02438454584816"><ele>1008.9999999999999</ele><time>2026-04-24T16:21:30Z</time></trkpt><trkpt lat="46.011368059235906" lon="12.024353891906252"><ele>1009.0</ele><time>2026-04-24T16:21:31Z</time></trkpt><trkpt lat="46.01144989846606" lon="12.024404395544266"><ele>1009.0</ele><time>2026-04-24T16:21:32Z</time></trkpt><trkpt lat="46.011524521864395" lon="12.024396028852186"><ele>1009.0</ele><time>2026-04-24T16:21:33Z</time></trkpt><trkpt lat="46.01161669244693" lon="12.024433509278555"><ele>1008.9999999999999</ele><time>2026-04-24T16:21:34Z</time></trkpt><trkpt lat="46.01168787185672" lon="12.024472795314502"><ele>1009.0</ele><time>2026-04-24T16:21:35Z</time></trkpt><trkpt lat="46.01178465436818" lon="12.024491841891543"><ele>1007.0</ele><time>2026-04-24T16:21:36Z</time></trkpt><trkpt lat="46.01187200215029" lon="12.024541847218336"><ele>1005.0000000000001</ele><time>2026-04-24T16:21:37Z</time></trkpt><trkpt lat="46.01196912847992" lon="12.024600420259333"><ele>1003.0000000000001</ele><time>2026-04-24T16:21:38Z</time></trkpt><trkpt lat="46.01206383075439" lon="12.024635175197547"><ele>1001.0</ele><time>2026-04-24T16:21:39Z</time></trkpt><trkpt lat="46.0121558996706" lon="12.0246485965525"><ele>999.0</ele><time>2026-04-24T16:21:40Z</time></trkpt><trkpt lat="46.012248545390555" lon="12.024702148333954"><ele>999.0</ele><time>2026-04-24T16:21:41Z</time></trkpt><trkpt lat="46.01232770349898" lon="12.024732875114374"><ele>999.0</ele><time>2026-04-24T16:21:42Z</time></trkpt><trkpt lat="46.01240432462775" lon="12.024769967086646"><ele>999.0</ele><time>2026-04-24T16:21:43Z</time></trkpt><trkpt lat="46.01249684440653" lon="12.024834722211075"><ele>999.0</ele><time>2026-04-24T16:21:44Z</time></trkpt><trkpt lat="46.01252526844102" lon="12.024947094587331"><ele>999.0</ele><time>2026-04-24T16:21:45Z</time></trkpt><trkpt lat="46.012568429361465" lon="12.025053966173854"><ele>999.0</ele><time>2026-04-24T16:21:46Z</time></trkpt><trkpt lat="46.012627742910816" lon="12.025181042113596"><ele>998.1666666666666</ele><time>2026-04-24T16:21:47Z</time></trkpt><trkpt lat="46.012683751610574" lon="12.025256809659066"><ele>997.3333333333333</ele><time>2026-04-24T16:21:48Z</time></trkpt><trkpt lat="46.01273354558509" lon="12.025332559642445"><ele>996.5</ele><time>2026-04-24T16:21:49Z</time></trkpt><trkpt lat="46.01281439694864" lon="12.025391895946731"><ele>995.6666666666666</ele><time>2026-04-24T16:21:50Z</time></trkpt><trkpt lat="46.012888924210884" lon="12.025425055151734"><ele>994.8333333333333</ele><time>2026-04-24T16:21:51Z</time></trkpt><trkpt lat="46.01298568170562" lon="12.025457036697523"><ele>994.0</ele><time>2026-04-24T16:21:52Z</time></trkpt><trkpt lat="46.01305115756236" lon="12.02549664174642"><ele>994.0</ele><time>2026-04-24T16:21:53Z</time></trkpt><trkpt lat="46.01312662109532" lon="12.025537054649256"><ele>994.0000000000001</ele><time>2026-04-24T16:21:54Z</time></trkpt><trkpt lat="46.01321685841976" lon="12.025602504168697"><ele>994.0000000000001</ele><time>2026-04-24T16:21:55Z</time></trkpt><trkpt lat="46.0133061660737" lon="12.0256867091479"><ele>994.0</ele><time>2026-04-24T16:21:56Z</time></trkpt><trkpt lat="46.01337760450948" lon="12.025780447044024"><ele>994.0</ele><time>2026-04-24T16:21:57Z</time></trkpt><trkpt lat="46.01344597058951" lon="12.025910479548592"><ele>991.4000000000001</ele><time>2026-04-24T16:21:58Z</time></trkpt><trkpt lat="46.013497700720826" lon="12.026038670910703"><ele>988.8000000000001</ele><time>2026-04-24T16:21:59Z</time></trkpt><trkpt lat="46.01354729129147" lon="12.026185440559358"><ele>986.1999999999999</ele><time>2026-04-24T16:22:00Z</time></trkpt><trkpt lat="46.01358347795221" lon="12.026307152140921"><ele>983.5999999999999</ele><time>2026-04-24T16:22:01Z</time></trkpt><trkpt lat="46.0136321223517" lon="12.026456671160634"><ele>981.0</ele><time>2026-04-24T16:22:02Z</time></trkpt><trkpt lat="46.01366908658389" lon="12.026600784428176"><ele>981.8</ele><time>2026-04-24T16:22:03Z</time></trkpt><trkpt lat="46.01370525529286" lon="12.026733176139262"><ele>982.5999999999999</ele><time>2026-04-24T16:22:04Z</time></trkpt><trkpt lat="46.013771180292636" lon="12.026859322148999"><ele>983.4</ele><time>2026-04-24T16:22:05Z</time></trkpt><trkpt lat="46.01382942853457" lon="12.026974851557648"><ele>984.2</ele><time>2026-04-24T16:22:06Z</time></trkpt><trkpt lat="46.01391108064923" lon="12.027086082924258"><ele>985.0</ele><time>2026-04-24T16:22:07Z</time></trkpt><trkpt lat="46.01397914463017" lon="12.027192595194714"><ele>985.0</ele><time>2026-04-24T16:22:08Z</time></trkpt><trkpt lat="46.014043263657435" lon="12.027314918108154"><ele>985.0</ele><time>2026-04-24T16:22:09Z</time></trkpt><trkpt lat="46.014099341047356" lon="12.027421868957262"><ele>985.0</ele><time>2026-04-24T16:22:10Z</time></trkpt><trkpt lat="46.014161732066455" lon="12.027544294100187"><ele>985.0</ele><time>2026-04-24T16:22:11Z</time></trkpt><trkpt lat="46.01423098528649" lon="12.027679912170612"><ele>985.0</ele><time>2026-04-24T16:22:12Z</time></trkpt><trkpt lat="46.01428167127623" lon="12.027797849147392"><ele>977.4</ele><time>2026-04-24T16:22:13Z</time></trkpt><trkpt lat="46.01433481795524" lon="12.027915314823854"><ele>969.8</ele><time>2026-04-24T16:22:14Z</time></trkpt><trkpt lat="46.01440696412726" lon="12.028029264556665"><ele>962.2</ele><time>2026-04-24T16:22:15Z</time></trkpt><trkpt lat="46.01445893151511" lon="12.028137324171418"><ele>954.6</ele><time>2026-04-24T16:22:16Z</time></trkpt><trkpt lat="46.014505611109726" lon="12.028245100849082"><ele>947.0</ele><time>2026-04-24T16:22:17Z</time></trkpt><trkpt lat="46.01454063383677" lon="12.028339441514905"><ele>946.1666666666667</ele><time>2026-04-24T16:22:18Z</time></trkpt><trkpt lat="46.01459364060226" lon="12.028436108015473"><ele>945.3333333333334</ele><time>2026-04-24T16:22:19Z</time></trkpt><trkpt lat="46.01463407739556" lon="12.028521119557057"><ele>944.5</ele><time>2026-04-24T16:22:20Z</time></trkpt><trkpt lat="46.014675617633905" lon="12.028626655126562"><ele>943.6666666666667</ele><time>2026-04-24T16:22:21Z</time></trkpt><trkpt lat="46.014710597882605" lon="12.028744145518658"><ele>942.8333333333334</ele><time>2026-04-24T16:22:22Z</time></trkpt><trkpt lat="46.01472451312671" lon="12.028865154581693"><ele>942.0</ele><time>2026-04-24T16:22:23Z</time></trkpt><trkpt lat="46.014701043959185" lon="12.028996281624664"><ele>942.0</ele><time>2026-04-24T16:22:23.999Z</time></trkpt><trkpt lat="46.01470888798357" lon="12.029115529776517"><ele>942.0</ele><time>2026-04-24T16:22:24.999Z</time></trkpt><trkpt lat="46.01470390630573" lon="12.029226750474306"><ele>942.0</ele><time>2026-04-24T16:22:26Z</time></trkpt><trkpt lat="46.01473221872029" lon="12.029357400943043"><ele>942.0</ele><time>2026-04-24T16:22:27Z</time></trkpt><trkpt lat="46.01478482741584" lon="12.02946914646875"><ele>942.0</ele><time>2026-04-24T16:22:28Z</time></trkpt><trkpt lat="46.01482629414536" lon="12.029578682942631"><ele>942.0</ele><time>2026-04-24T16:22:29Z</time></trkpt><trkpt lat="46.01487770259448" lon="12.029682356273955"><ele>940.1666666666666</ele><time>2026-04-24T16:22:30Z</time></trkpt><trkpt lat="46.014926304454725" lon="12.02978856368866"><ele>938.3333333333333</ele><time>2026-04-24T16:22:31Z</time></trkpt><trkpt lat="46.014997675674124" lon="12.029878400822298"><ele>936.5</ele><time>2026-04-24T16:22:32Z</time></trkpt><trkpt lat="46.015058736830404" lon="12.029969624359007"><ele>934.6666666666666</ele><time>2026-04-24T16:22:33Z</time></trkpt><trkpt lat="46.01512392581506" lon="12.030052718915945"><ele>932.8333333333333</ele><time>2026-04-24T16:22:34Z</time></trkpt><trkpt lat="46.01518886687749" lon="12.030125557288097"><ele>931.0</ele><time>2026-04-24T16:22:35Z</time></trkpt><trkpt lat="46.01525416254453" lon="12.030182524859564"><ele>928.8571428571429</ele><time>2026-04-24T16:22:36Z</time></trkpt><trkpt lat="46.01531855213412" lon="12.030228265848377"><ele>926.7142857142858</ele><time>2026-04-24T16:22:37Z</time></trkpt><trkpt lat="46.01539005581481" lon="12.030264456361401"><ele>924.5714285714286</ele><time>2026-04-24T16:22:38Z</time></trkpt><trkpt lat="46.015464174909255" lon="12.030268229965637"><ele>922.4285714285714</ele><time>2026-04-24T16:22:39Z</time></trkpt><trkpt lat="46.01553785028272" lon="12.030257973937694"><ele>920.2857142857143</ele><time>2026-04-24T16:22:40Z</time></trkpt><trkpt lat="46.01561703625338" lon="12.030226040417771"><ele>918.1428571428571</ele><time>2026-04-24T16:22:41Z</time></trkpt><trkpt lat="46.01567837907901" lon="12.03018121822641"><ele>916.0</ele><time>2026-04-24T16:22:42Z</time></trkpt><trkpt lat="46.0157314207538" lon="12.03012900739814"><ele>915.9999999999999</ele><time>2026-04-24T16:22:43Z</time></trkpt><trkpt lat="46.015772021439275" lon="12.03005851654059"><ele>916.0</ele><time>2026-04-24T16:22:44Z</time></trkpt><trkpt lat="46.015798041162114" lon="12.029968425987848"><ele>916.0</ele><time>2026-04-24T16:22:45Z</time></trkpt><trkpt lat="46.015811251437476" lon="12.029855513201117"><ele>916.0</ele><time>2026-04-24T16:22:46Z</time></trkpt><trkpt lat="46.0157981772064" lon="12.029724287389117"><ele>915.9999999999999</ele><time>2026-04-24T16:22:47Z</time></trkpt><trkpt lat="46.015757498402614" lon="12.029591866767127"><ele>916.0</ele><time>2026-04-24T16:22:48Z</time></trkpt><trkpt lat="46.0157162486902" lon="12.029455435560083"><ele>917.1666666666666</ele><time>2026-04-24T16:22:49Z</time></trkpt><trkpt lat="46.01569970337129" lon="12.0293236155734"><ele>918.3333333333333</ele><time>2026-04-24T16:22:50Z</time></trkpt><trkpt lat="46.01566705479367" lon="12.02922465787297"><ele>919.5</ele><time>2026-04-24T16:22:51Z</time></trkpt><trkpt lat="46.01564060605434" lon="12.029132212933392"><ele>920.6666666666667</ele><time>2026-04-24T16:22:52Z</time></trkpt><trkpt lat="46.01567767787637" lon="12.02896567124299"><ele>921.8333333333334</ele><time>2026-04-24T16:22:54Z</time></trkpt><trkpt lat="46.01573046741116" lon="12.028898687936929"><ele>923.0</ele><time>2026-04-24T16:22:55Z</time></trkpt><trkpt lat="46.01583836960392" lon="12.028903465936203"><ele>918.0</ele><time>2026-04-24T16:22:57Z</time></trkpt><trkpt lat="46.01590361647349" lon="12.029095848271234"><ele>913.0</ele><time>2026-04-24T16:22:59Z</time></trkpt><trkpt lat="46.01594491601673" lon="12.029264046678552"><ele>908.0</ele><time>2026-04-24T16:23:00Z</time></trkpt><trkpt lat="46.015981695061" lon="12.029405336904702"><ele>903.0</ele><time>2026-04-24T16:23:01Z</time></trkpt><trkpt lat="46.01601488093153" lon="12.029535675161446"><ele>903.0</ele><time>2026-04-24T16:23:02Z</time></trkpt><trkpt lat="46.01605577091871" lon="12.02965828594192"><ele>903.0</ele><time>2026-04-24T16:23:03Z</time></trkpt><trkpt lat="46.01610338787518" lon="12.029798213172331"><ele>903.0</ele><time>2026-04-24T16:23:04Z</time></trkpt><trkpt lat="46.01617318734238" lon="12.029940975397128"><ele>903.0</ele><time>2026-04-24T16:23:05Z</time></trkpt><trkpt lat="46.016239676881426" lon="12.030061610551927"><ele>903.0</ele><time>2026-04-24T16:23:06Z</time></trkpt><trkpt lat="46.0163036807656" lon="12.03017055784165"><ele>903.0</ele><time>2026-04-24T16:23:07Z</time></trkpt><trkpt lat="46.016374624610016" lon="12.030279270839603"><ele>903.0</ele><time>2026-04-24T16:23:08Z</time></trkpt><trkpt lat="46.01643941091745" lon="12.030378230492587"><ele>903.0</ele><time>2026-04-24T16:23:09Z</time></trkpt><trkpt lat="46.016489639508634" lon="12.030461314415039"><ele>903.0</ele><time>2026-04-24T16:23:10Z</time></trkpt><trkpt lat="46.01654686027805" lon="12.030536199433968"><ele>903.0</ele><time>2026-04-24T16:23:11Z</time></trkpt><trkpt lat="46.01660595038532" lon="12.030603268014866"><ele>903.0</ele><time>2026-04-24T16:23:12Z</time></trkpt><trkpt lat="46.016669436644214" lon="12.030650653062779"><ele>899.1666666666666</ele><time>2026-04-24T16:23:13Z</time></trkpt><trkpt lat="46.01673617982314" lon="12.030645579481789"><ele>895.3333333333333</ele><time>2026-04-24T16:23:14Z</time></trkpt><trkpt lat="46.01679682642333" lon="12.030595461513881"><ele>891.5</ele><time>2026-04-24T16:23:15Z</time></trkpt><trkpt lat="46.016855139514746" lon="12.030515975292637"><ele>887.6666666666666</ele><time>2026-04-24T16:23:16Z</time></trkpt><trkpt lat="46.01690026903613" lon="12.030397751873771"><ele>883.8333333333333</ele><time>2026-04-24T16:23:17Z</time></trkpt><trkpt lat="46.016927753965575" lon="12.03024456911515"><ele>880.0</ele><time>2026-04-24T16:23:18Z</time></trkpt><trkpt lat="46.01694667863605" lon="12.030096229028787"><ele>879.8333333333333</ele><time>2026-04-24T16:23:19Z</time></trkpt><trkpt lat="46.016959317825574" lon="12.02996376000379"><ele>879.6666666666666</ele><time>2026-04-24T16:23:20Z</time></trkpt><trkpt lat="46.01697660254037" lon="12.029838951837021"><ele>879.5</ele><time>2026-04-24T16:23:21Z</time></trkpt><trkpt lat="46.01698557750798" lon="12.029715938593055"><ele>879.3333333333333</ele><time>2026-04-24T16:23:22Z</time></trkpt><trkpt lat="46.016975031939815" lon="12.029602224568405"><ele>879.1666666666666</ele><time>2026-04-24T16:23:23Z</time></trkpt><trkpt lat="46.016953737454216" lon="12.029488826908999"><ele>879.0</ele><time>2026-04-24T16:23:24Z</time></trkpt><trkpt lat="46.016925383579334" lon="12.029374947822506"><ele>879.0</ele><time>2026-04-24T16:23:25Z</time></trkpt><trkpt lat="46.01688664609256" lon="12.029277837546372"><ele>879.0</ele><time>2026-04-24T16:23:26Z</time></trkpt><trkpt lat="46.01685749208462" lon="12.029179724246312"><ele>879.0</ele><time>2026-04-24T16:23:27Z</time></trkpt><trkpt lat="46.01684225509757" lon="12.029086630220664"><ele>879.0</ele><time>2026-04-24T16:23:28Z</time></trkpt><trkpt lat="46.01684000889484" lon="12.028991471752615"><ele>879.0</ele><time>2026-04-24T16:23:29Z</time></trkpt><trkpt lat="46.016896614264226" lon="12.028825428758262"><ele>879.0</ele><time>2026-04-24T16:23:31Z</time></trkpt><trkpt lat="46.01695582830535" lon="12.02876964438145"><ele>878.0</ele><time>2026-04-24T16:23:32Z</time></trkpt><trkpt lat="46.017034832556085" lon="12.028719572696012"><ele>877.0000000000001</ele><time>2026-04-24T16:23:33Z</time></trkpt><trkpt lat="46.0171442884355" lon="12.02870426850661"><ele>876.0000000000001</ele><time>2026-04-24T16:23:34Z</time></trkpt><trkpt lat="46.017244781088486" lon="12.028682348471227"><ele>875.0</ele><time>2026-04-24T16:23:35Z</time></trkpt><trkpt lat="46.01733588509907" lon="12.028659042526415"><ele>874.0</ele><time>2026-04-24T16:23:36Z</time></trkpt><trkpt lat="46.01742396859489" lon="12.028634569267345"><ele>871.9999999999999</ele><time>2026-04-24T16:23:37Z</time></trkpt><trkpt lat="46.01750780757972" lon="12.028611329733105"><ele>870.0</ele><time>2026-04-24T16:23:38Z</time></trkpt><trkpt lat="46.017579521277526" lon="12.028557125367717"><ele>868.0</ele><time>2026-04-24T16:23:39Z</time></trkpt><trkpt lat="46.01763896718802" lon="12.028478266817672"><ele>866.0</ele><time>2026-04-24T16:23:40Z</time></trkpt><trkpt lat="46.01768110674272" lon="12.028363590214767"><ele>863.9999999999999</ele><time>2026-04-24T16:23:41Z</time></trkpt><trkpt lat="46.0176911379879" lon="12.028207965682732"><ele>862.0</ele><time>2026-04-24T16:23:42Z</time></trkpt><trkpt lat="46.017693100697485" lon="12.028057960941906"><ele>862.0</ele><time>2026-04-24T16:23:43Z</time></trkpt><trkpt lat="46.01769331309377" lon="12.02788159530635"><ele>862.0</ele><time>2026-04-24T16:23:44Z</time></trkpt><trkpt lat="46.01769081137562" lon="12.027718721172604"><ele>862.0</ele><time>2026-04-24T16:23:45Z</time></trkpt><trkpt lat="46.01769566752503" lon="12.027568132283909"><ele>862.0</ele><time>2026-04-24T16:23:46Z</time></trkpt><trkpt lat="46.01769053198193" lon="12.027419116024898"><ele>862.0</ele><time>2026-04-24T16:23:47Z</time></trkpt><trkpt lat="46.01769514086235" lon="12.027281423535962"><ele>861.1666666666666</ele><time>2026-04-24T16:23:48Z</time></trkpt><trkpt lat="46.01770000458243" lon="12.02714575727232"><ele>860.3333333333333</ele><time>2026-04-24T16:23:49Z</time></trkpt><trkpt lat="46.01770531425066" lon="12.027017021364461"><ele>859.5</ele><time>2026-04-24T16:23:50Z</time></trkpt><trkpt lat="46.017704858136014" lon="12.026902204970023"><ele>858.6666666666667</ele><time>2026-04-24T16:23:51Z</time></trkpt><trkpt lat="46.01771007388869" lon="12.026801849839437"><ele>857.8333333333334</ele><time>2026-04-24T16:23:52Z</time></trkpt><trkpt lat="46.017738582120934" lon="12.026707764824506"><ele>857.0</ele><time>2026-04-24T16:23:53Z</time></trkpt><trkpt lat="46.017800549092414" lon="12.02663063607363"><ele>857.0000000000001</ele><time>2026-04-24T16:23:54Z</time></trkpt><trkpt lat="46.01786099568841" lon="12.026603188536827"><ele>857.0</ele><time>2026-04-24T16:23:55Z</time></trkpt><trkpt lat="46.01792922961683" lon="12.02660565566811"><ele>857.0</ele><time>2026-04-24T16:23:56Z</time></trkpt><trkpt lat="46.01796140045956" lon="12.026685210760897"><ele>857.0</ele><time>2026-04-24T16:23:57Z</time></trkpt><trkpt lat="46.01805176225311" lon="12.026796123672403"><ele>857.0000000000001</ele><time>2026-04-24T16:23:59Z</time></trkpt><trkpt lat="46.018154916887305" lon="12.026918594817099"><ele>857.0</ele><time>2026-04-24T16:24:01Z</time></trkpt><trkpt lat="46.01822134499335" lon="12.026966128063613"><ele>857.0000000000001</ele><time>2026-04-24T16:24:02Z</time></trkpt><trkpt lat="46.01829749382709" lon="12.026968285129483"><ele>857.0</ele><time>2026-04-24T16:24:03Z</time></trkpt><trkpt lat="46.01836332736915" lon="12.026943906201648"><ele>857.0</ele><time>2026-04-24T16:24:04Z</time></trkpt><trkpt lat="46.01843748463946" lon="12.026800338208162"><ele>857.0</ele><time>2026-04-24T16:24:05.999Z</time></trkpt><trkpt lat="46.01845244120679" lon="12.026700227859486"><ele>857.0000000000001</ele><time>2026-04-24T16:24:06.999Z</time></trkpt><trkpt lat="46.01845115388877" lon="12.02656333090022"><ele>857.0</ele><time>2026-04-24T16:24:07.999Z</time></trkpt><trkpt lat="46.018442968848426" lon="12.02639321084015"><ele>852.0</ele><time>2026-04-24T16:24:08.999Z</time></trkpt><trkpt lat="46.01844752212459" lon="12.026242998369122"><ele>847.0</ele><time>2026-04-24T16:24:09.999Z</time></trkpt><trkpt lat="46.01845778524885" lon="12.026114210130903"><ele>842.0</ele><time>2026-04-24T16:24:10.999Z</time></trkpt><trkpt lat="46.01845142810512" lon="12.025969260185999"><ele>837.0</ele><time>2026-04-24T16:24:11.999Z</time></trkpt><trkpt lat="46.01844787944114" lon="12.025840849444464"><ele>832.0</ele><time>2026-04-24T16:24:12.999Z</time></trkpt><trkpt lat="46.01843911820923" lon="12.02569243494736"><ele>831.2</ele><time>2026-04-24T16:24:13.999Z</time></trkpt><trkpt lat="46.01843887239751" lon="12.025535479702938"><ele>830.4000000000001</ele><time>2026-04-24T16:24:14.999Z</time></trkpt><trkpt lat="46.01843564221696" lon="12.02539190141809"><ele>829.5999999999999</ele><time>2026-04-24T16:24:15.999Z</time></trkpt><trkpt lat="46.018425736971125" lon="12.025255302480256"><ele>828.8</ele><time>2026-04-24T16:24:16.999Z</time></trkpt><trkpt lat="46.018420722411065" lon="12.02510665030076"><ele>828.0</ele><time>2026-04-24T16:24:17.999Z</time></trkpt><trkpt lat="46.01841934483753" lon="12.024974032187693"><ele>826.2</ele><time>2026-04-24T16:24:18.999Z</time></trkpt><trkpt lat="46.01843305647607" lon="12.024826584042078"><ele>824.4</ele><time>2026-04-24T16:24:19.999Z</time></trkpt><trkpt lat="46.01843592036342" lon="12.024689160888737"><ele>822.6</ele><time>2026-04-24T16:24:20.999Z</time></trkpt><trkpt lat="46.0184399727824" lon="12.024551814576922"><ele>820.8000000000001</ele><time>2026-04-24T16:24:21.999Z</time></trkpt><trkpt lat="46.01844412680732" lon="12.024411025173755"><ele>819.0</ele><time>2026-04-24T16:24:22.999Z</time></trkpt><trkpt lat="46.01843310495666" lon="12.024269233100283"><ele>816.4000000000001</ele><time>2026-04-24T16:24:23.999Z</time></trkpt><trkpt lat="46.01845055283965" lon="12.024132119430364"><ele>813.8</ele><time>2026-04-24T16:24:24.999Z</time></trkpt><trkpt lat="46.01846160823327" lon="12.023976782525587"><ele>811.2</ele><time>2026-04-24T16:24:25.999Z</time></trkpt><trkpt lat="46.018469176124846" lon="12.02382924580351"><ele>808.5999999999999</ele><time>2026-04-24T16:24:26.999Z</time></trkpt><trkpt lat="46.01847616714114" lon="12.023705492442442"><ele>806.0</ele><time>2026-04-24T16:24:27.999Z</time></trkpt><trkpt lat="46.01848474191298" lon="12.02358738557773"><ele>806.0000000000001</ele><time>2026-04-24T16:24:28.999Z</time></trkpt><trkpt lat="46.01848404210524" lon="12.023487079034243"><ele>806.0</ele><time>2026-04-24T16:24:29.999Z</time></trkpt><trkpt lat="46.01848546043623" lon="12.023391917632866"><ele>806.0</ele><time>2026-04-24T16:24:30.999Z</time></trkpt><trkpt lat="46.01848741009971" lon="12.023300890520183"><ele>806.0</ele><time>2026-04-24T16:24:32Z</time></trkpt><trkpt lat="46.01850101770775" lon="12.023133974881706"><ele>806.0000000000001</ele><time>2026-04-24T16:24:34Z</time></trkpt><trkpt lat="46.018565431980036" lon="12.022997694154911"><ele>806.0</ele><time>2026-04-24T16:24:36Z</time></trkpt><trkpt lat="46.0186718453487" lon="12.022938406401991"><ele>806.0</ele><time>2026-04-24T16:24:38Z</time></trkpt><trkpt lat="46.018788011435475" lon="12.022965511529426"><ele>806.0</ele><time>2026-04-24T16:24:40Z</time></trkpt><trkpt lat="46.018885052504096" lon="12.023112666072322"><ele>806.0</ele><time>2026-04-24T16:24:42Z</time></trkpt><trkpt lat="46.01891631696011" lon="12.023199304311051"><ele>806.0</ele><time>2026-04-24T16:24:43Z</time></trkpt><trkpt lat="46.01898681531722" lon="12.023317754639763"><ele>806.0</ele><time>2026-04-24T16:24:45Z</time></trkpt><trkpt lat="46.01910916579241" lon="12.023361866430868"><ele>803.8333333333334</ele><time>2026-04-24T16:24:47Z</time></trkpt><trkpt lat="46.01919740927815" lon="12.023356274017992"><ele>801.6666666666667</ele><time>2026-04-24T16:24:48Z</time></trkpt><trkpt lat="46.01927953852259" lon="12.023373867608464"><ele>799.5</ele><time>2026-04-24T16:24:49Z</time></trkpt><trkpt lat="46.01936557699041" lon="12.023368597858848"><ele>797.3333333333333</ele><time>2026-04-24T16:24:50Z</time></trkpt><trkpt lat="46.01945431894307" lon="12.023360434211304"><ele>795.1666666666666</ele><time>2026-04-24T16:24:51Z</time></trkpt><trkpt lat="46.01953964039178" lon="12.023350461878334"><ele>793.0</ele><time>2026-04-24T16:24:52Z</time></trkpt><trkpt lat="46.019623540688116" lon="12.023340115900565"><ele>792.9999999999999</ele><time>2026-04-24T16:24:53Z</time></trkpt><trkpt lat="46.01970762134592" lon="12.023326010606931"><ele>793.0</ele><time>2026-04-24T16:24:54Z</time></trkpt><trkpt lat="46.01980379800166" lon="12.023302296309467"><ele>793.0</ele><time>2026-04-24T16:24:55Z</time></trkpt><trkpt lat="46.01989176858817" lon="12.023288833087374"><ele>793.0</ele><time>2026-04-24T16:24:56Z</time></trkpt><trkpt lat="46.01998191932377" lon="12.023281179588409"><ele>792.9999999999999</ele><time>2026-04-24T16:24:57Z</time></trkpt><trkpt lat="46.02006093073073" lon="12.023274013931756"><ele>793.0</ele><time>2026-04-24T16:24:58Z</time></trkpt><trkpt lat="46.020131014129184" lon="12.02325715254199"><ele>790.3333333333333</ele><time>2026-04-24T16:24:59Z</time></trkpt><trkpt lat="46.02021274038777" lon="12.023250486373705"><ele>787.6666666666666</ele><time>2026-04-24T16:25:00Z</time></trkpt><trkpt lat="46.020303578163" lon="12.023261173557522"><ele>785.0</ele><time>2026-04-24T16:25:01Z</time></trkpt><trkpt lat="46.020379357431366" lon="12.023288423782235"><ele>782.3333333333333</ele><time>2026-04-24T16:25:02Z</time></trkpt><trkpt lat="46.02045661501804" lon="12.023337935438457"><ele>779.6666666666666</ele><time>2026-04-24T16:25:03Z</time></trkpt><trkpt lat="46.02053960923445" lon="12.023405459430876"><ele>777.0</ele><time>2026-04-24T16:25:04Z</time></trkpt><trkpt lat="46.02062768807529" lon="12.023482008568672"><ele>777.0</ele><time>2026-04-24T16:25:05Z</time></trkpt><trkpt lat="46.02070744585215" lon="12.023564102245318"><ele>777.0</ele><time>2026-04-24T16:25:06Z</time></trkpt><trkpt lat="46.02078606352781" lon="12.023640434854238"><ele>777.0</ele><time>2026-04-24T16:25:07Z</time></trkpt><trkpt lat="46.020869529752844" lon="12.023712427335399"><ele>777.0</ele><time>2026-04-24T16:25:08Z</time></trkpt><trkpt lat="46.0209580624626" lon="12.02378401224276"><ele>777.0</ele><time>2026-04-24T16:25:09Z</time></trkpt><trkpt lat="46.021047261471814" lon="12.023839162407551"><ele>773.0</ele><time>2026-04-24T16:25:10Z</time></trkpt><trkpt lat="46.02112840755315" lon="12.023895091896819"><ele>769.0</ele><time>2026-04-24T16:25:11Z</time></trkpt><trkpt lat="46.021212416007046" lon="12.023946147052678"><ele>765.0</ele><time>2026-04-24T16:25:12Z</time></trkpt><trkpt lat="46.021298551316065" lon="12.023997379379914"><ele>761.0</ele><time>2026-04-24T16:25:13Z</time></trkpt><trkpt lat="46.0213777144852" lon="12.024043924107497"><ele>757.0</ele><time>2026-04-24T16:25:14Z</time></trkpt><trkpt lat="46.021461135851744" lon="12.02408716674834"><ele>753.0</ele><time>2026-04-24T16:25:15Z</time></trkpt><trkpt lat="46.02153627849991" lon="12.024127712543107"><ele>754.1666666666666</ele><time>2026-04-24T16:25:16Z</time></trkpt><trkpt lat="46.02161608711013" lon="12.024183237493883"><ele>755.3333333333334</ele><time>2026-04-24T16:25:17Z</time></trkpt><trkpt lat="46.02168179098896" lon="12.024249122465056"><ele>756.5</ele><time>2026-04-24T16:25:18Z</time></trkpt><trkpt lat="46.02174646914804" lon="12.024334019958989"><ele>757.6666666666667</ele><time>2026-04-24T16:25:19Z</time></trkpt><trkpt lat="46.02180778183414" lon="12.02442960791392"><ele>758.8333333333334</ele><time>2026-04-24T16:25:20Z</time></trkpt><trkpt lat="46.02186380972592" lon="12.024541145127609"><ele>760.0</ele><time>2026-04-24T16:25:21Z</time></trkpt><trkpt lat="46.02192105363776" lon="12.024642288716901"><ele>756.8333333333334</ele><time>2026-04-24T16:25:22Z</time></trkpt><trkpt lat="46.021972470114946" lon="12.024740601282891"><ele>753.6666666666667</ele><time>2026-04-24T16:25:23Z</time></trkpt><trkpt lat="46.0220260646033" lon="12.024844224492805"><ele>750.5</ele><time>2026-04-24T16:25:24Z</time></trkpt><trkpt lat="46.022074154374145" lon="12.024934115465504"><ele>747.3333333333334</ele><time>2026-04-24T16:25:25Z</time></trkpt><trkpt lat="46.022127040131636" lon="12.025003380280385"><ele>744.1666666666666</ele><time>2026-04-24T16:25:26Z</time></trkpt><trkpt lat="46.02219650096943" lon="12.025056150799152"><ele>741.0</ele><time>2026-04-24T16:25:27Z</time></trkpt><trkpt lat="46.0222663849276" lon="12.025082199546258"><ele>740.8333333333334</ele><time>2026-04-24T16:25:28Z</time></trkpt><trkpt lat="46.02233500211969" lon="12.025081006617082"><ele>740.6666666666666</ele><time>2026-04-24T16:25:29Z</time></trkpt><trkpt lat="46.02240089628762" lon="12.025073686245207"><ele>740.5</ele><time>2026-04-24T16:25:30Z</time></trkpt><trkpt lat="46.02246640962283" lon="12.025070051647686"><ele>740.3333333333333</ele><time>2026-04-24T16:25:31Z</time></trkpt><trkpt lat="46.02258526416217" lon="12.025097348945737"><ele>740.1666666666666</ele><time>2026-04-24T16:25:33Z</time></trkpt><trkpt lat="46.02264784366436" lon="12.025148040201168"><ele>740.0</ele><time>2026-04-24T16:25:34Z</time></trkpt><trkpt lat="46.02269761777314" lon="12.025230440531756"><ele>738.4</ele><time>2026-04-24T16:25:35Z</time></trkpt><trkpt lat="46.02272937320511" lon="12.025336221789011"><ele>736.8</ele><time>2026-04-24T16:25:36Z</time></trkpt><trkpt lat="46.022759086844104" lon="12.025462197425501"><ele>735.2</ele><time>2026-04-24T16:25:37Z</time></trkpt><trkpt lat="46.02280102051758" lon="12.025610277676586"><ele>733.6</ele><time>2026-04-24T16:25:38Z</time></trkpt><trkpt lat="46.02284045785975" lon="12.025753880023837"><ele>732.0</ele><time>2026-04-24T16:25:39Z</time></trkpt><trkpt lat="46.02287407073492" lon="12.025885972312524"><ele>732.0</ele><time>2026-04-24T16:25:40Z</time></trkpt><trkpt lat="46.0229217204368" lon="12.026017494380799"><ele>732.0</ele><time>2026-04-24T16:25:41Z</time></trkpt><trkpt lat="46.02294913595895" lon="12.026141416614543"><ele>732.0</ele><time>2026-04-24T16:25:42Z</time></trkpt><trkpt lat="46.0229864977724" lon="12.026281457008768"><ele>732.0</ele><time>2026-04-24T16:25:43Z</time></trkpt><trkpt lat="46.023004649505836" lon="12.02640760549567"><ele>732.0</ele><time>2026-04-24T16:25:44Z</time></trkpt><trkpt lat="46.023019052563164" lon="12.026537667000197"><ele>731.4000000000001</ele><time>2026-04-24T16:25:45Z</time></trkpt><trkpt lat="46.02305216623342" lon="12.026668311062918"><ele>730.8000000000001</ele><time>2026-04-24T16:25:46Z</time></trkpt><trkpt lat="46.023070611505695" lon="12.026766743951825"><ele>730.2</ele><time>2026-04-24T16:25:47Z</time></trkpt><trkpt lat="46.0230896117216" lon="12.026853895170236"><ele>729.6</ele><time>2026-04-24T16:25:48Z</time></trkpt><trkpt lat="46.0231148771088" lon="12.027000899463458"><ele>729.0</ele><time>2026-04-24T16:25:50Z</time></trkpt><trkpt lat="46.02320428719506" lon="12.027103254224274"><ele>729.0</ele><time>2026-04-24T16:25:52Z</time></trkpt><trkpt lat="46.02326687899617" lon="12.027113911979473"><ele>729.0</ele><time>2026-04-24T16:25:53Z</time></trkpt><trkpt lat="46.02341230346812" lon="12.027090840177873"><ele>729.0</ele><time>2026-04-24T16:25:55Z</time></trkpt><trkpt lat="46.0235076841661" lon="12.027023212147485"><ele>729.0</ele><time>2026-04-24T16:25:56Z</time></trkpt><trkpt lat="46.0236045070613" lon="12.026924480405189"><ele>729.0</ele><time>2026-04-24T16:25:57Z</time></trkpt><trkpt lat="46.023687630890294" lon="12.0268178091563"><ele>726.4000000000001</ele><time>2026-04-24T16:25:58Z</time></trkpt><trkpt lat="46.023764659940554" lon="12.026707974304971"><ele>723.8</ele><time>2026-04-24T16:25:59Z</time></trkpt><trkpt lat="46.0238388078314" lon="12.026592146802882"><ele>721.2</ele><time>2026-04-24T16:26:00Z</time></trkpt><trkpt lat="46.023907939489064" lon="12.026471533982535"><ele>718.5999999999999</ele><time>2026-04-24T16:26:00.999Z</time></trkpt><trkpt lat="46.02396467644593" lon="12.026356027950083"><ele>716.0</ele><time>2026-04-24T16:26:01.999Z</time></trkpt><trkpt lat="46.02401684487279" lon="12.026231931226143"><ele>716.0</ele><time>2026-04-24T16:26:02.999Z</time></trkpt><trkpt lat="46.0240539402634" lon="12.02609843715506"><ele>716.0</ele><time>2026-04-24T16:26:03.999Z</time></trkpt><trkpt lat="46.02409036877033" lon="12.02597700996194"><ele>716.0</ele><time>2026-04-24T16:26:04.999Z</time></trkpt><trkpt lat="46.02412601320736" lon="12.025848045982114"><ele>716.0</ele><time>2026-04-24T16:26:05.999Z</time></trkpt><trkpt lat="46.02415820616043" lon="12.025733443672983"><ele>716.0</ele><time>2026-04-24T16:26:06.999Z</time></trkpt><trkpt lat="46.0241845521065" lon="12.025622869635598"><ele>715.6666666666666</ele><time>2026-04-24T16:26:07.999Z</time></trkpt><trkpt lat="46.02420544981223" lon="12.025524521800012"><ele>715.3333333333333</ele><time>2026-04-24T16:26:08.999Z</time></trkpt><trkpt lat="46.02420948321106" lon="12.02543061764591"><ele>715.0</ele><time>2026-04-24T16:26:09.999Z</time></trkpt><trkpt lat="46.024220228512675" lon="12.025300971667182"><ele>714.6666666666666</ele><time>2026-04-24T16:26:10.999Z</time></trkpt><trkpt lat="46.02419155963108" lon="12.025158368209716"><ele>714.3333333333334</ele><time>2026-04-24T16:26:11.999Z</time></trkpt><trkpt lat="46.02414854950688" lon="12.025033360806349"><ele>714.0</ele><time>2026-04-24T16:26:12.999Z</time></trkpt><trkpt lat="46.02410964774291" lon="12.02489344774453"><ele>714.0</ele><time>2026-04-24T16:26:13.999Z</time></trkpt><trkpt lat="46.024076740730614" lon="12.024759814585057"><ele>714.0</ele><time>2026-04-24T16:26:14.999Z</time></trkpt><trkpt lat="46.02404964357582" lon="12.02463246720675"><ele>714.0</ele><time>2026-04-24T16:26:15.999Z</time></trkpt><trkpt lat="46.0240256432957" lon="12.024513294943574"><ele>714.0</ele><time>2026-04-24T16:26:16.999Z</time></trkpt><trkpt lat="46.02402852887178" lon="12.024334285314"><ele>714.0</ele><time>2026-04-24T16:26:18.999Z</time></trkpt><trkpt lat="46.02407041330136" lon="12.02425747726993"><ele>705.5</ele><time>2026-04-24T16:26:19.999Z</time></trkpt><trkpt lat="46.024191245992924" lon="12.024220267977315"><ele>697.0</ele><time>2026-04-24T16:26:21.999Z</time></trkpt><trkpt lat="46.02428453129746" lon="12.024374446522513"><ele>688.5</ele><time>2026-04-24T16:26:23.999Z</time></trkpt><trkpt lat="46.024347760006755" lon="12.024478248160259"><ele>680.0</ele><time>2026-04-24T16:26:24.999Z</time></trkpt><trkpt lat="46.02439653876671" lon="12.024592474977416"><ele>680.0</ele><time>2026-04-24T16:26:25.999Z</time></trkpt><trkpt lat="46.02444918399647" lon="12.024717357505214"><ele>680.0</ele><time>2026-04-24T16:26:26.999Z</time></trkpt><trkpt lat="46.024491733209615" lon="12.024834992834153"><ele>680.0</ele><time>2026-04-24T16:26:27.999Z</time></trkpt><trkpt lat="46.02453674731106" lon="12.024951846228378"><ele>680.0</ele><time>2026-04-24T16:26:28.999Z</time></trkpt><trkpt lat="46.024580040858204" lon="12.025065511074311"><ele>680.0</ele><time>2026-04-24T16:26:29.999Z</time></trkpt><trkpt lat="46.024625592128686" lon="12.025188322041418"><ele>680.8</ele><time>2026-04-24T16:26:30.999Z</time></trkpt><trkpt lat="46.024687221169515" lon="12.025312658912506"><ele>681.6</ele><time>2026-04-24T16:26:31.999Z</time></trkpt><trkpt lat="46.02474140429416" lon="12.025428382816607"><ele>682.4000000000001</ele><time>2026-04-24T16:26:32.999Z</time></trkpt><trkpt lat="46.024788032188866" lon="12.025539478677704"><ele>683.2</ele><time>2026-04-24T16:26:33.999Z</time></trkpt><trkpt lat="46.02481458381588" lon="12.025663293599658"><ele>684.0</ele><time>2026-04-24T16:26:34.999Z</time></trkpt><trkpt lat="46.02485742518417" lon="12.025772982787558"><ele>685.1666666666666</ele><time>2026-04-24T16:26:35.999Z</time></trkpt><trkpt lat="46.0248931264096" lon="12.025877582818957"><ele>686.3333333333334</ele><time>2026-04-24T16:26:36.999Z</time></trkpt><trkpt lat="46.02493673720308" lon="12.025983221454778"><ele>687.5</ele><time>2026-04-24T16:26:38Z</time></trkpt><trkpt lat="46.02496238915723" lon="12.026066420642408"><ele>688.6666666666667</ele><time>2026-04-24T16:26:39Z</time></trkpt><trkpt lat="46.02499222012435" lon="12.026173016440461"><ele>689.8333333333334</ele><time>2026-04-24T16:26:40Z</time></trkpt><trkpt lat="46.0250285223541" lon="12.026287945623837"><ele>691.0</ele><time>2026-04-24T16:26:41Z</time></trkpt><trkpt lat="46.02507397843977" lon="12.02642528597901"><ele>684.75</ele><time>2026-04-24T16:26:42Z</time></trkpt><trkpt lat="46.02512487911419" lon="12.0266153237294"><ele>678.5</ele><time>2026-04-24T16:26:43Z</time></trkpt><trkpt lat="46.02516442775822" lon="12.026779239697303"><ele>672.25</ele><time>2026-04-24T16:26:44Z</time></trkpt><trkpt lat="46.025202970844504" lon="12.026976679930225"><ele>666.0</ele><time>2026-04-24T16:26:45Z</time></trkpt><trkpt lat="46.025223483108476" lon="12.0271483091316"><ele>666.0</ele><time>2026-04-24T16:26:46Z</time></trkpt><trkpt lat="46.02522764018786" lon="12.027304997851976"><ele>666.0</ele><time>2026-04-24T16:26:47Z</time></trkpt><trkpt lat="46.02527111300113" lon="12.027474840090296"><ele>666.0</ele><time>2026-04-24T16:26:48Z</time></trkpt><trkpt lat="46.025304142995026" lon="12.027637763122394"><ele>666.0</ele><time>2026-04-24T16:26:49Z</time></trkpt><trkpt lat="46.02531614122662" lon="12.027781416392429"><ele>666.1999999999999</ele><time>2026-04-24T16:26:50Z</time></trkpt><trkpt lat="46.0253391170143" lon="12.027912414305073"><ele>666.4</ele><time>2026-04-24T16:26:51Z</time></trkpt><trkpt lat="46.02536605366171" lon="12.028051138776204"><ele>666.6</ele><time>2026-04-24T16:26:52Z</time></trkpt><trkpt lat="46.02541699372518" lon="12.02817362468826"><ele>666.8</ele><time>2026-04-24T16:26:53Z</time></trkpt><trkpt lat="46.025511030654656" lon="12.028278570049187"><ele>667.0</ele><time>2026-04-24T16:26:54Z</time></trkpt><trkpt lat="46.02562394670323" lon="12.028349513108505"><ele>669.2</ele><time>2026-04-24T16:26:55Z</time></trkpt><trkpt lat="46.02573452733509" lon="12.02841704029661"><ele>671.4000000000001</ele><time>2026-04-24T16:26:56Z</time></trkpt><trkpt lat="46.025819499425616" lon="12.028494817159077"><ele>673.5999999999999</ele><time>2026-04-24T16:26:57Z</time></trkpt><trkpt lat="46.02591071669969" lon="12.02854045762909"><ele>675.8</ele><time>2026-04-24T16:26:58Z</time></trkpt><trkpt lat="46.025972798757834" lon="12.02860668047836"><ele>678.0</ele><time>2026-04-24T16:26:59Z</time></trkpt><trkpt lat="46.02603113362155" lon="12.028705004538843"><ele>671.75</ele><time>2026-04-24T16:27:00Z</time></trkpt><trkpt lat="46.026078829642884" lon="12.028849589938515"><ele>665.5</ele><time>2026-04-24T16:27:01Z</time></trkpt><trkpt lat="46.02613444944084" lon="12.029031922062778"><ele>659.25</ele><time>2026-04-24T16:27:02Z</time></trkpt><trkpt lat="46.0261806369163" lon="12.029230941477607"><ele>653.0</ele><time>2026-04-24T16:27:03Z</time></trkpt><trkpt lat="46.026228552631345" lon="12.029447305853433"><ele>653.0</ele><time>2026-04-24T16:27:04Z</time></trkpt><trkpt lat="46.02627429412629" lon="12.029673344662005"><ele>653.0</ele><time>2026-04-24T16:27:05Z</time></trkpt><trkpt lat="46.02634225721061" lon="12.02992034609594"><ele>653.0</ele><time>2026-04-24T16:27:06Z</time></trkpt><trkpt lat="46.0263997622788" lon="12.030133075395561"><ele>652.6666666666666</ele><time>2026-04-24T16:27:07Z</time></trkpt><trkpt lat="46.02647114098261" lon="12.030348628090989"><ele>652.3333333333334</ele><time>2026-04-24T16:27:08Z</time></trkpt><trkpt lat="46.02655071788305" lon="12.030581322038147"><ele>652.0</ele><time>2026-04-24T16:27:09Z</time></trkpt><trkpt lat="46.026622539899485" lon="12.03079271919108"><ele>646.5</ele><time>2026-04-24T16:27:10Z</time></trkpt><trkpt lat="46.026687584073066" lon="12.030990906230645"><ele>641.0</ele><time>2026-04-24T16:27:11Z</time></trkpt><trkpt lat="46.02674851084286" lon="12.031187895735895"><ele>635.5</ele><time>2026-04-24T16:27:12Z</time></trkpt><trkpt lat="46.02680192168534" lon="12.03137359739942"><ele>630.0</ele><time>2026-04-24T16:27:13Z</time></trkpt><trkpt lat="46.02685847111012" lon="12.031553758343012"><ele>630.25</ele><time>2026-04-24T16:27:14Z</time></trkpt><trkpt lat="46.026911048792456" lon="12.031718878103053"><ele>630.5</ele><time>2026-04-24T16:27:15Z</time></trkpt><trkpt lat="46.0269611853917" lon="12.031879223904777"><ele>630.75</ele><time>2026-04-24T16:27:16Z</time></trkpt><trkpt lat="46.02701463710817" lon="12.032043795004974"><ele>631.0</ele><time>2026-04-24T16:27:17Z</time></trkpt><trkpt lat="46.027064454250095" lon="12.032204952092902"><ele>631.0</ele><time>2026-04-24T16:27:18Z</time></trkpt><trkpt lat="46.02711676585225" lon="12.032352249242727"><ele>631.0</ele><time>2026-04-24T16:27:19Z</time></trkpt><trkpt lat="46.02716803331534" lon="12.032492888785349"><ele>631.0</ele><time>2026-04-24T16:27:20Z</time></trkpt><trkpt lat="46.02721542108708" lon="12.032626080807374"><ele>631.0</ele><time>2026-04-24T16:27:21Z</time></trkpt><trkpt lat="46.02725848296955" lon="12.03275660177158"><ele>631.0</ele><time>2026-04-24T16:27:22Z</time></trkpt><trkpt lat="46.02730942097816" lon="12.032899776304406"><ele>632.5</ele><time>2026-04-24T16:27:23Z</time></trkpt><trkpt lat="46.02735245870189" lon="12.033039789662775"><ele>634.0</ele><time>2026-04-24T16:27:24Z</time></trkpt><trkpt lat="46.0273997808771" lon="12.033171239610473"><ele>635.5</ele><time>2026-04-24T16:27:25Z</time></trkpt><trkpt lat="46.0274855221182" lon="12.033329700503327"><ele>637.0</ele><time>2026-04-24T16:27:26Z</time></trkpt><trkpt lat="46.0275664809867" lon="12.033453648231813"><ele>630.5</ele><time>2026-04-24T16:27:27Z</time></trkpt><trkpt lat="46.02768100257546" lon="12.033593488536129"><ele>624.0</ele><time>2026-04-24T16:27:28Z</time></trkpt><trkpt lat="46.02779705632802" lon="12.033703623591988"><ele>617.5</ele><time>2026-04-24T16:27:29Z</time></trkpt><trkpt lat="46.02789165080003" lon="12.033820891836426"><ele>611.0</ele><time>2026-04-24T16:27:30Z</time></trkpt><trkpt lat="46.027984410979585" lon="12.033953492526543"><ele>611.0</ele><time>2026-04-24T16:27:31Z</time></trkpt><trkpt lat="46.028081040264375" lon="12.034063556332132"><ele>611.0</ele><time>2026-04-24T16:27:32Z</time></trkpt><trkpt lat="46.02817207273558" lon="12.034177246833536"><ele>611.0</ele><time>2026-04-24T16:27:33Z</time></trkpt><trkpt lat="46.02825627160791" lon="12.034269799863766"><ele>611.0</ele><time>2026-04-24T16:27:34Z</time></trkpt><trkpt lat="46.0283613063432" lon="12.034390199995727"><ele>606.0</ele><time>2026-04-24T16:27:35Z</time></trkpt><trkpt lat="46.02849208713451" lon="12.034506928809279"><ele>601.0</ele><time>2026-04-24T16:27:36Z</time></trkpt><trkpt lat="46.02861765457872" lon="12.034601797765811"><ele>596.0</ele><time>2026-04-24T16:27:37Z</time></trkpt><trkpt lat="46.028739751521606" lon="12.03468706640646"><ele>591.0</ele><time>2026-04-24T16:27:38Z</time></trkpt><trkpt lat="46.02886063944596" lon="12.034767949676676"><ele>591.0</ele><time>2026-04-24T16:27:39Z</time></trkpt><trkpt lat="46.02899145974103" lon="12.034843909645843"><ele>591.0</ele><time>2026-04-24T16:27:40Z</time></trkpt><trkpt lat="46.02910728910156" lon="12.034913757890683"><ele>591.0</ele><time>2026-04-24T16:27:41Z</time></trkpt><trkpt lat="46.029214086565986" lon="12.034981968163086"><ele>591.0</ele><time>2026-04-24T16:27:42Z</time></trkpt><trkpt lat="46.029315751787976" lon="12.035040747428798"><ele>588.75</ele><time>2026-04-24T16:27:43Z</time></trkpt><trkpt lat="46.02942461945542" lon="12.035097248862112"><ele>586.5</ele><time>2026-04-24T16:27:44Z</time></trkpt><trkpt lat="46.029541809107315" lon="12.035131321584542"><ele>584.25</ele><time>2026-04-24T16:27:45Z</time></trkpt><trkpt lat="46.02967234128957" lon="12.035152882446708"><ele>582.0</ele><time>2026-04-24T16:27:46Z</time></trkpt><trkpt lat="46.02981357795218" lon="12.035152757096377"><ele>582.0</ele><time>2026-04-24T16:27:47Z</time></trkpt><trkpt lat="46.02994574077338" lon="12.035147878958519"><ele>582.0</ele><time>2026-04-24T16:27:48Z</time></trkpt><trkpt lat="46.03008549063477" lon="12.035129368679415"><ele>582.0</ele><time>2026-04-24T16:27:49Z</time></trkpt><trkpt lat="46.03022465017106" lon="12.035106951520131"><ele>582.0</ele><time>2026-04-24T16:27:50Z</time></trkpt><trkpt lat="46.0303697086846" lon="12.035087440307898"><ele>580.25</ele><time>2026-04-24T16:27:51Z</time></trkpt><trkpt lat="46.03051316291292" lon="12.035093972533852"><ele>578.5</ele><time>2026-04-24T16:27:52Z</time></trkpt><trkpt lat="46.0306529885269" lon="12.035077707669997"><ele>576.75</ele><time>2026-04-24T16:27:53Z</time></trkpt><trkpt lat="46.030785346355174" lon="12.035064102271049"><ele>575.0</ele><time>2026-04-24T16:27:54Z</time></trkpt><trkpt lat="46.03090574061666" lon="12.035042864849569"><ele>575.2</ele><time>2026-04-24T16:27:54.999Z</time></trkpt><trkpt lat="46.03102350592263" lon="12.035027551148092"><ele>575.4</ele><time>2026-04-24T16:27:55.999Z</time></trkpt><trkpt lat="46.03114510423302" lon="12.035006278394622"><ele>575.6</ele><time>2026-04-24T16:27:56.999Z</time></trkpt><trkpt lat="46.03125077981415" lon="12.034993999178546"><ele>575.8</ele><time>2026-04-24T16:27:57.999Z</time></trkpt><trkpt lat="46.031344724170665" lon="12.034981434734044"><ele>576.0</ele><time>2026-04-24T16:27:58.999Z</time></trkpt><trkpt lat="46.03143817827185" lon="12.03496607378599"><ele>576.0</ele><time>2026-04-24T16:27:59.999Z</time></trkpt><trkpt lat="46.03153260505995" lon="12.034957174070941"><ele>576.0</ele><time>2026-04-24T16:28:00.999Z</time></trkpt><trkpt lat="46.03161415000016" lon="12.034942285237136"><ele>576.0</ele><time>2026-04-24T16:28:01.999Z</time></trkpt><trkpt lat="46.03168725843384" lon="12.034929037889532"><ele>576.0</ele><time>2026-04-24T16:28:02.999Z</time></trkpt><trkpt lat="46.03175724968532" lon="12.03489341549525"><ele>576.0</ele><time>2026-04-24T16:28:03.999Z</time></trkpt><trkpt lat="46.03182584370391" lon="12.034828169689956"><ele>576.0</ele><time>2026-04-24T16:28:04.999Z</time></trkpt><trkpt lat="46.03189456794111" lon="12.034719783297229"><ele>572.0</ele><time>2026-04-24T16:28:05.999Z</time></trkpt><trkpt lat="46.03195816536434" lon="12.034576725154109"><ele>568.0</ele><time>2026-04-24T16:28:06.999Z</time></trkpt><trkpt lat="46.03200461133088" lon="12.03442551365632"><ele>564.0</ele><time>2026-04-24T16:28:07.999Z</time></trkpt><trkpt lat="46.03204644646101" lon="12.034256169896063"><ele>560.0</ele><time>2026-04-24T16:28:08.999Z</time></trkpt><trkpt lat="46.03208431091217" lon="12.034081619037256"><ele>559.25</ele><time>2026-04-24T16:28:09.999Z</time></trkpt><trkpt lat="46.032114367978934" lon="12.033914541354086"><ele>558.5</ele><time>2026-04-24T16:28:10.999Z</time></trkpt><trkpt lat="46.03214354316341" lon="12.033727609843087"><ele>557.75</ele><time>2026-04-24T16:28:11.999Z</time></trkpt><trkpt lat="46.03217706148826" lon="12.033534111667876"><ele>557.0</ele><time>2026-04-24T16:28:12.999Z</time></trkpt><trkpt lat="46.032208348016795" lon="12.033350280202768"><ele>556.25</ele><time>2026-04-24T16:28:13.999Z</time></trkpt><trkpt lat="46.03223515466847" lon="12.03317696386262"><ele>555.5</ele><time>2026-04-24T16:28:14.999Z</time></trkpt><trkpt lat="46.032265123289136" lon="12.033016593054448"><ele>554.75</ele><time>2026-04-24T16:28:15.999Z</time></trkpt><trkpt lat="46.032294069303866" lon="12.032854544129888"><ele>554.0</ele><time>2026-04-24T16:28:16.999Z</time></trkpt><trkpt lat="46.032317025018074" lon="12.032711031524675"><ele>554.0</ele><time>2026-04-24T16:28:17.999Z</time></trkpt><trkpt lat="46.032338616504276" lon="12.032583165180268"><ele>554.0</ele><time>2026-04-24T16:28:18.999Z</time></trkpt><trkpt lat="46.032364458871974" lon="12.032463477707198"><ele>554.0</ele><time>2026-04-24T16:28:19.999Z</time></trkpt><trkpt lat="46.032402710322565" lon="12.032340016723651"><ele>554.0</ele><time>2026-04-24T16:28:20.999Z</time></trkpt><trkpt lat="46.03245768210318" lon="12.032219326058504"><ele>554.0</ele><time>2026-04-24T16:28:21.999Z</time></trkpt><trkpt lat="46.03252595886413" lon="12.03212069386013"><ele>550.5</ele><time>2026-04-24T16:28:22.999Z</time></trkpt><trkpt lat="46.03260089465567" lon="12.032042133303424"><ele>547.0</ele><time>2026-04-24T16:28:23.999Z</time></trkpt><trkpt lat="46.03266312209687" lon="12.031960859553974"><ele>543.5</ele><time>2026-04-24T16:28:24.999Z</time></trkpt><trkpt lat="46.032716483214585" lon="12.031871266147357"><ele>540.0</ele><time>2026-04-24T16:28:25.999Z</time></trkpt><trkpt lat="46.032767455980256" lon="12.031781516398091"><ele>536.5</ele><time>2026-04-24T16:28:26.999Z</time></trkpt><trkpt lat="46.03280900901687" lon="12.03166515466575"><ele>533.0</ele><time>2026-04-24T16:28:27.999Z</time></trkpt><trkpt lat="46.03283845907383" lon="12.031544716723857"><ele>532.1999999999999</ele><time>2026-04-24T16:28:28.999Z</time></trkpt><trkpt lat="46.032858135716815" lon="12.031400462456373"><ele>531.4</ele><time>2026-04-24T16:28:29.999Z</time></trkpt><trkpt lat="46.032861294145384" lon="12.031241425396418"><ele>530.5999999999999</ele><time>2026-04-24T16:28:30.999Z</time></trkpt><trkpt lat="46.03285029717548" lon="12.031110438260903"><ele>529.8</ele><time>2026-04-24T16:28:31.999Z</time></trkpt><trkpt lat="46.03283674437533" lon="12.03099159194149"><ele>529.0</ele><time>2026-04-24T16:28:32.999Z</time></trkpt><trkpt lat="46.03281410490966" lon="12.030855450243495"><ele>528.6</ele><time>2026-04-24T16:28:33.999Z</time></trkpt><trkpt lat="46.03278807330252" lon="12.030705017709813"><ele>528.2</ele><time>2026-04-24T16:28:34.999Z</time></trkpt><trkpt lat="46.03277388331017" lon="12.030573885467875"><ele>527.8000000000001</ele><time>2026-04-24T16:28:35.999Z</time></trkpt><trkpt lat="46.03277136758327" lon="12.030457098769595"><ele>527.4</ele><time>2026-04-24T16:28:36.999Z</time></trkpt><trkpt lat="46.03278234708267" lon="12.030338977743057"><ele>527.0</ele><time>2026-04-24T16:28:37.999Z</time></trkpt><trkpt lat="46.03279661394858" lon="12.03019782642368"><ele>527.0</ele><time>2026-04-24T16:28:38.999Z</time></trkpt><trkpt lat="46.03285595572446" lon="12.030074208887608"><ele>527.0</ele><time>2026-04-24T16:28:39.999Z</time></trkpt><trkpt lat="46.03288750300018" lon="12.029942508084176"><ele>527.0</ele><time>2026-04-24T16:28:40.999Z</time></trkpt><trkpt lat="46.03293445438743" lon="12.029827029711457"><ele>527.0</ele><time>2026-04-24T16:28:41.999Z</time></trkpt><trkpt lat="46.03297135779167" lon="12.029707241833735"><ele>527.0</ele><time>2026-04-24T16:28:42.999Z</time></trkpt><trkpt lat="46.03298758985273" lon="12.0295773044586"><ele>527.2</ele><time>2026-04-24T16:28:44Z</time></trkpt><trkpt lat="46.03298862843695" lon="12.02941935919678"><ele>527.4000000000001</ele><time>2026-04-24T16:28:45Z</time></trkpt><trkpt lat="46.03301136852174" lon="12.029256809339739"><ele>527.5999999999999</ele><time>2026-04-24T16:28:46Z</time></trkpt><trkpt lat="46.03301084309572" lon="12.029094844310407"><ele>527.8</ele><time>2026-04-24T16:28:47Z</time></trkpt><trkpt lat="46.03300541448894" lon="12.02894023704753"><ele>528.0</ele><time>2026-04-24T16:28:48Z</time></trkpt><trkpt lat="46.032982010361046" lon="12.02880285268109"><ele>525.75</ele><time>2026-04-24T16:28:49Z</time></trkpt><trkpt lat="46.0329679800026" lon="12.02865784125626"><ele>523.5</ele><time>2026-04-24T16:28:50Z</time></trkpt><trkpt lat="46.03295197477123" lon="12.02848913393806"><ele>521.25</ele><time>2026-04-24T16:28:51Z</time></trkpt><trkpt lat="46.032908061510426" lon="12.02832336509599"><ele>519.0</ele><time>2026-04-24T16:28:52Z</time></trkpt><trkpt lat="46.03284782725327" lon="12.028183415106025"><ele>515.8</ele><time>2026-04-24T16:28:53Z</time></trkpt><trkpt lat="46.0328142683552" lon="12.02803482945206"><ele>512.5999999999999</ele><time>2026-04-24T16:28:54Z</time></trkpt><trkpt lat="46.032773782830766" lon="12.027910054667267"><ele>509.4</ele><time>2026-04-24T16:28:55Z</time></trkpt><trkpt lat="46.03273629465779" lon="12.02777168533016"><ele>506.2</ele><time>2026-04-24T16:28:56Z</time></trkpt><trkpt lat="46.03270129976733" lon="12.027604861014554"><ele>503.0</ele><time>2026-04-24T16:28:57Z</time></trkpt><trkpt lat="46.03266754447265" lon="12.027430394683977"><ele>500.59999999999997</ele><time>2026-04-24T16:28:58Z</time></trkpt><trkpt lat="46.032652840337455" lon="12.027281189586725"><ele>498.19999999999993</ele><time>2026-04-24T16:28:59Z</time></trkpt><trkpt lat="46.032653420133684" lon="12.027126323429812"><ele>495.8</ele><time>2026-04-24T16:29:00Z</time></trkpt><trkpt lat="46.03266498075964" lon="12.026977334276085"><ele>493.4</ele><time>2026-04-24T16:29:01Z</time></trkpt><trkpt lat="46.03268628558531" lon="12.026837506586604"><ele>491.0</ele><time>2026-04-24T16:29:02Z</time></trkpt><trkpt lat="46.032713990423645" lon="12.02670137344497"><ele>488.8</ele><time>2026-04-24T16:29:03Z</time></trkpt><trkpt lat="46.03273972114444" lon="12.026561235144507"><ele>486.6</ele><time>2026-04-24T16:29:04Z</time></trkpt><trkpt lat="46.032762170298675" lon="12.02642566183708"><ele>484.4</ele><time>2026-04-24T16:29:05Z</time></trkpt><trkpt lat="46.032788402134095" lon="12.026271509181765"><ele>482.2</ele><time>2026-04-24T16:29:06Z</time></trkpt><trkpt lat="46.03281425329715" lon="12.026094790265056"><ele>480.0</ele><time>2026-04-24T16:29:07Z</time></trkpt><trkpt lat="46.03284142882664" lon="12.025941933198657"><ele>478.4</ele><time>2026-04-24T16:29:08Z</time></trkpt><trkpt lat="46.03286956279389" lon="12.02578697606115"><ele>476.8</ele><time>2026-04-24T16:29:09Z</time></trkpt><trkpt lat="46.032894705049834" lon="12.02563883146495"><ele>475.20000000000005</ele><time>2026-04-24T16:29:10Z</time></trkpt><trkpt lat="46.03291771430614" lon="12.025491225363123"><ele>473.6</ele><time>2026-04-24T16:29:11Z</time></trkpt><trkpt lat="46.032940820764175" lon="12.025347842415878"><ele>472.0</ele><time>2026-04-24T16:29:12Z</time></trkpt><trkpt lat="46.03296199649782" lon="12.025209971319574"><ele>472.0</ele><time>2026-04-24T16:29:13Z</time></trkpt><trkpt lat="46.03297934423986" lon="12.025077108882801"><ele>472.00000000000006</ele><time>2026-04-24T16:29:14Z</time></trkpt><trkpt lat="46.03299742766837" lon="12.024947303486103"><ele>472.00000000000006</ele><time>2026-04-24T16:29:15Z</time></trkpt><trkpt lat="46.03301334663392" lon="12.024816929848164"><ele>472.0</ele><time>2026-04-24T16:29:16Z</time></trkpt><trkpt lat="46.033033193512814" lon="12.02469367554169"><ele>472.0</ele><time>2026-04-24T16:29:17Z</time></trkpt><trkpt lat="46.0330598698555" lon="12.024571305999409"><ele>469.6666666666667</ele><time>2026-04-24T16:29:18Z</time></trkpt><trkpt lat="46.03309534168186" lon="12.024456543188112"><ele>467.33333333333337</ele><time>2026-04-24T16:29:19Z</time></trkpt><trkpt lat="46.03312550039342" lon="12.02435306205841"><ele>465.0</ele><time>2026-04-24T16:29:20Z</time></trkpt><trkpt lat="46.03319380260425" lon="12.024211357413302"><ele>462.66666666666663</ele><time>2026-04-24T16:29:22Z</time></trkpt><trkpt lat="46.03325310073689" lon="12.024179568746057"><ele>460.3333333333333</ele><time>2026-04-24T16:29:23Z</time></trkpt><trkpt lat="46.033344298065316" lon="12.0241721821317"><ele>458.0</ele><time>2026-04-24T16:29:24Z</time></trkpt><trkpt lat="46.03344804041049" lon="12.024092807776137"><ele>456.3333333333333</ele><time>2026-04-24T16:29:25Z</time></trkpt><trkpt lat="46.03353982390409" lon="12.024044125826173"><ele>454.66666666666663</ele><time>2026-04-24T16:29:26Z</time></trkpt><trkpt lat="46.03362820433831" lon="12.023989278462802"><ele>453.0</ele><time>2026-04-24T16:29:27Z</time></trkpt><trkpt lat="46.03371402124691" lon="12.023963978157283"><ele>451.33333333333337</ele><time>2026-04-24T16:29:28Z</time></trkpt><trkpt lat="46.03377541706997" lon="12.023936269041567"><ele>449.6666666666667</ele><time>2026-04-24T16:29:29Z</time></trkpt><trkpt lat="46.033831785044974" lon="12.023895726719593"><ele>448.0</ele><time>2026-04-24T16:29:30Z</time></trkpt><trkpt lat="46.03395635312608" lon="12.023940242245548"><ele>448.00000000000006</ele><time>2026-04-24T16:29:32Z</time></trkpt><trkpt lat="46.034023055428946" lon="12.0240196088245"><ele>448.0</ele><time>2026-04-24T16:29:33Z</time></trkpt><trkpt lat="46.034086945547045" lon="12.024110524126204"><ele>448.0</ele><time>2026-04-24T16:29:34Z</time></trkpt><trkpt lat="46.034141068545836" lon="12.024213798519199"><ele>448.0</ele><time>2026-04-24T16:29:35Z</time></trkpt><trkpt lat="46.03420062722534" lon="12.024305822992911"><ele>448.00000000000006</ele><time>2026-04-24T16:29:36Z</time></trkpt><trkpt lat="46.03426129385673" lon="12.02440388374887"><ele>448.0</ele><time>2026-04-24T16:29:37Z</time></trkpt><trkpt lat="46.03431972094211" lon="12.024533841609527"><ele>448.4</ele><time>2026-04-24T16:29:38Z</time></trkpt><trkpt lat="46.034364529730105" lon="12.024652835824167"><ele>448.79999999999995</ele><time>2026-04-24T16:29:39Z</time></trkpt><trkpt lat="46.03441305177708" lon="12.02478730020796"><ele>449.2</ele><time>2026-04-24T16:29:40Z</time></trkpt><trkpt lat="46.0344563028798" lon="12.024946862101359"><ele>449.6</ele><time>2026-04-24T16:29:41Z</time></trkpt><trkpt lat="46.034486650508065" lon="12.025102542445959"><ele>450.0</ele><time>2026-04-24T16:29:42Z</time></trkpt><trkpt lat="46.034514801205276" lon="12.025285875707654"><ele>450.75</ele><time>2026-04-24T16:29:43Z</time></trkpt><trkpt lat="46.03453825152598" lon="12.025437660892528"><ele>451.5</ele><time>2026-04-24T16:29:44Z</time></trkpt><trkpt lat="46.03456632881647" lon="12.025597796697266"><ele>452.25</ele><time>2026-04-24T16:29:45Z</time></trkpt><trkpt lat="46.034608017309836" lon="12.02577254222939"><ele>453.0</ele><time>2026-04-24T16:29:46Z</time></trkpt><trkpt lat="46.03464945455775" lon="12.02592712683402"><ele>453.2</ele><time>2026-04-24T16:29:47Z</time></trkpt><trkpt lat="46.034694513439604" lon="12.026070185614106"><ele>453.4</ele><time>2026-04-24T16:29:48Z</time></trkpt><trkpt lat="46.03474258435454" lon="12.026238922538314"><ele>453.59999999999997</ele><time>2026-04-24T16:29:49Z</time></trkpt><trkpt lat="46.034774494862944" lon="12.0263882522716"><ele>453.79999999999995</ele><time>2026-04-24T16:29:50Z</time></trkpt><trkpt lat="46.034787278921" lon="12.026531263363104"><ele>454.0</ele><time>2026-04-24T16:29:51Z</time></trkpt><trkpt lat="46.03480263143912" lon="12.026666990679935"><ele>454.25</ele><time>2026-04-24T16:29:52Z</time></trkpt><trkpt lat="46.03483267682577" lon="12.026814287471828"><ele>454.5</ele><time>2026-04-24T16:29:53Z</time></trkpt><trkpt lat="46.03488319842921" lon="12.026979719853701"><ele>454.75</ele><time>2026-04-24T16:29:54Z</time></trkpt><trkpt lat="46.0349474307728" lon="12.0271080113845"><ele>455.0</ele><time>2026-04-24T16:29:54.999Z</time></trkpt><trkpt lat="46.03502460068707" lon="12.027243954337417"><ele>448.5</ele><time>2026-04-24T16:29:55.999Z</time></trkpt><trkpt lat="46.035114409195046" lon="12.027366225331539"><ele>442.0</ele><time>2026-04-24T16:29:56.999Z</time></trkpt><trkpt lat="46.035215029205986" lon="12.027517284248866"><ele>435.5</ele><time>2026-04-24T16:29:57.999Z</time></trkpt><trkpt lat="46.03530800916247" lon="12.027663159082985"><ele>429.0</ele><time>2026-04-24T16:29:58.999Z</time></trkpt><trkpt lat="46.03539447646113" lon="12.027781536128584"><ele>429.0</ele><time>2026-04-24T16:29:59.999Z</time></trkpt><trkpt lat="46.035479448360405" lon="12.027891957583096"><ele>429.0</ele><time>2026-04-24T16:30:00.999Z</time></trkpt><trkpt lat="46.035556513407585" lon="12.028009150352224"><ele>429.0</ele><time>2026-04-24T16:30:01.999Z</time></trkpt><trkpt lat="46.03563367336014" lon="12.02812587005795"><ele>429.0</ele><time>2026-04-24T16:30:02.999Z</time></trkpt><trkpt lat="46.03570605925437" lon="12.02822778631665"><ele>429.0</ele><time>2026-04-24T16:30:03.999Z</time></trkpt><trkpt lat="46.03577368200065" lon="12.028318934086439"><ele>426.5</ele><time>2026-04-24T16:30:04.999Z</time></trkpt><trkpt lat="46.035845688333744" lon="12.028388836832983"><ele>424.0</ele><time>2026-04-24T16:30:05.999Z</time></trkpt><trkpt lat="46.03592501960667" lon="12.028440941811395"><ele>421.5</ele><time>2026-04-24T16:30:06.999Z</time></trkpt><trkpt lat="46.03598969163118" lon="12.028461126921707"><ele>419.0</ele><time>2026-04-24T16:30:07.999Z</time></trkpt><trkpt lat="46.03606069195957" lon="12.028473208125927"><ele>416.5</ele><time>2026-04-24T16:30:08.999Z</time></trkpt><trkpt lat="46.03616053286393" lon="12.02845355774009"><ele>414.0</ele><time>2026-04-24T16:30:09.999Z</time></trkpt><trkpt lat="46.03628722881236" lon="12.028422803732283"><ele>414.0</ele><time>2026-04-24T16:30:10.999Z</time></trkpt><trkpt lat="46.036399252276965" lon="12.02839061130331"><ele>414.0</ele><time>2026-04-24T16:30:11.999Z</time></trkpt><trkpt lat="46.03652544665054" lon="12.02835108851615"><ele>414.0</ele><time>2026-04-24T16:30:12.999Z</time></trkpt><trkpt lat="46.03663544931491" lon="12.028318588071544"><ele>414.0</ele><time>2026-04-24T16:30:13.999Z</time></trkpt><trkpt lat="46.03674562726689" lon="12.028283719518484"><ele>410.6</ele><time>2026-04-24T16:30:14.999Z</time></trkpt><trkpt lat="46.03684876705869" lon="12.02825575967448"><ele>407.2</ele><time>2026-04-24T16:30:15.999Z</time></trkpt><trkpt lat="46.03694443695431" lon="12.02822050778177"><ele>403.8</ele><time>2026-04-24T16:30:16.999Z</time></trkpt><trkpt lat="46.037042050717986" lon="12.028176354492416"><ele>400.40000000000003</ele><time>2026-04-24T16:30:17.999Z</time></trkpt><trkpt lat="46.03711932465566" lon="12.02811638291982"><ele>397.0</ele><time>2026-04-24T16:30:18.999Z</time></trkpt><trkpt lat="46.037199522795945" lon="12.028044407943135"><ele>397.0</ele><time>2026-04-24T16:30:19.999Z</time></trkpt><trkpt lat="46.03727335640902" lon="12.027965503484378"><ele>397.0</ele><time>2026-04-24T16:30:20.999Z</time></trkpt><trkpt lat="46.03737016696887" lon="12.027867265345533"><ele>397.0</ele><time>2026-04-24T16:30:21.999Z</time></trkpt><trkpt lat="46.03743681353683" lon="12.027766007387216"><ele>397.0</ele><time>2026-04-24T16:30:22.999Z</time></trkpt><trkpt lat="46.037491389626986" lon="12.027653603200276"><ele>397.0</ele><time>2026-04-24T16:30:23.999Z</time></trkpt><trkpt lat="46.03755184147911" lon="12.027544053792212"><ele>394.6</ele><time>2026-04-24T16:30:24.999Z</time></trkpt><trkpt lat="46.037594263234745" lon="12.02739268081144"><ele>392.20000000000005</ele><time>2026-04-24T16:30:25.999Z</time></trkpt><trkpt lat="46.037611000519355" lon="12.027225270238164"><ele>389.8</ele><time>2026-04-24T16:30:26.999Z</time></trkpt><trkpt lat="46.03761384286044" lon="12.027074565639921"><ele>387.4</ele><time>2026-04-24T16:30:27.999Z</time></trkpt><trkpt lat="46.03760844757997" lon="12.026931733045078"><ele>385.0</ele><time>2026-04-24T16:30:28.999Z</time></trkpt><trkpt lat="46.03760437443921" lon="12.026811760417706"><ele>385.0</ele><time>2026-04-24T16:30:29.999Z</time></trkpt><trkpt lat="46.03760847498738" lon="12.026710306654259"><ele>385.0</ele><time>2026-04-24T16:30:30.999Z</time></trkpt><trkpt lat="46.03762314029228" lon="12.02661637757948"><ele>385.0</ele><time>2026-04-24T16:30:31.999Z</time></trkpt><trkpt lat="46.03765084015037" lon="12.026527437273515"><ele>385.0</ele><time>2026-04-24T16:30:32.999Z</time></trkpt><trkpt lat="46.03768833773033" lon="12.026448939781023"><ele>385.0</ele><time>2026-04-24T16:30:33.999Z</time></trkpt><trkpt lat="46.03775076411098" lon="12.026395915115469"><ele>385.0</ele><time>2026-04-24T16:30:34.999Z</time></trkpt><trkpt lat="46.03781485088016" lon="12.026378718076364"><ele>385.0</ele><time>2026-04-24T16:30:35.999Z</time></trkpt><trkpt lat="46.03789618807511" lon="12.02638961425654"><ele>385.0</ele><time>2026-04-24T16:30:36.999Z</time></trkpt><trkpt lat="46.037975812421536" lon="12.026436903928703"><ele>385.0</ele><time>2026-04-24T16:30:37.999Z</time></trkpt><trkpt lat="46.038044177633026" lon="12.026515359182824"><ele>385.0</ele><time>2026-04-24T16:30:38.999Z</time></trkpt><trkpt lat="46.038116018719364" lon="12.02663154016073"><ele>385.0</ele><time>2026-04-24T16:30:39.999Z</time></trkpt><trkpt lat="46.03820423427758" lon="12.026791153049693"><ele>385.0</ele><time>2026-04-24T16:30:40.999Z</time></trkpt><trkpt lat="46.038288355489755" lon="12.026936208876835"><ele>381.0</ele><time>2026-04-24T16:30:41.999Z</time></trkpt><trkpt lat="46.03838996172882" lon="12.02710214881653"><ele>377.0</ele><time>2026-04-24T16:30:42.999Z</time></trkpt><trkpt lat="46.03847627234453" lon="12.02724701676153"><ele>373.0</ele><time>2026-04-24T16:30:43.999Z</time></trkpt><trkpt lat="46.03856044552011" lon="12.027382376858686"><ele>369.0</ele><time>2026-04-24T16:30:44.999Z</time></trkpt><trkpt lat="46.03863645502652" lon="12.027509549404257"><ele>369.0</ele><time>2026-04-24T16:30:45.999Z</time></trkpt><trkpt lat="46.03870819495165" lon="12.027642918028963"><ele>369.0</ele><time>2026-04-24T16:30:46.999Z</time></trkpt><trkpt lat="46.03877453289016" lon="12.027765107706122"><ele>369.0</ele><time>2026-04-24T16:30:47.999Z</time></trkpt><trkpt lat="46.038836059818514" lon="12.027891737359793"><ele>369.0</ele><time>2026-04-24T16:30:48.999Z</time></trkpt><trkpt lat="46.03889842851142" lon="12.02800188388872"><ele>369.0</ele><time>2026-04-24T16:30:50Z</time></trkpt><trkpt lat="46.038964286184175" lon="12.028118248384768"><ele>369.0</ele><time>2026-04-24T16:30:51Z</time></trkpt><trkpt lat="46.03903069786194" lon="12.02822582767319"><ele>369.0</ele><time>2026-04-24T16:30:52Z</time></trkpt><trkpt lat="46.03910484008595" lon="12.028314654227241"><ele>369.0</ele><time>2026-04-24T16:30:53Z</time></trkpt><trkpt lat="46.03919764661472" lon="12.028403237981887"><ele>369.0</ele><time>2026-04-24T16:30:54Z</time></trkpt><trkpt lat="46.03929505515332" lon="12.028474193994251"><ele>369.0</ele><time>2026-04-24T16:30:55Z</time></trkpt><trkpt lat="46.03938856020396" lon="12.028518307459485"><ele>365.6</ele><time>2026-04-24T16:30:56Z</time></trkpt><trkpt lat="46.0394869577035" lon="12.02855196557485"><ele>362.2</ele><time>2026-04-24T16:30:57Z</time></trkpt><trkpt lat="46.03959295389059" lon="12.028554170245688"><ele>358.8</ele><time>2026-04-24T16:30:58Z</time></trkpt><trkpt lat="46.039693182023235" lon="12.028541794476519"><ele>355.40000000000003</ele><time>2026-04-24T16:30:59Z</time></trkpt><trkpt lat="46.03979634720543" lon="12.028508253980087"><ele>352.0</ele><time>2026-04-24T16:31:00Z</time></trkpt><trkpt lat="46.039922291544784" lon="12.028439472567706"><ele>350.5</ele><time>2026-04-24T16:31:01Z</time></trkpt><trkpt lat="46.040035308350376" lon="12.028358142252738"><ele>349.0</ele><time>2026-04-24T16:31:02Z</time></trkpt><trkpt lat="46.04013846988406" lon="12.02828532628718"><ele>347.5</ele><time>2026-04-24T16:31:03Z</time></trkpt><trkpt lat="46.04023611426059" lon="12.028215268065955"><ele>346.0</ele><time>2026-04-24T16:31:04Z</time></trkpt><trkpt lat="46.04032733528511" lon="12.028144002205233"><ele>345.8</ele><time>2026-04-24T16:31:05Z</time></trkpt><trkpt lat="46.040423512016716" lon="12.028075682625008"><ele>345.6</ele><time>2026-04-24T16:31:06Z</time></trkpt><trkpt lat="46.04051335812985" lon="12.02800503307888"><ele>345.4</ele><time>2026-04-24T16:31:07Z</time></trkpt><trkpt lat="46.04059878898947" lon="12.027935904635122"><ele>345.2</ele><time>2026-04-24T16:31:08Z</time></trkpt><trkpt lat="46.04068682577874" lon="12.027875156059213"><ele>345.0</ele><time>2026-04-24T16:31:09Z</time></trkpt><trkpt lat="46.04076993652188" lon="12.027815495928417"><ele>343.6666666666667</ele><time>2026-04-24T16:31:10Z</time></trkpt><trkpt lat="46.040847370169836" lon="12.027762843620343"><ele>342.3333333333333</ele><time>2026-04-24T16:31:11Z</time></trkpt><trkpt lat="46.04091415486374" lon="12.027713406436408"><ele>341.0</ele><time>2026-04-24T16:31:12Z</time></trkpt><trkpt lat="46.04097488166042" lon="12.027658012212049"><ele>339.66666666666663</ele><time>2026-04-24T16:31:13Z</time></trkpt><trkpt lat="46.04102586340988" lon="12.027581083777891"><ele>338.3333333333333</ele><time>2026-04-24T16:31:14Z</time></trkpt><trkpt lat="46.041059684576446" lon="12.02747852659164"><ele>337.0</ele><time>2026-04-24T16:31:15Z</time></trkpt><trkpt lat="46.04107801984153" lon="12.027354536146229"><ele>335.8</ele><time>2026-04-24T16:31:16Z</time></trkpt><trkpt lat="46.04107734425351" lon="12.027217176964912"><ele>334.6</ele><time>2026-04-24T16:31:17Z</time></trkpt><trkpt lat="46.04107703552348" lon="12.0270646669462"><ele>333.40000000000003</ele><time>2026-04-24T16:31:18Z</time></trkpt><trkpt lat="46.0410740468549" lon="12.026910524050844"><ele>332.20000000000005</ele><time>2026-04-24T16:31:19Z</time></trkpt><trkpt lat="46.041076299987864" lon="12.026772454531365"><ele>331.0</ele><time>2026-04-24T16:31:20Z</time></trkpt><trkpt lat="46.04107845105655" lon="12.02663522472055"><ele>328.2</ele><time>2026-04-24T16:31:21Z</time></trkpt><trkpt lat="46.041076655590444" lon="12.026494072739395"><ele>325.40000000000003</ele><time>2026-04-24T16:31:22Z</time></trkpt><trkpt lat="46.041072079147995" lon="12.026354045760547"><ele>322.6</ele><time>2026-04-24T16:31:23Z</time></trkpt><trkpt lat="46.04105386055212" lon="12.026221197049146"><ele>319.8</ele><time>2026-04-24T16:31:24Z</time></trkpt><trkpt lat="46.041041647605645" lon="12.026076248635151"><ele>317.0</ele><time>2026-04-24T16:31:25Z</time></trkpt><trkpt lat="46.041010592929425" lon="12.025954846869682"><ele>317.0</ele><time>2026-04-24T16:31:26Z</time></trkpt><trkpt lat="46.040964518740154" lon="12.025853590406753"><ele>317.0</ele><time>2026-04-24T16:31:27Z</time></trkpt><trkpt lat="46.04094007798377" lon="12.025750640129447"><ele>317.0</ele><time>2026-04-24T16:31:28Z</time></trkpt><trkpt lat="46.04093257373653" lon="12.025647280589602"><ele>317.0</ele><time>2026-04-24T16:31:29Z</time></trkpt><trkpt lat="46.040950728936174" lon="12.025540306146047"><ele>317.0</ele><time>2026-04-24T16:31:30Z</time></trkpt><trkpt lat="46.040992627228974" lon="12.025445674150438"><ele>317.0</ele><time>2026-04-24T16:31:31Z</time></trkpt><trkpt lat="46.04105205250354" lon="12.0253582538938"><ele>316.0</ele><time>2026-04-24T16:31:32Z</time></trkpt><trkpt lat="46.041131752245725" lon="12.025285021673739"><ele>315.0</ele><time>2026-04-24T16:31:33Z</time></trkpt><trkpt lat="46.04122049282351" lon="12.025193549803726"><ele>314.0</ele><time>2026-04-24T16:31:34Z</time></trkpt><trkpt lat="46.04132193378947" lon="12.025101838012368"><ele>313.0</ele><time>2026-04-24T16:31:35Z</time></trkpt><trkpt lat="46.0413979222438" lon="12.025020891302287"><ele>312.0</ele><time>2026-04-24T16:31:36Z</time></trkpt><trkpt lat="46.04147183810179" lon="12.024927825986607"><ele>312.0</ele><time>2026-04-24T16:31:37Z</time></trkpt><trkpt lat="46.04153717366185" lon="12.024826229004548"><ele>312.0</ele><time>2026-04-24T16:31:38Z</time></trkpt><trkpt lat="46.0416111328887" lon="12.024688466219363"><ele>312.0</ele><time>2026-04-24T16:31:39Z</time></trkpt><trkpt lat="46.041671361052124" lon="12.024568670576338"><ele>312.0</ele><time>2026-04-24T16:31:40Z</time></trkpt><trkpt lat="46.04173528670217" lon="12.024451502598126"><ele>312.0</ele><time>2026-04-24T16:31:41Z</time></trkpt><trkpt lat="46.04179594737924" lon="12.02434414502387"><ele>310.1666666666667</ele><time>2026-04-24T16:31:42Z</time></trkpt><trkpt lat="46.04185590255706" lon="12.02425654947456"><ele>308.3333333333333</ele><time>2026-04-24T16:31:43Z</time></trkpt><trkpt lat="46.04191113979144" lon="12.024176284769034"><ele>306.5</ele><time>2026-04-24T16:31:44Z</time></trkpt><trkpt lat="46.04197826098161" lon="12.024110667474813"><ele>304.66666666666663</ele><time>2026-04-24T16:31:45Z</time></trkpt><trkpt lat="46.04204290297205" lon="12.02406896006661"><ele>302.8333333333333</ele><time>2026-04-24T16:31:46Z</time></trkpt><trkpt lat="46.04211547298309" lon="12.024043654415927"><ele>301.0</ele><time>2026-04-24T16:31:47Z</time></trkpt><trkpt lat="46.04219035103175" lon="12.024043928867066"><ele>301.0</ele><time>2026-04-24T16:31:48Z</time></trkpt><trkpt lat="46.0422728107396" lon="12.024075602260268"><ele>301.0</ele><time>2026-04-24T16:31:49Z</time></trkpt><trkpt lat="46.042367269740446" lon="12.024133519306066"><ele>301.0</ele><time>2026-04-24T16:31:50Z</time></trkpt><trkpt lat="46.04244786719084" lon="12.02419625748869"><ele>301.0</ele><time>2026-04-24T16:31:51Z</time></trkpt><trkpt lat="46.04252045733674" lon="12.024256471317788"><ele>301.0</ele><time>2026-04-24T16:31:52Z</time></trkpt><trkpt lat="46.042604636390536" lon="12.024311284767297"><ele>299.40000000000003</ele><time>2026-04-24T16:31:52.999Z</time></trkpt><trkpt lat="46.04267560716707" lon="12.02438409479116"><ele>297.8</ele><time>2026-04-24T16:31:53.999Z</time></trkpt><trkpt lat="46.04274700018977" lon="12.024466101621538"><ele>296.20000000000005</ele><time>2026-04-24T16:31:54.999Z</time></trkpt><trkpt lat="46.042816883587165" lon="12.024563187674369"><ele>294.6</ele><time>2026-04-24T16:31:55.999Z</time></trkpt><trkpt lat="46.04286195869195" lon="12.024669461025983"><ele>293.0</ele><time>2026-04-24T16:31:56.999Z</time></trkpt><trkpt lat="46.04292246707562" lon="12.024781227049715"><ele>293.0</ele><time>2026-04-24T16:31:57.999Z</time></trkpt><trkpt lat="46.04296678215945" lon="12.024919067468474"><ele>293.0</ele><time>2026-04-24T16:31:58.999Z</time></trkpt><trkpt lat="46.04302690059692" lon="12.025038567846059"><ele>293.0</ele><time>2026-04-24T16:31:59.999Z</time></trkpt><trkpt lat="46.043081520891015" lon="12.025157789045336"><ele>293.0</ele><time>2026-04-24T16:32:00.999Z</time></trkpt><trkpt lat="46.04314352561941" lon="12.025261332670164"><ele>293.0</ele><time>2026-04-24T16:32:01.999Z</time></trkpt><trkpt lat="46.04320576561822" lon="12.025355821475626"><ele>295.1666666666667</ele><time>2026-04-24T16:32:02.999Z</time></trkpt><trkpt lat="46.04325324456406" lon="12.02545352483316"><ele>297.33333333333337</ele><time>2026-04-24T16:32:03.999Z</time></trkpt><trkpt lat="46.04330410650414" lon="12.025542242277268"><ele>299.5</ele><time>2026-04-24T16:32:04.999Z</time></trkpt><trkpt lat="46.04336930509624" lon="12.025612374937621"><ele>301.6666666666667</ele><time>2026-04-24T16:32:05.999Z</time></trkpt><trkpt lat="46.04344094525598" lon="12.025631918604352"><ele>303.8333333333333</ele><time>2026-04-24T16:32:06.999Z</time></trkpt><trkpt lat="46.04354368278514" lon="12.025626018953137"><ele>306.0</ele><time>2026-04-24T16:32:07.999Z</time></trkpt><trkpt lat="46.04365776696176" lon="12.025574672774207"><ele>299.8</ele><time>2026-04-24T16:32:08.999Z</time></trkpt><trkpt lat="46.04377711965766" lon="12.025499363170143"><ele>293.6</ele><time>2026-04-24T16:32:09.999Z</time></trkpt><trkpt lat="46.0438820727967" lon="12.025437709265683"><ele>287.4</ele><time>2026-04-24T16:32:10.999Z</time></trkpt><trkpt lat="46.04397380760783" lon="12.025380365125638"><ele>281.2</ele><time>2026-04-24T16:32:11.999Z</time></trkpt><trkpt lat="46.04404911401578" lon="12.025303167823195"><ele>275.0</ele><time>2026-04-24T16:32:12.999Z</time></trkpt><trkpt lat="46.04411748171334" lon="12.025240752331337"><ele>273.4</ele><time>2026-04-24T16:32:13.999Z</time></trkpt><trkpt lat="46.044189679766255" lon="12.02518460776603"><ele>271.8</ele><time>2026-04-24T16:32:14.999Z</time></trkpt><trkpt lat="46.044273642334716" lon="12.025155418395613"><ele>270.2</ele><time>2026-04-24T16:32:15.999Z</time></trkpt><trkpt lat="46.044387823220184" lon="12.025155353003424"><ele>268.6</ele><time>2026-04-24T16:32:16.999Z</time></trkpt><trkpt lat="46.044505749192155" lon="12.02516110900535"><ele>267.0</ele><time>2026-04-24T16:32:17.999Z</time></trkpt><trkpt lat="46.044605109411016" lon="12.025157469620645"><ele>267.0</ele><time>2026-04-24T16:32:18.999Z</time></trkpt><trkpt lat="46.044698749815076" lon="12.025162740230751"><ele>267.0</ele><time>2026-04-24T16:32:19.999Z</time></trkpt><trkpt lat="46.04478661039343" lon="12.025168123522578"><ele>267.0</ele><time>2026-04-24T16:32:20.999Z</time></trkpt><trkpt lat="46.04486956204459" lon="12.02517203726475"><ele>267.0</ele><time>2026-04-24T16:32:21.999Z</time></trkpt><trkpt lat="46.0449518576144" lon="12.025175013688646"><ele>267.0</ele><time>2026-04-24T16:32:22.999Z</time></trkpt><trkpt lat="46.04502522512554" lon="12.025175194763397"><ele>267.0</ele><time>2026-04-24T16:32:23.999Z</time></trkpt><trkpt lat="46.04512624791846" lon="12.025182980016583"><ele>266.5</ele><time>2026-04-24T16:32:25.999Z</time></trkpt><trkpt lat="46.04519325059317" lon="12.025188609644486"><ele>266.0</ele><time>2026-04-24T16:32:28.999Z</time></trkpt><trkpt lat="46.04526944971343" lon="12.0251619931572"><ele>265.5</ele><time>2026-04-24T16:32:32.999Z</time></trkpt><trkpt lat="46.045297933828" lon="12.025014379802712"><ele>265.0</ele><time>2026-04-24T16:32:33.999Z</time></trkpt><trkpt lat="46.04529995890102" lon="12.0248862286587"><ele>264.5</ele><time>2026-04-24T16:32:34.999Z</time></trkpt><trkpt lat="46.045303010009114" lon="12.024758727170946"><ele>264.0</ele><time>2026-04-24T16:32:35.999Z</time></trkpt><trkpt lat="46.04530370097226" lon="12.024617207720196"><ele>264.0</ele><time>2026-04-24T16:32:36.999Z</time></trkpt><trkpt lat="46.04531561989319" lon="12.024455124729819"><ele>264.0</ele><time>2026-04-24T16:32:37.999Z</time></trkpt><trkpt lat="46.04533070771542" lon="12.024278870952271"><ele>264.0</ele><time>2026-04-24T16:32:38.999Z</time></trkpt><trkpt lat="46.0453297585641" lon="12.024101879441812"><ele>264.0</ele><time>2026-04-24T16:32:39.999Z</time></trkpt><trkpt lat="46.04531799982011" lon="12.023909330486811"><ele>263.6666666666667</ele><time>2026-04-24T16:32:40.999Z</time></trkpt><trkpt lat="46.04529076709025" lon="12.023690770300483"><ele>263.33333333333337</ele><time>2026-04-24T16:32:41.999Z</time></trkpt><trkpt lat="46.045260723896966" lon="12.023494387798971"><ele>263.0</ele><time>2026-04-24T16:32:42.999Z</time></trkpt><trkpt lat="46.04522250729497" lon="12.023272627200575"><ele>262.75</ele><time>2026-04-24T16:32:43.999Z</time></trkpt><trkpt lat="46.04517571785846" lon="12.023086329575507"><ele>262.5</ele><time>2026-04-24T16:32:44.999Z</time></trkpt><trkpt lat="46.04514805519963" lon="12.022918889911011"><ele>262.25</ele><time>2026-04-24T16:32:45.999Z</time></trkpt><trkpt lat="46.045125777689364" lon="12.022756333065931"><ele>262.0</ele><time>2026-04-24T16:32:46.999Z</time></trkpt><trkpt lat="46.04510408553033" lon="12.022562042251192"><ele>261.75</ele><time>2026-04-24T16:32:47.999Z</time></trkpt><trkpt lat="46.04507235494171" lon="12.022340718331575"><ele>261.5</ele><time>2026-04-24T16:32:48.999Z</time></trkpt><trkpt lat="46.0450312313857" lon="12.022126234973237"><ele>261.25</ele><time>2026-04-24T16:32:49.999Z</time></trkpt><trkpt lat="46.04499851990508" lon="12.021950268929896"><ele>261.0</ele><time>2026-04-24T16:32:50.999Z</time></trkpt><trkpt lat="46.044967872544355" lon="12.021787670437972"><ele>261.5</ele><time>2026-04-24T16:32:51.999Z</time></trkpt><trkpt lat="46.04493991212552" lon="12.021640947374758"><ele>262.0</ele><time>2026-04-24T16:32:52.999Z</time></trkpt><trkpt lat="46.0448921188462" lon="12.02148568555243"><ele>262.5</ele><time>2026-04-24T16:32:53.999Z</time></trkpt><trkpt lat="46.04483811617419" lon="12.021311044159681"><ele>263.0</ele><time>2026-04-24T16:32:54.999Z</time></trkpt><trkpt lat="46.04478597427014" lon="12.021151600315246"><ele>263.0</ele><time>2026-04-24T16:32:56Z</time></trkpt><trkpt lat="46.044743877946935" lon="12.021000281217278"><ele>263.0</ele><time>2026-04-24T16:32:57Z</time></trkpt><trkpt lat="46.04470635161266" lon="12.020827534873487"><ele>263.0</ele><time>2026-04-24T16:32:58Z</time></trkpt><trkpt lat="46.04467069966497" lon="12.020673099604782"><ele>263.0</ele><time>2026-04-24T16:32:59Z</time></trkpt><trkpt lat="46.0446390422985" lon="12.020532936811053"><ele>262.6</ele><time>2026-04-24T16:33:00Z</time></trkpt><trkpt lat="46.04462928725854" lon="12.020403475699291"><ele>262.20000000000005</ele><time>2026-04-24T16:33:01Z</time></trkpt><trkpt lat="46.04461375850398" lon="12.020284833906738"><ele>261.8</ele><time>2026-04-24T16:33:02Z</time></trkpt><trkpt lat="46.04459348808387" lon="12.020104159426484"><ele>261.40000000000003</ele><time>2026-04-24T16:33:03Z</time></trkpt><trkpt lat="46.04458335217175" lon="12.019924119530282"><ele>261.0</ele><time>2026-04-24T16:33:04Z</time></trkpt><trkpt lat="46.04457876652952" lon="12.019725562481604"><ele>260.5</ele><time>2026-04-24T16:33:05Z</time></trkpt><trkpt lat="46.04457810431266" lon="12.019530647499831"><ele>260.0</ele><time>2026-04-24T16:33:06Z</time></trkpt><trkpt lat="46.044572262342896" lon="12.01936667351004"><ele>259.5</ele><time>2026-04-24T16:33:07Z</time></trkpt><trkpt lat="46.044570111077576" lon="12.01920571531728"><ele>259.0</ele><time>2026-04-24T16:33:08Z</time></trkpt><trkpt lat="46.04456780122061" lon="12.019046622418665"><ele>258.75</ele><time>2026-04-24T16:33:09Z</time></trkpt><trkpt lat="46.04457406299753" lon="12.01887921172812"><ele>258.5</ele><time>2026-04-24T16:33:10Z</time></trkpt><trkpt lat="46.04457547886108" lon="12.018719727596421"><ele>258.25</ele><time>2026-04-24T16:33:11Z</time></trkpt><trkpt lat="46.0445752030766" lon="12.01854553115048"><ele>258.0</ele><time>2026-04-24T16:33:12Z</time></trkpt><trkpt lat="46.04457366881988" lon="12.018377497312077"><ele>257.75</ele><time>2026-04-24T16:33:13Z</time></trkpt><trkpt lat="46.04457621850137" lon="12.018198908600171"><ele>257.5</ele><time>2026-04-24T16:33:14Z</time></trkpt><trkpt lat="46.04457803531698" lon="12.01802874021945"><ele>257.25</ele><time>2026-04-24T16:33:15Z</time></trkpt><trkpt lat="46.04457975527542" lon="12.017858571587817"><ele>257.0</ele><time>2026-04-24T16:33:16Z</time></trkpt><trkpt lat="46.044576316209046" lon="12.017685414082116"><ele>257.0</ele><time>2026-04-24T16:33:17Z</time></trkpt><trkpt lat="46.044570294596326" lon="12.017497285682353"><ele>257.0</ele><time>2026-04-24T16:33:18Z</time></trkpt><trkpt lat="46.044570137387424" lon="12.017315220420395"><ele>257.0</ele><time>2026-04-24T16:33:19Z</time></trkpt><trkpt lat="46.04456616997145" lon="12.01713363736996"><ele>257.0</ele><time>2026-04-24T16:33:20Z</time></trkpt><trkpt lat="46.04455901999862" lon="12.016964923802863"><ele>257.0</ele><time>2026-04-24T16:33:21Z</time></trkpt><trkpt lat="46.04454566682821" lon="12.016786340351748"><ele>257.0</ele><time>2026-04-24T16:33:22Z</time></trkpt><trkpt lat="46.044517941027514" lon="12.016599421172666"><ele>257.0</ele><time>2026-04-24T16:33:23Z</time></trkpt><trkpt lat="46.04448020562199" lon="12.016414633998886"><ele>257.0</ele><time>2026-04-24T16:33:24Z</time></trkpt><trkpt lat="46.04443404442529" lon="12.016228937708233"><ele>257.0</ele><time>2026-04-24T16:33:25Z</time></trkpt><trkpt lat="46.04437301565687" lon="12.016022322981733"><ele>257.0</ele><time>2026-04-24T16:33:26Z</time></trkpt><trkpt lat="46.04431184105676" lon="12.015811654418666"><ele>257.0</ele><time>2026-04-24T16:33:27Z</time></trkpt><trkpt lat="46.04425010539574" lon="12.01559103660495"><ele>256.6666666666667</ele><time>2026-04-24T16:33:28Z</time></trkpt><trkpt lat="46.04418997399025" lon="12.015372825501636"><ele>256.3333333333333</ele><time>2026-04-24T16:33:29Z</time></trkpt><trkpt lat="46.04412334099231" lon="12.015131214072182"><ele>256.0</ele><time>2026-04-24T16:33:30Z</time></trkpt><trkpt lat="46.04405170300208" lon="12.014904573674139"><ele>256.0</ele><time>2026-04-24T16:33:31Z</time></trkpt><trkpt lat="46.04399399779933" lon="12.014699142440397"><ele>256.0</ele><time>2026-04-24T16:33:32Z</time></trkpt><trkpt lat="46.04392561562121" lon="12.014467019385178"><ele>256.0</ele><time>2026-04-24T16:33:33Z</time></trkpt><trkpt lat="46.04386158107545" lon="12.014241299005329"><ele>255.0</ele><time>2026-04-24T16:33:34Z</time></trkpt><trkpt lat="46.043802370445846" lon="12.014030991094387"><ele>254.0</ele><time>2026-04-24T16:33:35Z</time></trkpt><trkpt lat="46.04375272011606" lon="12.013834684680367"><ele>253.0</ele><time>2026-04-24T16:33:36Z</time></trkpt><trkpt lat="46.0436970501593" lon="12.013648954830678"><ele>252.0</ele><time>2026-04-24T16:33:37Z</time></trkpt><trkpt lat="46.043645539433015" lon="12.013472198600105"><ele>251.5</ele><time>2026-04-24T16:33:38Z</time></trkpt><trkpt lat="46.04359644716244" lon="12.013298470251021"><ele>251.0</ele><time>2026-04-24T16:33:39Z</time></trkpt><trkpt lat="46.04355288594349" lon="12.01313418030465"><ele>250.5</ele><time>2026-04-24T16:33:40Z</time></trkpt><trkpt lat="46.043500203138635" lon="12.012964330409169"><ele>250.0</ele><time>2026-04-24T16:33:41Z</time></trkpt><trkpt lat="46.043442742862155" lon="12.012762789394865"><ele>250.0</ele><time>2026-04-24T16:33:42Z</time></trkpt><trkpt lat="46.04339082019599" lon="12.012574641968266"><ele>250.0</ele><time>2026-04-24T16:33:43Z</time></trkpt><trkpt lat="46.043340108458885" lon="12.012405008744897"><ele>250.0</ele><time>2026-04-24T16:33:44Z</time></trkpt><trkpt lat="46.04328833563792" lon="12.012229967561897"><ele>250.0</ele><time>2026-04-24T16:33:45Z</time></trkpt><trkpt lat="46.04324387779394" lon="12.012046662219285"><ele>250.0</ele><time>2026-04-24T16:33:46Z</time></trkpt><trkpt lat="46.04320095077153" lon="12.011898955133582"><ele>250.0</ele><time>2026-04-24T16:33:47Z</time></trkpt><trkpt lat="46.043157305835784" lon="12.01175882514736"><ele>250.0</ele><time>2026-04-24T16:33:48Z</time></trkpt><trkpt lat="46.04311634897891" lon="12.011625036859405"><ele>250.0</ele><time>2026-04-24T16:33:49Z</time></trkpt><trkpt lat="46.043079430815354" lon="12.011495622646478"><ele>250.0</ele><time>2026-04-24T16:33:50Z</time></trkpt><trkpt lat="46.04304555739096" lon="12.011379652415323"><ele>249.99999999999997</ele><time>2026-04-24T16:33:51Z</time></trkpt><trkpt lat="46.0430214074785" lon="12.011276000648934"><ele>250.0</ele><time>2026-04-24T16:33:52Z</time></trkpt><trkpt lat="46.04301016215522" lon="12.011162863373722"><ele>250.0</ele><time>2026-04-24T16:33:53Z</time></trkpt><trkpt lat="46.04301097733092" lon="12.011040593405756"><ele>250.0</ele><time>2026-04-24T16:33:54Z</time></trkpt><trkpt lat="46.04300664315947" lon="12.01090890571425"><ele>249.99999999999997</ele><time>2026-04-24T16:33:55Z</time></trkpt><trkpt lat="46.04297489351898" lon="12.010808902491249"><ele>250.0</ele><time>2026-04-24T16:33:56Z</time></trkpt><trkpt lat="46.04291199672343" lon="12.010719003784914"><ele>249.75</ele><time>2026-04-24T16:33:57Z</time></trkpt><trkpt lat="46.04283547483026" lon="12.010613350336746"><ele>249.5</ele><time>2026-04-24T16:33:58Z</time></trkpt><trkpt lat="46.042776012478576" lon="12.010454052820627"><ele>249.25</ele><time>2026-04-24T16:33:59Z</time></trkpt><trkpt lat="46.04270982061854" lon="12.010259922219266"><ele>249.0</ele><time>2026-04-24T16:34:00Z</time></trkpt><trkpt lat="46.04263800650018" lon="12.010072187287433"><ele>249.25</ele><time>2026-04-24T16:34:01Z</time></trkpt><trkpt lat="46.04257149911317" lon="12.009899253404683"><ele>249.5</ele><time>2026-04-24T16:34:02Z</time></trkpt><trkpt lat="46.042500569387734" lon="12.00973835225113"><ele>249.75</ele><time>2026-04-24T16:34:03Z</time></trkpt><trkpt lat="46.04240684259304" lon="12.009521217371747"><ele>250.0</ele><time>2026-04-24T16:34:04Z</time></trkpt><trkpt lat="46.042332173350324" lon="12.00935528528411"><ele>249.66666666666666</ele><time>2026-04-24T16:34:05Z</time></trkpt><trkpt lat="46.04225025576204" lon="12.0091588492703"><ele>249.33333333333331</ele><time>2026-04-24T16:34:06Z</time></trkpt><trkpt lat="46.04215409690247" lon="12.008926620377165"><ele>249.0</ele><time>2026-04-24T16:34:07Z</time></trkpt><trkpt lat="46.042049267940534" lon="12.008680957407204"><ele>249.0</ele><time>2026-04-24T16:34:07.999Z</time></trkpt><trkpt lat="46.04196562865544" lon="12.00848135290005"><ele>249.0</ele><time>2026-04-24T16:34:08.999Z</time></trkpt><trkpt lat="46.04186007721259" lon="12.00824067591736"><ele>249.0</ele><time>2026-04-24T16:34:09.999Z</time></trkpt><trkpt lat="46.041759760329896" lon="12.008011976831433"><ele>248.66666666666669</ele><time>2026-04-24T16:34:10.999Z</time></trkpt><trkpt lat="46.04164875742827" lon="12.007764468586535"><ele>248.33333333333334</ele><time>2026-04-24T16:34:11.999Z</time></trkpt><trkpt lat="46.04154861821073" lon="12.007533117369494"><ele>248.0</ele><time>2026-04-24T16:34:12.999Z</time></trkpt><trkpt lat="46.04145309288246" lon="12.007321312944098"><ele>247.66666666666669</ele><time>2026-04-24T16:34:13.999Z</time></trkpt><trkpt lat="46.041358774664054" lon="12.007098575949376"><ele>247.33333333333331</ele><time>2026-04-24T16:34:14.999Z</time></trkpt><trkpt lat="46.04126546120055" lon="12.006886901149977"><ele>247.0</ele><time>2026-04-24T16:34:15.999Z</time></trkpt><trkpt lat="46.041166564971896" lon="12.006662210995694"><ele>246.66666666666666</ele><time>2026-04-24T16:34:16.999Z</time></trkpt><trkpt lat="46.04106880966832" lon="12.006435659090355"><ele>246.33333333333331</ele><time>2026-04-24T16:34:17.999Z</time></trkpt><trkpt lat="46.04097094903006" lon="12.006206908978763"><ele>246.0</ele><time>2026-04-24T16:34:18.999Z</time></trkpt><trkpt lat="46.04087385224568" lon="12.00597897897977"><ele>246.0</ele><time>2026-04-24T16:34:19.999Z</time></trkpt><trkpt lat="46.040775204768124" lon="12.00575283939703"><ele>246.0</ele><time>2026-04-24T16:34:20.999Z</time></trkpt><trkpt lat="46.040683458471065" lon="12.005538793037005"><ele>246.0</ele><time>2026-04-24T16:34:21.999Z</time></trkpt><trkpt lat="46.04057749331584" lon="12.005297962397426"><ele>246.0</ele><time>2026-04-24T16:34:22.999Z</time></trkpt><trkpt lat="46.040476226039424" lon="12.005068572503754"><ele>246.0</ele><time>2026-04-24T16:34:23.999Z</time></trkpt><trkpt lat="46.040384810598724" lon="12.004856674400504"><ele>246.0</ele><time>2026-04-24T16:34:24.999Z</time></trkpt><trkpt lat="46.04028674139034" lon="12.004630249096241"><ele>245.66666666666669</ele><time>2026-04-24T16:34:25.999Z</time></trkpt><trkpt lat="46.04019524003983" lon="12.004425789010858"><ele>245.33333333333334</ele><time>2026-04-24T16:34:26.999Z</time></trkpt><trkpt lat="46.04009988443754" lon="12.00421102792028"><ele>245.0</ele><time>2026-04-24T16:34:27.999Z</time></trkpt><trkpt lat="46.04001499152772" lon="12.004015216232732"><ele>244.33333333333334</ele><time>2026-04-24T16:34:28.999Z</time></trkpt><trkpt lat="46.039926955204095" lon="12.003825575313975"><ele>243.66666666666669</ele><time>2026-04-24T16:34:29.999Z</time></trkpt><trkpt lat="46.03983652503028" lon="12.003628927341033"><ele>243.0</ele><time>2026-04-24T16:34:30.999Z</time></trkpt><trkpt lat="46.03974688130452" lon="12.003433531042395"><ele>243.0</ele><time>2026-04-24T16:34:31.999Z</time></trkpt><trkpt lat="46.03963471116963" lon="12.003235835820572"><ele>243.0</ele><time>2026-04-24T16:34:32.999Z</time></trkpt><trkpt lat="46.039523643533784" lon="12.003053464910314"><ele>243.0</ele><time>2026-04-24T16:34:33.999Z</time></trkpt><trkpt lat="46.0394109918736" lon="12.00286686248474"><ele>243.0</ele><time>2026-04-24T16:34:34.999Z</time></trkpt><trkpt lat="46.03929741552233" lon="12.002673574783238"><ele>243.0</ele><time>2026-04-24T16:34:35.999Z</time></trkpt><trkpt lat="46.03919254470552" lon="12.00250183725511"><ele>243.0</ele><time>2026-04-24T16:34:36.999Z</time></trkpt><trkpt lat="46.03908674250871" lon="12.002329325635845"><ele>243.0</ele><time>2026-04-24T16:34:37.999Z</time></trkpt><trkpt lat="46.03898073464428" lon="12.00214659923114"><ele>243.0</ele><time>2026-04-24T16:34:38.999Z</time></trkpt><trkpt lat="46.0388814997603" lon="12.00197888863875"><ele>243.0</ele><time>2026-04-24T16:34:39.999Z</time></trkpt><trkpt lat="46.038781119390656" lon="12.001810814894693"><ele>243.25</ele><time>2026-04-24T16:34:40.999Z</time></trkpt><trkpt lat="46.03869635683543" lon="12.001651843428565"><ele>243.5</ele><time>2026-04-24T16:34:41.999Z</time></trkpt><trkpt lat="46.03861347919963" lon="12.001482735410136"><ele>243.75</ele><time>2026-04-24T16:34:42.999Z</time></trkpt><trkpt lat="46.03852759834068" lon="12.001283707086538"><ele>244.0</ele><time>2026-04-24T16:34:43.999Z</time></trkpt><trkpt lat="46.03843988870286" lon="12.001070887474718"><ele>244.0</ele><time>2026-04-24T16:34:44.999Z</time></trkpt><trkpt lat="46.038363830030626" lon="12.0008591848217"><ele>244.0</ele><time>2026-04-24T16:34:45.999Z</time></trkpt><trkpt lat="46.03829306659042" lon="12.000648049061528"><ele>244.0</ele><time>2026-04-24T16:34:46.999Z</time></trkpt><trkpt lat="46.038221991655284" lon="12.000429563808922"><ele>243.0</ele><time>2026-04-24T16:34:47.999Z</time></trkpt><trkpt lat="46.03815775331712" lon="12.000197444651421"><ele>242.0</ele><time>2026-04-24T16:34:48.999Z</time></trkpt><trkpt lat="46.038102276312166" lon="11.999977386545053"><ele>241.0</ele><time>2026-04-24T16:34:49.999Z</time></trkpt><trkpt lat="46.03805279101208" lon="11.999742989478701"><ele>241.0</ele><time>2026-04-24T16:34:50.999Z</time></trkpt><trkpt lat="46.0380095379611" lon="11.999515091673317"><ele>241.0</ele><time>2026-04-24T16:34:51.999Z</time></trkpt><trkpt lat="46.03797172877743" lon="11.999272348371141"><ele>241.0</ele><time>2026-04-24T16:34:52.999Z</time></trkpt><trkpt lat="46.03793768111948" lon="11.99900251407066"><ele>241.33333333333331</ele><time>2026-04-24T16:34:53.999Z</time></trkpt><trkpt lat="46.037903242136565" lon="11.998739581528413"><ele>241.66666666666669</ele><time>2026-04-24T16:34:54.999Z</time></trkpt><trkpt lat="46.03787288016461" lon="11.998503542886269"><ele>242.0</ele><time>2026-04-24T16:34:55.999Z</time></trkpt><trkpt lat="46.0378452301615" lon="11.998249544224983"><ele>241.66666666666669</ele><time>2026-04-24T16:34:56.999Z</time></trkpt><trkpt lat="46.03782095737562" lon="11.997989953745263"><ele>241.33333333333331</ele><time>2026-04-24T16:34:57.999Z</time></trkpt><trkpt lat="46.03780169491727" lon="11.997733556529086"><ele>241.0</ele><time>2026-04-24T16:34:58.999Z</time></trkpt><trkpt lat="46.037786112149355" lon="11.997476033470045"><ele>241.0</ele><time>2026-04-24T16:34:59.999Z</time></trkpt><trkpt lat="46.03777627802634" lon="11.99722144124855"><ele>241.0</ele><time>2026-04-24T16:35:00.999Z</time></trkpt><trkpt lat="46.037769326925016" lon="11.996967349900912"><ele>241.0</ele><time>2026-04-24T16:35:02Z</time></trkpt><trkpt lat="46.03776587730329" lon="11.996717831645297"><ele>241.33333333333331</ele><time>2026-04-24T16:35:03Z</time></trkpt><trkpt lat="46.03776799074214" lon="11.996454579330752"><ele>241.66666666666669</ele><time>2026-04-24T16:35:04Z</time></trkpt><trkpt lat="46.03777639232961" lon="11.996215336964461"><ele>242.0</ele><time>2026-04-24T16:35:05Z</time></trkpt><trkpt lat="46.037786434938894" lon="11.995973482396181"><ele>242.33333333333334</ele><time>2026-04-24T16:35:06Z</time></trkpt><trkpt lat="46.03779829907218" lon="11.995721229662731"><ele>242.66666666666669</ele><time>2026-04-24T16:35:07Z</time></trkpt><trkpt lat="46.037814264279156" lon="11.995468563756614"><ele>243.0</ele><time>2026-04-24T16:35:08Z</time></trkpt><trkpt lat="46.037835104766955" lon="11.995207896166688"><ele>242.66666666666669</ele><time>2026-04-24T16:35:09Z</time></trkpt><trkpt lat="46.03786023493338" lon="11.994934244025313"><ele>242.33333333333334</ele><time>2026-04-24T16:35:10Z</time></trkpt><trkpt lat="46.03788770499065" lon="11.994654613005242"><ele>242.0</ele><time>2026-04-24T16:35:11Z</time></trkpt><trkpt lat="46.03791723050158" lon="11.99440212640081"><ele>241.33333333333334</ele><time>2026-04-24T16:35:12Z</time></trkpt><trkpt lat="46.03794433945853" lon="11.994130162444998"><ele>240.66666666666669</ele><time>2026-04-24T16:35:13Z</time></trkpt><trkpt lat="46.037967471473166" lon="11.993849354075275"><ele>240.0</ele><time>2026-04-24T16:35:14Z</time></trkpt><trkpt lat="46.0379889766059" lon="11.99359518274732"><ele>240.0</ele><time>2026-04-24T16:35:15Z</time></trkpt><trkpt lat="46.038013353250044" lon="11.993333663409937"><ele>240.0</ele><time>2026-04-24T16:35:16Z</time></trkpt><trkpt lat="46.03803581586422" lon="11.993077083731627"><ele>240.0</ele><time>2026-04-24T16:35:17Z</time></trkpt><trkpt lat="46.03806161350313" lon="11.992822009944167"><ele>240.0</ele><time>2026-04-24T16:35:18Z</time></trkpt><trkpt lat="46.038084447449904" lon="11.992590885011662"><ele>240.0</ele><time>2026-04-24T16:35:19Z</time></trkpt><trkpt lat="46.03810969581136" lon="11.992367937325632"><ele>240.0</ele><time>2026-04-24T16:35:20Z</time></trkpt><trkpt lat="46.038133505552324" lon="11.992131237247118"><ele>240.0</ele><time>2026-04-24T16:35:21Z</time></trkpt><trkpt lat="46.03815240415817" lon="11.9919023737395"><ele>240.0</ele><time>2026-04-24T16:35:22Z</time></trkpt><trkpt lat="46.03816963022895" lon="11.99169597234164"><ele>240.0</ele><time>2026-04-24T16:35:23Z</time></trkpt><trkpt lat="46.038183586378736" lon="11.991516090033882"><ele>240.0</ele><time>2026-04-24T16:35:24Z</time></trkpt><trkpt lat="46.03819599764528" lon="11.991378219160188"><ele>240.0</ele><time>2026-04-24T16:35:25Z</time></trkpt><trkpt lat="46.038215892208605" lon="11.99126512660514"><ele>240.0</ele><time>2026-04-24T16:35:26Z</time></trkpt><trkpt lat="46.03823215837483" lon="11.991148774031071"><ele>240.0</ele><time>2026-04-24T16:35:27Z</time></trkpt><trkpt lat="46.038241828007436" lon="11.991050696795687"><ele>240.0</ele><time>2026-04-24T16:35:28Z</time></trkpt><trkpt lat="46.0382546220906" lon="11.990949960996641"><ele>240.0</ele><time>2026-04-24T16:35:29Z</time></trkpt><trkpt lat="46.03826326597681" lon="11.990828762771441"><ele>240.0</ele><time>2026-04-24T16:35:30Z</time></trkpt><trkpt lat="46.038281438198894" lon="11.990696470450855"><ele>240.0</ele><time>2026-04-24T16:35:31Z</time></trkpt><trkpt lat="46.038298664693606" lon="11.990564626174303"><ele>240.0</ele><time>2026-04-24T16:35:32Z</time></trkpt><trkpt lat="46.03831614128924" lon="11.990416390592474"><ele>240.0</ele><time>2026-04-24T16:35:33Z</time></trkpt><trkpt lat="46.0383181649349" lon="11.990280534580071"><ele>240.0</ele><time>2026-04-24T16:35:34Z</time></trkpt><trkpt lat="46.03831805684528" lon="11.990148681461433"><ele>240.0</ele><time>2026-04-24T16:35:35Z</time></trkpt><trkpt lat="46.03830963949224" lon="11.990028257927"><ele>239.83333333333334</ele><time>2026-04-24T16:35:36Z</time></trkpt><trkpt lat="46.038301271034626" lon="11.989932816161508"><ele>239.66666666666669</ele><time>2026-04-24T16:35:37Z</time></trkpt><trkpt lat="46.038295423458344" lon="11.989839040761808"><ele>239.5</ele><time>2026-04-24T16:35:38Z</time></trkpt><trkpt lat="46.03828356729302" lon="11.989681926469684"><ele>239.33333333333334</ele><time>2026-04-24T16:35:40Z</time></trkpt><trkpt lat="46.03827025392828" lon="11.989586598400347"><ele>239.16666666666669</ele><time>2026-04-24T16:35:42Z</time></trkpt><trkpt lat="46.03825249575248" lon="11.98947232770373"><ele>239.0</ele><time>2026-04-24T16:35:45Z</time></trkpt><trkpt lat="46.0382359458654" lon="11.989374489576063"><ele>239.00000000000003</ele><time>2026-04-24T16:35:48Z</time></trkpt><trkpt lat="46.03821356714227" lon="11.98927688472715"><ele>239.0</ele><time>2026-04-24T16:35:52Z</time></trkpt><trkpt lat="46.03820067312681" lon="11.989180072120911"><ele>239.0</ele><time>2026-04-24T16:35:55Z</time></trkpt><trkpt lat="46.03818590754398" lon="11.989054829339702"><ele>239.0</ele><time>2026-04-24T16:35:58Z</time></trkpt><trkpt lat="46.038170166277496" lon="11.988936804259337"><ele>239.00000000000003</ele><time>2026-04-24T16:36:01Z</time></trkpt><trkpt lat="46.038158720068004" lon="11.988832182319367"><ele>239.0</ele><time>2026-04-24T16:36:04Z</time></trkpt><trkpt lat="46.03814671898381" lon="11.988728760696286"><ele>238.5714285714286</ele><time>2026-04-24T16:36:07Z</time></trkpt><trkpt lat="46.03813245072271" lon="11.988635007119205"><ele>238.14285714285717</ele><time>2026-04-24T16:36:11Z</time></trkpt><trkpt lat="46.03812362480794" lon="11.988539674677622"><ele>237.71428571428572</ele><time>2026-04-24T16:36:14Z</time></trkpt><trkpt lat="46.03810257336429" lon="11.988438921533437"><ele>237.2857142857143</ele><time>2026-04-24T16:36:19Z</time></trkpt><trkpt lat="46.03809315715003" lon="11.988333869851086"><ele>236.8571428571429</ele><time>2026-04-24T16:36:23Z</time></trkpt><trkpt lat="46.03808041736854" lon="11.988237929450268"><ele>236.42857142857142</ele><time>2026-04-24T16:36:28.999Z</time></trkpt><trkpt lat="46.03805659173661" lon="11.988103312248157"><ele>236.0</ele><time>2026-04-24T16:36:31.999Z</time></trkpt><trkpt lat="46.038046301586974" lon="11.988000866472484"><ele>235.60000000000002</ele><time>2026-04-24T16:36:33.999Z</time></trkpt><trkpt lat="46.038041226053636" lon="11.98787454708947"><ele>235.20000000000002</ele><time>2026-04-24T16:36:35.999Z</time></trkpt><trkpt lat="46.03804429745466" lon="11.987709731623887"><ele>234.79999999999998</ele><time>2026-04-24T16:36:37.999Z</time></trkpt><trkpt lat="46.03804215465778" lon="11.987618419494481"><ele>234.39999999999998</ele><time>2026-04-24T16:36:38.999Z</time></trkpt><trkpt lat="46.03804914228222" lon="11.987444396378425"><ele>234.0</ele><time>2026-04-24T16:36:40.999Z</time></trkpt><trkpt lat="46.038051627134394" lon="11.987353447498611"><ele>233.83333333333334</ele><time>2026-04-24T16:36:41.999Z</time></trkpt><trkpt lat="46.03805532047478" lon="11.987244933514697"><ele>233.66666666666669</ele><time>2026-04-24T16:36:42.999Z</time></trkpt><trkpt lat="46.038059197710396" lon="11.987116770879322"><ele>233.5</ele><time>2026-04-24T16:36:43.999Z</time></trkpt><trkpt lat="46.038058203009314" lon="11.98698247174368"><ele>233.33333333333334</ele><time>2026-04-24T16:36:44.999Z</time></trkpt><trkpt lat="46.03805864352366" lon="11.986878895024859"><ele>233.16666666666669</ele><time>2026-04-24T16:36:45.999Z</time></trkpt><trkpt lat="46.03806031976832" lon="11.986783014891552"><ele>233.0</ele><time>2026-04-24T16:36:46.999Z</time></trkpt><trkpt lat="46.038065529754746" lon="11.986673698157398"><ele>233.00000000000003</ele><time>2026-04-24T16:36:47.999Z</time></trkpt><trkpt lat="46.038065127726455" lon="11.98657231595278"><ele>233.0</ele><time>2026-04-24T16:36:48.999Z</time></trkpt><trkpt lat="46.03806425535351" lon="11.986461758941875"><ele>233.0</ele><time>2026-04-24T16:36:49.999Z</time></trkpt><trkpt lat="46.03806774603346" lon="11.98635382717124"><ele>233.0</ele><time>2026-04-24T16:36:50.999Z</time></trkpt><trkpt lat="46.03807350481239" lon="11.986254929410324"><ele>233.00000000000003</ele><time>2026-04-24T16:36:51.999Z</time></trkpt><trkpt lat="46.038074178540654" lon="11.986156840504588"><ele>233.0</ele><time>2026-04-24T16:36:52.999Z</time></trkpt><trkpt lat="46.03807579310891" lon="11.985983690112112"><ele>233.00000000000003</ele><time>2026-04-24T16:36:54.999Z</time></trkpt><trkpt lat="46.038088322504265" lon="11.985848199851782"><ele>233.0</ele><time>2026-04-24T16:36:56.999Z</time></trkpt><trkpt lat="46.03812536914019" lon="11.985747172459437"><ele>233.0</ele><time>2026-04-24T16:37:06.999Z</time></trkpt><trkpt lat="46.03814561706246" lon="11.985642308036725"><ele>233.0</ele><time>2026-04-24T16:37:11Z</time></trkpt><trkpt lat="46.03817851203666" lon="11.985538324225097"><ele>233.00000000000003</ele><time>2026-04-24T16:37:15Z</time></trkpt><trkpt lat="46.03821029731195" lon="11.9854527700507"><ele>233.0</ele><time>2026-04-24T16:37:19Z</time></trkpt><trkpt lat="46.03825612248008" lon="11.985357546932082"><ele>233.33333333333334</ele><time>2026-04-24T16:37:23Z</time></trkpt><trkpt lat="46.038286683136285" lon="11.98527510023199"><ele>233.66666666666669</ele><time>2026-04-24T16:37:25Z</time></trkpt><trkpt lat="46.03832649402781" lon="11.98516932140485"><ele>234.0</ele><time>2026-04-24T16:37:27Z</time></trkpt><trkpt lat="46.03837809717325" lon="11.985045006769203"><ele>234.33333333333331</ele><time>2026-04-24T16:37:30Z</time></trkpt><trkpt lat="46.038419038248946" lon="11.98494010313331"><ele>234.66666666666666</ele><time>2026-04-24T16:37:32Z</time></trkpt><trkpt lat="46.03844567538494" lon="11.984854325547994"><ele>235.0</ele><time>2026-04-24T16:37:34Z</time></trkpt><trkpt lat="46.03849459551732" lon="11.984751453880724"><ele>235.83333333333331</ele><time>2026-04-24T16:37:37Z</time></trkpt><trkpt lat="46.03854936152433" lon="11.98461358205903"><ele>236.66666666666666</ele><time>2026-04-24T16:37:39Z</time></trkpt><trkpt lat="46.03858011289158" lon="11.984533993386442"><ele>237.5</ele><time>2026-04-24T16:37:40Z</time></trkpt><trkpt lat="46.038630034424465" lon="11.984402673585965"><ele>238.33333333333331</ele><time>2026-04-24T16:37:42Z</time></trkpt><trkpt lat="46.03865764207169" lon="11.984320978620584"><ele>239.16666666666666</ele><time>2026-04-24T16:37:43Z</time></trkpt><trkpt lat="46.03868814704628" lon="11.984239777165888"><ele>240.0</ele><time>2026-04-24T16:37:44Z</time></trkpt><trkpt lat="46.03871762802956" lon="11.984155177487347"><ele>241.0</ele><time>2026-04-24T16:37:45Z</time></trkpt><trkpt lat="46.03874101043122" lon="11.984066352873173"><ele>242.0</ele><time>2026-04-24T16:37:46Z</time></trkpt><trkpt lat="46.03876755651344" lon="11.983896465894492"><ele>243.0</ele><time>2026-04-24T16:37:48Z</time></trkpt><trkpt lat="46.03878405854803" lon="11.983738112654516"><ele>244.0</ele><time>2026-04-24T16:37:50Z</time></trkpt><trkpt lat="46.03879160213522" lon="11.98362446113149"><ele>245.0</ele><time>2026-04-24T16:37:52Z</time></trkpt><trkpt lat="46.03880425912605" lon="11.98352323259666"><ele>246.0</ele><time>2026-04-24T16:37:56Z</time></trkpt><trkpt lat="46.03882879647031" lon="11.983391701060855"><ele>246.0</ele><time>2026-04-24T16:38:01Z</time></trkpt><trkpt lat="46.03887396609941" lon="11.983262860101616"><ele>246.0</ele><time>2026-04-24T16:38:03Z</time></trkpt><trkpt lat="46.0389244979393" lon="11.983148980470533"><ele>246.0</ele><time>2026-04-24T16:38:05Z</time></trkpt><trkpt lat="46.03894778402034" lon="11.983037172941398"><ele>246.0</ele><time>2026-04-24T16:38:07Z</time></trkpt><trkpt lat="46.03893948275125" lon="11.982932892094851"><ele>246.0</ele><time>2026-04-24T16:38:11Z</time></trkpt><trkpt lat="46.03893595996609" lon="11.982827504458237"><ele>246.0</ele><time>2026-04-24T16:38:15Z</time></trkpt><trkpt lat="46.03887897115637" lon="11.982747407821781"><ele>246.00000000000003</ele><time>2026-04-24T16:38:22Z</time></trkpt><trkpt lat="46.03881540850813" lon="11.982704263962477"><ele>246.0</ele><time>2026-04-24T16:38:26.999Z</time></trkpt><trkpt lat="46.03875367356971" lon="11.982664497251465"><ele>246.00000000000003</ele><time>2026-04-24T16:38:32.999Z</time></trkpt><trkpt lat="46.03869423431155" lon="11.98262526620991"><ele>246.00000000000003</ele><time>2026-04-24T16:38:39.999Z</time></trkpt><trkpt lat="46.03862976678393" lon="11.982607951024153"><ele>246.0</ele><time>2026-04-24T16:38:44.999Z</time></trkpt><trkpt lat="46.03862443355846" lon="11.982507006613197"><ele>246.00000000000003</ele><time>2026-04-24T16:38:45.999Z</time></trkpt><trkpt lat="46.03858014214284" lon="11.982426701298305"><ele>246.00000000000003</ele><time>2026-04-24T16:38:48.999Z</time></trkpt><trkpt lat="46.03853524761586" lon="11.982356179350605"><ele>246.0</ele><time>2026-04-24T16:39:04.999Z</time></trkpt><trkpt lat="46.038497815042874" lon="11.982279007349494"><ele>246.0</ele><time>2026-04-24T16:39:08.999Z</time></trkpt><trkpt lat="46.03845337736565" lon="11.982207059516114"><ele>246.0</ele><time>2026-04-24T16:39:25Z</time></trkpt><trkpt lat="46.038392354830414" lon="11.982121995985015"><ele>246.0</ele><time>2026-04-24T16:39:28Z</time></trkpt><trkpt lat="46.038343814801586" lon="11.982028280584945"><ele>246.0</ele><time>2026-04-24T16:39:30Z</time></trkpt><trkpt lat="46.038284706938505" lon="11.981914600603206"><ele>246.0</ele><time>2026-04-24T16:39:32Z</time></trkpt><trkpt lat="46.03822264723987" lon="11.981787158435012"><ele>246.20000000000002</ele><time>2026-04-24T16:39:34Z</time></trkpt><trkpt lat="46.03816388083851" lon="11.981656459461156"><ele>246.40000000000003</ele><time>2026-04-24T16:39:36Z</time></trkpt><trkpt lat="46.038113557582584" lon="11.981536815006992"><ele>246.6</ele><time>2026-04-24T16:39:38Z</time></trkpt><trkpt lat="46.03805759967936" lon="11.981399642411377"><ele>246.8</ele><time>2026-04-24T16:39:40Z</time></trkpt><trkpt lat="46.03799768684421" lon="11.98126105514365"><ele>247.0</ele><time>2026-04-24T16:39:42Z</time></trkpt><trkpt lat="46.037964924389584" lon="11.981175926095078"><ele>247.0</ele><time>2026-04-24T16:39:43Z</time></trkpt><trkpt lat="46.037929208152065" lon="11.981093063676903"><ele>247.0</ele><time>2026-04-24T16:39:44Z</time></trkpt><trkpt lat="46.037868142451764" lon="11.980939565392774"><ele>247.0</ele><time>2026-04-24T16:39:46Z</time></trkpt><trkpt lat="46.037821536731094" lon="11.980804574276961"><ele>247.0</ele><time>2026-04-24T16:39:48Z</time></trkpt><trkpt lat="46.03776130985739" lon="11.980656854998754"><ele>247.0</ele><time>2026-04-24T16:39:50Z</time></trkpt><trkpt lat="46.037696658316015" lon="11.980505429896226"><ele>247.0</ele><time>2026-04-24T16:39:52Z</time></trkpt><trkpt lat="46.037634184880794" lon="11.98035635963272"><ele>247.0</ele><time>2026-04-24T16:39:54Z</time></trkpt><trkpt lat="46.0375732033399" lon="11.980211173585813"><ele>247.0</ele><time>2026-04-24T16:39:56Z</time></trkpt><trkpt lat="46.03752994710769" lon="11.980098402368393"><ele>247.0</ele><time>2026-04-24T16:39:58Z</time></trkpt><trkpt lat="46.03751125857333" lon="11.97999487801169"><ele>247.0</ele><time>2026-04-24T16:40:26Z</time></trkpt><trkpt lat="46.037464950908294" lon="11.979883025311254"><ele>248.33333333333331</ele><time>2026-04-24T16:40:28Z</time></trkpt><trkpt lat="46.03742638973866" lon="11.979784746688084"><ele>249.66666666666666</ele><time>2026-04-24T16:40:30Z</time></trkpt><trkpt lat="46.0373888336895" lon="11.979680007012401"><ele>251.0</ele><time>2026-04-24T16:40:31.999Z</time></trkpt><trkpt lat="46.037349936012475" lon="11.979564911726708"><ele>252.33333333333331</ele><time>2026-04-24T16:40:33.999Z</time></trkpt><trkpt lat="46.037304018025715" lon="11.979453541429015"><ele>253.66666666666666</ele><time>2026-04-24T16:40:35.999Z</time></trkpt><trkpt lat="46.037252858087854" lon="11.979326202550164"><ele>255.0</ele><time>2026-04-24T16:40:37.999Z</time></trkpt><trkpt lat="46.037201923044755" lon="11.97919519648262"><ele>256.0</ele><time>2026-04-24T16:40:39.999Z</time></trkpt><trkpt lat="46.03713982873697" lon="11.979052181901828"><ele>257.0</ele><time>2026-04-24T16:40:41.999Z</time></trkpt><trkpt lat="46.037075517801924" lon="11.978918522729392"><ele>258.0</ele><time>2026-04-24T16:40:43.999Z</time></trkpt><trkpt lat="46.037042589602315" lon="11.978838973535629"><ele>259.0</ele><time>2026-04-24T16:40:44.999Z</time></trkpt><trkpt lat="46.03700653954111" lon="11.978761097269262"><ele>260.0</ele><time>2026-04-24T16:40:45.999Z</time></trkpt><trkpt lat="46.03697235195222" lon="11.978679801703677"><ele>261.0</ele><time>2026-04-24T16:40:46.999Z</time></trkpt><trkpt lat="46.03689613275006" lon="11.978497045929522"><ele>261.0</ele><time>2026-04-24T16:40:48.999Z</time></trkpt><trkpt lat="46.036851384345965" lon="11.978387148748949"><ele>261.0</ele><time>2026-04-24T16:40:49.999Z</time></trkpt><trkpt lat="46.03681517481447" lon="11.978299037387048"><ele>261.0</ele><time>2026-04-24T16:40:50.999Z</time></trkpt><trkpt lat="46.03677902128459" lon="11.978216973751442"><ele>261.0</ele><time>2026-04-24T16:40:51.999Z</time></trkpt><trkpt lat="46.03674349238216" lon="11.978127643514147"><ele>261.0</ele><time>2026-04-24T16:40:52.999Z</time></trkpt><trkpt lat="46.03670436768643" lon="11.978033574901389"><ele>261.0</ele><time>2026-04-24T16:40:53.999Z</time></trkpt><trkpt lat="46.036669044256655" lon="11.977947731339384"><ele>261.0</ele><time>2026-04-24T16:40:54.999Z</time></trkpt><trkpt lat="46.0366373855997" lon="11.977865456073017"><ele>260.6</ele><time>2026-04-24T16:40:55.999Z</time></trkpt><trkpt lat="46.03658244897683" lon="11.977725166971686"><ele>260.20000000000005</ele><time>2026-04-24T16:40:57.999Z</time></trkpt><trkpt lat="46.03653175116882" lon="11.977612306950842"><ele>259.79999999999995</ele><time>2026-04-24T16:40:59.999Z</time></trkpt><trkpt lat="46.03648785202187" lon="11.97749339982431"><ele>259.4</ele><time>2026-04-24T16:41:01.999Z</time></trkpt><trkpt lat="46.036439637053114" lon="11.977360186973003"><ele>259.0</ele><time>2026-04-24T16:41:03.999Z</time></trkpt><trkpt lat="46.03637729229762" lon="11.97720378457857"><ele>259.0</ele><time>2026-04-24T16:41:05.999Z</time></trkpt><trkpt lat="46.03634163091727" lon="11.977121699412447"><ele>259.0</ele><time>2026-04-24T16:41:06.999Z</time></trkpt><trkpt lat="46.03628749836697" lon="11.976986983279499"><ele>259.0</ele><time>2026-04-24T16:41:08.999Z</time></trkpt><trkpt lat="46.03623414261536" lon="11.976848817294856"><ele>259.0</ele><time>2026-04-24T16:41:10.999Z</time></trkpt><trkpt lat="46.03619536836289" lon="11.976768082152685"><ele>259.0</ele><time>2026-04-24T16:41:12.999Z</time></trkpt><trkpt lat="46.03615864590114" lon="11.976677003494231"><ele>259.0</ele><time>2026-04-24T16:41:15.999Z</time></trkpt><trkpt lat="46.03612629672833" lon="11.976596792882939"><ele>258.66666666666663</ele><time>2026-04-24T16:41:25Z</time></trkpt><trkpt lat="46.036093951463656" lon="11.976492791430218"><ele>258.3333333333333</ele><time>2026-04-24T16:42:56.999Z</time></trkpt><trkpt lat="46.03605059703762" lon="11.976375433952834"><ele>258.0</ele><time>2026-04-24T16:42:59.999Z</time></trkpt><trkpt lat="46.036004545470455" lon="11.976275507618425"><ele>257.6666666666667</ele><time>2026-04-24T16:43:01.999Z</time></trkpt><trkpt lat="46.03594498738896" lon="11.976134589625575"><ele>257.33333333333337</ele><time>2026-04-24T16:43:03.999Z</time></trkpt><trkpt lat="46.03591085680308" lon="11.976053746002115"><ele>257.0</ele><time>2026-04-24T16:43:04.999Z</time></trkpt><trkpt lat="46.035872550232526" lon="11.975959254276875"><ele>257.8</ele><time>2026-04-24T16:43:05.999Z</time></trkpt><trkpt lat="46.035812618905986" lon="11.975815308497753"><ele>258.6</ele><time>2026-04-24T16:43:07.999Z</time></trkpt><trkpt lat="46.035754383994565" lon="11.975665138152964"><ele>259.40000000000003</ele><time>2026-04-24T16:43:09.999Z</time></trkpt><trkpt lat="46.035717644419286" lon="11.975573233045491"><ele>260.2</ele><time>2026-04-24T16:43:10.999Z</time></trkpt><trkpt lat="46.03568043816479" lon="11.975479144714162"><ele>261.0</ele><time>2026-04-24T16:43:11.999Z</time></trkpt><trkpt lat="46.035643203477534" lon="11.975388846320994"><ele>261.2</ele><time>2026-04-24T16:43:12.999Z</time></trkpt><trkpt lat="46.03559935119854" lon="11.97528182289397"><ele>261.40000000000003</ele><time>2026-04-24T16:43:13.999Z</time></trkpt><trkpt lat="46.035550230980796" lon="11.975161993558757"><ele>261.6</ele><time>2026-04-24T16:43:14.999Z</time></trkpt><trkpt lat="46.03549499573804" lon="11.975021346248782"><ele>261.8</ele><time>2026-04-24T16:43:15.999Z</time></trkpt><trkpt lat="46.035446431127454" lon="11.974904125857044"><ele>262.0</ele><time>2026-04-24T16:43:16.999Z</time></trkpt><trkpt lat="46.03540556187751" lon="11.974807933549883"><ele>262.0</ele><time>2026-04-24T16:43:17.999Z</time></trkpt><trkpt lat="46.03536294151678" lon="11.97470873581352"><ele>262.0</ele><time>2026-04-24T16:43:18.999Z</time></trkpt><trkpt lat="46.03532064686276" lon="11.97460065098152"><ele>262.0</ele><time>2026-04-24T16:43:19.999Z</time></trkpt><trkpt lat="46.03527469436109" lon="11.974490780589612"><ele>262.0</ele><time>2026-04-24T16:43:20.999Z</time></trkpt><trkpt lat="46.0352232113905" lon="11.974370304077354"><ele>262.0</ele><time>2026-04-24T16:43:21.999Z</time></trkpt><trkpt lat="46.035176418502836" lon="11.974256984804487"><ele>262.0</ele><time>2026-04-24T16:43:22.999Z</time></trkpt><trkpt lat="46.035123387626946" lon="11.974136360638166"><ele>262.75</ele><time>2026-04-24T16:43:23.999Z</time></trkpt><trkpt lat="46.03507152241165" lon="11.974006340627643"><ele>263.5</ele><time>2026-04-24T16:43:24.999Z</time></trkpt><trkpt lat="46.03501037329934" lon="11.97385958087178"><ele>264.25</ele><time>2026-04-24T16:43:26Z</time></trkpt><trkpt lat="46.03495201446139" lon="11.973711569414007"><ele>265.0</ele><time>2026-04-24T16:43:27Z</time></trkpt><trkpt lat="46.03488955480751" lon="11.973566570302317"><ele>264.75</ele><time>2026-04-24T16:43:28Z</time></trkpt><trkpt lat="46.034823100067996" lon="11.973403276842413"><ele>264.5</ele><time>2026-04-24T16:43:29Z</time></trkpt><trkpt lat="46.034749797331294" lon="11.973214484256285"><ele>264.25</ele><time>2026-04-24T16:43:30Z</time></trkpt><trkpt lat="46.0346849962677" lon="11.97305258595874"><ele>264.0</ele><time>2026-04-24T16:43:31Z</time></trkpt><trkpt lat="46.03462400361721" lon="11.972910686631211"><ele>264.0</ele><time>2026-04-24T16:43:32Z</time></trkpt><trkpt lat="46.034567716791486" lon="11.972774448852995"><ele>264.0</ele><time>2026-04-24T16:43:33Z</time></trkpt><trkpt lat="46.034516946600476" lon="11.972644076132712"><ele>264.0</ele><time>2026-04-24T16:43:34Z</time></trkpt><trkpt lat="46.034471947431015" lon="11.97252439265747"><ele>264.0</ele><time>2026-04-24T16:43:35Z</time></trkpt><trkpt lat="46.034430914340206" lon="11.972414547426405"><ele>264.0</ele><time>2026-04-24T16:43:36Z</time></trkpt><trkpt lat="46.034392589387444" lon="11.972317209566468"><ele>264.1666666666667</ele><time>2026-04-24T16:43:37Z</time></trkpt><trkpt lat="46.034355676917805" lon="11.972226136682067"><ele>264.3333333333333</ele><time>2026-04-24T16:43:38Z</time></trkpt><trkpt lat="46.03431840946747" lon="11.97214206378949"><ele>264.5</ele><time>2026-04-24T16:43:39Z</time></trkpt><trkpt lat="46.034279927831754" lon="11.972051181296367"><ele>264.66666666666663</ele><time>2026-04-24T16:43:40Z</time></trkpt><trkpt lat="46.034231950796226" lon="11.971914391361809"><ele>264.8333333333333</ele><time>2026-04-24T16:43:42Z</time></trkpt><trkpt lat="46.034206914260565" lon="11.971815859751432"><ele>265.0</ele><time>2026-04-24T16:43:45Z</time></trkpt><trkpt lat="46.034130738947255" lon="11.971664538584857"><ele>264.4</ele><time>2026-04-24T16:46:30Z</time></trkpt><trkpt lat="46.03409103187533" lon="11.971558265584386"><ele>263.8</ele><time>2026-04-24T16:46:31Z</time></trkpt><trkpt lat="46.03404154100631" lon="11.971478697924727"><ele>263.2</ele><time>2026-04-24T16:46:32Z</time></trkpt><trkpt lat="46.0340149189592" lon="11.971313597577716"><ele>262.6</ele><time>2026-04-24T16:46:33Z</time></trkpt><trkpt lat="46.03395178359418" lon="11.971147137658148"><ele>262.0</ele><time>2026-04-24T16:46:34Z</time></trkpt><trkpt lat="46.03388900970091" lon="11.970993812893699"><ele>262.25</ele><time>2026-04-24T16:46:35Z</time></trkpt><trkpt lat="46.03384762802641" lon="11.97082379574572"><ele>262.5</ele><time>2026-04-24T16:46:36Z</time></trkpt><trkpt lat="46.03379466301783" lon="11.970677751396781"><ele>262.75</ele><time>2026-04-24T16:46:37Z</time></trkpt><trkpt lat="46.03373310906754" lon="11.970511406220409"><ele>263.0</ele><time>2026-04-24T16:46:38Z</time></trkpt><trkpt lat="46.03367163877125" lon="11.97035845795134"><ele>263.0</ele><time>2026-04-24T16:46:39Z</time></trkpt><trkpt lat="46.033624876976134" lon="11.970167810368647"><ele>263.0</ele><time>2026-04-24T16:46:40Z</time></trkpt><trkpt lat="46.03358064072289" lon="11.970015156360741"><ele>263.0</ele><time>2026-04-24T16:46:41Z</time></trkpt><trkpt lat="46.03354862371024" lon="11.96980989309526"><ele>263.0</ele><time>2026-04-24T16:46:42Z</time></trkpt><trkpt lat="46.03352783657106" lon="11.969605966979158"><ele>263.6666666666667</ele><time>2026-04-24T16:46:43Z</time></trkpt><trkpt lat="46.033511749530234" lon="11.969387167020198"><ele>264.3333333333333</ele><time>2026-04-24T16:46:44Z</time></trkpt><trkpt lat="46.03351191538794" lon="11.969151797770273"><ele>265.0</ele><time>2026-04-24T16:46:45Z</time></trkpt><trkpt lat="46.03351538197976" lon="11.968902559638051"><ele>265.0</ele><time>2026-04-24T16:46:46Z</time></trkpt><trkpt lat="46.03351337263994" lon="11.968634699162175"><ele>265.0</ele><time>2026-04-24T16:46:47Z</time></trkpt><trkpt lat="46.033519586425236" lon="11.968360729511845"><ele>265.0</ele><time>2026-04-24T16:46:48Z</time></trkpt><trkpt lat="46.03352685588786" lon="11.96812464788141"><ele>265.3333333333333</ele><time>2026-04-24T16:46:49Z</time></trkpt><trkpt lat="46.03352710917161" lon="11.967894268613895"><ele>265.6666666666667</ele><time>2026-04-24T16:46:50Z</time></trkpt><trkpt lat="46.03353358926458" lon="11.96765577842991"><ele>266.0</ele><time>2026-04-24T16:46:51Z</time></trkpt><trkpt lat="46.03352837689772" lon="11.967415801672319"><ele>267.6666666666667</ele><time>2026-04-24T16:46:52Z</time></trkpt><trkpt lat="46.03352757235092" lon="11.967204212844884"><ele>269.3333333333333</ele><time>2026-04-24T16:46:53Z</time></trkpt><trkpt lat="46.03351547761277" lon="11.967001073575576"><ele>271.0</ele><time>2026-04-24T16:46:54Z</time></trkpt><trkpt lat="46.03351083981783" lon="11.966763128734883"><ele>272.3333333333333</ele><time>2026-04-24T16:46:55Z</time></trkpt><trkpt lat="46.03347763576798" lon="11.966535659711466"><ele>273.6666666666667</ele><time>2026-04-24T16:46:56Z</time></trkpt><trkpt lat="46.033432625501504" lon="11.966290805146214"><ele>275.0</ele><time>2026-04-24T16:46:57Z</time></trkpt><trkpt lat="46.03336722986602" lon="11.96604072660998"><ele>274.33333333333337</ele><time>2026-04-24T16:46:58Z</time></trkpt><trkpt lat="46.03329387524252" lon="11.965793713712138"><ele>273.6666666666667</ele><time>2026-04-24T16:46:59Z</time></trkpt><trkpt lat="46.033224279112055" lon="11.965568837072023"><ele>273.0</ele><time>2026-04-24T16:46:59.999Z</time></trkpt><trkpt lat="46.03314717606353" lon="11.965314905342874"><ele>273.0</ele><time>2026-04-24T16:47:00.999Z</time></trkpt><trkpt lat="46.03307030832625" lon="11.965074980924292"><ele>273.0</ele><time>2026-04-24T16:47:01.999Z</time></trkpt><trkpt lat="46.032993425593226" lon="11.964853551321847"><ele>273.0</ele><time>2026-04-24T16:47:02.999Z</time></trkpt><trkpt lat="46.03292672466355" lon="11.964655688715204"><ele>273.6666666666667</ele><time>2026-04-24T16:47:03.999Z</time></trkpt><trkpt lat="46.03285396606828" lon="11.964466744685648"><ele>274.33333333333337</ele><time>2026-04-24T16:47:04.999Z</time></trkpt><trkpt lat="46.032766424022284" lon="11.964282235580619"><ele>275.0</ele><time>2026-04-24T16:47:05.999Z</time></trkpt><trkpt lat="46.03265773137908" lon="11.964094610704372"><ele>276.6666666666667</ele><time>2026-04-24T16:47:06.999Z</time></trkpt><trkpt lat="46.032549872639194" lon="11.96390919025028"><ele>278.3333333333333</ele><time>2026-04-24T16:47:07.999Z</time></trkpt><trkpt lat="46.03243042839059" lon="11.963710148111153"><ele>280.0</ele><time>2026-04-24T16:47:08.999Z</time></trkpt><trkpt lat="46.032325146734216" lon="11.963536238176014"><ele>281.3333333333333</ele><time>2026-04-24T16:47:09.999Z</time></trkpt><trkpt lat="46.032224077856824" lon="11.963366370323655"><ele>282.6666666666667</ele><time>2026-04-24T16:47:10.999Z</time></trkpt><trkpt lat="46.03212199260479" lon="11.963189467482982"><ele>284.0</ele><time>2026-04-24T16:47:11.999Z</time></trkpt><trkpt lat="46.032032201212665" lon="11.963038009189356"><ele>284.5</ele><time>2026-04-24T16:47:12.999Z</time></trkpt><trkpt lat="46.03193416298219" lon="11.96287126569914"><ele>285.0</ele><time>2026-04-24T16:47:13.999Z</time></trkpt><trkpt lat="46.03184554750677" lon="11.962709222231878"><ele>285.5</ele><time>2026-04-24T16:47:14.999Z</time></trkpt><trkpt lat="46.03176509531723" lon="11.962533344514258"><ele>286.0</ele><time>2026-04-24T16:47:15.999Z</time></trkpt><trkpt lat="46.03170046610753" lon="11.962341941620846"><ele>286.0</ele><time>2026-04-24T16:47:16.999Z</time></trkpt><trkpt lat="46.031644894076855" lon="11.962136540508851"><ele>286.0</ele><time>2026-04-24T16:47:17.999Z</time></trkpt><trkpt lat="46.031607430963135" lon="11.961925489005273"><ele>286.0</ele><time>2026-04-24T16:47:18.999Z</time></trkpt><trkpt lat="46.031578752540874" lon="11.961710900876373"><ele>285.75</ele><time>2026-04-24T16:47:19.999Z</time></trkpt><trkpt lat="46.031555025515324" lon="11.96150211727122"><ele>285.5</ele><time>2026-04-24T16:47:20.999Z</time></trkpt><trkpt lat="46.03153685461109" lon="11.961316023724327"><ele>285.25</ele><time>2026-04-24T16:47:21.999Z</time></trkpt><trkpt lat="46.031521217374504" lon="11.96112648984943"><ele>285.0</ele><time>2026-04-24T16:47:22.999Z</time></trkpt><trkpt lat="46.031505014354785" lon="11.960948819083804"><ele>285.4</ele><time>2026-04-24T16:47:23.999Z</time></trkpt><trkpt lat="46.031487020469704" lon="11.96076545755502"><ele>285.8</ele><time>2026-04-24T16:47:24.999Z</time></trkpt><trkpt lat="46.031472139314644" lon="11.960605139432193"><ele>286.2</ele><time>2026-04-24T16:47:25.999Z</time></trkpt><trkpt lat="46.031459097314595" lon="11.960459602274835"><ele>286.6</ele><time>2026-04-24T16:47:26.999Z</time></trkpt><trkpt lat="46.031450174842426" lon="11.960333380249708"><ele>287.0</ele><time>2026-04-24T16:47:27.999Z</time></trkpt><trkpt lat="46.03144614562942" lon="11.960197610718549"><ele>287.25</ele><time>2026-04-24T16:47:28.999Z</time></trkpt><trkpt lat="46.031452104125854" lon="11.960031005642193"><ele>287.5</ele><time>2026-04-24T16:47:29.999Z</time></trkpt><trkpt lat="46.031431911540636" lon="11.959866454833387"><ele>287.75</ele><time>2026-04-24T16:47:30.999Z</time></trkpt><trkpt lat="46.03139241863784" lon="11.959671587303788"><ele>288.0</ele><time>2026-04-24T16:47:31.999Z</time></trkpt><trkpt lat="46.031368114348425" lon="11.959449586746812"><ele>288.0</ele><time>2026-04-24T16:47:32.999Z</time></trkpt><trkpt lat="46.03135109741136" lon="11.959218133052712"><ele>288.0</ele><time>2026-04-24T16:47:33.999Z</time></trkpt><trkpt lat="46.031327796514425" lon="11.958995972979292"><ele>288.0</ele><time>2026-04-24T16:47:34.999Z</time></trkpt><trkpt lat="46.03130115451316" lon="11.958766858832096"><ele>288.6666666666667</ele><time>2026-04-24T16:47:35.999Z</time></trkpt><trkpt lat="46.03127841945028" lon="11.958522940407217"><ele>289.33333333333337</ele><time>2026-04-24T16:47:36.999Z</time></trkpt><trkpt lat="46.031255943439696" lon="11.958294199258322"><ele>290.0</ele><time>2026-04-24T16:47:38Z</time></trkpt><trkpt lat="46.03123388012555" lon="11.958062306773666"><ele>290.33333333333337</ele><time>2026-04-24T16:47:39Z</time></trkpt><trkpt lat="46.0312115353035" lon="11.957826781390905"><ele>290.6666666666667</ele><time>2026-04-24T16:47:40Z</time></trkpt><trkpt lat="46.031188426866905" lon="11.957592794138053"><ele>291.0</ele><time>2026-04-24T16:47:41Z</time></trkpt><trkpt lat="46.03116674322891" lon="11.957359541476384"><ele>291.6666666666667</ele><time>2026-04-24T16:47:42Z</time></trkpt><trkpt lat="46.031144889940876" lon="11.957145685975963"><ele>292.33333333333337</ele><time>2026-04-24T16:47:43Z</time></trkpt><trkpt lat="46.031119632561534" lon="11.956926327377612"><ele>293.0</ele><time>2026-04-24T16:47:44Z</time></trkpt><trkpt lat="46.03109682698256" lon="11.956694861727529"><ele>294.0</ele><time>2026-04-24T16:47:45Z</time></trkpt><trkpt lat="46.031078316642464" lon="11.956477480195089"><ele>295.0</ele><time>2026-04-24T16:47:46Z</time></trkpt><trkpt lat="46.03105751705981" lon="11.956252692295724"><ele>296.0</ele><time>2026-04-24T16:47:47Z</time></trkpt><trkpt lat="46.03103353530513" lon="11.956030904535135"><ele>296.25</ele><time>2026-04-24T16:47:48Z</time></trkpt><trkpt lat="46.03101569973957" lon="11.95581535293252"><ele>296.5</ele><time>2026-04-24T16:47:49Z</time></trkpt><trkpt lat="46.0309973911223" lon="11.955609143204686"><ele>296.75</ele><time>2026-04-24T16:47:50Z</time></trkpt><trkpt lat="46.0309805315418" lon="11.95540253765867"><ele>297.0</ele><time>2026-04-24T16:47:51Z</time></trkpt><trkpt lat="46.03095871123201" lon="11.955194501263888"><ele>297.25</ele><time>2026-04-24T16:47:52Z</time></trkpt><trkpt lat="46.0309362470331" lon="11.954994117477236"><ele>297.5</ele><time>2026-04-24T16:47:53Z</time></trkpt><trkpt lat="46.03091440439462" lon="11.954790136562831"><ele>297.75</ele><time>2026-04-24T16:47:54Z</time></trkpt><trkpt lat="46.030896926835815" lon="11.95458320354453"><ele>298.0</ele><time>2026-04-24T16:47:55Z</time></trkpt><trkpt lat="46.030879581112956" lon="11.95438148936697"><ele>299.25</ele><time>2026-04-24T16:47:56Z</time></trkpt><trkpt lat="46.03086132478349" lon="11.954183685769786"><ele>300.5</ele><time>2026-04-24T16:47:57Z</time></trkpt><trkpt lat="46.030840101238795" lon="11.953987073736341"><ele>301.75</ele><time>2026-04-24T16:47:58Z</time></trkpt><trkpt lat="46.03082240032238" lon="11.953792773732319"><ele>303.0</ele><time>2026-04-24T16:47:59Z</time></trkpt><trkpt lat="46.030805102103486" lon="11.953595898939284"><ele>303.0</ele><time>2026-04-24T16:48:00Z</time></trkpt><trkpt lat="46.0307851565865" lon="11.953398450864132"><ele>303.0</ele><time>2026-04-24T16:48:01Z</time></trkpt><trkpt lat="46.0307652972688" lon="11.953205320547577"><ele>303.0</ele><time>2026-04-24T16:48:02Z</time></trkpt><trkpt lat="46.03074288088511" lon="11.953009765063713"><ele>303.0</ele><time>2026-04-24T16:48:03Z</time></trkpt><trkpt lat="46.03072638626802" lon="11.952814686906041"><ele>303.0</ele><time>2026-04-24T16:48:04Z</time></trkpt><trkpt lat="46.030704926405576" lon="11.952613951093168"><ele>303.0</ele><time>2026-04-24T16:48:05Z</time></trkpt><trkpt lat="46.03067454070589" lon="11.952414738377454"><ele>303.0</ele><time>2026-04-24T16:48:06Z</time></trkpt><trkpt lat="46.03064970008102" lon="11.952222494020697"><ele>303.0</ele><time>2026-04-24T16:48:07Z</time></trkpt><trkpt lat="46.03062118865077" lon="11.952028710050698"><ele>303.25</ele><time>2026-04-24T16:48:08Z</time></trkpt><trkpt lat="46.03059214452393" lon="11.951828769773702"><ele>303.5</ele><time>2026-04-24T16:48:09Z</time></trkpt><trkpt lat="46.030558092487155" lon="11.95163607737166"><ele>303.75</ele><time>2026-04-24T16:48:10Z</time></trkpt><trkpt lat="46.030524947616186" lon="11.951431297792507"><ele>304.0</ele><time>2026-04-24T16:48:11Z</time></trkpt><trkpt lat="46.030490846108414" lon="11.951242783281637"><ele>304.75</ele><time>2026-04-24T16:48:12Z</time></trkpt><trkpt lat="46.030457825717264" lon="11.951043853198465"><ele>305.5</ele><time>2026-04-24T16:48:13Z</time></trkpt><trkpt lat="46.03042297795123" lon="11.950846855021068"><ele>306.25</ele><time>2026-04-24T16:48:14Z</time></trkpt><trkpt lat="46.03038771451365" lon="11.950645143011737"><ele>307.0</ele><time>2026-04-24T16:48:15Z</time></trkpt><trkpt lat="46.03034919747378" lon="11.950441494817419"><ele>307.0</ele><time>2026-04-24T16:48:16Z</time></trkpt><trkpt lat="46.0303101272092" lon="11.95023882632193"><ele>307.0</ele><time>2026-04-24T16:48:17Z</time></trkpt><trkpt lat="46.03027172930781" lon="11.950028988487167"><ele>307.0</ele><time>2026-04-24T16:48:18Z</time></trkpt><trkpt lat="46.030234560827715" lon="11.949821039831097"><ele>307.0</ele><time>2026-04-24T16:48:19Z</time></trkpt><trkpt lat="46.03019441084949" lon="11.94961490683874"><ele>307.66666666666663</ele><time>2026-04-24T16:48:20Z</time></trkpt><trkpt lat="46.03015422763" lon="11.949405652191649"><ele>308.3333333333333</ele><time>2026-04-24T16:48:21Z</time></trkpt><trkpt lat="46.030116573037965" lon="11.949183631762502"><ele>309.0</ele><time>2026-04-24T16:48:22Z</time></trkpt><trkpt lat="46.030077150907445" lon="11.948965181595538"><ele>309.25</ele><time>2026-04-24T16:48:23Z</time></trkpt><trkpt lat="46.0300289607091" lon="11.948755700220985"><ele>309.5</ele><time>2026-04-24T16:48:24Z</time></trkpt><trkpt lat="46.029985196102906" lon="11.948558872239142"><ele>309.75</ele><time>2026-04-24T16:48:25Z</time></trkpt><trkpt lat="46.02994585966295" lon="11.948352958959596"><ele>310.0</ele><time>2026-04-24T16:48:26Z</time></trkpt><trkpt lat="46.02990883096836" lon="11.948141448673177"><ele>310.0</ele><time>2026-04-24T16:48:27Z</time></trkpt><trkpt lat="46.029869894762044" lon="11.947932359915189"><ele>310.0</ele><time>2026-04-24T16:48:28Z</time></trkpt><trkpt lat="46.029829594117004" lon="11.94773203304079"><ele>310.0</ele><time>2026-04-24T16:48:29Z</time></trkpt><trkpt lat="46.029791582755266" lon="11.947512679573778"><ele>311.0</ele><time>2026-04-24T16:48:30Z</time></trkpt><trkpt lat="46.02975213407342" lon="11.947294974671031"><ele>312.0</ele><time>2026-04-24T16:48:31Z</time></trkpt><trkpt lat="46.02971516814706" lon="11.947084791065588"><ele>313.0</ele><time>2026-04-24T16:48:32Z</time></trkpt><trkpt lat="46.029676664346184" lon="11.946871536225173"><ele>313.3333333333333</ele><time>2026-04-24T16:48:33Z</time></trkpt><trkpt lat="46.02963608028495" lon="11.946667887231843"><ele>313.6666666666667</ele><time>2026-04-24T16:48:34Z</time></trkpt><trkpt lat="46.02961480868099" lon="11.946444297879024"><ele>314.0</ele><time>2026-04-24T16:48:35Z</time></trkpt><trkpt lat="46.029575110213365" lon="11.946226694668699"><ele>314.0</ele><time>2026-04-24T16:48:36Z</time></trkpt><trkpt lat="46.02953107812819" lon="11.946018148544484"><ele>314.0</ele><time>2026-04-24T16:48:37Z</time></trkpt><trkpt lat="46.029489771220746" lon="11.945816729538475"><ele>314.0</ele><time>2026-04-24T16:48:38Z</time></trkpt><trkpt lat="46.02945222395706" lon="11.94560329798047"><ele>313.75</ele><time>2026-04-24T16:48:39Z</time></trkpt><trkpt lat="46.02941669021278" lon="11.945413551944698"><ele>313.5</ele><time>2026-04-24T16:48:40Z</time></trkpt><trkpt lat="46.02938023616296" lon="11.945229993540075"><ele>313.25</ele><time>2026-04-24T16:48:41Z</time></trkpt><trkpt lat="46.029341221862644" lon="11.945036384724938"><ele>313.0</ele><time>2026-04-24T16:48:42Z</time></trkpt><trkpt lat="46.02930014920013" lon="11.944839100730242"><ele>313.5</ele><time>2026-04-24T16:48:43Z</time></trkpt><trkpt lat="46.02925522515313" lon="11.944650772967238"><ele>314.0</ele><time>2026-04-24T16:48:44Z</time></trkpt><trkpt lat="46.02920501580175" lon="11.944460625923666"><ele>314.5</ele><time>2026-04-24T16:48:45Z</time></trkpt><trkpt lat="46.029149611558935" lon="11.944276883275263"><ele>315.0</ele><time>2026-04-24T16:48:46Z</time></trkpt><trkpt lat="46.02911474639984" lon="11.944053361258463"><ele>315.0</ele><time>2026-04-24T16:48:47Z</time></trkpt><trkpt lat="46.02905885053255" lon="11.943854062784109"><ele>315.0</ele><time>2026-04-24T16:48:48Z</time></trkpt><trkpt lat="46.02900397411512" lon="11.943647358719266"><ele>315.0</ele><time>2026-04-24T16:48:49Z</time></trkpt><trkpt lat="46.028943406097646" lon="11.943459882091851"><ele>315.0</ele><time>2026-04-24T16:48:50Z</time></trkpt><trkpt lat="46.02888074251106" lon="11.943269692191201"><ele>315.0</ele><time>2026-04-24T16:48:51Z</time></trkpt><trkpt lat="46.02881655731326" lon="11.943069033681148"><ele>315.0</ele><time>2026-04-24T16:48:52Z</time></trkpt><trkpt lat="46.028757695750585" lon="11.942878789497273"><ele>315.0</ele><time>2026-04-24T16:48:53Z</time></trkpt><trkpt lat="46.0287022734977" lon="11.942679143140241"><ele>315.0</ele><time>2026-04-24T16:48:54Z</time></trkpt><trkpt lat="46.028652352367466" lon="11.942472734120068"><ele>315.0</ele><time>2026-04-24T16:48:55Z</time></trkpt><trkpt lat="46.02859126397443" lon="11.94225957404191"><ele>315.0</ele><time>2026-04-24T16:48:56Z</time></trkpt><trkpt lat="46.028533223738656" lon="11.942060281644942"><ele>315.0</ele><time>2026-04-24T16:48:57Z</time></trkpt><trkpt lat="46.028473333694485" lon="11.941837963775502"><ele>314.0</ele><time>2026-04-24T16:48:58Z</time></trkpt><trkpt lat="46.028408942128436" lon="11.941626050653985"><ele>313.0</ele><time>2026-04-24T16:48:59Z</time></trkpt><trkpt lat="46.02835351161671" lon="11.941426777204018"><ele>312.0</ele><time>2026-04-24T16:49:00Z</time></trkpt><trkpt lat="46.02828839139458" lon="11.941216256939688"><ele>312.0</ele><time>2026-04-24T16:49:01Z</time></trkpt><trkpt lat="46.0282317849222" lon="11.940998230099986"><ele>312.0</ele><time>2026-04-24T16:49:02Z</time></trkpt><trkpt lat="46.02816326447999" lon="11.940781145888629"><ele>312.0</ele><time>2026-04-24T16:49:03Z</time></trkpt><trkpt lat="46.02809849753992" lon="11.940574470620136"><ele>311.3333333333333</ele><time>2026-04-24T16:49:04Z</time></trkpt><trkpt lat="46.028035404441674" lon="11.940355893344869"><ele>310.66666666666663</ele><time>2026-04-24T16:49:05Z</time></trkpt><trkpt lat="46.02797407261393" lon="11.940136892875792"><ele>310.0</ele><time>2026-04-24T16:49:05.999Z</time></trkpt><trkpt lat="46.02791171730773" lon="11.939916093002443"><ele>308.3333333333333</ele><time>2026-04-24T16:49:06.999Z</time></trkpt><trkpt lat="46.02784805699943" lon="11.939699518901818"><ele>306.6666666666667</ele><time>2026-04-24T16:49:07.999Z</time></trkpt><trkpt lat="46.02778258102472" lon="11.93947362159579"><ele>305.0</ele><time>2026-04-24T16:49:08.999Z</time></trkpt><trkpt lat="46.027729139332536" lon="11.939258009544389"><ele>305.0</ele><time>2026-04-24T16:49:09.999Z</time></trkpt><trkpt lat="46.02767000139692" lon="11.939045704566164"><ele>305.0</ele><time>2026-04-24T16:49:10.999Z</time></trkpt><trkpt lat="46.0276035549236" lon="11.938809665230673"><ele>305.0</ele><time>2026-04-24T16:49:11.999Z</time></trkpt><trkpt lat="46.02754828186451" lon="11.93856166549628"><ele>304.6666666666667</ele><time>2026-04-24T16:49:12.999Z</time></trkpt><trkpt lat="46.0275040790679" lon="11.938330296153085"><ele>304.3333333333333</ele><time>2026-04-24T16:49:13.999Z</time></trkpt><trkpt lat="46.02745744385147" lon="11.938083649801968"><ele>304.0</ele><time>2026-04-24T16:49:14.999Z</time></trkpt><trkpt lat="46.02738752038344" lon="11.937845022719486"><ele>306.66666666666663</ele><time>2026-04-24T16:49:15.999Z</time></trkpt><trkpt lat="46.027337689376175" lon="11.937598182497062"><ele>309.3333333333333</ele><time>2026-04-24T16:49:16.999Z</time></trkpt><trkpt lat="46.027295652579916" lon="11.93735047541088"><ele>312.0</ele><time>2026-04-24T16:49:17.999Z</time></trkpt><trkpt lat="46.02725124907668" lon="11.937107176882467"><ele>313.0</ele><time>2026-04-24T16:49:18.999Z</time></trkpt><trkpt lat="46.02720092543943" lon="11.93686197619095"><ele>314.0</ele><time>2026-04-24T16:49:19.999Z</time></trkpt><trkpt lat="46.02715720149813" lon="11.93660402448536"><ele>315.0</ele><time>2026-04-24T16:49:20.999Z</time></trkpt><trkpt lat="46.02711091943724" lon="11.93635778336279"><ele>315.0</ele><time>2026-04-24T16:49:21.999Z</time></trkpt><trkpt lat="46.027056813441476" lon="11.93610116248197"><ele>315.0</ele><time>2026-04-24T16:49:22.999Z</time></trkpt><trkpt lat="46.027011943055044" lon="11.935838190823503"><ele>315.0</ele><time>2026-04-24T16:49:23.999Z</time></trkpt><trkpt lat="46.02696358524864" lon="11.93558261127103"><ele>312.6666666666667</ele><time>2026-04-24T16:49:24.999Z</time></trkpt><trkpt lat="46.026915681179" lon="11.935324742095416"><ele>310.33333333333337</ele><time>2026-04-24T16:49:25.999Z</time></trkpt><trkpt lat="46.02687146269301" lon="11.935066707076226"><ele>308.0</ele><time>2026-04-24T16:49:26.999Z</time></trkpt><trkpt lat="46.02683187455518" lon="11.934838107607899"><ele>308.0</ele><time>2026-04-24T16:49:27.999Z</time></trkpt><trkpt lat="46.026802599005435" lon="11.934597653008748"><ele>308.0</ele><time>2026-04-24T16:49:28.999Z</time></trkpt><trkpt lat="46.02677933625958" lon="11.934348571731855"><ele>308.0</ele><time>2026-04-24T16:49:29.999Z</time></trkpt><trkpt lat="46.02675778270028" lon="11.934102135626429"><ele>307.33333333333337</ele><time>2026-04-24T16:49:30.999Z</time></trkpt><trkpt lat="46.02674266783253" lon="11.933851266792121"><ele>306.6666666666667</ele><time>2026-04-24T16:49:31.999Z</time></trkpt><trkpt lat="46.02673056804195" lon="11.933621025396471"><ele>306.0</ele><time>2026-04-24T16:49:32.999Z</time></trkpt><trkpt lat="46.02671574691001" lon="11.93338667028986"><ele>305.6666666666667</ele><time>2026-04-24T16:49:33.999Z</time></trkpt><trkpt lat="46.02670383423065" lon="11.933146757370444"><ele>305.33333333333337</ele><time>2026-04-24T16:49:34.999Z</time></trkpt><trkpt lat="46.02669170339111" lon="11.932915585053939"><ele>305.0</ele><time>2026-04-24T16:49:35.999Z</time></trkpt><trkpt lat="46.02667974980572" lon="11.932682261287507"><ele>304.6666666666667</ele><time>2026-04-24T16:49:36.999Z</time></trkpt><trkpt lat="46.02666516775375" lon="11.932442179753055"><ele>304.3333333333333</ele><time>2026-04-24T16:49:37.999Z</time></trkpt><trkpt lat="46.026648346056525" lon="11.932204216061788"><ele>304.0</ele><time>2026-04-24T16:49:38.999Z</time></trkpt><trkpt lat="46.0266331107222" lon="11.931960000776579"><ele>308.66666666666663</ele><time>2026-04-24T16:49:39.999Z</time></trkpt><trkpt lat="46.02661250534167" lon="11.931719438017385"><ele>313.3333333333333</ele><time>2026-04-24T16:49:40.999Z</time></trkpt><trkpt lat="46.02659328460326" lon="11.931494984477236"><ele>318.0</ele><time>2026-04-24T16:49:41.999Z</time></trkpt><trkpt lat="46.02656815308184" lon="11.931283158252851"><ele>318.0</ele><time>2026-04-24T16:49:42.999Z</time></trkpt><trkpt lat="46.0265383824462" lon="11.931059799015484"><ele>318.0</ele><time>2026-04-24T16:49:44Z</time></trkpt><trkpt lat="46.026510543383246" lon="11.93085377100671"><ele>318.0</ele><time>2026-04-24T16:49:45Z</time></trkpt><trkpt lat="46.02647805059038" lon="11.930660735352562"><ele>318.0</ele><time>2026-04-24T16:49:46Z</time></trkpt><trkpt lat="46.026440691641135" lon="11.93045768629069"><ele>316.3333333333333</ele><time>2026-04-24T16:49:47Z</time></trkpt><trkpt lat="46.02639497337476" lon="11.930245694857621"><ele>314.66666666666663</ele><time>2026-04-24T16:49:48Z</time></trkpt><trkpt lat="46.026344234014424" lon="11.93003361057485"><ele>313.0</ele><time>2026-04-24T16:49:49Z</time></trkpt><trkpt lat="46.02629191957459" lon="11.929799709281546"><ele>311.3333333333333</ele><time>2026-04-24T16:49:50Z</time></trkpt><trkpt lat="46.02623232011906" lon="11.929580809983813"><ele>309.6666666666667</ele><time>2026-04-24T16:49:51Z</time></trkpt><trkpt lat="46.02617411294905" lon="11.92936391989431"><ele>308.0</ele><time>2026-04-24T16:49:52Z</time></trkpt><trkpt lat="46.02610674452602" lon="11.929140619754955"><ele>305.6666666666667</ele><time>2026-04-24T16:49:53Z</time></trkpt><trkpt lat="46.02604199271999" lon="11.928923786345056"><ele>303.3333333333333</ele><time>2026-04-24T16:49:54Z</time></trkpt><trkpt lat="46.02598457666785" lon="11.928718630408845"><ele>301.0</ele><time>2026-04-24T16:49:55Z</time></trkpt><trkpt lat="46.0259283836331" lon="11.928528704452622"><ele>300.0</ele><time>2026-04-24T16:49:56Z</time></trkpt><trkpt lat="46.02587158011422" lon="11.928333243148504"><ele>299.0</ele><time>2026-04-24T16:49:57Z</time></trkpt><trkpt lat="46.0258145197353" lon="11.928137694821656"><ele>298.0</ele><time>2026-04-24T16:49:58Z</time></trkpt><trkpt lat="46.02575357149656" lon="11.927939798583617"><ele>297.0</ele><time>2026-04-24T16:49:59Z</time></trkpt><trkpt lat="46.02569212067199" lon="11.927764041943245"><ele>298.5</ele><time>2026-04-24T16:50:00Z</time></trkpt><trkpt lat="46.025632291221946" lon="11.927578108815766"><ele>300.0</ele><time>2026-04-24T16:50:01Z</time></trkpt><trkpt lat="46.02557507798756" lon="11.927386623516147"><ele>301.5</ele><time>2026-04-24T16:50:02Z</time></trkpt><trkpt lat="46.025515894459254" lon="11.927195639768133"><ele>303.0</ele><time>2026-04-24T16:50:03Z</time></trkpt><trkpt lat="46.02545856345264" lon="11.92700836143234"><ele>303.0</ele><time>2026-04-24T16:50:04Z</time></trkpt><trkpt lat="46.02540710601152" lon="11.926835215863372"><ele>303.0</ele><time>2026-04-24T16:50:05Z</time></trkpt><trkpt lat="46.02536061203171" lon="11.926672580130365"><ele>303.0</ele><time>2026-04-24T16:50:06Z</time></trkpt><trkpt lat="46.02530587156968" lon="11.926502249606736"><ele>303.0</ele><time>2026-04-24T16:50:07Z</time></trkpt><trkpt lat="46.02523402498898" lon="11.926314877560841"><ele>302.25</ele><time>2026-04-24T16:50:08Z</time></trkpt><trkpt lat="46.02515687692138" lon="11.926132485935385"><ele>301.5</ele><time>2026-04-24T16:50:09Z</time></trkpt><trkpt lat="46.025085785605995" lon="11.925971882637754"><ele>300.75</ele><time>2026-04-24T16:50:10Z</time></trkpt><trkpt lat="46.025022795198694" lon="11.925815930976924"><ele>300.0</ele><time>2026-04-24T16:50:11Z</time></trkpt><trkpt lat="46.024955431166866" lon="11.925672844710823"><ele>300.0</ele><time>2026-04-24T16:50:12Z</time></trkpt><trkpt lat="46.02488213003868" lon="11.92550864149215"><ele>300.0</ele><time>2026-04-24T16:50:13Z</time></trkpt><trkpt lat="46.02480972776513" lon="11.925364903370587"><ele>300.0</ele><time>2026-04-24T16:50:14Z</time></trkpt><trkpt lat="46.02473270335543" lon="11.925222079862586"><ele>300.0</ele><time>2026-04-24T16:50:15Z</time></trkpt><trkpt lat="46.02466205722607" lon="11.925091385351188"><ele>299.4</ele><time>2026-04-24T16:50:16Z</time></trkpt><trkpt lat="46.02459559317682" lon="11.924970915477173"><ele>298.8</ele><time>2026-04-24T16:50:17Z</time></trkpt><trkpt lat="46.0245364094255" lon="11.924870447973484"><ele>298.2</ele><time>2026-04-24T16:50:18Z</time></trkpt><trkpt lat="46.02447057332134" lon="11.924756329309245"><ele>297.6</ele><time>2026-04-24T16:50:19Z</time></trkpt><trkpt lat="46.024394428685476" lon="11.924638586643011"><ele>297.0</ele><time>2026-04-24T16:50:20Z</time></trkpt><trkpt lat="46.02433440463184" lon="11.924534248230593"><ele>297.0</ele><time>2026-04-24T16:50:21Z</time></trkpt><trkpt lat="46.02427917037994" lon="11.924436770535815"><ele>297.0</ele><time>2026-04-24T16:50:22Z</time></trkpt><trkpt lat="46.024223405027705" lon="11.924340611450607"><ele>297.0</ele><time>2026-04-24T16:50:23Z</time></trkpt><trkpt lat="46.02416468965826" lon="11.924242779404501"><ele>297.0</ele><time>2026-04-24T16:50:24Z</time></trkpt><trkpt lat="46.02410356472784" lon="11.924139233792603"><ele>297.0</ele><time>2026-04-24T16:50:25Z</time></trkpt><trkpt lat="46.02404243144955" lon="11.924023960916175"><ele>297.0</ele><time>2026-04-24T16:50:26Z</time></trkpt><trkpt lat="46.02397974379583" lon="11.923907860616051"><ele>297.0</ele><time>2026-04-24T16:50:27Z</time></trkpt><trkpt lat="46.02392620387487" lon="11.923797100205682"><ele>297.0</ele><time>2026-04-24T16:50:28Z</time></trkpt><trkpt lat="46.02387995142432" lon="11.923700881861306"><ele>297.0</ele><time>2026-04-24T16:50:29Z</time></trkpt><trkpt lat="46.0238251524172" lon="11.923586717340562"><ele>297.0</ele><time>2026-04-24T16:50:30Z</time></trkpt><trkpt lat="46.02377286030278" lon="11.92347641818857"><ele>296.6</ele><time>2026-04-24T16:50:31Z</time></trkpt><trkpt lat="46.02372225514753" lon="11.923372892049285"><ele>296.2</ele><time>2026-04-24T16:50:32Z</time></trkpt><trkpt lat="46.023674469031484" lon="11.923268574122622"><ele>295.8</ele><time>2026-04-24T16:50:33Z</time></trkpt><trkpt lat="46.02362394294539" lon="11.923148058726321"><ele>295.4</ele><time>2026-04-24T16:50:34Z</time></trkpt><trkpt lat="46.02357649029598" lon="11.923033955269691"><ele>295.0</ele><time>2026-04-24T16:50:35Z</time></trkpt><trkpt lat="46.023533155518386" lon="11.92291440607839"><ele>295.0</ele><time>2026-04-24T16:50:36Z</time></trkpt><trkpt lat="46.02348879376093" lon="11.922798262373279"><ele>295.0</ele><time>2026-04-24T16:50:37Z</time></trkpt><trkpt lat="46.023438844410634" lon="11.922660385344896"><ele>295.0</ele><time>2026-04-24T16:50:38Z</time></trkpt><trkpt lat="46.02338931762713" lon="11.92251771709948"><ele>295.0</ele><time>2026-04-24T16:50:39Z</time></trkpt><trkpt lat="46.02334710406904" lon="11.92240203899088"><ele>295.0</ele><time>2026-04-24T16:50:40Z</time></trkpt><trkpt lat="46.02330134403804" lon="11.922281483784515"><ele>294.66666666666663</ele><time>2026-04-24T16:50:41Z</time></trkpt><trkpt lat="46.02327150307597" lon="11.922166336179027"><ele>294.3333333333333</ele><time>2026-04-24T16:50:42Z</time></trkpt><trkpt lat="46.02323675979128" lon="11.92204960955123"><ele>294.0</ele><time>2026-04-24T16:50:43Z</time></trkpt><trkpt lat="46.0232069260787" lon="11.921927887403278"><ele>293.6666666666667</ele><time>2026-04-24T16:50:44Z</time></trkpt><trkpt lat="46.02318812126554" lon="11.921824415981149"><ele>293.33333333333337</ele><time>2026-04-24T16:50:45Z</time></trkpt><trkpt lat="46.02317172225862" lon="11.921735884158336"><ele>293.0</ele><time>2026-04-24T16:50:46Z</time></trkpt><trkpt lat="46.023161228543835" lon="11.921556868454717"><ele>293.0</ele><time>2026-04-24T16:50:48Z</time></trkpt><trkpt lat="46.02316615936263" lon="11.921464386114014"><ele>293.0</ele><time>2026-04-24T16:50:49Z</time></trkpt><trkpt lat="46.02317695718605" lon="11.92136538600754"><ele>293.0</ele><time>2026-04-24T16:50:50Z</time></trkpt><trkpt lat="46.02317378555455" lon="11.92124669430876"><ele>293.0</ele><time>2026-04-24T16:50:51Z</time></trkpt><trkpt lat="46.023137035083955" lon="11.921122667978695"><ele>293.0</ele><time>2026-04-24T16:50:52Z</time></trkpt><trkpt lat="46.0230947158288" lon="11.92098600245709"><ele>293.0</ele><time>2026-04-24T16:50:53Z</time></trkpt><trkpt lat="46.02306728243105" lon="11.920840533731322"><ele>293.0</ele><time>2026-04-24T16:50:54Z</time></trkpt><trkpt lat="46.02305094476789" lon="11.920701051452866"><ele>293.0</ele><time>2026-04-24T16:50:55Z</time></trkpt><trkpt lat="46.02304375274965" lon="11.920578294162285"><ele>293.0</ele><time>2026-04-24T16:50:56Z</time></trkpt><trkpt lat="46.023035938700566" lon="11.920469927305035"><ele>293.0</ele><time>2026-04-24T16:50:57Z</time></trkpt><trkpt lat="46.02302583013629" lon="11.920362233168282"><ele>293.0</ele><time>2026-04-24T16:50:58Z</time></trkpt><trkpt lat="46.02301023741442" lon="11.92023726950409"><ele>293.0</ele><time>2026-04-24T16:50:59Z</time></trkpt><trkpt lat="46.023002185851915" lon="11.920122972597659"><ele>293.2</ele><time>2026-04-24T16:50:59.999Z</time></trkpt><trkpt lat="46.02299242118719" lon="11.919994262454003"><ele>293.4</ele><time>2026-04-24T16:51:00.999Z</time></trkpt><trkpt lat="46.022983481693764" lon="11.91984947450094"><ele>293.59999999999997</ele><time>2026-04-24T16:51:01.999Z</time></trkpt><trkpt lat="46.022974248776" lon="11.919691630936383"><ele>293.8</ele><time>2026-04-24T16:51:02.999Z</time></trkpt><trkpt lat="46.022969203824246" lon="11.919539012724469"><ele>294.0</ele><time>2026-04-24T16:51:03.999Z</time></trkpt><trkpt lat="46.022964277810075" lon="11.919398903502604"><ele>294.0</ele><time>2026-04-24T16:51:04.999Z</time></trkpt><trkpt lat="46.0229588386319" lon="11.919266973914652"><ele>294.0</ele><time>2026-04-24T16:51:05.999Z</time></trkpt><trkpt lat="46.022950978219065" lon="11.91913032239971"><ele>294.0</ele><time>2026-04-24T16:51:06.999Z</time></trkpt><trkpt lat="46.0229449687831" lon="11.918983778161012"><ele>294.0</ele><time>2026-04-24T16:51:07.999Z</time></trkpt><trkpt lat="46.02293556988" lon="11.91882976797477"><ele>294.0</ele><time>2026-04-24T16:51:08.999Z</time></trkpt><trkpt lat="46.022926720575256" lon="11.918685291309165"><ele>293.4</ele><time>2026-04-24T16:51:09.999Z</time></trkpt><trkpt lat="46.02292228414471" lon="11.918541671273454"><ele>292.79999999999995</ele><time>2026-04-24T16:51:10.999Z</time></trkpt><trkpt lat="46.022913385801765" lon="11.918376156062612"><ele>292.20000000000005</ele><time>2026-04-24T16:51:11.999Z</time></trkpt><trkpt lat="46.0229056193801" lon="11.918215238358574"><ele>291.6</ele><time>2026-04-24T16:51:12.999Z</time></trkpt><trkpt lat="46.02289988184685" lon="11.918072798103132"><ele>291.0</ele><time>2026-04-24T16:51:13.999Z</time></trkpt><trkpt lat="46.022891849880224" lon="11.917937909868579"><ele>290.2</ele><time>2026-04-24T16:51:14.999Z</time></trkpt><trkpt lat="46.02288571104211" lon="11.917808577373082"><ele>289.40000000000003</ele><time>2026-04-24T16:51:15.999Z</time></trkpt><trkpt lat="46.022878771910335" lon="11.917664421188112"><ele>288.6</ele><time>2026-04-24T16:51:16.999Z</time></trkpt><trkpt lat="46.022874532717665" lon="11.917502879711229"><ele>287.8</ele><time>2026-04-24T16:51:17.999Z</time></trkpt><trkpt lat="46.022867533733866" lon="11.917350724190923"><ele>287.0</ele><time>2026-04-24T16:51:18.999Z</time></trkpt><trkpt lat="46.022861557483765" lon="11.917214097344951"><ele>286.8</ele><time>2026-04-24T16:51:19.999Z</time></trkpt><trkpt lat="46.02285660376375" lon="11.917080292537415"><ele>286.6</ele><time>2026-04-24T16:51:20.999Z</time></trkpt><trkpt lat="46.02285112512719" lon="11.91693705259837"><ele>286.40000000000003</ele><time>2026-04-24T16:51:21.999Z</time></trkpt><trkpt lat="46.02284071748363" lon="11.916780974309216"><ele>286.2</ele><time>2026-04-24T16:51:22.999Z</time></trkpt><trkpt lat="46.022835950029" lon="11.916629082393607"><ele>286.0</ele><time>2026-04-24T16:51:23.999Z</time></trkpt><trkpt lat="46.02282842310356" lon="11.91647102557497"><ele>285.40000000000003</ele><time>2026-04-24T16:51:24.999Z</time></trkpt><trkpt lat="46.022824579205036" lon="11.916314517314277"><ele>284.8</ele><time>2026-04-24T16:51:25.999Z</time></trkpt><trkpt lat="46.02281486857767" lon="11.916173284762937"><ele>284.20000000000005</ele><time>2026-04-24T16:51:26.999Z</time></trkpt><trkpt lat="46.02281172289374" lon="11.916010458023345"><ele>283.6</ele><time>2026-04-24T16:51:27.999Z</time></trkpt><trkpt lat="46.022804260505836" lon="11.91585023098017"><ele>283.0</ele><time>2026-04-24T16:51:28.999Z</time></trkpt><trkpt lat="46.02279444897426" lon="11.91569266583262"><ele>282.0</ele><time>2026-04-24T16:51:29.999Z</time></trkpt><trkpt lat="46.02278533806109" lon="11.91552527170103"><ele>281.0</ele><time>2026-04-24T16:51:30.999Z</time></trkpt><trkpt lat="46.02277885160406" lon="11.915373261938973"><ele>280.0</ele><time>2026-04-24T16:51:31.999Z</time></trkpt><trkpt lat="46.022771552689" lon="11.915227878784314"><ele>279.0</ele><time>2026-04-24T16:51:32.999Z</time></trkpt><trkpt lat="46.022764065959116" lon="11.915073237379818"><ele>278.0</ele><time>2026-04-24T16:51:33.999Z</time></trkpt><trkpt lat="46.02275778231535" lon="11.91490448645574"><ele>277.4</ele><time>2026-04-24T16:51:34.999Z</time></trkpt><trkpt lat="46.022750172288546" lon="11.914740558667619"><ele>276.8</ele><time>2026-04-24T16:51:35.999Z</time></trkpt><trkpt lat="46.02274422178054" lon="11.914588031932917"><ele>276.2</ele><time>2026-04-24T16:51:36.999Z</time></trkpt><trkpt lat="46.02274054667447" lon="11.914436388883017"><ele>275.6</ele><time>2026-04-24T16:51:37.999Z</time></trkpt><trkpt lat="46.02273448306461" lon="11.914269034103036"><ele>275.0</ele><time>2026-04-24T16:51:38.999Z</time></trkpt><trkpt lat="46.022725427853956" lon="11.914093389527174"><ele>275.0</ele><time>2026-04-24T16:51:39.999Z</time></trkpt><trkpt lat="46.022718475395756" lon="11.913945792308386"><ele>275.0</ele><time>2026-04-24T16:51:40.999Z</time></trkpt><trkpt lat="46.02271293952646" lon="11.913810522320126"><ele>275.0</ele><time>2026-04-24T16:51:41.999Z</time></trkpt><trkpt lat="46.02270928147011" lon="11.913676339842768"><ele>275.0</ele><time>2026-04-24T16:51:42.999Z</time></trkpt><trkpt lat="46.02270488683128" lon="11.913537454442272"><ele>275.0</ele><time>2026-04-24T16:51:43.999Z</time></trkpt><trkpt lat="46.02269972667105" lon="11.913385274782966"><ele>275.0</ele><time>2026-04-24T16:51:44.999Z</time></trkpt><trkpt lat="46.022693429735334" lon="11.913237196883456"><ele>275.0</ele><time>2026-04-24T16:51:45.999Z</time></trkpt><trkpt lat="46.02268672155477" lon="11.913106438016479"><ele>275.0</ele><time>2026-04-24T16:51:46.999Z</time></trkpt><trkpt lat="46.022682851304836" lon="11.912990051182595"><ele>275.0</ele><time>2026-04-24T16:51:47.999Z</time></trkpt><trkpt lat="46.02268192761087" lon="11.912879110476315"><ele>275.0</ele><time>2026-04-24T16:51:48.999Z</time></trkpt><trkpt lat="46.022685532045486" lon="11.91271606153166"><ele>275.4</ele><time>2026-04-24T16:51:51Z</time></trkpt><trkpt lat="46.02271948351061" lon="11.912542349352961"><ele>275.8</ele><time>2026-04-24T16:51:53Z</time></trkpt><trkpt lat="46.022718141556254" lon="11.912438298058849"><ele>276.2</ele><time>2026-04-24T16:51:54Z</time></trkpt><trkpt lat="46.02272697737222" lon="11.912324020725968"><ele>276.6</ele><time>2026-04-24T16:51:55Z</time></trkpt><trkpt lat="46.02267427585366" lon="11.912201416916025"><ele>277.0</ele><time>2026-04-24T16:51:56Z</time></trkpt><trkpt lat="46.02264718649534" lon="11.91206337644669"><ele>277.0</ele><time>2026-04-24T16:51:57Z</time></trkpt><trkpt lat="46.02263538192087" lon="11.911899072547826"><ele>277.0</ele><time>2026-04-24T16:51:58Z</time></trkpt><trkpt lat="46.022622116840125" lon="11.911714525661383"><ele>277.0</ele><time>2026-04-24T16:51:59Z</time></trkpt><trkpt lat="46.0226088714181" lon="11.911513888362986"><ele>277.0</ele><time>2026-04-24T16:52:00Z</time></trkpt><trkpt lat="46.022592191000896" lon="11.911282762298782"><ele>277.0</ele><time>2026-04-24T16:52:01Z</time></trkpt><trkpt lat="46.02256856671743" lon="11.911060224352774"><ele>277.0</ele><time>2026-04-24T16:52:02Z</time></trkpt><trkpt lat="46.02254112165709" lon="11.910870863433809"><ele>277.0</ele><time>2026-04-24T16:52:03Z</time></trkpt><trkpt lat="46.02251457690259" lon="11.910687878286152"><ele>277.0</ele><time>2026-04-24T16:52:04Z</time></trkpt><trkpt lat="46.02247531500674" lon="11.910490266541462"><ele>276.75</ele><time>2026-04-24T16:52:05Z</time></trkpt><trkpt lat="46.0224362966381" lon="11.910294582446904"><ele>276.5</ele><time>2026-04-24T16:52:06Z</time></trkpt><trkpt lat="46.02239463862866" lon="11.910121570913597"><ele>276.25</ele><time>2026-04-24T16:52:07Z</time></trkpt><trkpt lat="46.02235696718853" lon="11.909956539990276"><ele>276.0</ele><time>2026-04-24T16:52:08Z</time></trkpt><trkpt lat="46.02231733378289" lon="11.90977657434788"><ele>275.75</ele><time>2026-04-24T16:52:09Z</time></trkpt><trkpt lat="46.02228175232709" lon="11.909606408857549"><ele>275.5</ele><time>2026-04-24T16:52:10Z</time></trkpt><trkpt lat="46.02224199686563" lon="11.90942524463027"><ele>275.25</ele><time>2026-04-24T16:52:11Z</time></trkpt><trkpt lat="46.02220127670416" lon="11.909240184599268"><ele>275.0</ele><time>2026-04-24T16:52:12Z</time></trkpt><trkpt lat="46.02216133883134" lon="11.90907259537446"><ele>274.8</ele><time>2026-04-24T16:52:13Z</time></trkpt><trkpt lat="46.022129053785456" lon="11.908915387158961"><ele>274.6</ele><time>2026-04-24T16:52:14Z</time></trkpt><trkpt lat="46.02210116449805" lon="11.908765012877561"><ele>274.4</ele><time>2026-04-24T16:52:15Z</time></trkpt><trkpt lat="46.02206981223629" lon="11.908622284277634"><ele>274.2</ele><time>2026-04-24T16:52:16Z</time></trkpt><trkpt lat="46.022037617448504" lon="11.908481690796659"><ele>274.0</ele><time>2026-04-24T16:52:17Z</time></trkpt><trkpt lat="46.02201282502183" lon="11.90833729356835"><ele>273.8333333333333</ele><time>2026-04-24T16:52:18Z</time></trkpt><trkpt lat="46.021989691171655" lon="11.90820310705862"><ele>273.66666666666663</ele><time>2026-04-24T16:52:19Z</time></trkpt><trkpt lat="46.02197364766829" lon="11.90809629656434"><ele>273.5</ele><time>2026-04-24T16:52:20Z</time></trkpt><trkpt lat="46.02194230459817" lon="11.907999543296656"><ele>273.3333333333333</ele><time>2026-04-24T16:52:21Z</time></trkpt><trkpt lat="46.02191548967735" lon="11.907899480609087"><ele>273.1666666666667</ele><time>2026-04-24T16:52:22Z</time></trkpt><trkpt lat="46.02188471556929" lon="11.907792528401203"><ele>273.0</ele><time>2026-04-24T16:52:23Z</time></trkpt><trkpt lat="46.02186448661568" lon="11.907698812185519"><ele>273.0</ele><time>2026-04-24T16:52:24Z</time></trkpt><trkpt lat="46.021843004629424" lon="11.907598145381936"><ele>273.0</ele><time>2026-04-24T16:52:25Z</time></trkpt><trkpt lat="46.02181895471527" lon="11.907475256624759"><ele>273.0</ele><time>2026-04-24T16:52:26Z</time></trkpt><trkpt lat="46.02179197958429" lon="11.907344267764108"><ele>273.0</ele><time>2026-04-24T16:52:27Z</time></trkpt><trkpt lat="46.02176468395888" lon="11.90720489120601"><ele>273.0</ele><time>2026-04-24T16:52:28Z</time></trkpt><trkpt lat="46.02173932276358" lon="11.907052094402879"><ele>273.0</ele><time>2026-04-24T16:52:29Z</time></trkpt><trkpt lat="46.02171537725817" lon="11.906898786173805"><ele>273.0</ele><time>2026-04-24T16:52:30Z</time></trkpt><trkpt lat="46.02169182433926" lon="11.906747899147947"><ele>273.0</ele><time>2026-04-24T16:52:31Z</time></trkpt><trkpt lat="46.02167223828779" lon="11.906601985117385"><ele>273.0</ele><time>2026-04-24T16:52:32Z</time></trkpt><trkpt lat="46.02165275744688" lon="11.90646467324457"><ele>273.0</ele><time>2026-04-24T16:52:33Z</time></trkpt><trkpt lat="46.02163714414233" lon="11.90633548470721"><ele>273.0</ele><time>2026-04-24T16:52:34Z</time></trkpt><trkpt lat="46.02162199575917" lon="11.906217855771857"><ele>273.0</ele><time>2026-04-24T16:52:35Z</time></trkpt><trkpt lat="46.021612219382106" lon="11.906119705554044"><ele>273.0</ele><time>2026-04-24T16:52:36Z</time></trkpt><trkpt lat="46.02160256966266" lon="11.90601441156824"><ele>273.0</ele><time>2026-04-24T16:52:37Z</time></trkpt><trkpt lat="46.02159886038293" lon="11.905913973581004"><ele>273.0</ele><time>2026-04-24T16:52:38Z</time></trkpt><trkpt lat="46.021589852855804" lon="11.905819101377757"><ele>273.0</ele><time>2026-04-24T16:52:40Z</time></trkpt><trkpt lat="46.02158267550186" lon="11.905713552729585"><ele>273.0</ele><time>2026-04-24T16:52:46Z</time></trkpt><trkpt lat="46.021466668343486" lon="11.905736928798248"><ele>273.0</ele><time>2026-04-24T16:52:49Z</time></trkpt><trkpt lat="46.02142990256638" lon="11.905981357766453"><ele>273.0</ele><time>2026-04-24T16:53:21.999Z</time></trkpt><trkpt lat="46.02143079459142" lon="11.906118427552762"><ele>273.0</ele><time>2026-04-24T16:56:46.999Z</time></trkpt><trkpt lat="46.02142320992377" lon="11.906220170952478"><ele>273.0</ele><time>2026-04-24T16:56:48.999Z</time></trkpt><trkpt lat="46.02150185665979" lon="11.906266113749293"><ele>273.0</ele><time>2026-04-24T16:56:50.999Z</time></trkpt><trkpt lat="46.0216421126396" lon="11.906089458866642"><ele>273.0</ele><time>2026-04-24T16:56:55.999Z</time></trkpt><trkpt lat="46.021637770777104" lon="11.905986791795288"><ele>273.0</ele><time>2026-04-24T16:56:56.999Z</time></trkpt><trkpt lat="46.02162201837561" lon="11.905888933044375"><ele>273.0</ele><time>2026-04-24T16:56:57.999Z</time></trkpt><trkpt lat="46.021609588658535" lon="11.905764856544954"><ele>273.0</ele><time>2026-04-24T16:56:58.999Z</time></trkpt><trkpt lat="46.021598162769635" lon="11.905673896397053"><ele>273.0</ele><time>2026-04-24T16:56:59.999Z</time></trkpt><trkpt lat="46.021593769542044" lon="11.905500034573572"><ele>273.0</ele><time>2026-04-24T16:57:01.999Z</time></trkpt><trkpt lat="46.021613224916834" lon="11.905332140701729"><ele>273.2</ele><time>2026-04-24T16:57:03.999Z</time></trkpt><trkpt lat="46.02164766928405" lon="11.905245960615941"><ele>273.4</ele><time>2026-04-24T16:57:04.999Z</time></trkpt><trkpt lat="46.021689070919784" lon="11.905155296838577"><ele>273.59999999999997</ele><time>2026-04-24T16:57:05.999Z</time></trkpt><trkpt lat="46.02173252170199" lon="11.905062021741218"><ele>273.8</ele><time>2026-04-24T16:57:06.999Z</time></trkpt><trkpt lat="46.021847810916505" lon="11.905078746385376"><ele>274.0</ele><time>2026-04-24T16:57:07.999Z</time></trkpt><trkpt lat="46.021961182880425" lon="11.905040350438737"><ele>274.0</ele><time>2026-04-24T16:57:08.999Z</time></trkpt><trkpt lat="46.02211591840632" lon="11.905005149057889"><ele>274.0</ele><time>2026-04-24T16:57:09.999Z</time></trkpt><trkpt lat="46.02227679086416" lon="11.904959750522373"><ele>274.0</ele><time>2026-04-24T16:57:10.999Z</time></trkpt><trkpt lat="46.02239200389936" lon="11.904938543287045"><ele>274.0</ele><time>2026-04-24T16:57:11.999Z</time></trkpt><trkpt lat="46.02248700500845" lon="11.904908345170202"><ele>274.59999999999997</ele><time>2026-04-24T16:57:12.999Z</time></trkpt><trkpt lat="46.022563387750566" lon="11.904954138700475"><ele>275.2</ele><time>2026-04-24T16:57:13.999Z</time></trkpt><trkpt lat="46.02261579116552" lon="11.90500877017709"><ele>275.79999999999995</ele><time>2026-04-24T16:57:14.999Z</time></trkpt><trkpt lat="46.0227047723956" lon="11.905056912181928"><ele>276.4</ele><time>2026-04-24T16:57:15.999Z</time></trkpt><trkpt lat="46.022802464737744" lon="11.905093591356517"><ele>277.0</ele><time>2026-04-24T16:57:16.999Z</time></trkpt><trkpt lat="46.022911490715515" lon="11.905104450157111"><ele>277.5</ele><time>2026-04-24T16:57:17.999Z</time></trkpt><trkpt lat="46.023029807773" lon="11.905057903761342"><ele>278.0</ele><time>2026-04-24T16:57:18.999Z</time></trkpt><trkpt lat="46.02317298354485" lon="11.90502392344427"><ele>278.5</ele><time>2026-04-24T16:57:19.999Z</time></trkpt><trkpt lat="46.02334388917914" lon="11.904963441894528"><ele>279.0</ele><time>2026-04-24T16:57:20.999Z</time></trkpt><trkpt lat="46.02350371588584" lon="11.904924692435605"><ele>279.0</ele><time>2026-04-24T16:57:21.999Z</time></trkpt><trkpt lat="46.02365855056977" lon="11.904878238048429"><ele>279.0</ele><time>2026-04-24T16:57:22.999Z</time></trkpt><trkpt lat="46.02378900288036" lon="11.904833480089888"><ele>279.0</ele><time>2026-04-24T16:57:23.999Z</time></trkpt><trkpt lat="46.02391377434843" lon="11.904808665637482"><ele>279.0</ele><time>2026-04-24T16:57:24.999Z</time></trkpt><trkpt lat="46.02404661819944" lon="11.90476863900781"><ele>280.0</ele><time>2026-04-24T16:57:25.999Z</time></trkpt><trkpt lat="46.02418033464297" lon="11.904738711362242"><ele>281.0</ele><time>2026-04-24T16:57:26.999Z</time></trkpt><trkpt lat="46.024312768424586" lon="11.904696997571559"><ele>282.0</ele><time>2026-04-24T16:57:27.999Z</time></trkpt><trkpt lat="46.02444124806091" lon="11.90466190918499"><ele>283.0</ele><time>2026-04-24T16:57:28.999Z</time></trkpt><trkpt lat="46.02455750723451" lon="11.904634703354683"><ele>283.0</ele><time>2026-04-24T16:57:29.999Z</time></trkpt><trkpt lat="46.02466803703121" lon="11.904595226139666"><ele>283.0</ele><time>2026-04-24T16:57:30.999Z</time></trkpt><trkpt lat="46.02476360460907" lon="11.904564825173079"><ele>283.0</ele><time>2026-04-24T16:57:31.999Z</time></trkpt><trkpt lat="46.02485201663092" lon="11.904546748373772"><ele>283.0</ele><time>2026-04-24T16:57:32.999Z</time></trkpt><trkpt lat="46.02492822066306" lon="11.904527015145794"><ele>283.0</ele><time>2026-04-24T16:57:33.999Z</time></trkpt><trkpt lat="46.024999598276075" lon="11.904489920936323"><ele>283.3333333333333</ele><time>2026-04-24T16:57:34.999Z</time></trkpt><trkpt lat="46.0250756102597" lon="11.904477282167367"><ele>283.66666666666663</ele><time>2026-04-24T16:57:35.999Z</time></trkpt><trkpt lat="46.02513974098668" lon="11.904475327789026"><ele>284.0</ele><time>2026-04-24T16:57:36.999Z</time></trkpt><trkpt lat="46.02527175900962" lon="11.904532813059387"><ele>284.3333333333333</ele><time>2026-04-24T16:57:38.999Z</time></trkpt><trkpt lat="46.02533206656655" lon="11.904580414549484"><ele>284.6666666666667</ele><time>2026-04-24T16:57:39.999Z</time></trkpt><trkpt lat="46.02539583516655" lon="11.90460134458241"><ele>285.0</ele><time>2026-04-24T16:57:40.999Z</time></trkpt><trkpt lat="46.02546736650437" lon="11.904593136983559"><ele>285.0</ele><time>2026-04-24T16:57:41.999Z</time></trkpt><trkpt lat="46.02554024672555" lon="11.904561749805728"><ele>285.0</ele><time>2026-04-24T16:57:42.999Z</time></trkpt><trkpt lat="46.02562097497206" lon="11.904577893578193"><ele>285.0</ele><time>2026-04-24T16:57:43.999Z</time></trkpt><trkpt lat="46.02568072747802" lon="11.904629430651696"><ele>285.0</ele><time>2026-04-24T16:57:44.999Z</time></trkpt><trkpt lat="46.02573508175899" lon="11.904679632608765"><ele>285.0</ele><time>2026-04-24T16:57:45.999Z</time></trkpt><trkpt lat="46.02581273181173" lon="11.904741331673495"><ele>285.0</ele><time>2026-04-24T16:57:47.999Z</time></trkpt><trkpt lat="46.02590614300341" lon="11.904601246935513"><ele>284.2</ele><time>2026-04-24T16:57:49.999Z</time></trkpt><trkpt lat="46.02599709443244" lon="11.904492764610323"><ele>283.4</ele><time>2026-04-24T16:57:51.999Z</time></trkpt><trkpt lat="46.02608496147371" lon="11.904412059517904"><ele>282.6</ele><time>2026-04-24T16:57:53.999Z</time></trkpt><trkpt lat="46.02610075081606" lon="11.904304671108026"><ele>281.8</ele><time>2026-04-24T16:57:55.999Z</time></trkpt><trkpt lat="46.02604223821584" lon="11.904202912909165"><ele>281.0</ele><time>2026-04-24T16:57:57.999Z</time></trkpt><trkpt lat="46.025989227193826" lon="11.904113691507124"><ele>281.0</ele><time>2026-04-24T16:58:00.999Z</time></trkpt><trkpt lat="46.02606919374276" lon="11.903967760798313"><ele>281.0</ele><time>2026-04-24T16:58:02.999Z</time></trkpt><trkpt lat="46.02610511765644" lon="11.903859091628938"><ele>281.0</ele><time>2026-04-24T16:58:03.999Z</time></trkpt><trkpt lat="46.0261442460522" lon="11.903746162039509"><ele>281.0</ele><time>2026-04-24T16:58:04.999Z</time></trkpt><trkpt lat="46.026178279090594" lon="11.903667673547792"><ele>281.0</ele><time>2026-04-24T16:58:05.999Z</time></trkpt><trkpt lat="46.02621900852795" lon="11.903531191646213"><ele>281.0</ele><time>2026-04-24T16:58:07.999Z</time></trkpt><trkpt lat="46.02624927019348" lon="11.903441538121118"><ele>281.0</ele><time>2026-04-24T16:58:09.999Z</time></trkpt></trkseg></trk></gpx>